
Distance (Route):
Temperature : 25.3°C
Humidity : 50.3%
Pressure : 0hPa| Receiver | Frames | First received | Last received |
|---|---|---|---|
| IW2NTF | 1172 | 2026-08-30 10:05:46 | 2026-08-30 12:52:48 |
| DO3MHA-12 | 228 | 2026-08-30 11:22:23 | 2026-08-30 12:16:27 |
| DB0UT-7 | 133 | 2026-08-30 11:08:30 | 2026-08-30 12:21:08 |
| AUTORXJP | 87 | 2026-08-30 11:24:29 | 2026-08-30 12:19:23 |
| RDZBGO | 40 | 2026-08-30 11:23:36 | 2026-08-30 11:45:01 |
| OE5DXL-15 | 12 | 2026-08-30 11:44:15 | 2026-08-30 12:05:28 |
| Receiver | Date | Latitude | Longitude | Direction | Speed | Altitude | Climb | Temperature | Humidity | Pressure | Voltage | Killtimer | Uptime | BKT | XDATA |
|---|---|---|---|---|---|---|---|---|---|---|---|---|---|---|---|
| IW2NTF | 2026-08-30 12:52:48 | 44.70862 | 8.55463 | 218° | 15km/h | 585m | -4.1m/s | 25.3°C | 50.3% | 0hPa | 2.8V | 07:45:32 | 03:16:37 | 00:00:00 | |
| IW2NTF | 2026-08-30 12:52:41 | 44.70873 | 8.55476 | 214° | 13km/h | 605m | -5.3m/s | 25.3°C | 50.4% | 0hPa | 2.8V | 07:45:36 | 03:16:33 | 00:00:00 | |
| IW2NTF | 2026-08-30 12:52:41 | 44.70879 | 8.55480 | 209° | 13km/h | 614m | -4.8m/s | 25.2°C | 50.6% | 0hPa | 2.8V | 07:45:38 | 03:16:31 | 00:00:00 | |
| IW2NTF | 2026-08-30 12:52:41 | 44.70884 | 8.55484 | 212° | 11km/h | 624m | -5.5m/s | 25.1°C | 51% | 0hPa | 2.8V | 07:45:40 | 03:16:29 | 00:00:00 | |
| IW2NTF | 2026-08-30 12:52:34 | 44.70890 | 8.55488 | 204° | 16km/h | 636m | -5.8m/s | 24.8°C | 52.1% | 0hPa | 2.8V | 07:45:42 | 03:16:27 | 00:00:00 | |
| IW2NTF | 2026-08-30 12:52:34 | 44.70898 | 8.55493 | 205° | 16km/h | 647m | -5.9m/s | 24.7°C | 52.8% | 0hPa | 2.8V | 07:45:44 | 03:16:25 | 00:00:00 | |
| IW2NTF | 2026-08-30 12:52:34 | 44.70906 | 8.55499 | 205° | 18km/h | 658m | -5.8m/s | 24.5°C | 52.7% | 0hPa | 2.8V | 07:45:46 | 03:16:23 | 00:00:00 | |
| IW2NTF | 2026-08-30 12:52:29 | 44.70914 | 8.55504 | 205° | 18km/h | 669m | -5m/s | 24.4°C | 53.2% | 0hPa | 2.8V | 07:45:48 | 03:16:21 | 00:00:00 | |
| IW2NTF | 2026-08-30 12:52:29 | 44.70922 | 8.55509 | 200° | 16km/h | 679m | -5.1m/s | 24.4°C | 53.3% | 0hPa | 2.8V | 07:45:50 | 03:16:19 | 00:00:00 | |
| IW2NTF | 2026-08-30 12:52:29 | 44.70930 | 8.55513 | 200° | 15km/h | 689m | -5m/s | 24.3°C | 53.3% | 0hPa | 2.8V | 07:45:52 | 03:16:17 | 00:00:00 | |
| IW2NTF | 2026-08-30 12:52:24 | 44.70935 | 8.55517 | 211° | 13km/h | 698m | -4.5m/s | 24.2°C | 53.6% | 0hPa | 2.8V | 07:45:54 | 03:16:15 | 00:00:00 | |
| IW2NTF | 2026-08-30 12:52:24 | 44.70940 | 8.55523 | 227° | 13km/h | 707m | -4m/s | 24.1°C | 54% | 0hPa | 2.8V | 07:45:56 | 03:16:13 | 00:00:00 | |
| IW2NTF | 2026-08-30 12:52:18 | 44.70945 | 8.55530 | 231° | 15km/h | 715m | -3.9m/s | 24.1°C | 54.2% | 0hPa | 2.7V | 07:45:58 | 03:16:11 | 00:00:00 | |
| IW2NTF | 2026-08-30 12:52:18 | 44.70950 | 8.55538 | 222° | 15km/h | 724m | -5.6m/s | 23.9°C | 54.4% | 0hPa | 2.8V | 07:46:00 | 03:16:09 | 00:00:00 | |
| IW2NTF | 2026-08-30 12:52:18 | 44.70956 | 8.55545 | 217° | 16km/h | 736m | -6.5m/s | 23.8°C | 54.7% | 0hPa | 2.8V | 07:46:02 | 03:16:07 | 00:00:00 | |
| IW2NTF | 2026-08-30 12:52:13 | 44.70963 | 8.55552 | 216° | 15km/h | 748m | -6.1m/s | 23.7°C | 54.9% | 0hPa | 2.8V | 07:46:04 | 03:16:05 | 00:00:00 | |
| IW2NTF | 2026-08-30 12:52:13 | 44.70968 | 8.55559 | 229° | 13km/h | 760m | -6.4m/s | 23.6°C | 54.8% | 0hPa | 2.8V | 07:46:06 | 03:16:03 | 00:00:00 | |
| IW2NTF | 2026-08-30 12:52:13 | 44.70972 | 8.55567 | 233° | 15km/h | 772m | -6m/s | 23.6°C | 54.5% | 0hPa | 2.8V | 07:46:08 | 03:16:01 | 00:00:00 | |
| IW2NTF | 2026-08-30 12:52:08 | 44.70977 | 8.55576 | 233° | 16km/h | 784m | -5.5m/s | 23.5°C | 54.9% | 0hPa | 2.8V | 07:46:10 | 03:15:59 | 00:00:00 | |
| IW2NTF | 2026-08-30 12:52:08 | 44.70982 | 8.55585 | 240° | 15km/h | 795m | -5.7m/s | 23.3°C | 55.4% | 0hPa | 2.8V | 07:46:12 | 03:15:57 | 00:00:00 | |
| IW2NTF | 2026-08-30 12:52:03 | 44.70985 | 8.55595 | 244° | 16km/h | 805m | -5.5m/s | 23.2°C | 55.8% | 0hPa | 2.8V | 07:46:14 | 03:15:55 | 00:00:00 | |
| IW2NTF | 2026-08-30 12:52:03 | 44.70988 | 8.55605 | 251° | 15km/h | 816m | -5.5m/s | 23.1°C | 55.8% | 0hPa | 2.8V | 07:46:16 | 03:15:53 | 00:00:00 | |
| IW2NTF | 2026-08-30 12:52:03 | 44.70991 | 8.55616 | 244° | 16km/h | 826m | -4.5m/s | 23.1°C | 55.9% | 0hPa | 2.8V | 07:46:18 | 03:15:51 | 00:00:00 | |
| IW2NTF | 2026-08-30 12:51:57 | 44.70996 | 8.55627 | 237° | 18km/h | 835m | -4.7m/s | 22.9°C | 56.5% | 0hPa | 2.8V | 07:46:20 | 03:15:49 | 00:00:00 | |
| IW2NTF | 2026-08-30 12:51:57 | 44.71000 | 8.55638 | 241° | 16km/h | 845m | -4.4m/s | 22.9°C | 56.7% | 0hPa | 2.7V | 07:46:22 | 03:15:47 | 00:00:00 | |
| IW2NTF | 2026-08-30 12:51:57 | 44.71003 | 8.55647 | 254° | 13km/h | 854m | -5.2m/s | 22.8°C | 57% | 0hPa | 2.7V | 07:46:24 | 03:15:45 | 00:00:00 | |
| IW2NTF | 2026-08-30 12:51:51 | 44.71004 | 8.55655 | 265° | 13km/h | 864m | -5.9m/s | 22.7°C | 57.2% | 0hPa | 2.7V | 07:46:26 | 03:15:43 | 00:00:00 | |
| IW2NTF | 2026-08-30 12:51:51 | 44.71004 | 8.55664 | 268° | 11km/h | 877m | -6.5m/s | 22.6°C | 57.5% | 0hPa | 2.8V | 07:46:28 | 03:15:41 | 00:00:00 | |
| IW2NTF | 2026-08-30 12:51:51 | 44.71004 | 8.55672 | 262° | 13km/h | 890m | -6.4m/s | 22.4°C | 57.9% | 0hPa | 2.7V | 07:46:30 | 03:15:39 | 00:00:00 | |
| IW2NTF | 2026-08-30 12:51:45 | 44.71005 | 8.55682 | 260° | 15km/h | 902m | -6.2m/s | 22.4°C | 58.1% | 0hPa | 2.8V | 07:46:32 | 03:15:37 | 00:00:00 | |
| IW2NTF | 2026-08-30 12:51:45 | 44.71006 | 8.55692 | 268° | 13km/h | 913m | -5.6m/s | 22.3°C | 58.2% | 0hPa | 2.8V | 07:46:34 | 03:15:35 | 00:00:00 | |
| IW2NTF | 2026-08-30 12:51:45 | 44.71006 | 8.55701 | 280° | 13km/h | 924m | -5.4m/s | 22.2°C | 58.6% | 0hPa | 2.8V | 07:46:36 | 03:15:33 | 00:00:00 | |
| IW2NTF | 2026-08-30 12:51:40 | 44.71004 | 8.55710 | 281° | 13km/h | 934m | -4.6m/s | 22.1°C | 58.8% | 0hPa | 2.8V | 07:46:38 | 03:15:31 | 00:00:00 | |
| IW2NTF | 2026-08-30 12:51:35 | 44.71004 | 8.55726 | 273° | 7km/h | 950m | -3.7m/s | 22°C | 59.2% | 0hPa | 2.7V | 07:46:42 | 03:15:27 | 00:00:00 | |
| IW2NTF | 2026-08-30 12:51:35 | 44.71004 | 8.55731 | 268° | 7km/h | 958m | -5.4m/s | 22°C | 59.4% | 0hPa | 2.7V | 07:46:44 | 03:15:25 | 00:00:00 | |
| IW2NTF | 2026-08-30 12:51:35 | 44.71004 | 8.55736 | 276° | 7km/h | 970m | -5.8m/s | 21.8°C | 60% | 0hPa | 2.7V | 07:46:46 | 03:15:23 | 00:00:00 | |
| IW2NTF | 2026-08-30 12:51:30 | 44.71003 | 8.55741 | 294° | 9km/h | 981m | -5.8m/s | 21.7°C | 60.1% | 0hPa | 2.7V | 07:46:48 | 03:15:21 | 00:00:00 | |
| IW2NTF | 2026-08-30 12:51:30 | 44.71001 | 8.55748 | 293° | 13km/h | 992m | -5.4m/s | 21.5°C | 60.9% | 0hPa | 2.7V | 07:46:50 | 03:15:19 | 00:00:00 | |
| IW2NTF | 2026-08-30 12:51:24 | 44.70999 | 8.55755 | 284° | 11km/h | 1003m | -6m/s | 21.4°C | 61.4% | 0hPa | 2.7V | 07:46:52 | 03:15:17 | 00:00:00 | |
| IW2NTF | 2026-08-30 12:51:24 | 44.70999 | 8.55762 | 261° | 11km/h | 1014m | -5.5m/s | 21.3°C | 61.7% | 0hPa | 2.7V | 07:46:54 | 03:15:15 | 00:00:00 | |
| IW2NTF | 2026-08-30 12:51:24 | 44.71000 | 8.55769 | 252° | 11km/h | 1027m | -6.9m/s | 21.1°C | 62.3% | 0hPa | 2.7V | 07:46:56 | 03:15:13 | 00:00:00 | |
| IW2NTF | 2026-08-30 12:51:19 | 44.71001 | 8.55776 | 252° | 9km/h | 1040m | -6.8m/s | 21°C | 62.7% | 0hPa | 2.7V | 07:46:58 | 03:15:11 | 00:00:00 | |
| IW2NTF | 2026-08-30 12:51:19 | 44.71003 | 8.55781 | 257° | 7km/h | 1055m | -7.3m/s | 20.9°C | 62.9% | 0hPa | 2.7V | 07:47:00 | 03:15:09 | 00:00:00 | |
| IW2NTF | 2026-08-30 12:51:14 | 44.71003 | 8.55790 | 287° | 5km/h | 1080m | -6m/s | 20.7°C | 63.6% | 0hPa | 2.7V | 07:47:04 | 03:15:05 | 00:00:00 | |
| IW2NTF | 2026-08-30 12:51:14 | 44.71001 | 8.55794 | 294° | 7km/h | 1092m | -6m/s | 20.6°C | 63.8% | 0hPa | 2.7V | 07:47:06 | 03:15:03 | 00:00:00 | |
| IW2NTF | 2026-08-30 12:51:14 | 44.71000 | 8.55799 | 288° | 7km/h | 1103m | -6.2m/s | 20.5°C | 63.6% | 0hPa | 2.7V | 07:47:08 | 03:15:01 | 00:00:00 | |
| IW2NTF | 2026-08-30 12:51:08 | 44.70999 | 8.55804 | 281° | 7km/h | 1114m | -5.4m/s | 20.4°C | 64.1% | 0hPa | 2.7V | 07:47:10 | 03:14:59 | 00:00:00 | |
| IW2NTF | 2026-08-30 12:51:08 | 44.70999 | 8.55810 | 273° | 9km/h | 1125m | -4.6m/s | 20.3°C | 64.1% | 0hPa | 2.7V | 07:47:12 | 03:14:57 | 00:00:00 | |
| IW2NTF | 2026-08-30 12:51:03 | 44.70998 | 8.55816 | 265° | 7km/h | 1133m | -3.5m/s | 20.2°C | 64% | 0hPa | 2.7V | 07:47:14 | 03:14:55 | 00:00:00 | |
| IW2NTF | 2026-08-30 12:51:03 | 44.70999 | 8.55821 | 265° | 9km/h | 1140m | -4.1m/s | 20.1°C | 64.3% | 0hPa | 2.7V | 07:47:16 | 03:14:53 | 00:00:00 | |
| IW2NTF | 2026-08-30 12:51:03 | 44.70999 | 8.55828 | 274° | 9km/h | 1149m | -4.3m/s | 20°C | 64.7% | 0hPa | 2.7V | 07:47:18 | 03:14:51 | 00:00:00 | |
| IW2NTF | 2026-08-30 12:50:57 | 44.70998 | 8.55835 | 278° | 11km/h | 1157m | -4.8m/s | 19.9°C | 64.9% | 0hPa | 2.7V | 07:47:20 | 03:14:49 | 00:00:00 | |
| IW2NTF | 2026-08-30 12:50:57 | 44.70998 | 8.55841 | 274° | 9km/h | 1166m | -4.2m/s | 19.8°C | 65.4% | 0hPa | 2.7V | 07:47:22 | 03:14:47 | 00:00:00 | |
| IW2NTF | 2026-08-30 12:50:57 | 44.70998 | 8.55847 | 275° | 7km/h | 1175m | -4.7m/s | 19.7°C | 65.9% | 0hPa | 2.7V | 07:47:24 | 03:14:45 | 00:00:00 | |
| IW2NTF | 2026-08-30 12:50:51 | 44.70997 | 8.55853 | 275° | 7km/h | 1184m | -4.7m/s | 19.7°C | 67.1% | 0hPa | 2.7V | 07:47:26 | 03:14:43 | 00:00:00 | |
| IW2NTF | 2026-08-30 12:50:51 | 44.70997 | 8.55857 | 277° | 7km/h | 1193m | -4.6m/s | 19.6°C | 67.2% | 0hPa | 2.7V | 07:47:28 | 03:14:41 | 00:00:00 | |
| IW2NTF | 2026-08-30 12:50:51 | 44.70995 | 8.55863 | 295° | 9km/h | 1202m | -4.3m/s | 19.5°C | 67.4% | 0hPa | 2.7V | 07:47:30 | 03:14:39 | 00:00:00 | |
| IW2NTF | 2026-08-30 12:50:45 | 44.70993 | 8.55868 | 300° | 9km/h | 1210m | -4.3m/s | 19.4°C | 67.8% | 0hPa | 2.6V | 07:47:32 | 03:14:37 | 00:00:00 | |
| IW2NTF | 2026-08-30 12:50:45 | 44.70988 | 8.55877 | 312° | 7km/h | 1226m | -3.9m/s | 19.2°C | 68.6% | 0hPa | 2.7V | 07:47:36 | 03:14:33 | 00:00:00 | |
| IW2NTF | 2026-08-30 12:50:39 | 44.70987 | 8.55880 | 310° | 5km/h | 1234m | -3.7m/s | 19.1°C | 69% | 0hPa | 2.7V | 07:47:38 | 03:14:31 | 00:00:00 | |
| IW2NTF | 2026-08-30 12:50:39 | 44.70985 | 8.55883 | 295° | 5km/h | 1242m | -4m/s | 19.1°C | 69.3% | 0hPa | 2.7V | 07:47:40 | 03:14:29 | 00:00:00 | |
| IW2NTF | 2026-08-30 12:50:39 | 44.70984 | 8.55888 | 286° | 7km/h | 1249m | -3.6m/s | 19°C | 69.4% | 0hPa | 2.7V | 07:47:42 | 03:14:27 | 00:00:00 | |
| IW2NTF | 2026-08-30 12:50:33 | 44.70983 | 8.55892 | 281° | 7km/h | 1256m | -3.9m/s | 18.9°C | 69.9% | 0hPa | 2.7V | 07:47:44 | 03:14:25 | 00:00:00 | |
| IW2NTF | 2026-08-30 12:50:33 | 44.70982 | 8.55898 | 280° | 7km/h | 1264m | -4.3m/s | 18.8°C | 70.1% | 0hPa | 2.7V | 07:47:46 | 03:14:23 | 00:00:00 | |
| IW2NTF | 2026-08-30 12:50:27 | 44.70981 | 8.55909 | 271° | 7km/h | 1283m | -5.2m/s | 18.7°C | 70% | 0hPa | 2.7V | 07:47:50 | 03:14:19 | 00:00:00 | |
| IW2NTF | 2026-08-30 12:50:27 | 44.70980 | 8.55913 | 291° | 4km/h | 1293m | -5.2m/s | 18.6°C | 71.2% | 0hPa | 2.7V | 07:47:52 | 03:14:17 | 00:00:00 | |
| IW2NTF | 2026-08-30 12:50:27 | 44.70980 | 8.55916 | 275° | 4km/h | 1303m | -5m/s | 18.5°C | 71.2% | 0hPa | 2.7V | 07:47:54 | 03:14:15 | 00:00:00 | |
| IW2NTF | 2026-08-30 12:50:21 | 44.70980 | 8.55919 | 249° | 5km/h | 1313m | -5.8m/s | 18.4°C | 70.6% | 0hPa | 2.7V | 07:47:56 | 03:14:13 | 00:00:00 | |
| IW2NTF | 2026-08-30 12:50:21 | 44.70982 | 8.55931 | 254° | 9km/h | 1336m | -5.1m/s | 18.2°C | 68.9% | 0hPa | 2.7V | 07:48:00 | 03:14:09 | 00:00:00 | |
| IW2NTF | 2026-08-30 12:50:15 | 44.70984 | 8.55937 | 257° | 7km/h | 1346m | -5.6m/s | 18.1°C | 68% | 0hPa | 2.7V | 07:48:02 | 03:14:07 | 00:00:00 | |
| IW2NTF | 2026-08-30 12:50:15 | 44.70984 | 8.55941 | 274° | 5km/h | 1357m | -5.4m/s | 17.9°C | 71.9% | 0hPa | 2.7V | 07:48:04 | 03:14:05 | 00:00:00 | |
| IW2NTF | 2026-08-30 12:50:15 | 44.70984 | 8.55946 | 261° | 5km/h | 1367m | -5.5m/s | 17.9°C | 72.4% | 0hPa | 2.7V | 07:48:06 | 03:14:03 | 00:00:00 | |
| IW2NTF | 2026-08-30 12:50:09 | 44.70985 | 8.55950 | 251° | 5km/h | 1378m | -5.6m/s | 17.8°C | 72.6% | 0hPa | 2.7V | 07:48:08 | 03:14:01 | 00:00:00 | |
| IW2NTF | 2026-08-30 12:50:09 | 44.70986 | 8.55954 | 243° | 7km/h | 1388m | -5.2m/s | 17.7°C | 72.5% | 0hPa | 2.7V | 07:48:10 | 03:13:59 | 00:00:00 | |
| IW2NTF | 2026-08-30 12:50:09 | 44.70987 | 8.55958 | 246° | 5km/h | 1399m | -5.1m/s | 17.6°C | 72.3% | 0hPa | 2.7V | 07:48:12 | 03:13:57 | 00:00:00 | |
| IW2NTF | 2026-08-30 12:50:04 | 44.70988 | 8.55962 | 266° | 5km/h | 1409m | -5.5m/s | 17.6°C | 68% | 0hPa | 2.7V | 07:48:14 | 03:13:55 | 00:00:00 | |
| IW2NTF | 2026-08-30 12:50:04 | 44.70988 | 8.55966 | 256° | 5km/h | 1419m | -5.1m/s | 17.4°C | 72.7% | 0hPa | 2.7V | 07:48:16 | 03:13:53 | 00:00:00 | |
| IW2NTF | 2026-08-30 12:49:59 | 44.70989 | 8.55970 | 243° | 4km/h | 1429m | -5.4m/s | 17.4°C | 70.2% | 0hPa | 2.7V | 07:48:18 | 03:13:51 | 00:00:00 | |
| IW2NTF | 2026-08-30 12:49:59 | 44.70990 | 8.55973 | 244° | 4km/h | 1440m | -5.8m/s | 17.5°C | 64.7% | 0hPa | 2.7V | 07:48:20 | 03:13:49 | 00:00:00 | |
| IW2NTF | 2026-08-30 12:49:59 | 44.70991 | 8.55975 | 225° | 2km/h | 1451m | -5.7m/s | 17.4°C | 64.3% | 0hPa | 2.7V | 07:48:22 | 03:13:47 | 00:00:00 | |
| IW2NTF | 2026-08-30 12:49:53 | 44.70992 | 8.55977 | 238° | 4km/h | 1473m | -5.8m/s | 17.3°C | 64.7% | 0hPa | 2.7V | 07:48:26 | 03:13:43 | 00:00:00 | |
| IW2NTF | 2026-08-30 12:49:53 | 44.70993 | 8.55979 | 235° | 4km/h | 1483m | -4.9m/s | 17.2°C | 64.6% | 0hPa | 2.7V | 07:48:28 | 03:13:41 | 00:00:00 | |
| IW2NTF | 2026-08-30 12:49:48 | 44.70994 | 8.55982 | 250° | 4km/h | 1492m | -4.5m/s | 17.1°C | 64.7% | 0hPa | 2.7V | 07:48:30 | 03:13:39 | 00:00:00 | |
| IW2NTF | 2026-08-30 12:49:48 | 44.70994 | 8.55984 | 273° | 4km/h | 1501m | -4.6m/s | 17°C | 64.2% | 0hPa | 2.7V | 07:48:32 | 03:13:37 | 00:00:00 | |
| IW2NTF | 2026-08-30 12:49:48 | 44.70993 | 8.55987 | 307° | 4km/h | 1511m | -5m/s | 16.9°C | 65.6% | 0hPa | 2.7V | 07:48:34 | 03:13:35 | 00:00:00 | |
| IW2NTF | 2026-08-30 12:49:41 | 44.70992 | 8.55989 | 312° | 2km/h | 1521m | -5.3m/s | 17°C | 63.7% | 0hPa | 2.6V | 07:48:36 | 03:13:33 | 00:00:00 | |
| IW2NTF | 2026-08-30 12:49:41 | 44.70991 | 8.55989 | 351° | 4km/h | 1531m | -6.4m/s | 16.9°C | 62.9% | 0hPa | 2.7V | 07:48:38 | 03:13:31 | 00:00:00 | |
| IW2NTF | 2026-08-30 12:49:41 | 44.70989 | 8.55990 | 346° | 4km/h | 1544m | -6.1m/s | 16.8°C | 61.3% | 0hPa | 2.7V | 07:48:40 | 03:13:29 | 00:00:00 | |
| IW2NTF | 2026-08-30 12:49:35 | 44.70987 | 8.55991 | 348° | 4km/h | 1554m | -5.7m/s | 16.6°C | 63.4% | 0hPa | 2.7V | 07:48:42 | 03:13:27 | 00:00:00 | |
| IW2NTF | 2026-08-30 12:49:35 | 44.70985 | 8.55992 | 330° | 4km/h | 1565m | -5.5m/s | 16.4°C | 66.4% | 0hPa | 2.7V | 07:48:44 | 03:13:25 | 00:00:00 | |
| IW2NTF | 2026-08-30 12:49:35 | 44.70984 | 8.55994 | 325° | 5km/h | 1576m | -5.9m/s | 16.4°C | 64.4% | 0hPa | 2.7V | 07:48:46 | 03:13:23 | 00:00:00 | |
| IW2NTF | 2026-08-30 12:49:29 | 44.70981 | 8.55995 | 339° | 7km/h | 1587m | -5.5m/s | 16.4°C | 60.4% | 0hPa | 2.7V | 07:48:48 | 03:13:21 | 00:00:00 | |
| IW2NTF | 2026-08-30 12:49:29 | 44.70977 | 8.55997 | 349° | 9km/h | 1598m | -6.1m/s | 16.5°C | 58.3% | 0hPa | 2.7V | 07:48:50 | 03:13:19 | 00:00:00 | |
| IW2NTF | 2026-08-30 12:49:29 | 44.70973 | 8.55997 | 354° | 7km/h | 1610m | -5.9m/s | 16.8°C | 47.2% | 0hPa | 2.7V | 07:48:52 | 03:13:17 | 00:00:00 | |
| IW2NTF | 2026-08-30 12:49:24 | 44.70969 | 8.55998 | 1° | 7km/h | 1621m | -5.7m/s | 16.8°C | 46.2% | 0hPa | 2.7V | 07:48:54 | 03:13:15 | 00:00:00 | |
| IW2NTF | 2026-08-30 12:49:24 | 44.70966 | 8.55998 | 355° | 7km/h | 1632m | -5.9m/s | 16.7°C | 45.8% | 0hPa | 2.6V | 07:48:56 | 03:13:13 | 00:00:00 | |
| IW2NTF | 2026-08-30 12:49:24 | 44.70963 | 8.55999 | 338° | 7km/h | 1644m | -5.9m/s | 16.7°C | 45.5% | 0hPa | 2.7V | 07:48:58 | 03:13:11 | 00:00:00 | |
| IW2NTF | 2026-08-30 12:49:17 | 44.70959 | 8.56001 | 334° | 7km/h | 1655m | -6.1m/s | 16.7°C | 43.7% | 0hPa | 2.7V | 07:49:00 | 03:13:09 | 00:00:00 | |
| IW2NTF | 2026-08-30 12:49:17 | 44.70956 | 8.56004 | 334° | 7km/h | 1667m | -6.1m/s | 16.6°C | 43.5% | 0hPa | 2.7V | 07:49:02 | 03:13:07 | 00:00:00 | |
| IW2NTF | 2026-08-30 12:49:17 | 44.70952 | 8.56006 | 335° | 7km/h | 1679m | -6.3m/s | 16.5°C | 42.9% | 0hPa | 2.7V | 07:49:04 | 03:13:05 | 00:00:00 | |
| IW2NTF | 2026-08-30 12:49:10 | 44.70949 | 8.56008 | 336° | 7km/h | 1690m | -6.1m/s | 16.4°C | 43% | 0hPa | 2.7V | 07:49:06 | 03:13:03 | 00:00:00 | |
| IW2NTF | 2026-08-30 12:49:10 | 44.70946 | 8.56010 | 334° | 7km/h | 1703m | -6.2m/s | 16.4°C | 42.4% | 0hPa | 2.7V | 07:49:08 | 03:13:01 | 00:00:00 | |
| IW2NTF | 2026-08-30 12:49:10 | 44.70943 | 8.56013 | 335° | 7km/h | 1715m | -6.1m/s | 16.4°C | 41.1% | 0hPa | 2.7V | 07:49:10 | 03:12:59 | 00:00:00 | |
| IW2NTF | 2026-08-30 12:49:05 | 44.70938 | 8.56015 | 334° | 9km/h | 1726m | -6m/s | 16.3°C | 41.3% | 0hPa | 2.7V | 07:49:12 | 03:12:57 | 00:00:00 | |
| IW2NTF | 2026-08-30 12:49:05 | 44.70935 | 8.56018 | 326° | 7km/h | 1739m | -6.2m/s | 16.2°C | 41.6% | 0hPa | 2.6V | 07:49:14 | 03:12:55 | 00:00:00 | |
| IW2NTF | 2026-08-30 12:49:05 | 44.70932 | 8.56021 | 325° | 7km/h | 1751m | -6.2m/s | 16.1°C | 41.9% | 0hPa | 2.7V | 07:49:16 | 03:12:53 | 00:00:00 | |
| IW2NTF | 2026-08-30 12:48:59 | 44.70929 | 8.56024 | 326° | 7km/h | 1763m | -6.3m/s | 16.1°C | 40.6% | 0hPa | 2.7V | 07:49:18 | 03:12:51 | 00:00:00 | |
| IW2NTF | 2026-08-30 12:48:59 | 44.70926 | 8.56027 | 332° | 7km/h | 1775m | -6.1m/s | 16°C | 37.9% | 0hPa | 2.7V | 07:49:20 | 03:12:49 | 00:00:00 | |
| IW2NTF | 2026-08-30 12:48:59 | 44.70922 | 8.56029 | 317° | 7km/h | 1787m | -6.2m/s | 15.9°C | 38% | 0hPa | 2.7V | 07:49:22 | 03:12:47 | 00:00:00 | |
| IW2NTF | 2026-08-30 12:48:53 | 44.70919 | 8.56033 | 321° | 7km/h | 1799m | -6.2m/s | 15.9°C | 37.7% | 0hPa | 2.7V | 07:49:24 | 03:12:45 | 00:00:00 | |
| IW2NTF | 2026-08-30 12:48:53 | 44.70916 | 8.56036 | 329° | 7km/h | 1811m | -6.1m/s | 15.8°C | 38.5% | 0hPa | 2.7V | 07:49:26 | 03:12:43 | 00:00:00 | |
| IW2NTF | 2026-08-30 12:48:53 | 44.70913 | 8.56039 | 333° | 7km/h | 1823m | -6.2m/s | 15.7°C | 38.5% | 0hPa | 2.7V | 07:49:28 | 03:12:41 | 00:00:00 | |
| IW2NTF | 2026-08-30 12:48:47 | 44.70910 | 8.56041 | 332° | 7km/h | 1835m | -5.9m/s | 15.6°C | 37.3% | 0hPa | 2.7V | 07:49:30 | 03:12:39 | 00:00:00 | |
| IW2NTF | 2026-08-30 12:48:47 | 44.70906 | 8.56043 | 333° | 7km/h | 1847m | -6.2m/s | 15.5°C | 36.7% | 0hPa | 2.7V | 07:49:32 | 03:12:37 | 00:00:00 | |
| IW2NTF | 2026-08-30 12:48:47 | 44.70902 | 8.56046 | 332° | 7km/h | 1858m | -6m/s | 15.5°C | 35.3% | 0hPa | 2.7V | 07:49:34 | 03:12:35 | 00:00:00 | |
| IW2NTF | 2026-08-30 12:48:41 | 44.70899 | 8.56049 | 322° | 9km/h | 1870m | -5.6m/s | 15.4°C | 35% | 0hPa | 2.7V | 07:49:36 | 03:12:33 | 00:00:00 | |
| IW2NTF | 2026-08-30 12:48:41 | 44.70895 | 8.56053 | 328° | 9km/h | 1881m | -6.1m/s | 15.3°C | 34.8% | 0hPa | 2.7V | 07:49:38 | 03:12:31 | 00:00:00 | |
| IW2NTF | 2026-08-30 12:48:41 | 44.70891 | 8.56057 | 324° | 11km/h | 1893m | -6m/s | 15.2°C | 34.2% | 0hPa | 2.7V | 07:49:40 | 03:12:29 | 00:00:00 | |
| IW2NTF | 2026-08-30 12:48:35 | 44.70887 | 8.56061 | 321° | 9km/h | 1905m | -6m/s | 15.1°C | 33.6% | 0hPa | 2.7V | 07:49:42 | 03:12:27 | 00:00:00 | |
| IW2NTF | 2026-08-30 12:48:35 | 44.70883 | 8.56066 | 320° | 9km/h | 1916m | -6m/s | 15.1°C | 34% | 0hPa | 2.6V | 07:49:44 | 03:12:25 | 00:00:00 | |
| IW2NTF | 2026-08-30 12:48:35 | 44.70879 | 8.56071 | 312° | 9km/h | 1928m | -6.4m/s | 15°C | 32.9% | 0hPa | 2.7V | 07:49:46 | 03:12:23 | 00:00:00 | |
| IW2NTF | 2026-08-30 12:48:30 | 44.70876 | 8.56075 | 313° | 7km/h | 1940m | -6.2m/s | 14.9°C | 33.2% | 0hPa | 2.7V | 07:49:48 | 03:12:21 | 00:00:00 | |
| IW2NTF | 2026-08-30 12:48:30 | 44.70872 | 8.56080 | 314° | 9km/h | 1952m | -6.3m/s | 14.8°C | 32.9% | 0hPa | 2.7V | 07:49:50 | 03:12:19 | 00:00:00 | |
| IW2NTF | 2026-08-30 12:48:25 | 44.70869 | 8.56084 | 315° | 9km/h | 1964m | -6m/s | 14.8°C | 29.9% | 0hPa | 2.7V | 07:49:52 | 03:12:17 | 00:00:00 | |
| IW2NTF | 2026-08-30 12:48:25 | 44.70866 | 8.56089 | 317° | 7km/h | 1976m | -6.1m/s | 14.8°C | 29.2% | 0hPa | 2.7V | 07:49:54 | 03:12:15 | 00:00:00 | |
| IW2NTF | 2026-08-30 12:48:25 | 44.70863 | 8.56092 | 315° | 7km/h | 1988m | -5.9m/s | 14.8°C | 31% | 0hPa | 2.7V | 07:49:56 | 03:12:13 | 00:00:00 | |
| IW2NTF | 2026-08-30 12:48:20 | 44.70861 | 8.56096 | 317° | 7km/h | 2000m | -6.1m/s | 14.7°C | 32.7% | 0hPa | 2.7V | 07:49:58 | 03:12:11 | 00:00:00 | |
| IW2NTF | 2026-08-30 12:48:20 | 44.70858 | 8.56100 | 309° | 5km/h | 2012m | -6m/s | 14.5°C | 37.3% | 0hPa | 2.7V | 07:50:00 | 03:12:09 | 00:00:00 | |
| IW2NTF | 2026-08-30 12:48:15 | 44.70854 | 8.56106 | 317° | 2km/h | 2048m | -6.3m/s | 14°C | 50.4% | 0hPa | 2.7V | 07:50:06 | 03:12:03 | 00:00:00 | |
| IW2NTF | 2026-08-30 12:48:09 | 44.70852 | 8.56106 | 355° | 2km/h | 2084m | -5.8m/s | 13.7°C | 56.2% | 0hPa | 2.7V | 07:50:12 | 03:11:57 | 00:00:00 | |
| IW2NTF | 2026-08-30 12:48:03 | 44.70848 | 8.56105 | 39° | 4km/h | 2119m | -6.1m/s | 14°C | 44% | 0hPa | 2.7V | 07:50:18 | 03:11:51 | 00:00:00 | |
| IW2NTF | 2026-08-30 12:47:56 | 44.70844 | 8.56097 | 51° | 5km/h | 2156m | -6.2m/s | 14°C | 38.3% | 0hPa | 2.7V | 07:50:24 | 03:11:45 | 00:00:00 | |
| IW2NTF | 2026-08-30 12:47:51 | 44.70837 | 8.56089 | 46° | 5km/h | 2192m | -6.1m/s | 14.1°C | 37.4% | 0hPa | 2.7V | 07:50:30 | 03:11:39 | 00:00:00 | |
| IW2NTF | 2026-08-30 12:47:45 | 44.70829 | 8.56078 | 46° | 9km/h | 2227m | -6.4m/s | 14°C | 34.9% | 0hPa | 2.7V | 07:50:36 | 03:11:33 | 00:00:00 | |
| IW2NTF | 2026-08-30 12:47:38 | 44.70819 | 8.56064 | 41° | 9km/h | 2263m | -6m/s | 13.8°C | 33.4% | 0hPa | 2.7V | 07:50:42 | 03:11:27 | 00:00:00 | |
| IW2NTF | 2026-08-30 12:47:33 | 44.70808 | 8.56050 | 43° | 11km/h | 2299m | -6.2m/s | 13.4°C | 34.1% | 0hPa | 2.7V | 07:50:48 | 03:11:21 | 00:00:00 | |
| IW2NTF | 2026-08-30 12:47:26 | 44.70795 | 8.56035 | 36° | 11km/h | 2335m | -5.9m/s | 13.2°C | 33.9% | 0hPa | 2.6V | 07:50:54 | 03:11:15 | 00:00:00 | |
| IW2NTF | 2026-08-30 12:47:21 | 44.70781 | 8.56020 | 37° | 11km/h | 2370m | -6.3m/s | 12.9°C | 33% | 0hPa | 2.7V | 07:51:00 | 03:11:09 | 00:00:00 | |
| IW2NTF | 2026-08-30 12:47:15 | 44.70767 | 8.56007 | 33° | 13km/h | 2406m | -6.1m/s | 12.8°C | 32.1% | 0hPa | 2.7V | 07:51:06 | 03:11:03 | 00:00:00 | |
| IW2NTF | 2026-08-30 12:47:08 | 44.70751 | 8.55990 | 40° | 13km/h | 2441m | -6m/s | 12.5°C | 32.1% | 0hPa | 2.7V | 07:51:12 | 03:10:57 | 00:00:00 | |
| IW2NTF | 2026-08-30 12:47:03 | 44.70737 | 8.55972 | 41° | 15km/h | 2477m | -5.7m/s | 12.3°C | 31.5% | 0hPa | 2.7V | 07:51:18 | 03:10:51 | 00:00:00 | |
| IW2NTF | 2026-08-30 12:46:57 | 44.70721 | 8.55950 | 51° | 15km/h | 2513m | -6.4m/s | 12.1°C | 29.8% | 0hPa | 2.7V | 07:51:24 | 03:10:45 | 00:00:00 | |
| IW2NTF | 2026-08-30 12:46:51 | 44.70709 | 8.55924 | 60° | 16km/h | 2550m | -6.4m/s | 11.7°C | 39.2% | 0hPa | 2.7V | 07:51:30 | 03:10:39 | 00:00:00 | |
| IW2NTF | 2026-08-30 12:46:46 | 44.70697 | 8.55892 | 70° | 18km/h | 2586m | -6.1m/s | 11.7°C | 31.2% | 0hPa | 2.7V | 07:51:36 | 03:10:33 | 00:00:00 | |
| IW2NTF | 2026-08-30 12:46:39 | 44.70688 | 8.55854 | 73° | 18km/h | 2623m | -6.8m/s | 11.5°C | 32.8% | 0hPa | 2.7V | 07:51:42 | 03:10:27 | 00:00:00 | |
| IW2NTF | 2026-08-30 12:46:33 | 44.70682 | 8.55816 | 79° | 18km/h | 2661m | -6.3m/s | 11.3°C | 34.3% | 0hPa | 2.7V | 07:51:48 | 03:10:21 | 00:00:00 | |
| IW2NTF | 2026-08-30 12:46:27 | 44.70676 | 8.55778 | 78° | 18km/h | 2697m | -6.3m/s | 11.2°C | 36.4% | 0hPa | 2.7V | 07:51:54 | 03:10:15 | 00:00:00 | |
| IW2NTF | 2026-08-30 12:46:21 | 44.70670 | 8.55739 | 81° | 20km/h | 2734m | -6.4m/s | 10.9°C | 38.6% | 0hPa | 2.7V | 07:52:00 | 03:10:09 | 00:00:00 | |
| IW2NTF | 2026-08-30 12:46:15 | 44.70667 | 8.55696 | 86° | 22km/h | 2772m | -6.8m/s | 10.6°C | 40.8% | 0hPa | 2.7V | 07:52:06 | 03:10:03 | 00:00:00 | |
| IW2NTF | 2026-08-30 12:46:09 | 44.70663 | 8.55647 | 83° | 24km/h | 2809m | -6.6m/s | 10.3°C | 42.5% | 0hPa | 2.7V | 07:52:12 | 03:09:57 | 00:00:00 | |
| IW2NTF | 2026-08-30 12:46:03 | 44.70661 | 8.55596 | 86° | 24km/h | 2847m | -6.5m/s | 10°C | 44.5% | 0hPa | 2.7V | 07:52:18 | 03:09:51 | 00:00:00 | |
| IW2NTF | 2026-08-30 12:45:57 | 44.70658 | 8.55545 | 85° | 24km/h | 2885m | -6.3m/s | 9.8°C | 46.3% | 0hPa | 2.7V | 07:52:24 | 03:09:45 | 00:00:00 | |
| IW2NTF | 2026-08-30 12:45:51 | 44.70654 | 8.55492 | 81° | 26km/h | 2922m | -6.3m/s | 9.6°C | 45.7% | 0hPa | 2.7V | 07:52:30 | 03:09:39 | 00:00:00 | |
| IW2NTF | 2026-08-30 12:45:44 | 44.70649 | 8.55442 | 81° | 24km/h | 2960m | -6.5m/s | 9.4°C | 45% | 0hPa | 2.6V | 07:52:36 | 03:09:33 | 00:00:00 | |
| IW2NTF | 2026-08-30 12:45:39 | 44.70643 | 8.55393 | 77° | 24km/h | 2997m | -6.5m/s | 9.2°C | 45.1% | 0hPa | 2.7V | 07:52:42 | 03:09:27 | 00:00:00 | |
| IW2NTF | 2026-08-30 12:45:32 | 44.70635 | 8.55346 | 77° | 22km/h | 3033m | -5.9m/s | 9°C | 47% | 0hPa | 2.7V | 07:52:48 | 03:09:21 | 00:00:00 | |
| IW2NTF | 2026-08-30 12:45:27 | 44.70626 | 8.55301 | 70° | 22km/h | 3069m | -6.4m/s | 8.7°C | 46.9% | 0hPa | 2.7V | 07:52:54 | 03:09:15 | 00:00:00 | |
| IW2NTF | 2026-08-30 12:45:21 | 44.70614 | 8.55256 | 69° | 22km/h | 3106m | -6.3m/s | 8.5°C | 47.9% | 0hPa | 2.7V | 07:53:00 | 03:09:09 | 00:00:00 | |
| IW2NTF | 2026-08-30 12:45:14 | 44.70602 | 8.55212 | 65° | 22km/h | 3144m | -6.2m/s | 8.2°C | 49.1% | 0hPa | 2.7V | 07:53:06 | 03:09:03 | 00:00:00 | |
| IW2NTF | 2026-08-30 12:45:09 | 44.70587 | 8.55171 | 63° | 22km/h | 3182m | -6.2m/s | 8°C | 49% | 0hPa | 2.7V | 07:53:12 | 03:08:57 | 00:00:00 | |
| IW2NTF | 2026-08-30 12:45:00 | 44.70572 | 8.55127 | 64° | 24km/h | 3219m | -6.3m/s | 7.7°C | 48.7% | 0hPa | 2.7V | 07:53:18 | 03:08:51 | 00:00:00 | |
| IW2NTF | 2026-08-30 12:44:55 | 44.70552 | 8.55068 | 63° | 24km/h | 3267m | -6.9m/s | 7.4°C | 48.4% | 0hPa | 2.7V | 07:53:26 | 03:08:43 | 00:00:00 | |
| IW2NTF | 2026-08-30 12:44:49 | 44.70537 | 8.55023 | 64° | 22km/h | 3305m | -6.6m/s | 7.2°C | 47.8% | 0hPa | 2.7V | 07:53:32 | 03:08:37 | 00:00:00 | |
| IW2NTF | 2026-08-30 12:44:43 | 44.70523 | 8.54981 | 66° | 22km/h | 3343m | -6.6m/s | 6.9°C | 48.4% | 0hPa | 2.7V | 07:53:38 | 03:08:31 | 00:00:00 | |
| IW2NTF | 2026-08-30 12:44:38 | 44.70510 | 8.54937 | 66° | 22km/h | 3381m | -6.4m/s | 6.5°C | 49.1% | 0hPa | 2.7V | 07:53:44 | 03:08:25 | 00:00:00 | |
| IW2NTF | 2026-08-30 12:44:30 | 44.70498 | 8.54894 | 68° | 22km/h | 3419m | -6.2m/s | 6.2°C | 49.4% | 0hPa | 2.7V | 07:53:50 | 03:08:19 | 00:00:00 | |
| IW2NTF | 2026-08-30 12:44:25 | 44.70487 | 8.54851 | 68° | 22km/h | 3457m | -6.8m/s | 5.8°C | 50.3% | 0hPa | 2.7V | 07:53:56 | 03:08:13 | 00:00:00 | |
| IW2NTF | 2026-08-30 12:44:19 | 44.70475 | 8.54806 | 67° | 24km/h | 3494m | -6.3m/s | 5.5°C | 50.9% | 0hPa | 2.6V | 07:54:02 | 03:08:07 | 00:00:00 | |
| IW2NTF | 2026-08-30 12:44:14 | 44.70462 | 8.54758 | 67° | 24km/h | 3532m | -6.6m/s | 5.2°C | 50.9% | 0hPa | 2.7V | 07:54:08 | 03:08:01 | 00:00:00 | |
| IW2NTF | 2026-08-30 12:44:05 | 44.70450 | 8.54710 | 71° | 24km/h | 3572m | -6.7m/s | 4.8°C | 51.9% | 0hPa | 2.6V | 07:54:14 | 03:07:55 | 00:00:00 | |
| IW2NTF | 2026-08-30 12:43:59 | 44.70439 | 8.54662 | 71° | 24km/h | 3611m | -6.3m/s | 4.5°C | 50.5% | 0hPa | 2.6V | 07:54:20 | 03:07:49 | 00:00:00 | |
| IW2NTF | 2026-08-30 12:43:54 | 44.70428 | 8.54615 | 73° | 24km/h | 3649m | -6.5m/s | 4.3°C | 47.7% | 0hPa | 2.7V | 07:54:26 | 03:07:43 | 00:00:00 | |
| IW2NTF | 2026-08-30 12:43:48 | 44.70417 | 8.54569 | 70° | 22km/h | 3687m | -6.5m/s | 3.9°C | 47.1% | 0hPa | 2.7V | 07:54:32 | 03:07:37 | 00:00:00 | |
| IW2NTF | 2026-08-30 12:43:43 | 44.70406 | 8.54523 | 67° | 22km/h | 3726m | -6.3m/s | 3.6°C | 47.8% | 0hPa | 2.7V | 07:54:38 | 03:07:31 | 00:00:00 | |
| IW2NTF | 2026-08-30 12:43:37 | 44.70391 | 8.54478 | 65° | 24km/h | 3765m | -7m/s | 3.3°C | 48.2% | 0hPa | 2.7V | 07:54:44 | 03:07:25 | 00:00:00 | |
| IW2NTF | 2026-08-30 12:43:31 | 44.70376 | 8.54432 | 65° | 24km/h | 3804m | -6.7m/s | 3°C | 48.5% | 0hPa | 2.6V | 07:54:50 | 03:07:19 | 00:00:00 | |
| IW2NTF | 2026-08-30 12:43:25 | 44.70361 | 8.54389 | 59° | 22km/h | 3844m | -6.8m/s | 2.6°C | 51.9% | 0hPa | 2.7V | 07:54:56 | 03:07:13 | 00:00:00 | |
| IW2NTF | 2026-08-30 12:43:20 | 44.70344 | 8.54352 | 56° | 20km/h | 3883m | -6.2m/s | 2.4°C | 54.6% | 0hPa | 2.7V | 07:55:02 | 03:07:07 | 00:00:00 | |
| IW2NTF | 2026-08-30 12:43:13 | 44.70328 | 8.54319 | 54° | 16km/h | 3922m | -6.4m/s | 2.2°C | 53.4% | 0hPa | 2.7V | 07:55:08 | 03:07:01 | 00:00:00 | |
| IW2NTF | 2026-08-30 12:43:07 | 44.70314 | 8.54292 | 55° | 16km/h | 3960m | -6.6m/s | 2°C | 54.1% | 0hPa | 2.7V | 07:55:14 | 03:06:55 | 00:00:00 | |
| IW2NTF | 2026-08-30 12:43:01 | 44.70301 | 8.54264 | 58° | 15km/h | 3999m | -6.9m/s | 1.9°C | 53.7% | 0hPa | 2.7V | 07:55:20 | 03:06:49 | 00:00:00 | |
| IW2NTF | 2026-08-30 12:42:56 | 44.70291 | 8.54237 | 60° | 15km/h | 4038m | -6.3m/s | 1.6°C | 47.9% | 0hPa | 2.7V | 07:55:26 | 03:06:43 | 00:00:00 | |
| IW2NTF | 2026-08-30 12:42:49 | 44.70280 | 8.54211 | 59° | 15km/h | 4077m | -6.5m/s | 1.3°C | 58.2% | 0hPa | 2.7V | 07:55:32 | 03:06:37 | 00:00:00 | |
| IW2NTF | 2026-08-30 12:42:43 | 44.70269 | 8.54183 | 63° | 16km/h | 4115m | -6.5m/s | 1°C | 57.7% | 0hPa | 2.7V | 07:55:38 | 03:06:31 | 00:00:00 | |
| IW2NTF | 2026-08-30 12:42:38 | 44.70259 | 8.54150 | 67° | 18km/h | 4154m | -6.6m/s | 0.8°C | 50.4% | 0hPa | 2.7V | 07:55:44 | 03:06:25 | 00:00:00 | |
| IW2NTF | 2026-08-30 12:42:31 | 44.70250 | 8.54112 | 76° | 20km/h | 4193m | -6.5m/s | 0.6°C | 44.1% | 0hPa | 2.7V | 07:55:50 | 03:06:19 | 00:00:00 | |
| IW2NTF | 2026-08-30 12:42:26 | 44.70245 | 8.54069 | 85° | 20km/h | 4232m | -6.6m/s | 0.5°C | 42% | 0hPa | 2.7V | 07:55:56 | 03:06:13 | 00:00:00 | |
| IW2NTF | 2026-08-30 12:42:20 | 44.70242 | 8.54023 | 81° | 22km/h | 4271m | -7m/s | 0.2°C | 41.3% | 0hPa | 2.7V | 07:56:02 | 03:06:07 | 00:00:00 | |
| IW2NTF | 2026-08-30 12:42:12 | 44.70241 | 8.53974 | 91° | 24km/h | 4311m | -6.5m/s | 0°C | 40.8% | 0hPa | 2.7V | 07:56:08 | 03:06:01 | 00:00:00 | |
| IW2NTF | 2026-08-30 12:42:07 | 44.70243 | 8.53921 | 91° | 26km/h | 4351m | -7.3m/s | 0.3°C | 22.9% | 0hPa | 2.7V | 07:56:14 | 03:05:55 | 00:00:00 | |
| IW2NTF | 2026-08-30 12:42:02 | 44.70244 | 8.53864 | 91° | 27km/h | 4392m | -6.5m/s | 0.2°C | 9.9% | 0hPa | 2.7V | 07:56:20 | 03:05:49 | 00:00:00 | |
| IW2NTF | 2026-08-30 12:41:55 | 44.70243 | 8.53804 | 87° | 27km/h | 4433m | -7m/s | 0.1°C | 9.7% | 0hPa | 2.7V | 07:56:26 | 03:05:43 | 00:00:00 | |
| IW2NTF | 2026-08-30 12:41:50 | 44.70241 | 8.53745 | 84° | 27km/h | 4474m | -6.5m/s | -0.2°C | 10% | 0hPa | 2.7V | 07:56:32 | 03:05:37 | 00:00:00 | |
| IW2NTF | 2026-08-30 12:41:44 | 44.70237 | 8.53686 | 80° | 27km/h | 4515m | -7.1m/s | -0.5°C | 9.9% | 0hPa | 2.7V | 07:56:38 | 03:05:31 | 00:00:00 | |
| IW2NTF | 2026-08-30 12:41:38 | 44.70232 | 8.53628 | 81° | 27km/h | 4555m | -7m/s | -0.8°C | 10.1% | 0hPa | 2.6V | 07:56:44 | 03:05:25 | 00:00:00 | |
| IW2NTF | 2026-08-30 12:41:32 | 44.70224 | 8.53575 | 73° | 26km/h | 4596m | -7m/s | -1.2°C | 10.5% | 0hPa | 2.7V | 07:56:50 | 03:05:19 | 00:00:00 | |
| IW2NTF | 2026-08-30 12:41:26 | 44.70214 | 8.53525 | 76° | 24km/h | 4638m | -6.8m/s | -1.5°C | 11.6% | 0hPa | 2.7V | 07:56:56 | 03:05:13 | 00:00:00 | |
| IW2NTF | 2026-08-30 12:41:20 | 44.70205 | 8.53474 | 76° | 26km/h | 4678m | -6.6m/s | -1.8°C | 18.3% | 0hPa | 2.7V | 07:57:02 | 03:05:07 | 00:00:00 | |
| IW2NTF | 2026-08-30 12:41:14 | 44.70193 | 8.53420 | 71° | 27km/h | 4719m | -6.8m/s | -2°C | 16.2% | 0hPa | 2.5V | 07:57:08 | 03:05:01 | 00:00:00 | |
| IW2NTF | 2026-08-30 12:41:08 | 44.70181 | 8.53361 | 74° | 27km/h | 4759m | -6.3m/s | -2.1°C | 11.1% | 0hPa | 2.7V | 07:57:14 | 03:04:55 | 00:00:00 | |
| IW2NTF | 2026-08-30 12:41:02 | 44.70168 | 8.53302 | 71° | 29km/h | 4799m | -6.7m/s | -2.4°C | 11.2% | 0hPa | 2.7V | 07:57:20 | 03:04:49 | 00:00:00 | |
| IW2NTF | 2026-08-30 12:40:55 | 44.70152 | 8.53238 | 71° | 31km/h | 4838m | -6.4m/s | -2.6°C | 11% | 0hPa | 2.7V | 07:57:26 | 03:04:43 | 00:00:00 | |
| IW2NTF | 2026-08-30 12:40:50 | 44.70137 | 8.53172 | 76° | 33km/h | 4876m | -6.5m/s | -2.9°C | 11% | 0hPa | 2.5V | 07:57:32 | 03:04:37 | 00:00:00 | |
| IW2NTF | 2026-08-30 12:40:45 | 44.70123 | 8.53106 | 73° | 33km/h | 4916m | -7.3m/s | -3.2°C | 10.9% | 0hPa | 2.5V | 07:57:38 | 03:04:31 | 00:00:00 | |
| IW2NTF | 2026-08-30 12:40:39 | 44.70113 | 8.53062 | 74° | 33km/h | 4944m | -6.9m/s | -3.4°C | 10.6% | 0hPa | 2.7V | 07:57:42 | 03:04:27 | 00:00:00 | |
| IW2NTF | 2026-08-30 12:40:29 | 44.70094 | 8.52972 | 73° | 31km/h | 4998m | -6.2m/s | -3.7°C | 10.3% | 0hPa | 2.7V | 07:57:50 | 03:04:19 | 00:00:00 | |
| IW2NTF | 2026-08-30 12:40:19 | 44.70071 | 8.52859 | 71° | 33km/h | 5065m | -6.6m/s | -4.1°C | 10% | 0hPa | 2.6V | 07:58:00 | 03:04:09 | 00:00:00 | |
| IW2NTF | 2026-08-30 12:40:07 | 44.70040 | 8.52748 | 67° | 33km/h | 5132m | -6.9m/s | -4.4°C | 9.9% | 0hPa | 2.7V | 07:58:10 | 03:03:59 | 00:00:00 | |
| IW2NTF | 2026-08-30 12:40:02 | 44.70010 | 8.52652 | 64° | 26km/h | 5200m | -6.6m/s | -4.8°C | 10% | 0hPa | 2.6V | 07:58:20 | 03:03:49 | 00:00:00 | |
| IW2NTF | 2026-08-30 12:39:52 | 44.69978 | 8.52566 | 61° | 27km/h | 5265m | -6.6m/s | -5°C | 9.6% | 0hPa | 2.5V | 07:58:30 | 03:03:39 | 00:00:00 | |
| IW2NTF | 2026-08-30 12:39:41 | 44.69943 | 8.52480 | 59° | 29km/h | 5332m | -6.8m/s | -5.2°C | 8.7% | 0hPa | 2.6V | 07:58:40 | 03:03:29 | 00:00:00 | |
| IW2NTF | 2026-08-30 12:39:32 | 44.69909 | 8.52386 | 64° | 31km/h | 5398m | -6.5m/s | -5.7°C | 8.6% | 0hPa | 2.5V | 07:58:50 | 03:03:19 | 00:00:00 | |
| IW2NTF | 2026-08-30 12:39:19 | 44.69880 | 8.52272 | 73° | 37km/h | 5464m | -6.6m/s | -5.7°C | 7.6% | 0hPa | 2.6V | 07:59:00 | 03:03:09 | 00:00:00 | |
| IW2NTF | 2026-08-30 12:39:09 | 44.69853 | 8.52140 | 78° | 42km/h | 5531m | -7m/s | -6°C | 9.6% | 0hPa | 2.5V | 07:59:10 | 03:02:59 | 00:00:00 | |
| IW2NTF | 2026-08-30 12:39:02 | 44.69826 | 8.51998 | 78° | 42km/h | 5597m | -6.5m/s | -6.3°C | 10.7% | 0hPa | 2.6V | 07:59:20 | 03:02:49 | 00:00:00 | |
| IW2NTF | 2026-08-30 12:38:50 | 44.69797 | 8.51848 | 71° | 44km/h | 5663m | -6.6m/s | -6.8°C | 11.8% | 0hPa | 2.5V | 07:59:30 | 03:02:39 | 00:00:00 | |
| IW2NTF | 2026-08-30 12:38:40 | 44.69762 | 8.51701 | 72° | 42km/h | 5731m | -6.5m/s | -6.8°C | 9.3% | 0hPa | 2.6V | 07:59:40 | 03:02:29 | 00:00:00 | |
| IW2NTF | 2026-08-30 12:38:30 | 44.69731 | 8.51559 | 71° | 40km/h | 5800m | -6.9m/s | -7.2°C | 28.2% | 0hPa | 2.6V | 07:59:50 | 03:02:19 | 00:00:00 | |
| IW2NTF | 2026-08-30 12:38:19 | 44.69701 | 8.51424 | 75° | 38km/h | 5867m | -6.5m/s | -7.5°C | 23% | 0hPa | 2.6V | 08:00:00 | 03:02:09 | 00:00:00 | |
| IW2NTF | 2026-08-30 12:38:08 | 44.69675 | 8.51293 | 74° | 38km/h | 5936m | -7m/s | -7.9°C | 44% | 0hPa | 2.6V | 08:00:10 | 03:01:59 | 00:00:00 | |
| IW2NTF | 2026-08-30 12:37:58 | 44.69640 | 8.51136 | 70° | 37km/h | 6020m | -6.7m/s | -8.5°C | 39% | 0hPa | 2.6V | 08:00:22 | 03:01:47 | 00:00:00 | |
| IW2NTF | 2026-08-30 12:37:47 | 44.69607 | 8.51005 | 69° | 40km/h | 6090m | -7.2m/s | -9.2°C | 47.9% | 0hPa | 2.5V | 08:00:32 | 03:01:37 | 00:00:00 | |
| IW2NTF | 2026-08-30 12:37:36 | 44.69577 | 8.50872 | 73° | 40km/h | 6161m | -6.9m/s | -9.9°C | 49.6% | 0hPa | 2.6V | 08:00:42 | 03:01:27 | 00:00:00 | |
| IW2NTF | 2026-08-30 12:37:25 | 44.69546 | 8.50741 | 75° | 40km/h | 6232m | -7.5m/s | -10.4°C | 38.8% | 0hPa | 2.6V | 08:00:52 | 03:01:17 | 00:00:00 | |
| IW2NTF | 2026-08-30 12:37:20 | 44.69519 | 8.50605 | 74° | 40km/h | 6305m | -7.3m/s | -11°C | 44.2% | 0hPa | 2.6V | 08:01:02 | 03:01:07 | 00:00:00 | |
| IW2NTF | 2026-08-30 12:37:09 | 44.69494 | 8.50470 | 77° | 40km/h | 6377m | -7.5m/s | -11.7°C | 43.2% | 0hPa | 2.5V | 08:01:12 | 03:00:57 | 00:00:00 | |
| IW2NTF | 2026-08-30 12:37:00 | 44.69470 | 8.50333 | 72° | 40km/h | 6452m | -7.5m/s | -12.3°C | 47.2% | 0hPa | 2.6V | 08:01:22 | 03:00:47 | 00:00:00 | |
| IW2NTF | 2026-08-30 12:36:50 | 44.69445 | 8.50198 | 77° | 38km/h | 6526m | -6.8m/s | -12.9°C | 53.5% | 0hPa | 2.6V | 08:01:32 | 03:00:37 | 00:00:00 | |
| IW2NTF | 2026-08-30 12:36:40 | 44.69419 | 8.50057 | 78° | 42km/h | 6601m | -7.4m/s | -13.5°C | 50.5% | 0hPa | 2.6V | 08:01:42 | 03:00:27 | 00:00:00 | |
| IW2NTF | 2026-08-30 12:36:30 | 44.69394 | 8.49909 | 78° | 44km/h | 6676m | -7.1m/s | -13.9°C | 48.9% | 0hPa | 2.6V | 08:01:52 | 03:00:17 | 00:00:00 | |
| IW2NTF | 2026-08-30 12:36:19 | 44.69368 | 8.49758 | 77° | 46km/h | 6751m | -7.4m/s | -14.1°C | 31.4% | 0hPa | 2.5V | 08:02:02 | 03:00:07 | 00:00:00 | |
| IW2NTF | 2026-08-30 12:36:09 | 44.69345 | 8.49603 | 76° | 46km/h | 6826m | -7.3m/s | -14.2°C | 24.4% | 0hPa | 2.6V | 08:02:12 | 02:59:57 | 00:00:00 | |
| IW2NTF | 2026-08-30 12:35:58 | 44.69318 | 8.49448 | 80° | 47km/h | 6903m | -7.6m/s | -14.8°C | 31.8% | 0hPa | 2.5V | 08:02:22 | 02:59:47 | 00:00:00 | |
| IW2NTF | 2026-08-30 12:35:38 | 44.69269 | 8.49143 | 76° | 46km/h | 7044m | -7.4m/s | -15.8°C | 27.5% | 0hPa | 2.6V | 08:02:41 | 02:59:28 | 00:00:00 | |
| IW2NTF | 2026-08-30 12:35:10 | 44.69178 | 8.48718 | 68° | 44km/h | 7256m | -7.6m/s | -17.3°C | 18.6% | 0hPa | 2.6V | 08:03:09 | 02:59:00 | 00:00:00 | |
| IW2NTF | 2026-08-30 12:35:02 | 44.69134 | 8.48567 | 68° | 46km/h | 7337m | -7.8m/s | -17.8°C | 36.2% | 0hPa | 2.6V | 08:03:19 | 02:58:50 | 00:00:00 | |
| IW2NTF | 2026-08-30 12:34:50 | 44.69092 | 8.48421 | 70° | 46km/h | 7414m | -7.8m/s | -18.4°C | 38.8% | 0hPa | 2.6V | 08:03:29 | 02:58:40 | 00:00:00 | |
| IW2NTF | 2026-08-30 12:34:43 | 44.69057 | 8.48272 | 74° | 44km/h | 7492m | -8.2m/s | -19.2°C | 43.8% | 0hPa | 2.6V | 08:03:39 | 02:58:30 | 00:00:00 | |
| IW2NTF | 2026-08-30 12:34:30 | 44.69026 | 8.48121 | 75° | 42km/h | 7571m | -7.8m/s | -19.9°C | 44.7% | 0hPa | 2.5V | 08:03:49 | 02:58:20 | 00:00:00 | |
| IW2NTF | 2026-08-30 12:34:20 | 44.68997 | 8.47972 | 75° | 44km/h | 7652m | -7.4m/s | -20.6°C | 46.3% | 0hPa | 2.6V | 08:03:59 | 02:58:10 | 00:00:00 | |
| IW2NTF | 2026-08-30 12:34:10 | 44.68971 | 8.47824 | 77° | 44km/h | 7730m | -7.8m/s | -21.3°C | 51.1% | 0hPa | 2.6V | 08:04:09 | 02:58:00 | 00:00:00 | |
| IW2NTF | 2026-08-30 12:34:02 | 44.68948 | 8.47670 | 77° | 44km/h | 7809m | -8m/s | -21.9°C | 45.2% | 0hPa | 2.5V | 08:04:19 | 02:57:50 | 00:00:00 | |
| IW2NTF | 2026-08-30 12:33:50 | 44.68925 | 8.47515 | 79° | 44km/h | 7889m | -7.4m/s | -22.7°C | 45% | 0hPa | 2.6V | 08:04:29 | 02:57:40 | 00:00:00 | |
| IW2NTF | 2026-08-30 12:33:38 | 44.68902 | 8.47356 | 80° | 47km/h | 7970m | -8.3m/s | -23.4°C | 47.8% | 0hPa | 2.6V | 08:04:39 | 02:57:30 | 00:00:00 | |
| IW2NTF | 2026-08-30 12:33:32 | 44.68884 | 8.47196 | 81° | 46km/h | 8050m | -8m/s | -24.2°C | 51.8% | 0hPa | 2.5V | 08:04:49 | 02:57:20 | 00:00:00 | |
| IW2NTF | 2026-08-30 12:33:19 | 44.68867 | 8.47039 | 81° | 46km/h | 8131m | -7.7m/s | -24.9°C | 54.5% | 0hPa | 2.6V | 08:04:59 | 02:57:10 | 00:00:00 | |
| IW2NTF | 2026-08-30 12:33:10 | 44.68843 | 8.46885 | 77° | 46km/h | 8209m | -7.5m/s | -25.6°C | 54.8% | 0hPa | 2.5V | 08:05:09 | 02:57:00 | 00:00:00 | |
| IW2NTF | 2026-08-30 12:33:00 | 44.68819 | 8.46721 | 77° | 47km/h | 8288m | -8.3m/s | -26.3°C | 55.7% | 0hPa | 2.6V | 08:05:19 | 02:56:50 | 00:00:00 | |
| IW2NTF | 2026-08-30 12:32:49 | 44.68793 | 8.46559 | 77° | 46km/h | 8369m | -8.5m/s | -26.7°C | 40.5% | 0hPa | 2.5V | 08:05:29 | 02:56:40 | 00:00:00 | |
| IW2NTF | 2026-08-30 12:32:39 | 44.68767 | 8.46394 | 78° | 49km/h | 8449m | -8.3m/s | -27.4°C | 44.7% | 0hPa | 2.5V | 08:05:39 | 02:56:30 | 00:00:00 | |
| IW2NTF | 2026-08-30 12:32:33 | 44.68738 | 8.46216 | 76° | 53km/h | 8533m | -8.7m/s | -28°C | 45.4% | 0hPa | 2.5V | 08:05:49 | 02:56:20 | 00:00:00 | |
| IW2NTF | 2026-08-30 12:32:21 | 44.68709 | 8.46036 | 80° | 49km/h | 8616m | -8m/s | -28.7°C | 44.4% | 0hPa | 2.5V | 08:05:59 | 02:56:10 | 00:00:00 | |
| IW2NTF | 2026-08-30 12:32:08 | 44.68686 | 8.45852 | 80° | 53km/h | 8696m | -7.8m/s | -29.1°C | 33.1% | 0hPa | 2.6V | 08:06:09 | 02:56:00 | 00:00:00 | |
| IW2NTF | 2026-08-30 12:32:02 | 44.68663 | 8.45664 | 81° | 55km/h | 8778m | -7.8m/s | -29.6°C | 30.6% | 0hPa | 2.6V | 08:06:19 | 02:55:50 | 00:00:00 | |
| IW2NTF | 2026-08-30 12:31:48 | 44.68639 | 8.45466 | 80° | 58km/h | 8857m | -8.4m/s | -30.3°C | 32.2% | 0hPa | 2.6V | 08:06:29 | 02:55:40 | 00:00:00 | |
| IW2NTF | 2026-08-30 12:31:43 | 44.68616 | 8.45264 | 80° | 58km/h | 8940m | -8.5m/s | -31°C | 35.4% | 0hPa | 2.5V | 08:06:39 | 02:55:30 | 00:00:00 | |
| IW2NTF | 2026-08-30 12:31:33 | 44.68594 | 8.45061 | 83° | 53km/h | 9025m | -8.5m/s | -31.8°C | 37.9% | 0hPa | 2.6V | 08:06:49 | 02:55:20 | 00:00:00 | |
| IW2NTF | 2026-08-30 12:30:50 | 44.68515 | 8.44288 | 82° | 57km/h | 9346m | -9.1m/s | -34.4°C | 21.1% | 0hPa | 2.5V | 08:07:27 | 02:54:42 | 00:00:00 | |
| IW2NTF | 2026-08-30 12:30:41 | 44.68497 | 8.44106 | 81° | 47km/h | 9433m | -8.4m/s | -34.7°C | 12.6% | 0hPa | 2.6V | 08:07:37 | 02:54:32 | 00:00:00 | |
| IW2NTF | 2026-08-30 12:30:30 | 44.68478 | 8.43942 | 80° | 47km/h | 9519m | -8.6m/s | -35.1°C | 13.2% | 0hPa | 2.6V | 08:07:47 | 02:54:22 | 00:00:00 | |
| IW2NTF | 2026-08-30 12:30:21 | 44.68457 | 8.43717 | 83° | 46km/h | 9640m | -8.9m/s | -36.2°C | 16.6% | 0hPa | 2.5V | 08:08:01 | 02:54:08 | 00:00:00 | |
| IW2NTF | 2026-08-30 12:30:10 | 44.68446 | 8.43555 | 85° | 46km/h | 9727m | -9m/s | -37°C | 18.1% | 0hPa | 2.6V | 08:08:11 | 02:53:58 | 00:00:00 | |
| IW2NTF | 2026-08-30 12:29:54 | 44.68436 | 8.43358 | 88° | 49km/h | 9834m | -9m/s | -38°C | 19.5% | 0hPa | 2.6V | 08:08:23 | 02:53:46 | 00:00:00 | |
| IW2NTF | 2026-08-30 12:29:48 | 44.68430 | 8.43191 | 86° | 47km/h | 9924m | -9.1m/s | -38.9°C | 21.1% | 0hPa | 2.5V | 08:08:33 | 02:53:36 | 00:00:00 | |
| IW2NTF | 2026-08-30 12:29:36 | 44.68423 | 8.43020 | 87° | 47km/h | 10012m | -8.8m/s | -39.8°C | 22.7% | 0hPa | 2.6V | 08:08:43 | 02:53:26 | 00:00:00 | |
| IW2NTF | 2026-08-30 12:29:29 | 44.68412 | 8.42850 | 84° | 49km/h | 10102m | -9.1m/s | -40.6°C | 24.8% | 0hPa | 2.5V | 08:08:53 | 02:53:16 | 00:00:00 | |
| IW2NTF | 2026-08-30 12:29:15 | 44.68402 | 8.42669 | 84° | 53km/h | 10192m | -9.1m/s | -41.4°C | 24.3% | 0hPa | 2.5V | 08:09:03 | 02:53:06 | 00:00:00 | |
| IW2NTF | 2026-08-30 12:29:09 | 44.68390 | 8.42476 | 85° | 55km/h | 10283m | -9.5m/s | -42.1°C | 20.9% | 0hPa | 2.5V | 08:09:13 | 02:52:56 | 00:00:00 | |
| IW2NTF | 2026-08-30 12:28:56 | 44.68377 | 8.42273 | 85° | 57km/h | 10374m | -9.4m/s | -42.9°C | 22.4% | 0hPa | 2.5V | 08:09:23 | 02:52:46 | 00:00:00 | |
| IW2NTF | 2026-08-30 12:28:49 | 44.68372 | 8.42069 | 88° | 57km/h | 10465m | -9.1m/s | -43.6°C | 23.6% | 0hPa | 2.5V | 08:09:33 | 02:52:36 | 00:00:00 | |
| IW2NTF | 2026-08-30 12:28:38 | 44.68373 | 8.41829 | 93° | 55km/h | 10575m | -9.2m/s | -44.5°C | 23.4% | 0hPa | 2.5V | 08:09:45 | 02:52:24 | 00:00:00 | |
| IW2NTF | 2026-08-30 12:28:23 | 44.68385 | 8.41627 | 96° | 58km/h | 10666m | -9.5m/s | -45.1°C | 23.7% | 0hPa | 2.5V | 08:09:55 | 02:52:14 | 00:00:00 | |
| IW2NTF | 2026-08-30 12:28:16 | 44.68409 | 8.41375 | 100° | 60km/h | 10777m | -9.2m/s | -45.9°C | 26.5% | 0hPa | 2.6V | 08:10:07 | 02:52:02 | 00:00:00 | |
| IW2NTF | 2026-08-30 12:28:01 | 44.68440 | 8.41162 | 101° | 62km/h | 10869m | -9.3m/s | -46.8°C | 29.6% | 0hPa | 2.6V | 08:10:17 | 02:51:52 | 00:00:00 | |
| IW2NTF | 2026-08-30 12:27:55 | 44.68472 | 8.40949 | 101° | 60km/h | 10962m | -9.5m/s | -47.6°C | 31.8% | 0hPa | 2.6V | 08:10:27 | 02:51:42 | 00:00:00 | |
| IW2NTF | 2026-08-30 12:27:40 | 44.68502 | 8.40736 | 102° | 62km/h | 11058m | -9.7m/s | -48.5°C | 32.8% | 0hPa | 2.6V | 08:10:37 | 02:51:32 | 00:00:00 | |
| IW2NTF | 2026-08-30 12:27:35 | 44.68536 | 8.40523 | 101° | 60km/h | 11154m | -9.6m/s | -49.4°C | 31.9% | 0hPa | 2.6V | 08:10:47 | 02:51:22 | 00:00:00 | |
| IW2NTF | 2026-08-30 12:27:20 | 44.68568 | 8.40281 | 98° | 66km/h | 11259m | -9.6m/s | -50°C | 30.5% | 0hPa | 2.6V | 08:10:58 | 02:51:11 | 00:00:00 | |
| IW2NTF | 2026-08-30 12:27:07 | 44.68606 | 8.39910 | 95° | 68km/h | 11412m | -9.8m/s | -51.2°C | 33% | 0hPa | 2.5V | 08:11:14 | 02:50:55 | 00:00:00 | |
| IW2NTF | 2026-08-30 12:26:55 | 44.68628 | 8.39618 | 95° | 69km/h | 11528m | -9.9m/s | -52.1°C | 36.3% | 0hPa | 2.5V | 08:11:26 | 02:50:43 | 00:00:00 | |
| IW2NTF | 2026-08-30 12:26:39 | 44.68648 | 8.39321 | 94° | 73km/h | 11645m | -10m/s | -53.1°C | 40% | 0hPa | 2.6V | 08:11:38 | 02:50:31 | 00:00:00 | |
| IW2NTF | 2026-08-30 12:26:33 | 44.68663 | 8.39027 | 95° | 77km/h | 11754m | -9.5m/s | -53.7°C | 42.4% | 0hPa | 2.6V | 08:11:49 | 02:50:20 | 00:00:00 | |
| IW2NTF | 2026-08-30 12:26:19 | 44.68685 | 8.38745 | 94° | 82km/h | 11854m | -10.2m/s | -54.5°C | 41.5% | 0hPa | 2.5V | 08:11:59 | 02:50:10 | 00:00:00 | |
| IW2NTF | 2026-08-30 12:26:10 | 44.68700 | 8.38453 | 95° | 82km/h | 11953m | -10.1m/s | -54.6°C | 39.6% | 0hPa | 2.6V | 08:12:09 | 02:50:00 | 00:00:00 | |
| IW2NTF | 2026-08-30 12:25:59 | 44.68723 | 8.38166 | 96° | 80km/h | 12053m | -10m/s | -55.4°C | 40.9% | 0hPa | 2.6V | 08:12:19 | 02:49:50 | 00:00:00 | |
| IW2NTF | 2026-08-30 12:25:49 | 44.68750 | 8.37894 | 97° | 77km/h | 12155m | -10.6m/s | -55.9°C | 39.4% | 0hPa | 2.5V | 08:12:29 | 02:49:40 | 00:00:00 | |
| IW2NTF | 2026-08-30 12:25:39 | 44.68783 | 8.37617 | 100° | 82km/h | 12258m | -10.3m/s | -56.2°C | 37.1% | 0hPa | 2.6V | 08:12:39 | 02:49:30 | 00:00:00 | |
| IW2NTF | 2026-08-30 12:25:29 | 44.68818 | 8.37322 | 97° | 86km/h | 12362m | -10.4m/s | -56.6°C | 36.4% | 0hPa | 2.6V | 08:12:49 | 02:49:20 | 00:00:00 | |
| IW2NTF | 2026-08-30 12:25:22 | 44.68850 | 8.37015 | 97° | 88km/h | 12466m | -10.4m/s | -57.2°C | 36% | 0hPa | 2.6V | 08:12:59 | 02:49:10 | 00:00:00 | |
| IW2NTF | 2026-08-30 12:25:11 | 44.68875 | 8.36699 | 95° | 93km/h | 12572m | -10.9m/s | -57.6°C | 34.2% | 0hPa | 2.5V | 08:13:09 | 02:49:00 | 00:00:00 | |
| IW2NTF | 2026-08-30 12:25:03 | 44.68900 | 8.36378 | 94° | 89km/h | 12678m | -10.8m/s | -58.3°C | 33.3% | 0hPa | 2.5V | 08:13:19 | 02:48:50 | 00:00:00 | |
| IW2NTF | 2026-08-30 12:24:51 | 44.68916 | 8.36051 | 94° | 93km/h | 12785m | -10.8m/s | -58.7°C | 31% | 0hPa | 2.5V | 08:13:29 | 02:48:40 | 00:00:00 | |
| IW2NTF | 2026-08-30 12:24:42 | 44.68947 | 8.35715 | 98° | 95km/h | 12893m | -10.8m/s | -59°C | 28.5% | 0hPa | 2.6V | 08:13:39 | 02:48:30 | 00:00:00 | |
| IW2NTF | 2026-08-30 12:24:30 | 44.68975 | 8.35388 | 96° | 89km/h | 13003m | -11.2m/s | -59.3°C | 26.4% | 0hPa | 2.6V | 08:13:49 | 02:48:20 | 00:00:00 | |
| IW2NTF | 2026-08-30 12:24:20 | 44.68994 | 8.35100 | 91° | 77km/h | 13112m | -11.2m/s | -58.9°C | 22.8% | 0hPa | 2.5V | 08:13:59 | 02:48:10 | 00:00:00 | |
| IW2NTF | 2026-08-30 12:24:10 | 44.69003 | 8.34839 | 91° | 71km/h | 13221m | -11.7m/s | -58.6°C | 20.7% | 0hPa | 2.5V | 08:14:09 | 02:48:00 | 00:00:00 | |
| IW2NTF | 2026-08-30 12:24:00 | 44.68996 | 8.34540 | 85° | 69km/h | 13356m | -11.3m/s | -59.3°C | 19.4% | 0hPa | 2.5V | 08:14:21 | 02:47:48 | 00:00:00 | |
| IW2NTF | 2026-08-30 12:23:50 | 44.68981 | 8.34288 | 84° | 75km/h | 13469m | -11.3m/s | -60.2°C | 18.8% | 0hPa | 2.6V | 08:14:31 | 02:47:38 | 00:00:00 | |
| IW2NTF | 2026-08-30 12:23:40 | 44.68966 | 8.34020 | 86° | 75km/h | 13580m | -11.2m/s | -60.6°C | 17.3% | 0hPa | 2.5V | 08:14:41 | 02:47:28 | 00:00:00 | |
| IW2NTF | 2026-08-30 12:23:31 | 44.68961 | 8.33764 | 90° | 68km/h | 13694m | -11.6m/s | -60.5°C | 15.7% | 0hPa | 2.5V | 08:14:51 | 02:47:18 | 00:00:00 | |
| IW2NTF | 2026-08-30 12:23:21 | 44.68963 | 8.33529 | 89° | 64km/h | 13808m | -11.7m/s | -60.7°C | 14.6% | 0hPa | 2.5V | 08:15:01 | 02:47:08 | 00:00:00 | |
| IW2NTF | 2026-08-30 12:23:10 | 44.68954 | 8.33307 | 86° | 68km/h | 13923m | -11.8m/s | -60.5°C | 13% | 0hPa | 2.5V | 08:15:11 | 02:46:58 | 00:00:00 | |
| IW2NTF | 2026-08-30 12:23:00 | 44.68949 | 8.33058 | 86° | 71km/h | 14038m | -11.7m/s | -60°C | 11.3% | 0hPa | 2.6V | 08:15:21 | 02:46:48 | 00:00:00 | |
| IW2NTF | 2026-08-30 12:22:51 | 44.68930 | 8.32812 | 81° | 64km/h | 14155m | -11.8m/s | -59.8°C | 10.3% | 0hPa | 2.6V | 08:15:31 | 02:46:38 | 00:00:00 | |
| IW2NTF | 2026-08-30 12:22:40 | 44.68908 | 8.32575 | 80° | 66km/h | 14272m | -12.2m/s | -59.2°C | 9.4% | 0hPa | 2.5V | 08:15:41 | 02:46:28 | 00:00:00 | |
| IW2NTF | 2026-08-30 12:22:30 | 44.68876 | 8.32344 | 77° | 68km/h | 14391m | -12m/s | -59.5°C | 9.1% | 0hPa | 2.6V | 08:15:51 | 02:46:18 | 00:00:00 | |
| IW2NTF | 2026-08-30 12:22:20 | 44.68829 | 8.32088 | 78° | 68km/h | 14524m | -12.4m/s | -59.6°C | 8.9% | 0hPa | 2.6V | 08:16:02 | 02:46:07 | 00:00:00 | |
| IW2NTF | 2026-08-30 12:22:09 | 44.68805 | 8.31850 | 85° | 69km/h | 14645m | -12.3m/s | -59.5°C | 8.5% | 0hPa | 2.6V | 08:16:12 | 02:45:57 | 00:00:00 | |
| IW2NTF | 2026-08-30 12:21:59 | 44.68802 | 8.31604 | 90° | 71km/h | 14768m | -12.6m/s | -60°C | 9.1% | 0hPa | 2.5V | 08:16:22 | 02:45:47 | 00:00:00 | |
| IW2NTF | 2026-08-30 12:21:49 | 44.68800 | 8.31356 | 89° | 66km/h | 14891m | -12.5m/s | -60.1°C | 9.1% | 0hPa | 2.6V | 08:16:32 | 02:45:37 | 00:00:00 | |
| IW2NTF | 2026-08-30 12:21:39 | 44.68818 | 8.31120 | 101° | 66km/h | 15013m | -12.6m/s | -60.6°C | 8.9% | 0hPa | 2.5V | 08:16:42 | 02:45:27 | 00:00:00 | |
| IW2NTF | 2026-08-30 12:21:28 | 44.68843 | 8.30881 | 91° | 47km/h | 15162m | -13m/s | -60.1°C | 8.1% | 0hPa | 2.5V | 08:16:54 | 02:45:15 | 00:00:00 | |
| IW2NTF | 2026-08-30 12:21:16 | 44.68827 | 8.30677 | 81° | 46km/h | 15313m | -13.1m/s | -60.1°C | 7.6% | 0hPa | 2.5V | 08:17:06 | 02:45:03 | 00:00:00 | |
| DB0UT-7 | 2026-08-30 12:21:08 | 44.68823 | 8.30645 | 80° | 46km/h | 15338m | -12.5m/s | -60.0°C | 7.4% | 0hPa | 2.6V | 08:17:00 | 02:45:01 | 00:00:00 | |
| IW2NTF | 2026-08-30 12:21:04 | 44.68803 | 8.30500 | 78° | 46km/h | 15450m | -13m/s | -58.8°C | 6.2% | 0hPa | 2.5V | 08:17:17 | 02:44:52 | 00:00:00 | |
| IW2NTF | 2026-08-30 12:20:51 | 44.68784 | 8.30350 | 75° | 42km/h | 15576m | -12.7m/s | -58.6°C | 5.9% | 0hPa | 2.6V | 08:17:27 | 02:44:42 | 00:00:00 | |
| IW2NTF | 2026-08-30 12:20:44 | 44.68739 | 8.30201 | 61° | 51km/h | 15705m | -12.8m/s | -58.6°C | 5.7% | 0hPa | 2.6V | 08:17:37 | 02:44:32 | 00:00:00 | |
| DB0UT-7 | 2026-08-30 12:20:38 | 44.68733 | 8.30185 | 63° | 58km/h | 15719m | -12.7m/s | -58.6°C | 5.7% | 0hPa | 2.5V | 00:00:00 | 00:00:00 | 00:00:00 | |
| IW2NTF | 2026-08-30 12:20:31 | 44.68675 | 8.30038 | 59° | 57km/h | 15834m | -13.1m/s | -59.2°C | 5.9% | 0hPa | 2.5V | 08:17:47 | 02:44:22 | 00:00:00 | |
| IW2NTF | 2026-08-30 12:20:24 | 44.68594 | 8.29850 | 60° | 66km/h | 15961m | -12.8m/s | -60°C | 6.3% | 0hPa | 2.6V | 08:17:57 | 02:44:12 | 00:00:00 | |
| IW2NTF | 2026-08-30 12:20:11 | 44.68536 | 8.29650 | 71° | 57km/h | 16091m | -13.2m/s | -60.4°C | 6.3% | 0hPa | 2.6V | 08:18:07 | 02:44:02 | 00:00:00 | |
| DB0UT-7 | 2026-08-30 12:20:08 | 44.68532 | 8.29631 | 72° | 57km/h | 16104m | -12.8m/s | -60.3°C | 6.3% | 0hPa | 2.5V | 00:00:00 | 02:44:01 | 00:00:00 | |
| IW2NTF | 2026-08-30 12:20:04 | 44.68500 | 8.29452 | 81° | 58km/h | 16221m | -13.1m/s | -60.5°C | 6.1% | 0hPa | 2.5V | 08:18:17 | 02:43:52 | 00:00:00 | |
| IW2NTF | 2026-08-30 12:19:51 | 44.68486 | 8.29250 | 89° | 58km/h | 16355m | -13.5m/s | -60.7°C | 5.9% | 0hPa | 2.6V | 08:18:27 | 02:43:42 | 00:00:00 | |
| IW2NTF | 2026-08-30 12:19:44 | 44.68491 | 8.29057 | 91° | 51km/h | 16488m | -13.5m/s | -61.6°C | 6.1% | 0hPa | 2.5V | 08:18:37 | 02:43:32 | 00:00:00 | |
| DB0UT-7 | 2026-08-30 12:19:38 | 44.68492 | 8.29040 | 92° | 33km/h | 16502m | -13.7m/s | -61.5°C | 6.2% | 0hPa | 2.6V | 00:00:00 | 00:00:00 | 00:00:00 | |
| IW2NTF | 2026-08-30 12:19:32 | 44.68496 | 8.28900 | 93° | 33km/h | 16623m | -13.7m/s | -62°C | 6.1% | 0hPa | 2.5V | 08:18:47 | 02:43:22 | 00:00:00 | |
| AUTORXJP | 2026-08-30 12:19:23 | 44.68489 | 8.28831 | 72° | 26km/h | 16718m | -13.7m/s | -62.3°C | 2.0% | -1.0hPa | 2.6V | 00:00:00 | 00:00:00 | 00:00:00 | |
| IW2NTF | 2026-08-30 12:19:21 | 44.68473 | 8.28769 | 72° | 27km/h | 16812m | -13.7m/s | -61.7°C | 5.9% | 0hPa | 2.6V | 08:19:01 | 02:43:08 | 00:00:00 | |
| DB0UT-7 | 2026-08-30 12:19:08 | 44.68452 | 8.28704 | 57° | 40km/h | 16908m | -13.8m/s | -61.7°C | 6.1% | 0hPa | 2.5V | 00:00:00 | 02:43:01 | 00:00:00 | |
| IW2NTF | 2026-08-30 12:19:07 | 44.68437 | 8.28674 | 55° | 38km/h | 16949m | -14.4m/s | -61.5°C | 6.1% | 0hPa | 2.5V | 08:19:11 | 02:42:58 | 00:00:00 | |
| IW2NTF | 2026-08-30 12:19:00 | 44.68386 | 8.28515 | 70° | 40km/h | 17121m | -15.2m/s | -60.5°C | 5.7% | 0hPa | 2.5V | 08:19:23 | 02:42:46 | 00:00:00 | |
| AUTORXJP | 2026-08-30 12:18:52 | 44.68379 | 8.28487 | 68° | 42km/h | 17150m | -15.2m/s | -60.2°C | 1.5% | -1.0hPa | 2.6V | 00:00:00 | 00:00:00 | 00:00:00 | |
| IW2NTF | 2026-08-30 12:18:47 | 44.68357 | 8.28404 | 69° | 38km/h | 17240m | -15.2m/s | -59.2°C | 5.3% | 0hPa | 2.6V | 08:19:31 | 02:42:38 | 00:00:00 | |
| IW2NTF | 2026-08-30 12:18:41 | 44.68314 | 8.28278 | 67° | 42km/h | 17390m | -15.4m/s | -59.2°C | 5.5% | 0hPa | 2.6V | 08:19:41 | 02:42:28 | 00:00:00 | |
| DB0UT-7 | 2026-08-30 12:18:38 | 44.68327 | 8.28319 | 63° | 31km/h | 17345m | -15.5m/s | -59.3°C | 5.6% | 0hPa | 2.6V | 00:00:00 | 00:00:00 | 00:00:00 | |
| IW2NTF | 2026-08-30 12:18:26 | 44.68282 | 8.28145 | 66° | 31km/h | 17545m | -15.9m/s | -56.8°C | 4.5% | 0hPa | 2.6V | 08:19:51 | 02:42:18 | 00:00:00 | |
| AUTORXJP | 2026-08-30 12:18:21 | 44.68265 | 8.28103 | 51° | 22km/h | 17623m | -15.9m/s | -56.0°C | 1.2% | -1.0hPa | 2.6V | 00:00:00 | 00:00:00 | 00:00:00 | |
| IW2NTF | 2026-08-30 12:18:20 | 44.68243 | 8.28080 | 27° | 24km/h | 17701m | -16.1m/s | -55.7°C | 4.1% | 0hPa | 2.6V | 08:20:01 | 02:42:08 | 00:00:00 | |
| DB0UT-7 | 2026-08-30 12:18:08 | 44.68205 | 8.28059 | 24° | 13km/h | 17812m | -16.2m/s | -56.2°C | 4.2% | 0hPa | 2.6V | 00:00:00 | 02:42:01 | 00:00:00 | |
| IW2NTF | 2026-08-30 12:18:06 | 44.68191 | 8.28051 | 22° | 18km/h | 17859m | -15.9m/s | -56.1°C | 4.2% | 0hPa | 2.5V | 08:20:11 | 02:41:58 | 00:00:00 | |
| IW2NTF | 2026-08-30 12:18:00 | 44.68169 | 8.28036 | 35° | 5km/h | 18019m | -16.3m/s | -56.3°C | 4.1% | 0hPa | 2.5V | 08:20:21 | 02:41:48 | 00:00:00 | |
| AUTORXJP | 2026-08-30 12:17:50 | 44.68160 | 8.28024 | 46° | 11km/h | 18116m | -16.4m/s | -56.4°C | 1.1% | -1.0hPa | 2.6V | 00:00:00 | 00:00:00 | 00:00:00 | |
| IW2NTF | 2026-08-30 12:17:46 | 44.68152 | 8.28009 | 57° | 15km/h | 18180m | -16.1m/s | -56.9°C | 4.2% | 0hPa | 2.6V | 08:20:31 | 02:41:38 | 00:00:00 | |
| DB0UT-7 | 2026-08-30 12:17:38 | 44.68135 | 8.27978 | 56° | 18km/h | 18293m | -16.6m/s | -57.7°C | 4.7% | 0hPa | 2.5V | 00:00:00 | 00:00:00 | 00:00:00 | |
| IW2NTF | 2026-08-30 12:17:36 | 44.68125 | 8.27959 | 55° | 26km/h | 18342m | -16.6m/s | -58°C | 4.8% | 0hPa | 2.5V | 08:20:41 | 02:41:28 | 00:00:00 | |
| IW2NTF | 2026-08-30 12:17:27 | 44.68107 | 8.27887 | 70° | 13km/h | 18506m | -17m/s | -57.5°C | 4.7% | 0hPa | 2.5V | 08:20:51 | 02:41:18 | 00:00:00 | |
| AUTORXJP | 2026-08-30 12:17:19 | 44.68093 | 8.27863 | 43° | 15km/h | 18623m | -17.4m/s | -56.8°C | 1.1% | -1.0hPa | 2.5V | 00:00:00 | 00:00:00 | 00:00:00 | |
| IW2NTF | 2026-08-30 12:17:17 | 44.68084 | 8.27850 | 44° | 18km/h | 18675m | -17.3m/s | -56.6°C | 4.3% | 0hPa | 2.5V | 08:21:01 | 02:41:08 | 00:00:00 | |
| DB0UT-7 | 2026-08-30 12:17:08 | 44.68063 | 8.27806 | 65° | 16km/h | 18792m | -17.0m/s | -56.5°C | 4.3% | 0hPa | 2.5V | 00:00:00 | 02:41:01 | 00:00:00 | |
| IW2NTF | 2026-08-30 12:17:06 | 44.68048 | 8.27744 | 79° | 29km/h | 18912m | -17.8m/s | -56.4°C | 4.4% | 0hPa | 2.5V | 08:21:15 | 02:40:54 | 00:00:00 | |
| IW2NTF | 2026-08-30 12:16:57 | 44.68057 | 8.27669 | 132° | 11km/h | 19087m | -17.8m/s | -56.2°C | 4.1% | 0hPa | 2.6V | 08:21:25 | 02:40:44 | 00:00:00 | |
| AUTORXJP | 2026-08-30 12:16:48 | 44.68064 | 8.27663 | 182° | 5km/h | 19157m | -18.1m/s | -56.0°C | 1.0% | -1.0hPa | 2.7V | 00:00:00 | 00:00:00 | 00:00:00 | |
| IW2NTF | 2026-08-30 12:16:46 | 44.68069 | 8.27671 | 254° | 9km/h | 19262m | -17.8m/s | -56.1°C | 4% | 0hPa | 2.7V | 08:21:35 | 02:40:34 | 00:00:00 | |
| DB0UT-7 | 2026-08-30 12:16:38 | 44.68070 | 8.27681 | 272° | 20km/h | 19315m | -18.4m/s | -56.5°C | 4.1% | 0hPa | 2.5V | 08:21:00 | 00:00:00 | 00:00:00 | |
| IW2NTF | 2026-08-30 12:16:36 | 44.68060 | 8.27716 | 312° | 22km/h | 19442m | -18.4m/s | -57.4°C | 4.5% | 0hPa | 2.7V | 08:21:45 | 02:40:24 | 00:00:00 | |
| DO3MHA-12 | 2026-08-30 12:16:27 | 44.68042 | 8.27734 | 333° | 26km/h | 19515m | -18.5m/s | -57.6°C | 4.7% | 0hPa | 2.5V | 00:00:00 | 02:40:20 | 00:00:00 | |
| IW2NTF | 2026-08-30 12:16:26 | 44.68004 | 8.27744 | 6° | 27km/h | 19624m | -18.6m/s | -57.4°C | 4.6% | 0hPa | 2.5V | 08:21:55 | 02:40:14 | 00:00:00 | |
| DO3MHA-12 | 2026-08-30 12:16:17 | 44.67977 | 8.27736 | 28° | 13km/h | 19696m | -18.7m/s | -57.0°C | 4.5% | 0hPa | 2.6V | 00:00:00 | 02:40:10 | 00:00:00 | |
| AUTORXJP | 2026-08-30 12:16:16 | 44.67972 | 8.27733 | 22° | 24km/h | 19715m | -19.0m/s | -57.0°C | 1.1% | -1.0hPa | 2.6V | 00:00:00 | 00:00:00 | 00:00:00 | |
| IW2NTF | 2026-08-30 12:16:10 | 44.67954 | 8.27713 | 266° | 5km/h | 19879m | -18.3m/s | -56.7°C | 4.5% | 0hPa | 2.6V | 08:22:09 | 02:40:00 | 00:00:00 | |
| DB0UT-7 | 2026-08-30 12:16:09 | 44.67954 | 8.27712 | 252° | 13km/h | 19860m | -18.5m/s | -56.6°C | 4.4% | 0hPa | 2.6V | 00:00:00 | 02:40:01 | 00:00:00 | |
| DO3MHA-12 | 2026-08-30 12:16:07 | 44.67954 | 8.27713 | 267° | 15km/h | 19879m | -18.3m/s | -56.7°C | 4.5% | 0hPa | 2.6V | 00:00:00 | 02:40:00 | 00:00:00 | |
| IW2NTF | 2026-08-30 12:16:00 | 44.67931 | 8.27754 | 319° | 15km/h | 20062m | -18.9m/s | -56.3°C | 4.3% | 0hPa | 2.6V | 08:22:19 | 02:39:50 | 00:00:00 | |
| DO3MHA-12 | 2026-08-30 12:15:57 | 44.67931 | 8.27754 | 320° | 9km/h | 20063m | -18.9m/s | -56.2°C | 4.3% | 0hPa | 2.5V | 00:00:00 | 02:39:50 | 00:00:00 | |
| IW2NTF | 2026-08-30 12:15:50 | 44.67909 | 8.27766 | 7° | 9km/h | 20251m | -20.2m/s | -56.1°C | 4.4% | 0hPa | 2.5V | 08:22:29 | 02:39:40 | 00:00:00 | |
| AUTORXJP | 2026-08-30 12:15:45 | 44.67903 | 8.27767 | 353° | 11km/h | 20291m | -20.3m/s | -55.9°C | 1.0% | -1.0hPa | 2.5V | 00:00:00 | 00:00:00 | 00:00:00 | |
| IW2NTF | 2026-08-30 12:15:40 | 44.67872 | 8.27757 | 37° | 15km/h | 20448m | -19.8m/s | -55°C | 4.1% | 0hPa | 2.5V | 08:22:39 | 02:39:30 | 00:00:00 | |
| DB0UT-7 | 2026-08-30 12:15:38 | 44.67875 | 8.27759 | 22° | 11km/h | 20429m | -19.7m/s | -55.0°C | 4.1% | 0hPa | 2.5V | 00:00:00 | 00:00:00 | 00:00:00 | |
| DO3MHA-12 | 2026-08-30 12:15:37 | 44.67872 | 8.27757 | 38° | 9km/h | 20449m | -19.8m/s | -55.0°C | 4.1% | 0hPa | 2.5V | 08:22:00 | 02:39:30 | 00:00:00 | |
| IW2NTF | 2026-08-30 12:15:30 | 44.67873 | 8.27740 | 175° | 13km/h | 20643m | -20.1m/s | -54.3°C | 3.9% | 0hPa | 2.7V | 08:22:49 | 02:39:20 | 00:00:00 | |
| DO3MHA-12 | 2026-08-30 12:15:27 | 44.67873 | 8.27740 | 176° | 9km/h | 20643m | -20.1m/s | -54.2°C | 3.9% | 0hPa | 2.5V | 00:00:00 | 02:39:20 | 00:00:00 | |
| IW2NTF | 2026-08-30 12:15:20 | 44.67878 | 8.27758 | 318° | 15km/h | 20843m | -20.6m/s | -54°C | 3.8% | 0hPa | 2.5V | 08:22:59 | 02:39:10 | 00:00:00 | |
| DO3MHA-12 | 2026-08-30 12:15:17 | 44.67878 | 8.27758 | 319° | 11km/h | 20843m | -20.6m/s | -54.0°C | 3.8% | 0hPa | 2.7V | 00:00:00 | 02:39:10 | 00:00:00 | |
| AUTORXJP | 2026-08-30 12:15:15 | 44.67868 | 8.27765 | 344° | 15km/h | 20905m | -21.0m/s | -54.1°C | 0.9% | -1.0hPa | 2.7V | 00:00:00 | 00:00:00 | 00:00:00 | |
| IW2NTF | 2026-08-30 12:15:11 | 44.67852 | 8.27765 | 10° | 7km/h | 21051m | -22.1m/s | -53.8°C | 3.8% | 0hPa | 2.7V | 08:23:09 | 02:39:00 | 00:00:00 | |
| DB0UT-7 | 2026-08-30 12:15:08 | 44.67853 | 8.27765 | 34° | 9km/h | 21030m | -21.9m/s | -53.9°C | 3.8% | 0hPa | 2.7V | 00:00:00 | 02:39:01 | 00:00:00 | |
| DO3MHA-12 | 2026-08-30 12:15:07 | 44.67852 | 8.27764 | 11° | 4km/h | 21051m | -22.0m/s | -53.8°C | 3.8% | 0hPa | 2.7V | 00:00:00 | 02:39:00 | 00:00:00 | |
| IW2NTF | 2026-08-30 12:15:00 | 44.67839 | 8.27766 | 9° | 11km/h | 21264m | -21.1m/s | -53.2°C | 3.6% | 0hPa | 2.5V | 08:23:19 | 02:38:50 | 00:00:00 | |
| DO3MHA-12 | 2026-08-30 12:14:56 | 44.67836 | 8.27766 | 4° | 13km/h | 21284m | -20.7m/s | -53.2°C | 3.6% | 0hPa | 2.6V | 00:00:00 | 02:38:49 | 00:00:00 | |
| IW2NTF | 2026-08-30 12:14:50 | 44.67810 | 8.27753 | 17° | 9km/h | 21461m | -19.7m/s | -53.5°C | 3.5% | 0hPa | 2.6V | 08:23:29 | 02:38:40 | 00:00:00 | |
| DO3MHA-12 | 2026-08-30 12:14:46 | 44.67808 | 8.27753 | 329° | 9km/h | 21481m | -19.1m/s | -53.5°C | 3.6% | 0hPa | 2.7V | 00:00:00 | 02:38:39 | 00:00:00 | |
| AUTORXJP | 2026-08-30 12:14:44 | 44.67806 | 8.27760 | 263° | 7km/h | 21537m | -19.1m/s | -53.5°C | 0.8% | -1.0hPa | 2.7V | 00:00:00 | 00:00:00 | 00:00:00 | |
| IW2NTF | 2026-08-30 12:14:41 | 44.67812 | 8.27783 | 242° | 7km/h | 21651m | -19.7m/s | -54°C | 3.7% | 0hPa | 2.7V | 08:23:39 | 02:38:30 | 00:00:00 | |
| DB0UT-7 | 2026-08-30 12:14:38 | 44.67811 | 8.27780 | 254° | 18km/h | 21632m | -19.0m/s | -53.9°C | 3.8% | 0hPa | 2.7V | 00:00:00 | 00:00:00 | 00:00:00 | |
| DO3MHA-12 | 2026-08-30 12:14:36 | 44.67813 | 8.27786 | 261° | 9km/h | 21670m | -19.1m/s | -54.1°C | 3.8% | 0hPa | 2.7V | 00:00:00 | 02:38:29 | 00:00:00 | |
| IW2NTF | 2026-08-30 12:14:30 | 44.67790 | 8.27841 | 291° | 24km/h | 21846m | -20.2m/s | -54.3°C | 3.9% | 0hPa | 2.7V | 08:23:49 | 02:38:20 | 00:00:00 | |
| IW2NTF | 2026-08-30 12:14:20 | 44.67789 | 8.27885 | 261° | 18km/h | 22058m | -21.4m/s | -54.1°C | 3.6% | 0hPa | 2.6V | 08:23:59 | 02:38:10 | 00:00:00 | |
| AUTORXJP | 2026-08-30 12:14:12 | 44.67794 | 8.27925 | 261° | 24km/h | 22159m | -19.9m/s | -54.2°C | 0.8% | -1.0hPa | 2.7V | 00:00:00 | 00:00:00 | 00:00:00 | |
| IW2NTF | 2026-08-30 12:14:10 | 44.67795 | 8.27972 | 275° | 29km/h | 22258m | -19.4m/s | -54.6°C | 3.8% | 0hPa | 2.7V | 08:24:09 | 02:38:00 | 00:00:00 | |
| DB0UT-7 | 2026-08-30 12:14:08 | 44.67795 | 8.27962 | 270° | 22km/h | 22240m | -18.9m/s | -54.4°C | 3.7% | 0hPa | 2.6V | 00:00:00 | 02:38:01 | 00:00:00 | |
| IW2NTF | 2026-08-30 12:14:01 | 44.67771 | 8.28069 | 288° | 31km/h | 22456m | -20.4m/s | -55.1°C | 3.9% | 0hPa | 2.6V | 08:24:19 | 02:37:50 | 00:00:00 | |
| IW2NTF | 2026-08-30 12:13:50 | 44.67759 | 8.28134 | 273° | 11km/h | 22659m | -22.8m/s | -55.4°C | 4.1% | 0hPa | 2.7V | 08:24:29 | 02:37:40 | 00:00:00 | |
| AUTORXJP | 2026-08-30 12:13:41 | 44.67749 | 8.28164 | 299° | 24km/h | 22799m | -24.0m/s | -55.5°C | 0.8% | -1.0hPa | 2.6V | 00:00:00 | 00:00:00 | 00:00:00 | |
| IW2NTF | 2026-08-30 12:13:40 | 44.67731 | 8.28192 | 314° | 31km/h | 22889m | -22.3m/s | -55.6°C | 4.2% | 0hPa | 2.6V | 08:24:39 | 02:37:30 | 00:00:00 | |
| DB0UT-7 | 2026-08-30 12:13:38 | 44.67736 | 8.28184 | 313° | 18km/h | 22867m | -22.5m/s | -55.6°C | 4.2% | 0hPa | 2.7V | 00:00:00 | 00:00:00 | 00:00:00 | |
| IW2NTF | 2026-08-30 12:13:31 | 44.67665 | 8.28237 | 349° | 16km/h | 23101m | -21.7m/s | -55.2°C | 4% | 0hPa | 2.7V | 08:24:49 | 02:37:20 | 00:00:00 | |
| DO3MHA-12 | 2026-08-30 12:13:28 | 44.67670 | 8.28235 | 344° | 13km/h | 23080m | -21.4m/s | -55.3°C | 4.0% | 0hPa | 2.7V | 00:00:00 | 02:37:21 | 00:00:00 | |
| IW2NTF | 2026-08-30 12:13:20 | 44.67635 | 8.28243 | 323° | 11km/h | 23318m | -21.8m/s | -54.9°C | 4% | 0hPa | 2.7V | 08:24:59 | 02:37:10 | 00:00:00 | |
| DO3MHA-12 | 2026-08-30 12:13:18 | 44.67638 | 8.28240 | 339° | 9km/h | 23296m | -23.4m/s | -54.8°C | 3.9% | 0hPa | 2.6V | 00:00:00 | 02:37:11 | 00:00:00 | |
| IW2NTF | 2026-08-30 12:13:10 | 44.67615 | 8.28263 | 337° | 15km/h | 23535m | -22.2m/s | -55°C | 4.2% | 0hPa | 2.6V | 08:25:09 | 02:37:00 | 00:00:00 | |
| AUTORXJP | 2026-08-30 12:13:10 | 44.67623 | 8.28259 | 334° | 7km/h | 23469m | -22.4m/s | -55.1°C | 0.9% | -1.0hPa | 2.7V | 00:00:00 | 00:00:00 | 00:00:00 | |
| DO3MHA-12 | 2026-08-30 12:13:08 | 44.67618 | 8.28261 | 338° | 20km/h | 23514m | -22.3m/s | -55.0°C | 4.2% | 0hPa | 2.7V | 08:25:00 | 02:37:01 | 00:00:00 | |
| IW2NTF | 2026-08-30 12:13:00 | 44.67556 | 8.28290 | 348° | 22km/h | 23777m | -23.1m/s | -54.2°C | 4.1% | 0hPa | 2.7V | 08:25:20 | 02:36:49 | 00:00:00 | |
| DO3MHA-12 | 2026-08-30 12:12:57 | 44.67562 | 8.28288 | 342° | 22km/h | 23755m | -21.9m/s | -54.4°C | 4.1% | 0hPa | 2.7V | 00:00:00 | 02:36:50 | 00:00:00 | |
| IW2NTF | 2026-08-30 12:12:50 | 44.67506 | 8.28278 | 9° | 15km/h | 24003m | -22.4m/s | -53.4°C | 3.8% | 0hPa | 2.7V | 08:25:30 | 02:36:39 | 00:00:00 | |
| DO3MHA-12 | 2026-08-30 12:12:47 | 44.67510 | 8.28279 | 15° | 11km/h | 23980m | -24.2m/s | -53.4°C | 3.7% | 0hPa | 2.7V | 00:00:00 | 02:36:40 | 00:00:00 | |
| IW2NTF | 2026-08-30 12:12:40 | 44.67485 | 8.28287 | 55° | 2km/h | 24234m | -23.4m/s | -52.7°C | 3.5% | 0hPa | 2.7V | 08:25:40 | 02:36:29 | 00:00:00 | |
| AUTORXJP | 2026-08-30 12:12:39 | 44.67487 | 8.28286 | 344° | 5km/h | 24162m | -23.7m/s | -52.9°C | 0.8% | -1.0hPa | 2.6V | 00:00:00 | 00:00:00 | 00:00:00 | |
| DB0UT-7 | 2026-08-30 12:12:38 | 44.67486 | 8.28286 | 2° | 13km/h | 24186m | -24.2m/s | -52.8°C | 3.6% | 0hPa | 2.6V | 00:00:00 | 00:00:00 | 00:00:00 | |
| DO3MHA-12 | 2026-08-30 12:12:37 | 44.67485 | 8.28286 | 348° | 5km/h | 24211m | -24.0m/s | -52.7°C | 3.6% | 0hPa | 2.6V | 00:00:00 | 02:36:30 | 00:00:00 | |
| IW2NTF | 2026-08-30 12:12:30 | 44.67493 | 8.28299 | 249° | 13km/h | 24470m | -24.6m/s | -53°C | 3.7% | 0hPa | 2.7V | 08:25:50 | 02:36:19 | 00:00:00 | |
| DO3MHA-12 | 2026-08-30 12:12:27 | 44.67492 | 8.28295 | 233° | 15km/h | 24446m | -24.5m/s | -53.0°C | 3.8% | 0hPa | 2.7V | 00:00:00 | 02:36:20 | 00:00:00 | |
| IW2NTF | 2026-08-30 12:12:20 | 44.67495 | 8.28356 | 294° | 20km/h | 24704m | -23.6m/s | -52.5°C | 3.6% | 0hPa | 2.7V | 08:26:00 | 02:36:09 | 00:00:00 | |
| DO3MHA-12 | 2026-08-30 12:12:17 | 44.67496 | 8.28349 | 284° | 18km/h | 24681m | -24.3m/s | -52.4°C | 3.6% | 0hPa | 2.7V | 00:00:00 | 02:36:10 | 00:00:00 | |
| IW2NTF | 2026-08-30 12:12:10 | 44.67462 | 8.28394 | 356° | 7km/h | 24945m | -23.9m/s | -51.4°C | 3.4% | 0hPa | 2.7V | 08:26:10 | 02:35:59 | 00:00:00 | |
| DB0UT-7 | 2026-08-30 12:12:08 | 44.67467 | 8.28392 | 337° | 16km/h | 24897m | -24.6m/s | -51.6°C | 3.5% | 0hPa | 2.6V | 08:26:00 | 02:36:01 | 00:00:00 | |
| DO3MHA-12 | 2026-08-30 12:12:07 | 44.67464 | 8.28393 | 349° | 4km/h | 24921m | -23.6m/s | -51.5°C | 3.4% | 0hPa | 2.6V | 00:00:00 | 02:36:00 | 00:00:00 | |
| IW2NTF | 2026-08-30 12:11:59 | 44.67456 | 8.28399 | 285° | 11km/h | 25201m | -25.5m/s | -50.9°C | 3.2% | 0hPa | 2.7V | 08:26:20 | 02:35:49 | 00:00:00 | |
| DO3MHA-12 | 2026-08-30 12:11:57 | 44.67457 | 8.28395 | 300° | 16km/h | 25175m | -26.4m/s | -51.0°C | 3.3% | 0hPa | 2.7V | 00:00:00 | 02:35:50 | 00:00:00 | |
| IW2NTF | 2026-08-30 12:11:49 | 44.67442 | 8.28449 | 353° | 22km/h | 25450m | -26.4m/s | -50.8°C | 3.3% | 0hPa | 2.7V | 08:26:30 | 02:35:39 | 00:00:00 | |
| DO3MHA-12 | 2026-08-30 12:11:47 | 44.67447 | 8.28448 | 353° | 27km/h | 25425m | -25.5m/s | -50.8°C | 3.3% | 0hPa | 2.7V | 00:00:00 | 02:35:40 | 00:00:00 | |
| IW2NTF | 2026-08-30 12:11:39 | 44.67406 | 8.28519 | 245° | 35km/h | 25728m | -29.1m/s | -50.8°C | 3.4% | 0hPa | 2.7V | 08:26:40 | 02:35:29 | 00:00:00 | |
| DB0UT-7 | 2026-08-30 12:11:38 | 44.67403 | 8.28495 | 263° | 31km/h | 25671m | -30.2m/s | -50.8°C | 3.3% | 0hPa | 2.7V | 00:00:00 | 00:00:00 | 00:00:00 | |
| AUTORXJP | 2026-08-30 12:11:37 | 44.67406 | 8.28519 | 245° | 33km/h | 25728m | -29.1m/s | -50.9°C | 0.7% | -1.0hPa | 2.7V | 00:00:00 | 00:00:00 | 00:00:00 | |
| IW2NTF | 2026-08-30 12:11:30 | 44.67410 | 8.28595 | 314° | 47km/h | 26010m | -27.7m/s | -50°C | 3.1% | 0hPa | 2.7V | 08:26:50 | 02:35:19 | 00:00:00 | |
| IW2NTF | 2026-08-30 12:11:20 | 44.67319 | 8.28638 | 36° | 27km/h | 26300m | -30.1m/s | -49.4°C | 3% | 0hPa | 2.7V | 08:27:00 | 02:35:09 | 00:00:00 | |
| DO3MHA-12 | 2026-08-30 12:11:13 | 44.67304 | 8.28625 | 23° | 16km/h | 26390m | -29.9m/s | -48.8°C | 3.0% | 0hPa | 2.6V | 00:00:00 | 02:35:06 | 08:30:00 | |
| IW2NTF | 2026-08-30 12:11:11 | 44.67278 | 8.28634 | 302° | 13km/h | 26586m | -27.6m/s | -49.2°C | 3.1% | 0hPa | 2.7V | 08:27:10 | 02:34:59 | 00:00:00 | |
| DB0UT-7 | 2026-08-30 12:11:08 | 44.67283 | 8.28628 | 334° | 13km/h | 26532m | -28.2m/s | -49.0°C | 3.0% | 0hPa | 2.7V | 00:00:00 | 02:35:01 | 00:00:00 | |
| IW2NTF | 2026-08-30 12:11:00 | 44.67273 | 8.28662 | 304° | 11km/h | 26861m | -28.7m/s | -48.9°C | 2.9% | 0hPa | 2.7V | 08:27:20 | 02:34:49 | 00:00:00 | |
| IW2NTF | 2026-08-30 12:10:48 | 44.67258 | 8.28688 | 7° | 15km/h | 27142m | -28.1m/s | -48.9°C | 3% | 0hPa | 2.7V | 08:27:30 | 02:34:39 | 00:00:00 | |
| IW2NTF | 2026-08-30 12:10:39 | 44.67215 | 8.28682 | 10° | 4km/h | 27455m | -34.6m/s | -48.9°C | 3.2% | 0hPa | 2.7V | 08:27:40 | 02:34:29 | 00:00:00 | |
| DB0UT-7 | 2026-08-30 12:10:38 | 44.67219 | 8.28682 | 358° | 13km/h | 27386m | -35.5m/s | -48.9°C | 3.2% | 0hPa | 2.6V | 00:00:00 | 00:00:00 | 00:00:00 | |
| AUTORXJP | 2026-08-30 12:10:35 | 44.67214 | 8.28683 | 248° | 2km/h | 27520m | -33.3m/s | -48.5°C | 0.6% | -1.0hPa | 2.7V | 00:00:00 | 00:00:00 | 00:00:00 | |
| IW2NTF | 2026-08-30 12:10:28 | 44.67206 | 8.28689 | 325° | 15km/h | 27779m | -34.2m/s | -47.9°C | 3.1% | 0hPa | 2.7V | 08:27:50 | 02:34:19 | 00:00:00 | |
| DO3MHA-12 | 2026-08-30 12:10:20 | 44.67199 | 8.28709 | 281° | 18km/h | 28016m | -40.8m/s | -46.8°C | 2.8% | 0hPa | 2.7V | 00:00:00 | 02:34:13 | 00:00:00 | |
| IW2NTF | 2026-08-30 12:10:18 | 44.67191 | 8.28703 | 38° | 20km/h | 28173m | -38m/s | -46.2°C | 2.7% | 0hPa | 2.7V | 08:28:00 | 02:34:09 | 00:00:00 | |
| DO3MHA-12 | 2026-08-30 12:10:10 | 44.67156 | 8.28680 | 358° | 9km/h | 28377m | -34.1m/s | -45.9°C | 2.6% | 0hPa | 2.7V | 00:00:00 | 02:34:03 | 00:00:00 | |
| IW2NTF | 2026-08-30 12:10:08 | 44.67149 | 8.28689 | 236° | 11km/h | 28520m | -36.9m/s | -45.8°C | 2.6% | 0hPa | 2.6V | 08:28:10 | 02:33:59 | 00:00:00 | |
| DB0UT-7 | 2026-08-30 12:10:08 | 44.67149 | 8.28682 | 294° | 29km/h | 28447m | -37.0m/s | -45.8°C | 2.6% | 0hPa | 2.7V | 00:00:00 | 02:34:01 | 00:00:00 | |
| AUTORXJP | 2026-08-30 12:10:04 | 44.67153 | 8.28695 | 195° | 4km/h | 28624m | -34.3m/s | -46.3°C | 0.5% | -1.0hPa | 2.7V | 00:00:00 | 00:00:00 | 00:00:00 | |
| DO3MHA-12 | 2026-08-30 12:10:00 | 44.67147 | 8.28689 | 20° | 27km/h | 28726m | -35.4m/s | -46.2°C | 2.9% | 0hPa | 2.7V | 00:00:00 | 02:33:53 | 00:00:00 | |
| IW2NTF | 2026-08-30 12:09:58 | 44.67114 | 8.28687 | 347° | 40km/h | 28861m | -34.3m/s | -45.3°C | 2.6% | 0hPa | 2.7V | 08:30:00 | 02:33:49 | 00:00:00 | |
| IW2NTF | 2026-08-30 12:09:48 | 44.67104 | 8.28715 | 107° | 40km/h | 29197m | -35.5m/s | -44.5°C | 2.4% | 0hPa | 2.7V | 08:30:00 | 02:33:39 | 00:00:00 | |
| DO3MHA-12 | 2026-08-30 12:09:45 | 44.67106 | 8.28701 | 91° | 53km/h | 29232m | -35.6m/s | -44.6°C | 2.5% | 0hPa | 2.7V | 00:00:00 | 02:33:38 | 00:00:00 | |
| IW2NTF | 2026-08-30 12:09:39 | 44.67022 | 8.28698 | 290° | 66km/h | 29520m | -32.4m/s | -45.2°C | 2.6% | 0hPa | 2.7V | 08:30:00 | 02:33:29 | 00:00:00 | |
| DB0UT-7 | 2026-08-30 12:09:38 | 44.67039 | 8.28662 | 321° | 55km/h | 29457m | -31.0m/s | -45.0°C | 2.5% | 0hPa | 2.7V | 00:00:00 | 00:00:00 | 00:00:00 | |
| AUTORXJP | 2026-08-30 12:09:32 | 44.67024 | 8.28772 | 234° | 35km/h | 29649m | -33.3m/s | -45.2°C | 0.4% | -1.0hPa | 2.7V | 00:00:00 | 00:00:00 | 00:00:00 | |
| DO3MHA-12 | 2026-08-30 12:09:31 | 44.67030 | 8.28780 | 206° | 46km/h | 29681m | -32.1m/s | -45.1°C | 2.7% | 0hPa | 2.7V | 00:00:00 | 02:33:24 | 00:00:00 | |
| IW2NTF | 2026-08-30 12:09:29 | 44.67005 | 8.28708 | 27° | 75km/h | 29904m | -31.7m/s | -44.3°C | 2.5% | 0hPa | 2.6V | 08:30:00 | 02:33:17 | 00:00:00 | |
| IW2NTF | 2026-08-30 12:09:19 | 44.66879 | 8.28783 | 228° | 33km/h | 30221m | -31.9m/s | -43.3°C | 2.4% | 0hPa | 2.6V | 08:30:00 | 02:33:07 | 00:00:00 | |
| DO3MHA-12 | 2026-08-30 12:09:11 | 44.66904 | 8.28781 | 140° | 57km/h | 30315m | -32.3m/s | -43.0°C | 2.3% | 0hPa | 2.7V | 00:00:00 | 02:33:04 | 00:00:00 | |
| IW2NTF | 2026-08-30 12:09:08 | 44.66870 | 8.28642 | 24° | 86km/h | 30541m | -31.1m/s | -42.8°C | 2.3% | 0hPa | 2.7V | 08:30:00 | 02:32:57 | 00:00:00 | |
| DB0UT-7 | 2026-08-30 12:09:08 | 44.66917 | 8.28725 | 83° | 69km/h | 30412m | -33.1m/s | -42.9°C | 2.4% | 0hPa | 2.7V | 00:00:00 | 02:33:01 | 00:00:00 | |
| AUTORXJP | 2026-08-30 12:09:01 | 44.66810 | 8.28643 | 334° | 77km/h | 30633m | -32.3m/s | -42.5°C | 0.4% | -1.0hPa | 2.7V | 00:00:00 | 00:00:00 | 00:00:00 | |
| IW2NTF | 2026-08-30 12:08:58 | 44.66788 | 8.28753 | 181° | 31km/h | 30859m | -33.1m/s | -42.4°C | 2.3% | 0hPa | 2.7V | 08:30:00 | 02:32:47 | 00:00:00 | |
| DO3MHA-12 | 2026-08-30 12:08:55 | 44.66780 | 8.28748 | 219° | 35km/h | 30827m | -33.6m/s | -42.6°C | 2.3% | 0hPa | 2.7V | 00:00:00 | 02:32:48 | 00:00:00 | |
| IW2NTF | 2026-08-30 12:08:45 | 44.66617 | 8.28659 | 322° | 42km/h | 31318m | -32.1m/s | -42°C | 2.2% | 0hPa | 2.7V | 08:30:00 | 02:32:33 | 00:00:00 | |
| DO3MHA-12 | 2026-08-30 12:08:43 | 44.66661 | 8.28631 | 345° | 47km/h | 31213m | -37.4m/s | -41.8°C | 2.2% | 0hPa | 2.7V | 00:00:00 | 02:32:36 | 08:30:00 | |
| DB0UT-7 | 2026-08-30 12:08:38 | 44.66609 | 8.28670 | 148° | 46km/h | 31381m | -31.0m/s | -42.1°C | 2.3% | 0hPa | 2.7V | 00:00:00 | 00:00:00 | 00:00:00 | |
| DO3MHA-12 | 2026-08-30 12:08:33 | 44.66642 | 8.28599 | 118° | 88km/h | 31531m | -31.1m/s | -41.6°C | 2.2% | 0hPa | 2.7V | 00:00:00 | 02:32:26 | 00:00:00 | |
| AUTORXJP | 2026-08-30 12:08:30 | 44.66672 | 8.28513 | 116° | 91km/h | 31631m | -35.8m/s | -41.5°C | 0.4% | -1.0hPa | 2.7V | 00:00:00 | 00:00:00 | 00:00:00 | |
| DO3MHA-12 | 2026-08-30 12:08:23 | 44.66713 | 8.28358 | 88° | 20km/h | 31872m | -36.6m/s | -41.5°C | 2.3% | 0hPa | 2.7V | 00:00:00 | 02:32:16 | 00:00:00 | |
| IW2NTF | 2026-08-30 12:08:20 | 44.66708 | 8.28303 | 129° | 15km/h | 32201m | -49.8m/s | -41°C | 2.2% | 0hPa | 2.7V | 08:30:00 | 02:32:08 | 00:00:00 | |
| DO3MHA-12 | 2026-08-30 12:08:12 | 44.66714 | 8.28282 | 104° | 33km/h | 32366m | -57.7m/s | -40.2°C | 2.1% | 0hPa | 2.6V | 00:00:00 | 02:32:05 | 00:00:00 | |
| IW2NTF | 2026-08-30 12:08:10 | 44.66721 | 8.28195 | 99° | 29km/h | 32748m | -55m/s | -39°C | 1.7% | 0hPa | 2.7V | 08:30:00 | 02:31:58 | 00:00:00 | |
| DB0UT-7 | 2026-08-30 12:08:08 | 44.66717 | 8.28233 | 90° | 27km/h | 32591m | -53.2m/s | -39.6°C | 2.0% | 0hPa | 2.7V | 00:00:00 | 02:32:01 | 00:00:00 | |
| DO3MHA-12 | 2026-08-30 12:08:02 | 44.66728 | 8.28172 | 126° | 24km/h | 32905m | -47.1m/s | -39.0°C | 1.8% | 0hPa | 2.7V | 00:00:00 | 02:31:55 | 00:00:00 | |
| IW2NTF | 2026-08-30 12:08:00 | 44.66755 | 8.28156 | 111° | 29km/h | 33216m | -61.1m/s | -38.7°C | 1.8% | 0hPa | 2.7V | 08:30:00 | 02:31:48 | 00:00:00 | |
| AUTORXJP | 2026-08-30 12:07:59 | 44.66741 | 8.28164 | 187° | 18km/h | 33035m | -45.9m/s | -39.4°C | 0.2% | -1.0hPa | 2.7V | 00:00:00 | 00:00:00 | 00:00:00 | |
| DO3MHA-12 | 2026-08-30 12:07:52 | 44.66764 | 8.28126 | 115° | 27km/h | 33364m | -37.8m/s | -38.9°C | 2.1% | 0hPa | 2.7V | 00:00:00 | 02:31:45 | 00:00:00 | |
| IW2NTF | 2026-08-30 12:07:45 | 44.66793 | 8.28044 | 131° | 24km/h | 33433m | 4.4m/s | -38.8°C | 1.9% | 0hPa | 2.7V | 08:30:00 | 02:31:36 | 00:00:00 | |
| DO3MHA-12 | 2026-08-30 12:07:42 | 44.66797 | 8.28037 | 131° | 35km/h | 33429m | 3.9m/s | -38.7°C | 2.0% | 0hPa | 2.6V | 00:00:00 | 02:31:35 | 00:00:00 | |
| DB0UT-7 | 2026-08-30 12:07:38 | 44.66815 | 8.27997 | 116° | 31km/h | 33408m | 5.0m/s | -38.8°C | 2.1% | 0hPa | 2.7V | 00:00:00 | 00:00:00 | 08:30:00 | |
| IW2NTF | 2026-08-30 12:07:35 | 44.66838 | 8.27941 | 134° | 27km/h | 33384m | 5.8m/s | -39°C | 2% | 0hPa | 2.7V | 08:30:00 | 02:31:26 | 00:00:00 | |
| DO3MHA-12 | 2026-08-30 12:07:32 | 44.66842 | 8.27935 | 140° | 33km/h | 33379m | 4.6m/s | -38.9°C | 2.1% | 0hPa | 2.7V | 00:00:00 | 02:31:25 | 00:00:00 | |
| AUTORXJP | 2026-08-30 12:07:28 | 44.66855 | 8.27906 | 102° | 31km/h | 33360m | 5.9m/s | -38.9°C | 0.2% | -1.0hPa | 2.7V | 00:00:00 | 00:00:00 | 00:00:00 | |
| IW2NTF | 2026-08-30 12:07:25 | 44.66868 | 8.27837 | 118° | 37km/h | 33336m | 5.8m/s | -39°C | 2% | 0hPa | 2.7V | 08:30:00 | 02:31:16 | 00:00:00 | |
| DO3MHA-12 | 2026-08-30 12:07:22 | 44.66873 | 8.27827 | 131° | 27km/h | 33331m | 5.5m/s | -39.0°C | 2.0% | 0hPa | 2.7V | 00:00:00 | 02:31:15 | 00:00:00 | |
| IW2NTF | 2026-08-30 12:07:15 | 44.66905 | 8.27757 | 93° | 26km/h | 33286m | 5.6m/s | -39.2°C | 2% | 0hPa | 2.7V | 08:30:00 | 02:31:06 | 00:00:00 | |
| DO3MHA-12 | 2026-08-30 12:07:12 | 44.66906 | 8.27749 | 99° | 24km/h | 33281m | 5.2m/s | -39.2°C | 2.0% | 0hPa | 2.6V | 00:00:00 | 02:31:05 | 08:30:00 | |
| DB0UT-7 | 2026-08-30 12:07:08 | 44.66914 | 8.27723 | 127° | 24km/h | 33263m | 4.6m/s | -39.4°C | 2.0% | 0hPa | 2.6V | 00:00:00 | 02:31:01 | 00:00:00 | |
| DO3MHA-12 | 2026-08-30 12:07:02 | 44.66937 | 8.27676 | 133° | 24km/h | 33233m | 4.9m/s | -39.7°C | 2.0% | 0hPa | 2.6V | 00:00:00 | 02:30:55 | 00:00:00 | |
| AUTORXJP | 2026-08-30 12:06:57 | 44.66951 | 8.27663 | 125° | 16km/h | 33209m | 4.2m/s | -39.8°C | 0.2% | -1.0hPa | 2.6V | 00:00:00 | 00:00:00 | 00:00:00 | |
| DO3MHA-12 | 2026-08-30 12:06:52 | 44.66967 | 8.27606 | 115° | 22km/h | 33184m | 3.1m/s | -40.1°C | 2.1% | 0hPa | 2.6V | 00:00:00 | 02:30:45 | 00:00:00 | |
| DO3MHA-12 | 2026-08-30 12:06:42 | 44.66988 | 8.27555 | 85° | 27km/h | 33135m | 4.5m/s | -39.8°C | 2.0% | 0hPa | 2.6V | 00:00:00 | 02:30:35 | 00:00:00 | |
| DB0UT-7 | 2026-08-30 12:06:38 | 44.66996 | 8.27510 | 133° | 27km/h | 33115m | 5.6m/s | -39.8°C | 2.0% | 0hPa | 2.7V | 00:00:00 | 00:00:00 | 00:00:00 | |
| IW2NTF | 2026-08-30 12:06:36 | 44.67014 | 8.27496 | 159° | 22km/h | 33100m | 4.2m/s | -39.7°C | 2.1% | 0hPa | 2.7V | 08:30:00 | 02:30:28 | 00:00:00 | |
| DO3MHA-12 | 2026-08-30 12:06:32 | 44.67023 | 8.27482 | 101° | 29km/h | 33086m | 5.3m/s | -39.6°C | 2.0% | 0hPa | 2.7V | 00:00:00 | 02:30:25 | 00:00:00 | |
| IW2NTF | 2026-08-30 12:06:30 | 44.67038 | 8.27414 | 139° | 29km/h | 33050m | 5.1m/s | -39.5°C | 2.1% | 0hPa | 2.7V | 08:30:00 | 02:30:18 | 00:00:00 | |
| AUTORXJP | 2026-08-30 12:06:26 | 44.67033 | 8.27421 | 129° | 29km/h | 33055m | 5.4m/s | -39.5°C | 0.4% | -1.0hPa | 2.7V | 00:00:00 | 00:00:00 | 00:00:00 | |
| DO3MHA-12 | 2026-08-30 12:06:22 | 44.67053 | 8.27396 | 129° | 26km/h | 33037m | 5.0m/s | -39.4°C | 2.0% | 0hPa | 2.7V | 00:00:00 | 02:30:15 | 00:00:00 | |
| IW2NTF | 2026-08-30 12:06:15 | 44.67068 | 8.27317 | 120° | 31km/h | 32990m | 5m/s | -39.4°C | 1.8% | 0hPa | 2.7V | 08:30:00 | 02:30:06 | 00:00:00 | |
| DO3MHA-12 | 2026-08-30 12:06:12 | 44.67072 | 8.27307 | 119° | 31km/h | 32985m | 5.7m/s | -39.2°C | 1.9% | 0hPa | 2.6V | 00:00:00 | 02:30:05 | 00:00:00 | |
| DB0UT-7 | 2026-08-30 12:06:08 | 44.67089 | 8.27265 | 124° | 35km/h | 32966m | 4.8m/s | -39.4°C | 1.9% | 0hPa | 2.7V | 00:00:00 | 02:30:01 | 00:00:00 | |
| IW2NTF | 2026-08-30 12:06:05 | 44.67111 | 8.27227 | 112° | 26km/h | 32940m | 4.2m/s | -39.7°C | 1.9% | 0hPa | 2.7V | 08:30:00 | 02:29:56 | 00:00:00 | |
| DO3MHA-12 | 2026-08-30 12:06:02 | 44.67112 | 8.27218 | 97° | 38km/h | 32936m | 4.6m/s | -39.6°C | 2.0% | 0hPa | 2.6V | 00:00:00 | 02:29:55 | 00:00:00 | |
| IW2NTF | 2026-08-30 12:05:55 | 44.67153 | 8.27108 | 154° | 18km/h | 32881m | 4.7m/s | -39.8°C | 2% | 0hPa | 2.6V | 08:30:00 | 02:29:44 | 00:00:00 | |
| AUTORXJP | 2026-08-30 12:05:55 | 44.67124 | 8.27126 | 139° | 38km/h | 32900m | 6.3m/s | -39.9°C | 0.4% | -1.0hPa | 2.6V | 00:00:00 | 00:00:00 | 00:00:00 | |
| DO3MHA-12 | 2026-08-30 12:05:52 | 44.67148 | 8.27110 | 166° | 31km/h | 32885m | 3.6m/s | -39.8°C | 2.0% | 0hPa | 2.6V | 00:00:00 | 02:29:45 | 00:00:00 | |
| IW2NTF | 2026-08-30 12:05:45 | 44.67160 | 8.27002 | 130° | 44km/h | 32830m | 4.9m/s | -39.6°C | 2.1% | 0hPa | 2.6V | 08:30:00 | 02:29:34 | 00:00:00 | |
| DO3MHA-12 | 2026-08-30 12:05:42 | 44.67153 | 8.27014 | 125° | 35km/h | 32835m | 5.0m/s | -39.5°C | 2.0% | 0hPa | 2.6V | 00:00:00 | 02:29:35 | 08:30:00 | |
| DB0UT-7 | 2026-08-30 12:05:38 | 44.67179 | 8.26968 | 120° | 33km/h | 32815m | 5.0m/s | -39.5°C | 1.9% | 0hPa | 2.6V | 00:00:00 | 00:00:00 | 00:00:00 | |
| DO3MHA-12 | 2026-08-30 12:05:32 | 44.67185 | 8.26908 | 96° | 31km/h | 32785m | 4.8m/s | -39.8°C | 2.0% | 0hPa | 2.6V | 00:00:00 | 02:29:25 | 00:00:00 | |
| OE5DXL-15 | 2026-08-30 12:05:28 | 44.67191 | 8.26848 | 101° | 33km/h | 32754m | 4.5m/s | -39.7°C | 2.0% | 0hPa | 2.6V | 00:00:00 | 00:00:00 | 00:00:00 | |
| AUTORXJP | 2026-08-30 12:05:24 | 44.67196 | 8.26826 | 113° | 33km/h | 32745m | 5.5m/s | -39.8°C | 0.3% | -1.0hPa | 2.6V | 00:00:00 | 00:00:00 | 00:00:00 | |
| DO3MHA-12 | 2026-08-30 12:05:22 | 44.67204 | 8.26804 | 121° | 37km/h | 32734m | 4.4m/s | -39.8°C | 2.0% | 0hPa | 2.6V | 00:00:00 | 02:29:15 | 00:00:00 | |
| DO3MHA-12 | 2026-08-30 12:05:12 | 44.67193 | 8.26685 | 99° | 31km/h | 32684m | 5.3m/s | -40.1°C | 2.0% | 0hPa | 2.6V | 00:00:00 | 02:29:05 | 00:00:00 | |
| DB0UT-7 | 2026-08-30 12:05:08 | 44.67204 | 8.26643 | 103° | 29km/h | 32664m | 5.2m/s | -40.3°C | 1.9% | 0hPa | 2.7V | 00:00:00 | 02:29:01 | 00:00:00 | |
| DO3MHA-12 | 2026-08-30 12:05:02 | 44.67192 | 8.26580 | 75° | 27km/h | 32634m | 5.2m/s | -40.5°C | 2.0% | 0hPa | 2.7V | 00:00:00 | 02:28:55 | 00:00:00 | |
| AUTORXJP | 2026-08-30 12:04:53 | 44.67182 | 8.26475 | 60° | 18km/h | 32584m | 5.4m/s | -40.7°C | 0.3% | -1.0hPa | 2.7V | 00:00:00 | 00:00:00 | 00:00:00 | |
| DO3MHA-12 | 2026-08-30 12:04:50 | 44.67179 | 8.26464 | 83° | 31km/h | 32572m | 5.2m/s | -40.5°C | 2.1% | 0hPa | 2.7V | 00:00:00 | 02:28:43 | 00:00:00 | |
| DO3MHA-12 | 2026-08-30 12:04:40 | 44.67162 | 8.26354 | 93° | 27km/h | 32525m | 5.6m/s | -40.9°C | 2.2% | 0hPa | 2.7V | 00:00:00 | 02:28:33 | 00:00:00 | |
| DB0UT-7 | 2026-08-30 12:04:38 | 44.67163 | 8.26340 | 100° | 29km/h | 32514m | 4.6m/s | -40.9°C | 2.0% | 0hPa | 2.7V | 00:00:00 | 00:00:00 | 00:00:00 | |
| IW2NTF | 2026-08-30 12:04:37 | 44.67141 | 8.26280 | 75° | 49km/h | 32481m | 4.9m/s | -41.3°C | 2.1% | 0hPa | 2.6V | 08:30:00 | 02:28:24 | 00:00:00 | |
| DO3MHA-12 | 2026-08-30 12:04:30 | 44.67139 | 8.26264 | 83° | 26km/h | 32476m | 4.8m/s | -41.3°C | 2.3% | 0hPa | 2.6V | 00:00:00 | 02:28:23 | 00:00:00 | |
| AUTORXJP | 2026-08-30 12:04:22 | 44.67125 | 8.26192 | 57° | 26km/h | 32432m | 4.6m/s | -41.0°C | 0.2% | -1.0hPa | 2.6V | 00:00:00 | 00:00:00 | 00:00:00 | |
| DO3MHA-12 | 2026-08-30 12:04:20 | 44.67121 | 8.26184 | 66° | 31km/h | 32427m | 5.0m/s | -41.0°C | 2.2% | 0hPa | 2.6V | 00:00:00 | 02:28:13 | 00:00:00 | |
| IW2NTF | 2026-08-30 12:04:11 | 44.67083 | 8.26047 | 60° | 22km/h | 32357m | 4.5m/s | -41.1°C | 2.1% | 0hPa | 2.6V | 08:30:00 | 02:27:59 | 00:00:00 | |
| DO3MHA-12 | 2026-08-30 12:04:10 | 44.67091 | 8.26080 | 69° | 33km/h | 32377m | 5.1m/s | -41.1°C | 2.3% | 0hPa | 2.7V | 00:00:00 | 02:28:03 | 08:30:00 | |
| DB0UT-7 | 2026-08-30 12:04:08 | 44.67087 | 8.26061 | 76° | 33km/h | 32367m | 4.7m/s | -41.0°C | 2.2% | 0hPa | 2.7V | 00:00:00 | 02:28:01 | 00:00:00 | |
| DO3MHA-12 | 2026-08-30 12:04:00 | 44.67052 | 8.25977 | 72° | 35km/h | 32328m | 4.5m/s | -41.2°C | 2.0% | 0hPa | 2.7V | 00:00:00 | 02:27:53 | 00:00:00 | |
| IW2NTF | 2026-08-30 12:03:54 | 44.67036 | 8.25906 | 9° | 29km/h | 32288m | 4.9m/s | -41.3°C | 2.3% | 0hPa | 2.7V | 08:30:00 | 02:27:45 | 00:00:00 | |
| AUTORXJP | 2026-08-30 12:03:51 | 44.67020 | 8.25897 | 33° | 38km/h | 32280m | 3.5m/s | -41.4°C | 0.4% | -1.0hPa | 2.7V | 00:00:00 | 00:00:00 | 00:00:00 | |
| DO3MHA-12 | 2026-08-30 12:03:50 | 44.67020 | 8.25897 | 34° | 35km/h | 32280m | 3.4m/s | -41.3°C | 2.2% | 0hPa | 2.7V | 00:00:00 | 02:27:43 | 00:00:00 | |
| IW2NTF | 2026-08-30 12:03:47 | 44.67007 | 8.25798 | 67° | 16km/h | 32241m | 5.4m/s | -41.7°C | 2.3% | 0hPa | 2.7V | 08:30:00 | 02:27:35 | 00:00:00 | |
| DO3MHA-12 | 2026-08-30 12:03:40 | 44.66999 | 8.25792 | 11° | 29km/h | 32229m | 6.2m/s | -41.8°C | 2.1% | 0hPa | 2.6V | 00:00:00 | 02:27:33 | 00:00:00 | |
| DB0UT-7 | 2026-08-30 12:03:38 | 44.66982 | 8.25789 | 8° | 22km/h | 32218m | 4.9m/s | -41.8°C | 2.4% | 0hPa | 2.6V | 00:00:00 | 00:00:00 | 00:00:00 | |
| IW2NTF | 2026-08-30 12:03:31 | 44.66953 | 8.25733 | 77° | 31km/h | 32176m | 4.9m/s | -41.6°C | 2.2% | 0hPa | 2.6V | 08:30:00 | 02:27:23 | 00:00:00 | |
| DO3MHA-12 | 2026-08-30 12:03:29 | 44.66951 | 8.25723 | 68° | 20km/h | 32172m | 4.8m/s | -41.7°C | 2.2% | 0hPa | 2.7V | 00:00:00 | 02:27:22 | 00:00:00 | |
| IW2NTF | 2026-08-30 12:03:22 | 44.66925 | 8.25676 | 53° | 13km/h | 32126m | 5m/s | -42°C | 2.3% | 0hPa | 2.7V | 08:30:00 | 02:27:13 | 00:00:00 | |
| AUTORXJP | 2026-08-30 12:03:20 | 44.66922 | 8.25672 | 48° | 16km/h | 32121m | 6.1m/s | -42.0°C | 0.3% | -1.0hPa | 2.7V | 00:00:00 | 00:00:00 | 00:00:00 | |
| DO3MHA-12 | 2026-08-30 12:03:19 | 44.66922 | 8.25672 | 49° | 22km/h | 32121m | 6.0m/s | -41.9°C | 2.1% | 0hPa | 2.7V | 00:00:00 | 02:27:12 | 00:00:00 | |
| IW2NTF | 2026-08-30 12:03:15 | 44.66906 | 8.25612 | 104° | 11km/h | 32072m | 5.6m/s | -42°C | 2.4% | 0hPa | 2.7V | 08:30:00 | 02:27:03 | 00:00:00 | |
| DO3MHA-12 | 2026-08-30 12:03:09 | 44.66906 | 8.25608 | 82° | 18km/h | 32066m | 6.1m/s | -42.0°C | 2.2% | 0hPa | 2.7V | 00:00:00 | 02:27:02 | 00:00:00 | |
| DB0UT-7 | 2026-08-30 12:03:08 | 44.66905 | 8.25604 | 59° | 24km/h | 32061m | 5.4m/s | -42.0°C | 2.3% | 0hPa | 2.6V | 00:00:00 | 02:27:01 | 08:30:00 | |
| IW2NTF | 2026-08-30 12:03:02 | 44.66900 | 8.25550 | 94° | 27km/h | 32017m | 6.3m/s | -41.6°C | 2.1% | 0hPa | 2.6V | 08:30:00 | 02:26:53 | 00:00:00 | |
| DO3MHA-12 | 2026-08-30 12:02:59 | 44.66901 | 8.25540 | 91° | 22km/h | 32012m | 5.7m/s | -41.6°C | 2.3% | 0hPa | 2.6V | 00:00:00 | 02:26:52 | 00:00:00 | |
| IW2NTF | 2026-08-30 12:02:55 | 44.66914 | 8.25473 | 81° | 22km/h | 31963m | 6.3m/s | -41.6°C | 2.2% | 0hPa | 2.6V | 08:30:00 | 02:26:43 | 00:00:00 | |
| AUTORXJP | 2026-08-30 12:02:49 | 44.66909 | 8.25456 | 66° | 27km/h | 31952m | 5.1m/s | -41.6°C | 0.4% | -1.0hPa | 2.6V | 00:00:00 | 00:00:00 | 00:00:00 | |
| IW2NTF | 2026-08-30 12:02:41 | 44.66916 | 8.25377 | 100° | 26km/h | 31910m | 5.8m/s | -41.5°C | 2.2% | 0hPa | 2.6V | 08:30:00 | 02:26:33 | 00:00:00 | |
| DO3MHA-12 | 2026-08-30 12:02:39 | 44.66916 | 8.25368 | 94° | 24km/h | 31904m | 5.1m/s | -41.5°C | 2.2% | 0hPa | 2.6V | 00:00:00 | 02:26:32 | 08:30:00 | |
| DB0UT-7 | 2026-08-30 12:02:38 | 44.66917 | 8.25360 | 92° | 29km/h | 31900m | 4.7m/s | -41.5°C | 2.1% | 0hPa | 2.7V | 00:00:00 | 00:00:00 | 00:00:00 | |
| IW2NTF | 2026-08-30 12:02:35 | 44.66927 | 8.25297 | 85° | 22km/h | 31856m | 6.2m/s | -41.4°C | 2.1% | 0hPa | 2.7V | 08:30:00 | 02:26:23 | 00:00:00 | |
| DO3MHA-12 | 2026-08-30 12:02:30 | 44.66926 | 8.25289 | 73° | 31km/h | 31851m | 5.5m/s | -41.4°C | 2.2% | 0hPa | 2.7V | 00:00:00 | 02:26:22 | 00:00:00 | |
| IW2NTF | 2026-08-30 12:02:21 | 44.66933 | 8.25190 | 103° | 29km/h | 31802m | 6.1m/s | -41.2°C | 2.3% | 0hPa | 2.7V | 08:30:00 | 02:26:13 | 00:00:00 | |
| DO3MHA-12 | 2026-08-30 12:02:19 | 44.66934 | 8.25180 | 92° | 29km/h | 31797m | 5.8m/s | -41.1°C | 2.2% | 0hPa | 2.7V | 00:00:00 | 02:26:12 | 00:00:00 | |
| AUTORXJP | 2026-08-30 12:02:18 | 44.66932 | 8.25164 | 77° | 22km/h | 31786m | 4.9m/s | -41.1°C | 0.3% | -1.0hPa | 2.7V | 00:00:00 | 00:00:00 | 00:00:00 | |
| IW2NTF | 2026-08-30 12:02:11 | 44.66931 | 8.25089 | 86° | 33km/h | 31748m | 6m/s | -41.3°C | 2.3% | 0hPa | 2.7V | 08:30:00 | 02:26:03 | 00:00:00 | |
| DO3MHA-12 | 2026-08-30 12:02:09 | 44.66930 | 8.25077 | 85° | 37km/h | 31743m | 5.5m/s | -41.2°C | 2.2% | 0hPa | 2.7V | 00:00:00 | 02:26:02 | 00:00:00 | |
| DB0UT-7 | 2026-08-30 12:02:08 | 44.66929 | 8.25065 | 86° | 38km/h | 31738m | 4.9m/s | -41.2°C | 2.0% | 0hPa | 2.7V | 00:00:00 | 02:26:01 | 00:00:00 | |
| IW2NTF | 2026-08-30 12:02:01 | 44.66918 | 8.24939 | 65° | 37km/h | 31685m | 4.6m/s | -41.4°C | 2.3% | 0hPa | 2.7V | 08:30:00 | 02:25:51 | 00:00:00 | |
| DO3MHA-12 | 2026-08-30 12:01:59 | 44.66922 | 8.24951 | 63° | 37km/h | 31690m | 4.5m/s | -41.3°C | 2.0% | 0hPa | 2.6V | 00:00:00 | 02:25:52 | 00:00:00 | |
| IW2NTF | 2026-08-30 12:01:52 | 44.66899 | 8.24820 | 52° | 37km/h | 31633m | 5.2m/s | -41.4°C | 2.1% | 0hPa | 2.6V | 08:30:00 | 02:25:41 | 00:00:00 | |
| AUTORXJP | 2026-08-30 12:01:46 | 44.66888 | 8.24798 | 56° | 42km/h | 31622m | 5.5m/s | -41.4°C | 0.4% | -1.0hPa | 2.7V | 00:00:00 | 00:00:00 | 00:00:00 | |
| OE5DXL-15 | 2026-08-30 12:01:43 | 44.66863 | 8.24742 | 56° | 38km/h | 31601m | 5.9m/s | -41.6°C | 2.1% | 0hPa | 2.7V | 00:00:00 | 00:00:00 | 00:00:00 | |
| IW2NTF | 2026-08-30 12:01:41 | 44.66841 | 8.24695 | 66° | 31km/h | 31580m | 6.5m/s | -41.7°C | 2.2% | 0hPa | 2.7V | 08:30:00 | 02:25:31 | 00:00:00 | |
| DO3MHA-12 | 2026-08-30 12:01:39 | 44.66845 | 8.24705 | 61° | 38km/h | 31586m | 5.0m/s | -41.7°C | 2.4% | 0hPa | 2.7V | 00:00:00 | 02:25:32 | 00:00:00 | |
| DB0UT-7 | 2026-08-30 12:01:38 | 44.66841 | 8.24695 | 67° | 46km/h | 31580m | 6.5m/s | -41.6°C | 2.2% | 0hPa | 2.7V | 00:00:00 | 00:00:00 | 00:00:00 | |
| IW2NTF | 2026-08-30 12:01:31 | 44.66774 | 8.24587 | 47° | 53km/h | 31528m | 5.2m/s | -41.8°C | 2.1% | 0hPa | 2.6V | 08:30:00 | 02:25:21 | 00:00:00 | |
| DO3MHA-12 | 2026-08-30 12:01:29 | 44.66783 | 8.24601 | 43° | 38km/h | 31534m | 5.3m/s | -41.7°C | 2.1% | 0hPa | 2.6V | 00:00:00 | 02:25:22 | 00:00:00 | |
| IW2NTF | 2026-08-30 12:01:19 | 44.66713 | 8.24491 | 45° | 44km/h | 31477m | 5.2m/s | -41.9°C | 2.2% | 0hPa | 2.6V | 08:30:00 | 02:25:11 | 00:00:00 | |
| DO3MHA-12 | 2026-08-30 12:01:19 | 44.66720 | 8.24500 | 43° | 57km/h | 31483m | 5.6m/s | -41.9°C | 2.2% | 0hPa | 2.7V | 00:00:00 | 02:25:12 | 00:00:00 | |
| AUTORXJP | 2026-08-30 12:01:15 | 44.66683 | 8.24451 | 40° | 62km/h | 31462m | 6.2m/s | -41.9°C | 0.5% | -1.0hPa | 2.7V | 00:00:00 | 00:00:00 | 00:00:00 | |
| IW2NTF | 2026-08-30 12:01:09 | 44.66600 | 8.24365 | 43° | 40km/h | 31425m | 5m/s | -42°C | 2.2% | 0hPa | 2.7V | 08:30:00 | 02:25:01 | 00:00:00 | |
| DO3MHA-12 | 2026-08-30 12:01:09 | 44.66608 | 8.24375 | 41° | 47km/h | 31431m | 5.9m/s | -42.0°C | 2.5% | 0hPa | 2.7V | 00:00:00 | 02:25:02 | 08:30:00 | |
| DB0UT-7 | 2026-08-30 12:01:08 | 44.66600 | 8.24364 | 44° | 47km/h | 31426m | 5.0m/s | -42.0°C | 2.2% | 0hPa | 2.6V | 00:00:00 | 02:25:01 | 00:00:00 | |
| IW2NTF | 2026-08-30 12:01:00 | 44.66492 | 8.24277 | 35° | 55km/h | 31376m | 4.6m/s | -42°C | 2.3% | 0hPa | 2.6V | 08:30:00 | 02:24:51 | 00:00:00 | |
| DO3MHA-12 | 2026-08-30 12:00:59 | 44.66504 | 8.24288 | 35° | 49km/h | 31382m | 4.9m/s | -42.0°C | 2.3% | 0hPa | 2.7V | 00:00:00 | 02:24:52 | 00:00:00 | |
| IW2NTF | 2026-08-30 12:00:49 | 44.66390 | 8.24200 | 38° | 46km/h | 31326m | 4.7m/s | -41.8°C | 2.2% | 0hPa | 2.7V | 08:30:00 | 02:24:41 | 00:00:00 | |
| DO3MHA-12 | 2026-08-30 12:00:49 | 44.66399 | 8.24210 | 35° | 49km/h | 31331m | 5.7m/s | -41.7°C | 2.3% | 0hPa | 2.7V | 00:00:00 | 02:24:42 | 00:00:00 | |
| AUTORXJP | 2026-08-30 12:00:44 | 44.66346 | 8.24163 | 22° | 55km/h | 31306m | 5.1m/s | -41.6°C | 0.4% | -1.0hPa | 2.7V | 00:00:00 | 00:00:00 | 00:00:00 | |
| IW2NTF | 2026-08-30 12:00:39 | 44.66282 | 8.24124 | 30° | 35km/h | 31277m | 4.4m/s | -41.6°C | 2.4% | 0hPa | 2.7V | 08:30:00 | 02:24:31 | 00:00:00 | |
| DO3MHA-12 | 2026-08-30 12:00:39 | 44.66290 | 8.24130 | 30° | 42km/h | 31282m | 4.6m/s | -41.7°C | 2.4% | 0hPa | 2.7V | 00:00:00 | 02:24:32 | 00:00:00 | |
| DB0UT-7 | 2026-08-30 12:00:38 | 44.66282 | 8.24124 | 31° | 38km/h | 31277m | 4.3m/s | -41.6°C | 2.4% | 0hPa | 2.6V | 00:00:00 | 00:00:00 | 00:00:00 | |
| IW2NTF | 2026-08-30 12:00:29 | 44.66164 | 8.24049 | 11° | 38km/h | 31217m | 5.6m/s | -41.7°C | 2.2% | 0hPa | 2.6V | 08:30:00 | 02:24:19 | 00:00:00 | |
| DO3MHA-12 | 2026-08-30 12:00:29 | 44.66192 | 8.24063 | 28° | 35km/h | 31232m | 4.5m/s | -41.6°C | 2.2% | 0hPa | 2.6V | 00:00:00 | 02:24:22 | 00:00:00 | |
| IW2NTF | 2026-08-30 12:00:19 | 44.66087 | 8.23992 | 22° | 46km/h | 31167m | 4.6m/s | -42.1°C | 2.3% | 0hPa | 2.6V | 08:30:00 | 02:24:09 | 00:00:00 | |
| DO3MHA-12 | 2026-08-30 12:00:19 | 44.66114 | 8.24015 | 42° | 35km/h | 31183m | 4.6m/s | -42.0°C | 2.4% | 0hPa | 2.7V | 00:00:00 | 02:24:12 | 00:00:00 | |
| AUTORXJP | 2026-08-30 12:00:13 | 44.66057 | 8.23979 | 13° | 33km/h | 31152m | 5.5m/s | -41.9°C | 0.4% | -1.0hPa | 2.7V | 00:00:00 | 00:00:00 | 00:00:00 | |
| IW2NTF | 2026-08-30 12:00:09 | 44.66009 | 8.23972 | 16° | 37km/h | 31118m | 4.3m/s | -41.8°C | 2.3% | 0hPa | 2.7V | 08:30:00 | 02:23:59 | 00:00:00 | |
| DO3MHA-12 | 2026-08-30 12:00:09 | 44.66032 | 8.23975 | 360° | 37km/h | 31132m | 4.9m/s | -41.8°C | 2.3% | 0hPa | 2.6V | 00:00:00 | 02:24:02 | 00:00:00 | |
| DB0UT-7 | 2026-08-30 12:00:08 | 44.66025 | 8.23975 | 2° | 33km/h | 31127m | 5.1m/s | -41.8°C | 2.3% | 0hPa | 2.6V | 00:00:00 | 02:24:01 | 00:00:00 | |
| IW2NTF | 2026-08-30 11:59:59 | 44.65929 | 8.23915 | 342° | 24km/h | 31068m | 5.9m/s | -42.4°C | 2.2% | 0hPa | 2.6V | 08:30:00 | 02:23:49 | 00:00:00 | |
| DO3MHA-12 | 2026-08-30 11:59:59 | 44.65951 | 8.23916 | 21° | 26km/h | 31084m | 5.4m/s | -42.1°C | 2.2% | 0hPa | 2.7V | 00:00:00 | 02:23:52 | 00:00:00 | |
| IW2NTF | 2026-08-30 11:59:50 | 44.65852 | 8.23885 | 29° | 46km/h | 31020m | 4.8m/s | -42.5°C | 2.4% | 0hPa | 2.7V | 08:30:00 | 02:23:39 | 00:00:00 | |
| DO3MHA-12 | 2026-08-30 11:59:49 | 44.65886 | 8.23908 | 23° | 35km/h | 31034m | 5.5m/s | -42.2°C | 2.1% | 0hPa | 2.6V | 00:00:00 | 02:23:42 | 00:00:00 | |
| AUTORXJP | 2026-08-30 11:59:42 | 44.65825 | 8.23864 | 8° | 16km/h | 31001m | 4.4m/s | -42.6°C | 0.4% | -1.0hPa | 2.6V | 00:00:00 | 00:00:00 | 00:00:00 | |
| OE5DXL-15 | 2026-08-30 11:59:41 | 44.65807 | 8.23869 | 346° | 31km/h | 30986m | 4.8m/s | -42.9°C | 2.3% | 0hPa | 2.6V | 00:00:00 | 00:00:00 | 00:00:00 | |
| IW2NTF | 2026-08-30 11:59:40 | 44.65778 | 8.23871 | 7° | 42km/h | 30973m | 4.9m/s | -43.5°C | 2.3% | 0hPa | 2.6V | 08:30:00 | 02:23:29 | 00:00:00 | |
| DO3MHA-12 | 2026-08-30 11:59:39 | 44.65807 | 8.23869 | 346° | 37km/h | 30986m | 4.8m/s | -42.9°C | 2.3% | 0hPa | 2.7V | 00:00:00 | 02:23:32 | 08:30:00 | |
| DB0UT-7 | 2026-08-30 11:59:38 | 44.65798 | 8.23871 | 352° | 31km/h | 30982m | 3.9m/s | -43.1°C | 2.3% | 0hPa | 2.7V | 00:00:00 | 00:00:00 | 00:00:00 | |
| DO3MHA-12 | 2026-08-30 11:59:29 | 44.65719 | 8.23845 | 1° | 31km/h | 30938m | 4.3m/s | -43.7°C | 2.3% | 0hPa | 2.7V | 00:00:00 | 02:23:22 | 00:00:00 | |
| IW2NTF | 2026-08-30 11:59:27 | 44.65694 | 8.23848 | 354° | 33km/h | 30924m | 5.5m/s | -43.5°C | 2.3% | 0hPa | 2.7V | 08:30:00 | 02:23:19 | 00:00:00 | |
| DO3MHA-12 | 2026-08-30 11:59:19 | 44.65641 | 8.23837 | 11° | 27km/h | 30890m | 4.7m/s | -43.3°C | 2.3% | 0hPa | 2.6V | 00:00:00 | 02:23:12 | 00:00:00 | |
| IW2NTF | 2026-08-30 11:59:17 | 44.65621 | 8.23827 | 30° | 27km/h | 30875m | 5.4m/s | -43.3°C | 2.4% | 0hPa | 2.6V | 08:30:00 | 02:23:09 | 00:00:00 | |
| AUTORXJP | 2026-08-30 11:59:11 | 44.65590 | 8.23809 | 3° | 26km/h | 30850m | 5.1m/s | -43.3°C | 0.4% | -1.0hPa | 2.6V | 00:00:00 | 00:00:00 | 00:00:00 | |
| DO3MHA-12 | 2026-08-30 11:59:09 | 44.65577 | 8.23808 | 7° | 24km/h | 30841m | 4.8m/s | -43.3°C | 2.4% | 0hPa | 2.6V | 00:00:00 | 02:23:02 | 00:00:00 | |
| IW2NTF | 2026-08-30 11:59:07 | 44.65561 | 8.23799 | 34° | 24km/h | 30826m | 4.1m/s | -43.2°C | 2.5% | 0hPa | 2.7V | 08:30:00 | 02:22:59 | 00:00:00 | |
| DO3MHA-12 | 2026-08-30 11:58:59 | 44.65523 | 8.23772 | 34° | 26km/h | 30793m | 5.5m/s | -43.3°C | 2.5% | 0hPa | 2.6V | 00:00:00 | 02:22:52 | 00:00:00 | |
| IW2NTF | 2026-08-30 11:58:57 | 44.65512 | 8.23754 | 57° | 26km/h | 30777m | 4.5m/s | -43.5°C | 2.3% | 0hPa | 2.6V | 08:30:00 | 02:22:49 | 00:00:00 | |
| DO3MHA-12 | 2026-08-30 11:58:49 | 44.65472 | 8.23722 | 29° | 26km/h | 30742m | 5.6m/s | -43.4°C | 2.4% | 0hPa | 2.7V | 00:00:00 | 02:22:42 | 00:00:00 | |
| IW2NTF | 2026-08-30 11:58:48 | 44.65458 | 8.23704 | 55° | 24km/h | 30726m | 4.3m/s | -43.5°C | 2.5% | 0hPa | 2.7V | 08:30:00 | 02:22:39 | 00:00:00 | |
| AUTORXJP | 2026-08-30 11:58:40 | 44.65434 | 8.23664 | 49° | 31km/h | 30695m | 5.6m/s | -43.9°C | 0.5% | -1.0hPa | 2.7V | 00:00:00 | 00:00:00 | 00:00:00 | |
| DO3MHA-12 | 2026-08-30 11:58:39 | 44.65428 | 8.23655 | 50° | 29km/h | 30690m | 4.5m/s | -44.0°C | 2.4% | 0hPa | 2.7V | 00:00:00 | 02:22:32 | 00:00:00 | |
| IW2NTF | 2026-08-30 11:58:37 | 44.65409 | 8.23631 | 29° | 33km/h | 30676m | 5.9m/s | -44.1°C | 2.4% | 0hPa | 2.7V | 08:30:00 | 02:22:29 | 00:00:00 | |
| DO3MHA-12 | 2026-08-30 11:58:29 | 44.65371 | 8.23605 | 59° | 24km/h | 30640m | 4.5m/s | -44.3°C | 2.4% | 0hPa | 2.6V | 00:00:00 | 02:22:22 | 00:00:00 | |
| IW2NTF | 2026-08-30 11:58:27 | 44.65361 | 8.23590 | 29° | 20km/h | 30624m | 5.2m/s | -44.2°C | 2.4% | 0hPa | 2.6V | 08:30:00 | 02:22:19 | 00:00:00 | |
| DO3MHA-12 | 2026-08-30 11:58:19 | 44.65321 | 8.23563 | 34° | 20km/h | 30591m | 4.2m/s | -43.8°C | 2.3% | 0hPa | 2.7V | 00:00:00 | 02:22:12 | 00:00:00 | |
| IW2NTF | 2026-08-30 11:58:17 | 44.65309 | 8.23558 | 347° | 15km/h | 30573m | 5.6m/s | -43.9°C | 2.3% | 0hPa | 2.7V | 08:30:00 | 02:22:09 | 00:00:00 | |
| DO3MHA-12 | 2026-08-30 11:58:09 | 44.65273 | 8.23547 | 25° | 24km/h | 30539m | 4.7m/s | -43.9°C | 2.4% | 0hPa | 2.7V | 00:00:00 | 02:22:02 | 08:30:00 | |
| IW2NTF | 2026-08-30 11:58:07 | 44.65253 | 8.23543 | 347° | 26km/h | 30522m | 4.9m/s | -44.1°C | 2.5% | 0hPa | 2.6V | 08:30:00 | 02:21:59 | 00:00:00 | |
| IW2NTF | 2026-08-30 11:57:57 | 44.65199 | 8.23559 | 354° | 26km/h | 30472m | 4.5m/s | -43.8°C | 2.6% | 0hPa | 2.7V | 08:30:00 | 02:21:49 | 00:00:00 | |
| DO3MHA-12 | 2026-08-30 11:57:49 | 44.65158 | 8.23534 | 18° | 26km/h | 30435m | 5.5m/s | -44.0°C | 2.7% | 0hPa | 2.6V | 00:00:00 | 02:21:42 | 00:00:00 | |
| IW2NTF | 2026-08-30 11:57:47 | 44.65138 | 8.23530 | 5° | 26km/h | 30420m | 5.1m/s | -44.1°C | 2.5% | 0hPa | 2.6V | 08:30:00 | 02:21:39 | 00:00:00 | |
| DO3MHA-12 | 2026-08-30 11:57:39 | 44.65098 | 8.23510 | 25° | 27km/h | 30383m | 4.6m/s | -43.7°C | 2.4% | 0hPa | 2.6V | 00:00:00 | 02:21:32 | 00:00:00 | |
| IW2NTF | 2026-08-30 11:57:37 | 44.65083 | 8.23494 | 48° | 26km/h | 30367m | 6m/s | -43.9°C | 2.6% | 0hPa | 2.7V | 08:30:00 | 02:21:29 | 00:00:00 | |
| DO3MHA-12 | 2026-08-30 11:57:29 | 44.65043 | 8.23456 | 19° | 29km/h | 30332m | 4.3m/s | -43.9°C | 2.6% | 0hPa | 2.7V | 00:00:00 | 02:21:22 | 00:00:00 | |
| IW2NTF | 2026-08-30 11:57:27 | 44.65025 | 8.23441 | 44° | 27km/h | 30315m | 5.4m/s | -44°C | 2.4% | 0hPa | 2.7V | 08:30:00 | 02:21:19 | 00:00:00 | |
| DO3MHA-12 | 2026-08-30 11:57:19 | 44.64980 | 8.23407 | 15° | 35km/h | 30279m | 6.2m/s | -44.1°C | 2.5% | 0hPa | 2.6V | 00:00:00 | 02:21:12 | 00:00:00 | |
| IW2NTF | 2026-08-30 11:57:17 | 44.64956 | 8.23397 | 19° | 31km/h | 30262m | 5m/s | -44.2°C | 2.4% | 0hPa | 2.6V | 08:30:00 | 02:21:09 | 00:00:00 | |
| DO3MHA-12 | 2026-08-30 11:57:09 | 44.64895 | 8.23365 | 34° | 37km/h | 30225m | 5.3m/s | -44.2°C | 2.5% | 0hPa | 2.6V | 00:00:00 | 02:21:02 | 00:00:00 | |
| IW2NTF | 2026-08-30 11:57:07 | 44.64869 | 8.23344 | 20° | 40km/h | 30211m | 5.8m/s | -44.1°C | 2.5% | 0hPa | 2.7V | 08:30:00 | 02:20:59 | 00:00:00 | |
| AUTORXJP | 2026-08-30 11:57:07 | 44.64869 | 8.23344 | 20° | 38km/h | 30211m | 5.8m/s | -44.1°C | 0.4% | -1.0hPa | 2.6V | 00:00:00 | 00:00:00 | 00:00:00 | |
| IW2NTF | 2026-08-30 11:57:01 | 44.64796 | 8.23325 | 13° | 26km/h | 30158m | 5m/s | -43.9°C | 2.4% | 0hPa | 2.6V | 08:30:00 | 02:20:49 | 00:00:00 | |
| DO3MHA-12 | 2026-08-30 11:56:59 | 44.64812 | 8.23333 | 24° | 27km/h | 30174m | 5.0m/s | -43.8°C | 2.4% | 0hPa | 2.7V | 00:00:00 | 02:20:52 | 00:00:00 | |
| IW2NTF | 2026-08-30 11:56:51 | 44.64718 | 8.23312 | 344° | 33km/h | 30104m | 4.9m/s | -44°C | 2.3% | 0hPa | 2.7V | 08:30:00 | 02:20:39 | 00:00:00 | |
| DO3MHA-12 | 2026-08-30 11:56:49 | 44.64743 | 8.23307 | 6° | 27km/h | 30121m | 4.6m/s | -43.8°C | 2.4% | 0hPa | 2.6V | 00:00:00 | 02:20:42 | 00:00:00 | |
| IW2NTF | 2026-08-30 11:56:41 | 44.64652 | 8.23312 | 351° | 35km/h | 30052m | 4.8m/s | -44.1°C | 2.4% | 0hPa | 2.6V | 08:30:00 | 02:20:29 | 00:00:00 | |
| DO3MHA-12 | 2026-08-30 11:56:39 | 44.64676 | 8.23310 | 6° | 27km/h | 30067m | 5.8m/s | -44.1°C | 2.4% | 0hPa | 2.7V | 00:00:00 | 02:20:32 | 08:30:00 | |
| DB0UT-7 | 2026-08-30 11:56:38 | 44.64669 | 8.23310 | 359° | 27km/h | 30062m | 5.4m/s | -44.0°C | 2.4% | 0hPa | 2.7V | 00:00:00 | 00:00:00 | 00:00:00 | |
| OE5DXL-15 | 2026-08-30 11:56:37 | 44.64652 | 8.23312 | 352° | 22km/h | 30052m | 4.8m/s | 0°C | 0% | 0hPa | 2.7V | 00:00:00 | 00:00:00 | 00:00:00 | |
| AUTORXJP | 2026-08-30 11:56:36 | 44.64644 | 8.23314 | 352° | 33km/h | 30047m | 5.8m/s | -44.2°C | 0.4% | -1.0hPa | 2.7V | 00:00:00 | 00:00:00 | 00:00:00 | |
| IW2NTF | 2026-08-30 11:56:31 | 44.64587 | 8.23352 | 341° | 24km/h | 30000m | 6.1m/s | -44.7°C | 2.6% | 0hPa | 2.7V | 08:30:00 | 02:20:19 | 00:00:00 | |
| DO3MHA-12 | 2026-08-30 11:56:29 | 44.64604 | 8.23337 | 320° | 31km/h | 30015m | 5.1m/s | -44.4°C | 2.5% | 0hPa | 2.7V | 00:00:00 | 02:20:22 | 00:00:00 | |
| IW2NTF | 2026-08-30 11:56:21 | 44.64513 | 8.23374 | 319° | 24km/h | 29946m | 5.5m/s | -44.5°C | 2.4% | 0hPa | 2.7V | 08:30:00 | 02:20:09 | 00:00:00 | |
| DO3MHA-12 | 2026-08-30 11:56:18 | 44.64525 | 8.23363 | 332° | 24km/h | 29958m | 5.2m/s | -44.6°C | 2.6% | 0hPa | 2.7V | 00:00:00 | 02:20:11 | 00:00:00 | |
| IW2NTF | 2026-08-30 11:56:13 | 44.64464 | 8.23404 | 14° | 33km/h | 29893m | 4.3m/s | -45°C | 2.5% | 0hPa | 2.7V | 08:30:00 | 02:19:59 | 00:00:00 | |
| DB0UT-7 | 2026-08-30 11:56:08 | 44.64479 | 8.23408 | 6° | 27km/h | 29905m | 6.6m/s | -44.9°C | 2.5% | 0hPa | 2.7V | 00:00:00 | 02:20:01 | 00:00:00 | |
| AUTORXJP | 2026-08-30 11:56:05 | 44.64447 | 8.23401 | 356° | 33km/h | 29884m | 5.5m/s | -45.0°C | 0.5% | -1.0hPa | 2.7V | 00:00:00 | 00:00:00 | 00:00:00 | |
| IW2NTF | 2026-08-30 11:56:01 | 44.64402 | 8.23444 | 358° | 20km/h | 29841m | 5m/s | -45°C | 2.8% | 0hPa | 2.7V | 08:30:00 | 02:19:49 | 00:00:00 | |
| DO3MHA-12 | 2026-08-30 11:55:54 | 44.64390 | 8.23442 | 5° | 27km/h | 29830m | 6.4m/s | -44.8°C | 2.5% | 0hPa | 2.7V | 00:00:00 | 02:19:47 | 00:00:00 | |
| IW2NTF | 2026-08-30 11:55:51 | 44.64340 | 8.23461 | 303° | 20km/h | 29787m | 5.2m/s | -45.2°C | 2.5% | 0hPa | 2.7V | 08:30:00 | 02:19:39 | 00:00:00 | |
| DO3MHA-12 | 2026-08-30 11:55:44 | 44.64334 | 8.23475 | 302° | 24km/h | 29777m | 5.3m/s | -45.4°C | 2.6% | 0hPa | 2.6V | 00:00:00 | 02:19:37 | 00:00:00 | |
| IW2NTF | 2026-08-30 11:55:41 | 44.64294 | 8.23499 | 347° | 26km/h | 29733m | 5.3m/s | -45.6°C | 2.5% | 0hPa | 2.6V | 08:30:00 | 02:19:29 | 00:00:00 | |
| DB0UT-7 | 2026-08-30 11:55:38 | 44.64306 | 8.23498 | 3° | 18km/h | 29744m | 4.7m/s | -45.5°C | 2.7% | 0hPa | 2.6V | 00:00:00 | 00:00:00 | 00:00:00 | |
| AUTORXJP | 2026-08-30 11:55:34 | 44.64279 | 8.23511 | 317° | 20km/h | 29719m | 5.6m/s | -45.4°C | 0.5% | -1.0hPa | 2.7V | 00:00:00 | 00:00:00 | 00:00:00 | |
| DO3MHA-12 | 2026-08-30 11:55:33 | 44.64279 | 8.23510 | 318° | 18km/h | 29719m | 5.6m/s | -45.3°C | 2.7% | 0hPa | 2.7V | 00:00:00 | 02:19:26 | 00:00:00 | |
| IW2NTF | 2026-08-30 11:55:26 | 44.64257 | 8.23557 | 324° | 22km/h | 29670m | 6.1m/s | -45.2°C | 2.6% | 0hPa | 2.7V | 08:30:00 | 02:19:17 | 00:00:00 | |
| DO3MHA-12 | 2026-08-30 11:55:23 | 44.64252 | 8.23561 | 334° | 16km/h | 29664m | 6.2m/s | -45.1°C | 2.6% | 0hPa | 2.6V | 00:00:00 | 02:19:16 | 00:00:00 | |
| IW2NTF | 2026-08-30 11:55:19 | 44.64222 | 8.23599 | 261° | 11km/h | 29616m | 6m/s | -45.3°C | 2.6% | 0hPa | 2.6V | 08:30:00 | 02:19:07 | 00:00:00 | |
| DO3MHA-12 | 2026-08-30 11:55:13 | 44.64223 | 8.23602 | 234° | 9km/h | 29610m | 5.5m/s | -45.3°C | 2.6% | 0hPa | 2.7V | 00:00:00 | 02:19:06 | 00:00:00 | |
| IW2NTF | 2026-08-30 11:55:09 | 44.64207 | 8.23625 | 343° | 11km/h | 29562m | 5.1m/s | -45.6°C | 2.7% | 0hPa | 2.7V | 08:30:00 | 02:18:57 | 00:00:00 | |
| DB0UT-7 | 2026-08-30 11:55:08 | 44.64223 | 8.23615 | 325° | 11km/h | 29584m | 5.0m/s | -45.6°C | 2.8% | 0hPa | 2.6V | 00:00:00 | 02:19:01 | 00:00:00 | |
| AUTORXJP | 2026-08-30 11:55:03 | 44.64203 | 8.23627 | 318° | 5km/h | 29552m | 5.5m/s | -45.6°C | 0.5% | -1.0hPa | 2.6V | 00:00:00 | 00:00:00 | 00:00:00 | |
| DO3MHA-12 | 2026-08-30 11:55:02 | 44.64203 | 8.23627 | 319° | 13km/h | 29552m | 5.4m/s | -45.5°C | 2.7% | 0hPa | 2.6V | 00:00:00 | 02:18:55 | 08:30:00 | |
| IW2NTF | 2026-08-30 11:54:59 | 44.64208 | 8.23638 | 20° | 4km/h | 29510m | 4.8m/s | -45°C | 2.6% | 0hPa | 2.7V | 08:30:00 | 02:18:47 | 00:00:00 | |
| IW2NTF | 2026-08-30 11:54:49 | 44.64186 | 8.23656 | 266° | 7km/h | 29457m | 6.2m/s | -44.8°C | 2.5% | 0hPa | 2.7V | 08:30:00 | 02:18:37 | 00:00:00 | |
| DO3MHA-12 | 2026-08-30 11:54:48 | 44.64186 | 8.23648 | 322° | 7km/h | 29479m | 5.5m/s | -44.9°C | 2.5% | 0hPa | 2.6V | 00:00:00 | 02:18:41 | 00:00:00 | |
| IW2NTF | 2026-08-30 11:54:39 | 44.64158 | 8.23662 | 342° | 20km/h | 29404m | 4.5m/s | -44.8°C | 2.6% | 0hPa | 2.6V | 08:30:00 | 02:18:27 | 00:00:00 | |
| DO3MHA-12 | 2026-08-30 11:54:38 | 44.64175 | 8.23662 | 19° | 13km/h | 29425m | 5.1m/s | -44.6°C | 2.4% | 0hPa | 2.7V | 00:00:00 | 02:18:31 | 00:00:00 | |
| AUTORXJP | 2026-08-30 11:54:31 | 44.64148 | 8.23668 | 336° | 7km/h | 29389m | 5.9m/s | -44.9°C | 0.5% | -1.0hPa | 2.7V | 00:00:00 | 00:00:00 | 00:00:00 | |
| IW2NTF | 2026-08-30 11:54:29 | 44.64127 | 8.23674 | 338° | 22km/h | 29354m | 4.7m/s | -44.9°C | 2.5% | 0hPa | 2.7V | 08:30:00 | 02:18:17 | 00:00:00 | |
| DO3MHA-12 | 2026-08-30 11:54:18 | 44.64108 | 8.23677 | 12° | 13km/h | 29322m | 5.8m/s | -44.7°C | 2.6% | 0hPa | 2.6V | 00:00:00 | 02:18:11 | 00:00:00 | |
| IW2NTF | 2026-08-30 11:54:15 | 44.64090 | 8.23679 | 331° | 11km/h | 29291m | 4.9m/s | -44.7°C | 2.6% | 0hPa | 2.7V | 08:30:00 | 02:18:05 | 00:00:00 | |
| DB0UT-7 | 2026-08-30 11:54:08 | 44.64076 | 8.23692 | 326° | 16km/h | 29270m | 4.6m/s | -44.5°C | 2.8% | 0hPa | 2.7V | 00:00:00 | 02:18:01 | 08:30:00 | |
| DO3MHA-12 | 2026-08-30 11:54:07 | 44.64072 | 8.23696 | 328° | 13km/h | 29265m | 4.8m/s | -44.5°C | 2.4% | 0hPa | 2.7V | 00:00:00 | 02:18:00 | 00:00:00 | |
| IW2NTF | 2026-08-30 11:54:04 | 44.64063 | 8.23694 | 29° | 13km/h | 29239m | 6.2m/s | -44.4°C | 2.5% | 0hPa | 2.7V | 08:30:00 | 02:17:55 | 00:00:00 | |
| AUTORXJP | 2026-08-30 11:54:00 | 44.64055 | 8.23690 | 15° | 20km/h | 29228m | 5.2m/s | -44.4°C | 0.5% | -1.0hPa | 2.7V | 00:00:00 | 00:00:00 | 00:00:00 | |
| DO3MHA-12 | 2026-08-30 11:53:57 | 44.64039 | 8.23687 | 359° | 18km/h | 29212m | 5.6m/s | -44.0°C | 2.5% | 0hPa | 2.7V | 00:00:00 | 02:17:50 | 00:00:00 | |
| IW2NTF | 2026-08-30 11:53:54 | 44.64016 | 8.23701 | 331° | 24km/h | 29186m | 4.6m/s | -44°C | 2.4% | 0hPa | 2.7V | 08:30:00 | 02:17:45 | 00:00:00 | |
| DO3MHA-12 | 2026-08-30 11:53:47 | 44.63999 | 8.23706 | 35° | 16km/h | 29160m | 4.4m/s | -44.0°C | 2.4% | 0hPa | 2.7V | 00:00:00 | 02:17:40 | 00:00:00 | |
| OE5DXL-15 | 2026-08-30 11:53:46 | 44.63993 | 8.23701 | 22° | 16km/h | 29150m | 5.5m/s | 0°C | 0% | 0hPa | 2.7V | 00:00:00 | 00:00:00 | 00:00:00 | |
| IW2NTF | 2026-08-30 11:53:44 | 44.63977 | 8.23698 | 356° | 20km/h | 29134m | 5.1m/s | -44.1°C | 2.6% | 0hPa | 2.7V | 08:30:00 | 02:17:35 | 00:00:00 | |
| DB0UT-7 | 2026-08-30 11:53:38 | 44.63962 | 8.23705 | 326° | 20km/h | 29115m | 3.8m/s | -44.2°C | 2.5% | 0hPa | 2.7V | 00:00:00 | 00:00:00 | 00:00:00 | |
| DO3MHA-12 | 2026-08-30 11:53:37 | 44.63959 | 8.23708 | 325° | 16km/h | 29111m | 5.1m/s | -44.3°C | 2.5% | 0hPa | 2.7V | 00:00:00 | 02:17:30 | 00:00:00 | |
| IW2NTF | 2026-08-30 11:53:34 | 44.63934 | 8.23731 | 337° | 13km/h | 29079m | 5.9m/s | -44.4°C | 2.6% | 0hPa | 2.7V | 08:30:00 | 02:17:24 | 00:00:00 | |
| AUTORXJP | 2026-08-30 11:53:29 | 44.63928 | 8.23732 | 5° | 11km/h | 29069m | 4.5m/s | -44.6°C | 0.5% | -1.0hPa | 2.6V | 00:00:00 | 00:00:00 | 00:00:00 | |
| DO3MHA-12 | 2026-08-30 11:53:27 | 44.63921 | 8.23731 | 6° | 20km/h | 29058m | 5.5m/s | -44.7°C | 2.5% | 0hPa | 2.6V | 00:00:00 | 02:17:20 | 00:00:00 | |
| IW2NTF | 2026-08-30 11:53:24 | 44.63890 | 8.23734 | 336° | 16km/h | 29028m | 4.6m/s | -44.7°C | 2.5% | 0hPa | 2.6V | 08:30:00 | 02:17:14 | 00:00:00 | |
| DO3MHA-12 | 2026-08-30 11:53:16 | 44.63867 | 8.23749 | 344° | 24km/h | 29002m | 5.7m/s | -44.7°C | 2.6% | 0hPa | 2.7V | 00:00:00 | 02:17:09 | 08:30:00 | |
| IW2NTF | 2026-08-30 11:53:14 | 44.63844 | 8.23746 | 5° | 27km/h | 28976m | 5.8m/s | -44.6°C | 2.6% | 0hPa | 2.7V | 08:30:00 | 02:17:04 | 00:00:00 | |
| DB0UT-7 | 2026-08-30 11:53:08 | 44.63822 | 8.23749 | 347° | 24km/h | 28962m | 5.5m/s | -44.7°C | 2.5% | 0hPa | 2.6V | 00:00:00 | 02:17:01 | 00:00:00 | |
| IW2NTF | 2026-08-30 11:53:04 | 44.63786 | 8.23775 | 341° | 27km/h | 28925m | 4.6m/s | -44.7°C | 2.5% | 0hPa | 2.6V | 08:30:00 | 02:16:54 | 00:00:00 | |
| AUTORXJP | 2026-08-30 11:52:58 | 44.63768 | 8.23780 | 357° | 20km/h | 28910m | 5.4m/s | -44.5°C | 0.5% | -1.0hPa | 2.6V | 00:00:00 | 00:00:00 | 00:00:00 | |
| DO3MHA-12 | 2026-08-30 11:52:56 | 44.63758 | 8.23779 | 3° | 24km/h | 28901m | 4.7m/s | -44.4°C | 2.5% | 0hPa | 2.6V | 00:00:00 | 02:16:49 | 00:00:00 | |
| IW2NTF | 2026-08-30 11:52:54 | 44.63729 | 8.23791 | 317° | 24km/h | 28875m | 6m/s | -44.7°C | 2.6% | 0hPa | 2.6V | 08:30:00 | 02:16:44 | 00:00:00 | |
| DO3MHA-12 | 2026-08-30 11:52:46 | 44.63707 | 8.23825 | 328° | 16km/h | 28850m | 5.5m/s | -44.9°C | 2.5% | 0hPa | 2.7V | 00:00:00 | 02:16:39 | 00:00:00 | |
| IW2NTF | 2026-08-30 11:52:44 | 44.63678 | 8.23839 | 344° | 13km/h | 28825m | 5.5m/s | -44.9°C | 2.4% | 0hPa | 2.7V | 08:30:00 | 02:16:34 | 00:00:00 | |
| DB0UT-7 | 2026-08-30 11:52:38 | 44.63672 | 8.23843 | 317° | 18km/h | 28812m | 4.9m/s | -45.0°C | 2.4% | 0hPa | 2.6V | 00:00:00 | 00:00:00 | 00:00:00 | |
| DO3MHA-12 | 2026-08-30 11:52:36 | 44.63666 | 8.23849 | 327° | 22km/h | 28801m | 5.2m/s | -45.1°C | 2.5% | 0hPa | 2.6V | 00:00:00 | 02:16:29 | 00:00:00 | |
| IW2NTF | 2026-08-30 11:52:32 | 44.63633 | 8.23900 | 314° | 18km/h | 28755m | 4.6m/s | -45.6°C | 2.7% | 0hPa | 2.6V | 08:30:00 | 02:16:20 | 00:00:00 | |
| DO3MHA-12 | 2026-08-30 11:52:27 | 44.63630 | 8.23904 | 316° | 18km/h | 28751m | 4.1m/s | -45.5°C | 2.6% | 0hPa | 2.7V | 00:00:00 | 02:16:19 | 00:00:00 | |
| IW2NTF | 2026-08-30 11:52:21 | 44.63611 | 8.23953 | 289° | 20km/h | 28705m | 5.8m/s | -45.9°C | 2.7% | 0hPa | 2.7V | 08:30:00 | 02:16:10 | 00:00:00 | |
| DO3MHA-12 | 2026-08-30 11:52:14 | 44.63610 | 8.23970 | 264° | 13km/h | 28690m | 3.9m/s | -46.0°C | 2.7% | 0hPa | 2.6V | 00:00:00 | 02:16:07 | 00:00:00 | |
| IW2NTF | 2026-08-30 11:52:11 | 44.63599 | 8.23998 | 282° | 13km/h | 28656m | 5.9m/s | -46.1°C | 2.8% | 0hPa | 2.6V | 08:30:00 | 02:16:00 | 00:00:00 | |
| DB0UT-7 | 2026-08-30 11:52:08 | 44.63600 | 8.23993 | 302° | 9km/h | 28662m | 5.3m/s | -46.1°C | 2.8% | 0hPa | 2.6V | 00:00:00 | 02:16:01 | 00:00:00 | |
| DO3MHA-12 | 2026-08-30 11:52:04 | 44.63599 | 8.24008 | 264° | 7km/h | 28641m | 5.1m/s | -45.9°C | 2.7% | 0hPa | 2.6V | 00:00:00 | 02:15:57 | 00:00:00 | |
| IW2NTF | 2026-08-30 11:52:01 | 44.63592 | 8.24011 | 60° | 5km/h | 28605m | 4.4m/s | -45.8°C | 2.8% | 0hPa | 2.6V | 08:30:00 | 02:15:50 | 00:00:00 | |
| AUTORXJP | 2026-08-30 11:51:56 | 44.63591 | 8.24010 | 38° | 5km/h | 28601m | 4.7m/s | -45.8°C | 0.5% | -1.0hPa | 2.6V | 00:00:00 | 00:00:00 | 00:00:00 | |
| DO3MHA-12 | 2026-08-30 11:51:54 | 44.63587 | 8.24008 | 3° | 9km/h | 28589m | 5.6m/s | -45.7°C | 2.7% | 0hPa | 2.6V | 00:00:00 | 02:15:47 | 00:00:00 | |
| IW2NTF | 2026-08-30 11:51:51 | 44.63573 | 8.24009 | 13° | 9km/h | 28553m | 6.4m/s | -45.7°C | 2.7% | 0hPa | 2.6V | 08:30:00 | 02:15:40 | 00:00:00 | |
| DO3MHA-12 | 2026-08-30 11:51:44 | 44.63563 | 8.24005 | 21° | 13km/h | 28537m | 4.8m/s | -45.5°C | 2.6% | 0hPa | 2.7V | 00:00:00 | 02:15:37 | 08:30:00 | |
| IW2NTF | 2026-08-30 11:51:41 | 44.63544 | 8.24007 | 336° | 18km/h | 28500m | 4.8m/s | -45.5°C | 2.6% | 0hPa | 2.7V | 08:30:00 | 02:15:30 | 00:00:00 | |
| DO3MHA-12 | 2026-08-30 11:51:34 | 44.63533 | 8.24010 | 9° | 18km/h | 28485m | 5.0m/s | -45.5°C | 2.6% | 0hPa | 2.6V | 00:00:00 | 02:15:27 | 00:00:00 | |
| IW2NTF | 2026-08-30 11:51:32 | 44.63503 | 8.23987 | 25° | 22km/h | 28450m | 4.7m/s | -45.5°C | 2.6% | 0hPa | 2.6V | 08:30:00 | 02:15:20 | 00:00:00 | |
| OE5DXL-15 | 2026-08-30 11:51:27 | 44.63495 | 8.23982 | 29° | 22km/h | 28439m | 5.2m/s | 0°C | 0% | 0hPa | 2.6V | 00:00:00 | 00:00:00 | 00:00:00 | |
| AUTORXJP | 2026-08-30 11:51:25 | 44.63495 | 8.23982 | 28° | 11km/h | 28439m | 5.3m/s | -45.7°C | 0.5% | -1.0hPa | 2.6V | 00:00:00 | 00:00:00 | 00:00:00 | |
| DO3MHA-12 | 2026-08-30 11:51:24 | 44.63492 | 8.23980 | 29° | 24km/h | 28434m | 4.0m/s | -45.6°C | 2.6% | 0hPa | 2.6V | 00:00:00 | 02:15:17 | 00:00:00 | |
| IW2NTF | 2026-08-30 11:51:21 | 44.63452 | 8.23975 | 4° | 29km/h | 28400m | 4.6m/s | -45.7°C | 2.7% | 0hPa | 2.6V | 08:30:00 | 02:15:10 | 00:00:00 | |
| DO3MHA-12 | 2026-08-30 11:51:14 | 44.63436 | 8.23969 | 32° | 24km/h | 28385m | 4.4m/s | -45.6°C | 2.7% | 0hPa | 2.7V | 00:00:00 | 02:15:07 | 00:00:00 | |
| IW2NTF | 2026-08-30 11:51:11 | 44.63398 | 8.23941 | 15° | 26km/h | 28350m | 5.8m/s | -45.8°C | 2.6% | 0hPa | 2.7V | 08:30:00 | 02:15:00 | 00:00:00 | |
| DB0UT-7 | 2026-08-30 11:51:08 | 44.63404 | 8.23944 | 22° | 15km/h | 28356m | 5.2m/s | -45.7°C | 2.7% | 0hPa | 2.7V | 00:00:00 | 02:15:01 | 00:00:00 | |
| DO3MHA-12 | 2026-08-30 11:51:04 | 44.63382 | 8.23942 | 339° | 16km/h | 28335m | 5.7m/s | -45.7°C | 2.6% | 0hPa | 2.7V | 00:00:00 | 02:14:57 | 00:00:00 | |
| IW2NTF | 2026-08-30 11:51:01 | 44.63357 | 8.23949 | 62° | 15km/h | 28298m | 4.1m/s | -45.8°C | 2.7% | 0hPa | 2.7V | 08:30:00 | 02:14:50 | 00:00:00 | |
| OE5DXL-15 | 2026-08-30 11:50:55 | 44.63348 | 8.23935 | 29° | 16km/h | 28283m | 5.0m/s | 0°C | 0% | 0hPa | 2.6V | 00:00:00 | 00:00:00 | 00:00:00 | |
| DO3MHA-12 | 2026-08-30 11:50:54 | 44.63348 | 8.23935 | 29° | 11km/h | 28283m | 5.0m/s | -45.9°C | 2.7% | 0hPa | 2.6V | 00:00:00 | 02:14:47 | 00:00:00 | |
| IW2NTF | 2026-08-30 11:50:51 | 44.63329 | 8.23936 | 311° | 5km/h | 28248m | 5.5m/s | -46.1°C | 2.7% | 0hPa | 2.6V | 08:30:00 | 02:14:40 | 00:00:00 | |
| DO3MHA-12 | 2026-08-30 11:50:44 | 44.63324 | 8.23939 | 2° | 7km/h | 28232m | 4.9m/s | -46.0°C | 2.6% | 0hPa | 2.7V | 00:00:00 | 02:14:37 | 00:00:00 | |
| IW2NTF | 2026-08-30 11:50:41 | 44.63313 | 8.23932 | 8° | 13km/h | 28196m | 3.8m/s | -46°C | 2.7% | 0hPa | 2.6V | 08:30:00 | 02:14:30 | 00:00:00 | |
| DB0UT-7 | 2026-08-30 11:50:38 | 44.63315 | 8.23933 | 15° | 13km/h | 28201m | 4.9m/s | -46.1°C | 2.7% | 0hPa | 2.7V | 00:00:00 | 00:00:00 | 00:00:00 | |
| DO3MHA-12 | 2026-08-30 11:50:34 | 44.63306 | 8.23934 | 301° | 11km/h | 28182m | 5.8m/s | -46.2°C | 2.7% | 0hPa | 2.7V | 00:00:00 | 02:14:27 | 00:00:00 | |
| IW2NTF | 2026-08-30 11:50:32 | 44.63294 | 8.23955 | 353° | 13km/h | 28146m | 6m/s | -46.4°C | 2.6% | 0hPa | 2.7V | 08:30:00 | 02:14:20 | 00:00:00 | |
| DO3MHA-12 | 2026-08-30 11:50:24 | 44.63287 | 8.23951 | 46° | 13km/h | 28130m | 4.5m/s | -46.4°C | 2.6% | 0hPa | 2.7V | 00:00:00 | 02:14:17 | 00:00:00 | |
| AUTORXJP | 2026-08-30 11:50:23 | 44.63283 | 8.23946 | 22° | 11km/h | 28119m | 6.0m/s | -46.5°C | 0.4% | -1.0hPa | 2.7V | 00:00:00 | 00:00:00 | 00:00:00 | |
| IW2NTF | 2026-08-30 11:50:21 | 44.63271 | 8.23953 | 301° | 13km/h | 28093m | 4.5m/s | -46.7°C | 2.9% | 0hPa | 2.7V | 08:30:00 | 02:14:10 | 00:00:00 | |
| OE5DXL-15 | 2026-08-30 11:50:17 | 44.63266 | 8.23960 | 317° | 16km/h | 28083m | 5.9m/s | 0°C | 0% | 0hPa | 2.6V | 00:00:00 | 00:00:00 | 00:00:00 | |
| DO3MHA-12 | 2026-08-30 11:50:14 | 44.63262 | 8.23964 | 329° | 18km/h | 28078m | 5.1m/s | -46.7°C | 2.8% | 0hPa | 2.6V | 00:00:00 | 02:14:07 | 08:30:00 | |
| IW2NTF | 2026-08-30 11:50:11 | 44.63232 | 8.23965 | 3° | 18km/h | 28043m | 5.1m/s | -47.1°C | 2.9% | 0hPa | 2.6V | 08:30:00 | 02:14:00 | 00:00:00 | |
| DB0UT-7 | 2026-08-30 11:50:08 | 44.63236 | 8.23966 | 14° | 16km/h | 28048m | 4.2m/s | -47.0°C | 2.9% | 0hPa | 2.6V | 00:00:00 | 02:14:01 | 00:00:00 | |
| IW2NTF | 2026-08-30 11:50:02 | 44.63188 | 8.24007 | 341° | 22km/h | 27990m | 5.1m/s | -47.4°C | 2.8% | 0hPa | 2.6V | 08:30:00 | 02:13:50 | 00:00:00 | |
| DO3MHA-12 | 2026-08-30 11:49:54 | 44.63173 | 8.24010 | 360° | 15km/h | 27975m | 6.0m/s | -47.0°C | 2.8% | 0hPa | 2.6V | 00:00:00 | 02:13:47 | 00:00:00 | |
| IW2NTF | 2026-08-30 11:49:52 | 44.63152 | 8.24027 | 302° | 16km/h | 27939m | 4.8m/s | -47.1°C | 2.8% | 0hPa | 2.6V | 08:30:00 | 02:13:40 | 00:00:00 | |
| AUTORXJP | 2026-08-30 11:49:52 | 44.63164 | 8.24012 | 332° | 11km/h | 27959m | 5.4m/s | -47.0°C | 0.5% | -1.0hPa | 2.7V | 00:00:00 | 00:00:00 | 00:00:00 | |
| DO3MHA-12 | 2026-08-30 11:49:44 | 44.63148 | 8.24039 | 295° | 9km/h | 27923m | 4.3m/s | -47.1°C | 2.7% | 0hPa | 2.7V | 00:00:00 | 02:13:37 | 00:00:00 | |
| IW2NTF | 2026-08-30 11:49:39 | 44.63135 | 8.24045 | 270° | 9km/h | 27887m | 5.8m/s | -47.9°C | 2.9% | 0hPa | 2.7V | 08:30:00 | 02:13:30 | 00:00:00 | |
| DB0UT-7 | 2026-08-30 11:49:38 | 44.63136 | 8.24043 | 316° | 9km/h | 27893m | 6.0m/s | -47.8°C | 2.9% | 0hPa | 2.7V | 00:00:00 | 00:00:00 | 08:30:00 | |
| DO3MHA-12 | 2026-08-30 11:49:34 | 44.63137 | 8.24061 | 263° | 7km/h | 27871m | 5.7m/s | -48.0°C | 3.0% | 0hPa | 2.7V | 00:00:00 | 02:13:27 | 00:00:00 | |
| IW2NTF | 2026-08-30 11:49:30 | 44.63141 | 8.24082 | 127° | 4km/h | 27836m | 5.4m/s | -48°C | 3% | 0hPa | 2.7V | 08:30:00 | 02:13:20 | 00:00:00 | |
| DO3MHA-12 | 2026-08-30 11:49:24 | 44.63140 | 8.24080 | 312° | 13km/h | 27821m | 3.8m/s | -48.1°C | 3.0% | 0hPa | 2.7V | 00:00:00 | 02:13:17 | 00:00:00 | |
| AUTORXJP | 2026-08-30 11:49:21 | 44.63143 | 8.24098 | 252° | 20km/h | 27799m | 4.7m/s | -47.9°C | 0.6% | -1.0hPa | 2.7V | 00:00:00 | 00:00:00 | 00:00:00 | |
| IW2NTF | 2026-08-30 11:49:19 | 44.63145 | 8.24116 | 270° | 13km/h | 27783m | 4.8m/s | -47.9°C | 2.9% | 0hPa | 2.7V | 08:30:00 | 02:13:10 | 00:00:00 | |
| DO3MHA-12 | 2026-08-30 11:49:14 | 44.63146 | 8.24123 | 224° | 13km/h | 27768m | 5.3m/s | -47.9°C | 3.0% | 0hPa | 2.6V | 00:00:00 | 02:13:07 | 00:00:00 | |
| IW2NTF | 2026-08-30 11:49:09 | 44.63145 | 8.24126 | 254° | 9km/h | 27732m | 5.5m/s | -48.1°C | 2.9% | 0hPa | 2.6V | 08:30:00 | 02:13:00 | 00:00:00 | |
| DB0UT-7 | 2026-08-30 11:49:08 | 44.63144 | 8.24123 | 282° | 7km/h | 27738m | 5.6m/s | -48.0°C | 2.9% | 0hPa | 2.6V | 00:00:00 | 02:13:01 | 00:00:00 | |
| IW2NTF | 2026-08-30 11:48:59 | 44.63143 | 8.24161 | 96° | 2km/h | 27682m | 4.3m/s | -48.5°C | 3.1% | 0hPa | 2.6V | 08:30:00 | 02:12:50 | 00:00:00 | |
| AUTORXJP | 2026-08-30 11:48:50 | 44.63137 | 8.24166 | 255° | 7km/h | 27641m | 4.4m/s | -48.5°C | 0.5% | -1.0hPa | 2.7V | 00:00:00 | 00:00:00 | 00:00:00 | |
| IW2NTF | 2026-08-30 11:48:49 | 44.63136 | 8.24172 | 296° | 9km/h | 27630m | 5.9m/s | -48.5°C | 3% | 0hPa | 2.7V | 08:30:00 | 02:12:40 | 00:00:00 | |
| IW2NTF | 2026-08-30 11:48:39 | 44.63120 | 8.24178 | 1° | 9km/h | 27580m | 5m/s | -48.5°C | 2.9% | 0hPa | 2.7V | 08:30:00 | 02:12:30 | 00:00:00 | |
| DB0UT-7 | 2026-08-30 11:48:38 | 44.63122 | 8.24178 | 11° | 11km/h | 27585m | 5.6m/s | -48.4°C | 3.1% | 0hPa | 2.7V | 00:00:00 | 00:00:00 | 00:00:00 | |
| IW2NTF | 2026-08-30 11:48:29 | 44.63095 | 8.24184 | 23° | 11km/h | 27528m | 6.2m/s | -48.7°C | 3% | 0hPa | 2.7V | 08:30:00 | 02:12:20 | 00:00:00 | |
| IW2NTF | 2026-08-30 11:48:19 | 44.63066 | 8.24182 | 335° | 15km/h | 27473m | 4.5m/s | -49°C | 3.3% | 0hPa | 2.7V | 08:30:00 | 02:12:09 | 00:00:00 | |
| AUTORXJP | 2026-08-30 11:48:18 | 44.63072 | 8.24178 | 339° | 13km/h | 27483m | 4.9m/s | -49.2°C | 0.7% | -1.0hPa | 2.6V | 00:00:00 | 00:00:00 | 00:00:00 | |
| IW2NTF | 2026-08-30 11:48:09 | 44.63033 | 8.24183 | 11° | 18km/h | 27422m | 5.3m/s | -49.1°C | 3.1% | 0hPa | 2.6V | 08:30:00 | 02:11:59 | 00:00:00 | |
| DB0UT-7 | 2026-08-30 11:48:08 | 44.63039 | 8.24185 | 13° | 18km/h | 27433m | 4.5m/s | -49.1°C | 3.2% | 0hPa | 2.6V | 00:00:00 | 02:12:01 | 00:00:00 | |
| IW2NTF | 2026-08-30 11:47:59 | 44.62980 | 8.24176 | 359° | 26km/h | 27372m | 3.6m/s | -48.8°C | 3.1% | 0hPa | 2.6V | 08:30:00 | 02:11:49 | 00:00:00 | |
| IW2NTF | 2026-08-30 11:47:49 | 44.62946 | 8.24166 | 355° | 15km/h | 27322m | 5.5m/s | -48.8°C | 3% | 0hPa | 2.6V | 08:30:00 | 02:11:39 | 00:00:00 | |
| AUTORXJP | 2026-08-30 11:47:47 | 44.62950 | 8.24166 | 5° | 15km/h | 27327m | 4.2m/s | -48.8°C | 0.6% | -1.0hPa | 2.7V | 00:00:00 | 00:00:00 | 00:00:00 | |
| IW2NTF | 2026-08-30 11:47:39 | 44.62901 | 8.24174 | 49° | 15km/h | 27261m | 5.9m/s | -49.1°C | 3.2% | 0hPa | 2.7V | 08:30:00 | 02:11:27 | 00:00:00 | |
| DB0UT-7 | 2026-08-30 11:47:38 | 44.62910 | 8.24185 | 7° | 11km/h | 27282m | 5.9m/s | -49.0°C | 3.1% | 0hPa | 2.6V | 00:00:00 | 00:00:00 | 00:00:00 | |
| IW2NTF | 2026-08-30 11:47:29 | 44.62864 | 8.24173 | 8° | 15km/h | 27211m | 4m/s | -49.2°C | 3.2% | 0hPa | 2.6V | 08:30:00 | 02:11:17 | 00:00:00 | |
| IW2NTF | 2026-08-30 11:47:19 | 44.62847 | 8.24170 | 338° | 11km/h | 27161m | 5.4m/s | -49.3°C | 3.2% | 0hPa | 2.6V | 08:30:00 | 02:11:07 | 00:00:00 | |
| AUTORXJP | 2026-08-30 11:47:16 | 44.62853 | 8.24168 | 355° | 11km/h | 27170m | 4.3m/s | -49.3°C | 0.6% | -1.0hPa | 2.7V | 00:00:00 | 00:00:00 | 00:00:00 | |
| IW2NTF | 2026-08-30 11:47:10 | 44.62829 | 8.24177 | 346° | 5km/h | 27109m | 4.6m/s | -49°C | 3.1% | 0hPa | 2.7V | 08:30:00 | 02:10:57 | 00:00:00 | |
| DB0UT-7 | 2026-08-30 11:47:08 | 44.62838 | 8.24179 | 2° | 9km/h | 27130m | 5.3m/s | -49.0°C | 3.1% | 0hPa | 2.6V | 00:00:00 | 02:11:01 | 00:00:00 | |
| IW2NTF | 2026-08-30 11:46:59 | 44.62820 | 8.24198 | 235° | 13km/h | 27060m | 4.2m/s | -48.8°C | 3.1% | 0hPa | 2.6V | 08:30:00 | 02:10:47 | 00:00:00 | |
| OE5DXL-15 | 2026-08-30 11:46:55 | 44.62820 | 8.24198 | 236° | 11km/h | 27060m | 4.2m/s | 0°C | 0% | 0hPa | 2.7V | 00:00:00 | 00:00:00 | 00:00:00 | |
| IW2NTF | 2026-08-30 11:46:49 | 44.62809 | 8.24226 | 227° | 4km/h | 27010m | 5.6m/s | -48.9°C | 3.1% | 0hPa | 2.7V | 08:30:00 | 02:10:37 | 00:00:00 | |
| AUTORXJP | 2026-08-30 11:46:45 | 44.62809 | 8.24225 | 249° | 4km/h | 27016m | 5.1m/s | -48.9°C | 0.6% | -1.0hPa | 2.7V | 00:00:00 | 00:00:00 | 00:00:00 | |
| IW2NTF | 2026-08-30 11:46:40 | 44.62814 | 8.24250 | 304° | 13km/h | 26959m | 4m/s | -49.1°C | 3.1% | 0hPa | 2.7V | 08:30:00 | 02:10:27 | 00:00:00 | |
| DB0UT-7 | 2026-08-30 11:46:38 | 44.62815 | 8.24233 | 237° | 9km/h | 26980m | 4.6m/s | -49.0°C | 3.2% | 0hPa | 2.7V | 00:00:00 | 00:00:00 | 00:00:00 | |
| IW2NTF | 2026-08-30 11:46:29 | 44.62822 | 8.24240 | 178° | 13km/h | 26906m | 4.9m/s | -49.1°C | 3% | 0hPa | 2.7V | 08:30:00 | 02:10:17 | 00:00:00 | |
| OE5DXL-15 | 2026-08-30 11:46:20 | 44.62828 | 8.24247 | 294° | 7km/h | 26886m | 4.9m/s | 0°C | 0% | 0hPa | 2.7V | 00:00:00 | 00:00:00 | 00:00:00 | |
| IW2NTF | 2026-08-30 11:46:19 | 44.62832 | 8.24238 | 130° | 16km/h | 26857m | 4.1m/s | -49.4°C | 3.1% | 0hPa | 2.7V | 08:30:00 | 02:10:07 | 00:00:00 | |
| IW2NTF | 2026-08-30 11:46:09 | 44.62833 | 8.24243 | 290° | 11km/h | 26807m | 5.9m/s | -49.6°C | 3.1% | 0hPa | 2.7V | 08:30:00 | 02:09:57 | 00:00:00 | |
| DB0UT-7 | 2026-08-30 11:46:08 | 44.62835 | 8.24229 | 287° | 9km/h | 26827m | 5.4m/s | -49.6°C | 3.2% | 0hPa | 2.7V | 00:00:00 | 02:10:01 | 00:00:00 | |
| IW2NTF | 2026-08-30 11:45:59 | 44.62836 | 8.24263 | 284° | 9km/h | 26757m | 5.2m/s | -49.9°C | 3.2% | 0hPa | 2.7V | 08:30:00 | 02:09:47 | 00:00:00 | |
| OE5DXL-15 | 2026-08-30 11:45:50 | 44.62831 | 8.24280 | 321° | 9km/h | 26732m | 5.9m/s | 0°C | 0% | 0hPa | 2.6V | 00:00:00 | 00:00:00 | 00:00:00 | |
| IW2NTF | 2026-08-30 11:45:49 | 44.62820 | 8.24282 | 86° | 2km/h | 26706m | 5.4m/s | -49.6°C | 3.3% | 0hPa | 2.6V | 08:30:00 | 02:09:37 | 00:00:00 | |
| AUTORXJP | 2026-08-30 11:45:43 | 44.62821 | 8.24282 | 205° | 0km/h | 26701m | 4.7m/s | -49.7°C | 0.7% | -1.0hPa | 2.6V | 00:00:00 | 00:00:00 | 00:00:00 | |
| IW2NTF | 2026-08-30 11:45:39 | 44.62815 | 8.24308 | 341° | 7km/h | 26655m | 5.9m/s | -49.5°C | 3.2% | 0hPa | 2.6V | 08:30:00 | 02:09:27 | 00:00:00 | |
| DB0UT-7 | 2026-08-30 11:45:38 | 44.62818 | 8.24297 | 284° | 13km/h | 26675m | 5.4m/s | -49.5°C | 3.2% | 0hPa | 2.7V | 00:00:00 | 00:00:00 | 00:00:00 | |
| IW2NTF | 2026-08-30 11:45:29 | 44.62790 | 8.24298 | 339° | 16km/h | 26604m | 4.9m/s | -49.6°C | 3.3% | 0hPa | 2.7V | 08:30:00 | 02:09:17 | 00:00:00 | |
| IW2NTF | 2026-08-30 11:45:19 | 44.62764 | 8.24286 | 31° | 20km/h | 26554m | 4.7m/s | -49.1°C | 3.1% | 0hPa | 2.6V | 08:30:00 | 02:09:07 | 00:00:00 | |
| AUTORXJP | 2026-08-30 11:45:12 | 44.62755 | 8.24279 | 35° | 16km/h | 26543m | 5.7m/s | -49.2°C | 0.7% | -1.0hPa | 2.6V | 00:00:00 | 00:00:00 | 00:00:00 | |
| IW2NTF | 2026-08-30 11:45:09 | 44.62717 | 8.24272 | 6° | 15km/h | 26503m | 5.4m/s | -49.3°C | 3.2% | 0hPa | 2.6V | 08:30:00 | 02:08:57 | 00:00:00 | |
| DB0UT-7 | 2026-08-30 11:45:08 | 44.62738 | 8.24270 | 2° | 20km/h | 26524m | 6.1m/s | -49.3°C | 3.1% | 0hPa | 2.6V | 00:00:00 | 02:09:01 | 08:30:00 | |
| RDZBGO | 2026-08-30 11:45:01 | 44.62712 | 8.24269 | 39° | 13km/h | 26494m | 4.3m/s | -49.4°C | 0.7% | 0hPa | 2.6V | 00:00:00 | 00:00:00 | 00:00:00 | |
| IW2NTF | 2026-08-30 11:44:59 | 44.62674 | 8.24240 | 23° | 24km/h | 26454m | 4m/s | -49.6°C | 3.1% | 0hPa | 2.6V | 08:30:00 | 02:08:47 | 00:00:00 | |
| IW2NTF | 2026-08-30 11:44:49 | 44.62632 | 8.24239 | 355° | 22km/h | 26404m | 5.5m/s | -50.1°C | 3.3% | 0hPa | 2.6V | 08:30:00 | 02:08:37 | 00:00:00 | |
| AUTORXJP | 2026-08-30 11:44:41 | 44.62611 | 8.24239 | 3° | 27km/h | 26389m | 6.2m/s | -50.1°C | 0.7% | -1.0hPa | 2.6V | 00:00:00 | 00:00:00 | 00:00:00 | |
| IW2NTF | 2026-08-30 11:44:39 | 44.62564 | 8.24241 | 341° | 29km/h | 26354m | 4.6m/s | -50.5°C | 3.4% | 0hPa | 2.6V | 08:30:00 | 02:08:27 | 00:00:00 | |
| DB0UT-7 | 2026-08-30 11:44:38 | 44.62591 | 8.24236 | 4° | 31km/h | 26375m | 4.4m/s | -50.2°C | 3.3% | 0hPa | 2.6V | 00:00:00 | 00:00:00 | 00:00:00 | |
| RDZBGO | 2026-08-30 11:44:34 | 44.62571 | 8.24238 | 347° | 29km/h | 26359m | 5.2m/s | -50.4°C | 0.8% | 0hPa | 2.6V | 00:00:00 | 00:00:00 | 00:00:00 | |
| IW2NTF | 2026-08-30 11:44:29 | 44.62503 | 8.24282 | 335° | 33km/h | 26303m | 5.6m/s | -50.4°C | 3.3% | 0hPa | 2.6V | 08:30:00 | 02:08:17 | 00:00:00 | |
| IW2NTF | 2026-08-30 11:44:19 | 44.62439 | 8.24352 | 311° | 29km/h | 26252m | 4.7m/s | -50.6°C | 3.5% | 0hPa | 2.6V | 08:30:00 | 02:08:07 | 00:00:00 | |
| DO3MHA-12 | 2026-08-30 11:44:16 | 44.62448 | 8.24336 | 309° | 31km/h | 26262m | 5.6m/s | -50.3°C | 3.4% | 0hPa | 2.6V | 00:00:00 | 02:08:09 | 00:00:00 | |
| OE5DXL-15 | 2026-08-30 11:44:15 | 44.62439 | 8.24352 | 312° | 33km/h | 26253m | 4.6m/s | 0°C | 0% | 0hPa | 2.6V | 00:00:00 | 00:00:00 | 00:00:00 | |
| RDZBGO | 2026-08-30 11:44:12 | 44.62434 | 8.24360 | 317° | 33km/h | 26247m | 6.4m/s | -50.7°C | 0.7% | 0hPa | 2.6V | 00:00:00 | 00:00:00 | 00:00:00 | |
| IW2NTF | 2026-08-30 11:44:09 | 44.62371 | 8.24415 | 317° | 31km/h | 26201m | 5.4m/s | -50.2°C | 3.4% | 0hPa | 2.6V | 08:30:00 | 02:07:57 | 00:00:00 | |
| DB0UT-7 | 2026-08-30 11:44:08 | 44.62395 | 8.24393 | 335° | 31km/h | 26222m | 5.5m/s | -50.7°C | 3.4% | 0hPa | 2.6V | 00:00:00 | 02:08:01 | 00:00:00 | |
| IW2NTF | 2026-08-30 11:43:59 | 44.62324 | 8.24507 | 307° | 29km/h | 26148m | 5.5m/s | -49.9°C | 3.3% | 0hPa | 2.6V | 08:30:00 | 02:07:47 | 00:00:00 | |
| IW2NTF | 2026-08-30 11:43:49 | 44.62286 | 8.24590 | 285° | 29km/h | 26099m | 5.2m/s | -49.9°C | 3.3% | 0hPa | 2.6V | 08:30:00 | 02:07:37 | 00:00:00 | |
| RDZBGO | 2026-08-30 11:43:48 | 44.62301 | 8.24551 | 308° | 33km/h | 26119m | 4.2m/s | -50.0°C | 0.8% | 0hPa | 2.6V | 00:00:00 | 00:00:00 | 00:00:00 | |
| IW2NTF | 2026-08-30 11:43:39 | 44.62263 | 8.24689 | 301° | 27km/h | 26049m | 5.8m/s | -50°C | 3.2% | 0hPa | 2.6V | 08:30:00 | 02:07:27 | 00:00:00 | |
| DB0UT-7 | 2026-08-30 11:43:38 | 44.62273 | 8.24656 | 288° | 26km/h | 26070m | 6.0m/s | -49.8°C | 3.2% | 0hPa | 2.6V | 00:00:00 | 00:00:00 | 00:00:00 | |
| IW2NTF | 2026-08-30 11:43:29 | 44.62245 | 8.24787 | 282° | 27km/h | 25999m | 4m/s | -50°C | 3.2% | 0hPa | 2.6V | 08:30:00 | 02:07:17 | 00:00:00 | |
| DO3MHA-12 | 2026-08-30 11:43:27 | 44.62247 | 8.24756 | 271° | 27km/h | 26014m | 5.1m/s | -49.8°C | 3.2% | 0hPa | 2.6V | 00:00:00 | 02:07:20 | 00:00:00 | |
| IW2NTF | 2026-08-30 11:43:19 | 44.62223 | 8.24856 | 272° | 20km/h | 25950m | 5.6m/s | -50.6°C | 3.3% | 0hPa | 2.6V | 08:30:00 | 02:07:07 | 00:00:00 | |
| DO3MHA-12 | 2026-08-30 11:43:17 | 44.62228 | 8.24832 | 298° | 24km/h | 25965m | 3.7m/s | -50.3°C | 3.2% | 0hPa | 2.7V | 00:00:00 | 02:07:10 | 08:30:00 | |
| RDZBGO | 2026-08-30 11:43:14 | 44.62224 | 8.24849 | 283° | 24km/h | 25956m | 6.1m/s | -50.6°C | 0.8% | 0hPa | 2.7V | 00:00:00 | 00:00:00 | 00:00:00 | |
| IW2NTF | 2026-08-30 11:43:09 | 44.62236 | 8.24924 | 284° | 13km/h | 25900m | 5.8m/s | -50.6°C | 3.4% | 0hPa | 2.7V | 08:30:00 | 02:06:57 | 00:00:00 | |
| AUTORXJP | 2026-08-30 11:43:08 | 44.62234 | 8.24911 | 245° | 16km/h | 25915m | 5.2m/s | -50.6°C | 0.8% | -1.0hPa | 2.7V | 00:00:00 | 00:00:00 | 00:00:00 | |
| DO3MHA-12 | 2026-08-30 11:43:05 | 44.62236 | 8.24920 | 268° | 11km/h | 25906m | 4.8m/s | -50.5°C | 3.5% | 0hPa | 2.7V | 00:00:00 | 02:06:58 | 00:00:00 | |
| IW2NTF | 2026-08-30 11:42:59 | 44.62236 | 8.24962 | 235° | 7km/h | 25851m | 4.5m/s | -50.9°C | 3.5% | 0hPa | 2.7V | 08:30:00 | 02:06:47 | 00:00:00 | |
| DO3MHA-12 | 2026-08-30 11:42:55 | 44.62235 | 8.24959 | 249° | 5km/h | 25856m | 3.9m/s | -50.8°C | 3.5% | 0hPa | 2.7V | 00:00:00 | 02:06:48 | 00:00:00 | |
| RDZBGO | 2026-08-30 11:42:53 | 44.62236 | 8.24962 | 236° | 7km/h | 25852m | 4.5m/s | -50.9°C | 0.9% | 0hPa | 2.7V | 00:00:00 | 00:00:00 | 00:00:00 | |
| IW2NTF | 2026-08-30 11:42:48 | 44.62237 | 8.24972 | 0° | 4km/h | 25796m | 4.6m/s | -50.7°C | 3.3% | 0hPa | 2.7V | 08:30:00 | 02:06:36 | 00:00:00 | |
| DO3MHA-12 | 2026-08-30 11:42:45 | 44.62239 | 8.24971 | 324° | 4km/h | 25807m | 5.3m/s | -50.6°C | 3.4% | 0hPa | 2.6V | 00:00:00 | 02:06:38 | 00:00:00 | |
| IW2NTF | 2026-08-30 11:42:39 | 44.62227 | 8.24979 | 313° | 11km/h | 25747m | 3.9m/s | -50.7°C | 3.4% | 0hPa | 2.6V | 08:30:00 | 02:06:26 | 00:00:00 | |
| DB0UT-7 | 2026-08-30 11:42:38 | 44.62231 | 8.24973 | 44° | 13km/h | 25771m | 5.3m/s | -50.7°C | 3.4% | 0hPa | 2.6V | 00:00:00 | 00:00:00 | 00:00:00 | |
| AUTORXJP | 2026-08-30 11:42:37 | 44.62230 | 8.24974 | 306° | 5km/h | 25756m | 5.6m/s | -50.7°C | 0.8% | -1.0hPa | 2.6V | 00:00:00 | 00:00:00 | 00:00:00 | |
| DO3MHA-12 | 2026-08-30 11:42:35 | 44.62230 | 8.24974 | 307° | 11km/h | 25757m | 5.5m/s | -50.6°C | 3.4% | 0hPa | 2.6V | 00:00:00 | 02:06:28 | 00:00:00 | |
| RDZBGO | 2026-08-30 11:42:31 | 44.62225 | 8.24982 | 320° | 11km/h | 25742m | 5.5m/s | -50.7°C | 0.8% | 0hPa | 2.6V | 00:00:00 | 00:00:00 | 00:00:00 | |
| IW2NTF | 2026-08-30 11:42:28 | 44.62204 | 8.24996 | 335° | 7km/h | 25696m | 5.3m/s | -50.8°C | 3.4% | 0hPa | 2.6V | 08:30:00 | 02:06:16 | 00:00:00 | |
| DO3MHA-12 | 2026-08-30 11:42:25 | 44.62208 | 8.24992 | 330° | 13km/h | 25707m | 4.4m/s | -50.8°C | 3.4% | 0hPa | 2.7V | 00:00:00 | 02:06:18 | 00:00:00 | |
| IW2NTF | 2026-08-30 11:42:19 | 44.62172 | 8.25015 | 342° | 20km/h | 25647m | 5.4m/s | -50.8°C | 3.4% | 0hPa | 2.7V | 08:30:00 | 02:06:06 | 00:00:00 | |
| DO3MHA-12 | 2026-08-30 11:42:15 | 44.62180 | 8.25011 | 347° | 18km/h | 25657m | 4.3m/s | -50.9°C | 3.4% | 0hPa | 2.6V | 00:00:00 | 02:06:08 | 00:00:00 | |
| IW2NTF | 2026-08-30 11:42:08 | 44.62129 | 8.25051 | 328° | 24km/h | 25596m | 4.8m/s | -51°C | 3.5% | 0hPa | 2.7V | 08:30:00 | 02:05:56 | 00:00:00 | |
| DB0UT-7 | 2026-08-30 11:42:08 | 44.62149 | 8.25032 | 327° | 22km/h | 25621m | 5.1m/s | -50.8°C | 3.5% | 0hPa | 2.7V | 00:00:00 | 02:06:01 | 00:00:00 | |
| AUTORXJP | 2026-08-30 11:42:06 | 44.62139 | 8.25042 | 325° | 20km/h | 25607m | 5.5m/s | -51.0°C | 0.8% | -1.0hPa | 2.6V | 00:00:00 | 00:00:00 | 00:00:00 | |
| DO3MHA-12 | 2026-08-30 11:42:05 | 44.62138 | 8.25042 | 326° | 27km/h | 25607m | 5.5m/s | -51.0°C | 3.5% | 0hPa | 2.6V | 00:00:00 | 02:05:58 | 00:00:00 | |
| IW2NTF | 2026-08-30 11:41:58 | 44.62075 | 8.25106 | 313° | 16km/h | 25545m | 4.7m/s | -50.9°C | 3.4% | 0hPa | 2.6V | 08:30:00 | 02:05:46 | 00:00:00 | |
| DO3MHA-12 | 2026-08-30 11:41:55 | 44.62083 | 8.25095 | 316° | 18km/h | 25556m | 5.3m/s | -51.1°C | 3.4% | 0hPa | 2.6V | 00:00:00 | 02:05:48 | 00:00:00 | |
| IW2NTF | 2026-08-30 11:41:46 | 44.62047 | 8.25158 | 298° | 24km/h | 25495m | 5.5m/s | -50.8°C | 3.4% | 0hPa | 2.6V | 08:30:00 | 02:05:36 | 00:00:00 | |
| DO3MHA-12 | 2026-08-30 11:41:45 | 44.62052 | 8.25144 | 300° | 16km/h | 25506m | 4.8m/s | -50.8°C | 3.4% | 0hPa | 2.7V | 00:00:00 | 02:05:38 | 08:30:00 | |
| RDZBGO | 2026-08-30 11:41:44 | 44.62053 | 8.25144 | 300° | 20km/h | 25506m | 4.8m/s | -50.8°C | 0.8% | 0hPa | 2.6V | 00:00:00 | 00:00:00 | 00:00:00 | |
| IW2NTF | 2026-08-30 11:41:38 | 44.62029 | 8.25202 | 294° | 16km/h | 25446m | 5.5m/s | -50.8°C | 3.4% | 0hPa | 2.6V | 08:30:00 | 02:05:26 | 00:00:00 | |
| DB0UT-7 | 2026-08-30 11:41:38 | 44.62037 | 8.25185 | 297° | 16km/h | 25471m | 4.1m/s | -50.7°C | 3.5% | 0hPa | 2.7V | 00:00:00 | 00:00:00 | 00:00:00 | |
| AUTORXJP | 2026-08-30 11:41:35 | 44.62030 | 8.25197 | 303° | 15km/h | 25451m | 4.1m/s | -50.7°C | 0.8% | -1.0hPa | 2.7V | 00:00:00 | 00:00:00 | 00:00:00 | |
| IW2NTF | 2026-08-30 11:41:28 | 44.62018 | 8.25275 | 268° | 11km/h | 25398m | 4.2m/s | -50.8°C | 3.5% | 0hPa | 2.7V | 08:30:00 | 02:05:16 | 00:00:00 | |
| DO3MHA-12 | 2026-08-30 11:41:25 | 44.62018 | 8.25265 | 277° | 15km/h | 25408m | 5.4m/s | -50.7°C | 3.5% | 0hPa | 2.6V | 00:00:00 | 02:05:18 | 00:00:00 | |
| RDZBGO | 2026-08-30 11:41:24 | 44.62018 | 8.25265 | 278° | 16km/h | 25408m | 5.5m/s | -50.8°C | 0.9% | 0hPa | 2.6V | 00:00:00 | 00:00:00 | 00:00:00 | |
| IW2NTF | 2026-08-30 11:41:17 | 44.62011 | 8.25326 | 296° | 20km/h | 25347m | 4.9m/s | -50.8°C | 3.4% | 0hPa | 2.6V | 08:30:00 | 02:05:06 | 00:00:00 | |
| DO3MHA-12 | 2026-08-30 11:41:15 | 44.62014 | 8.25313 | 279° | 15km/h | 25358m | 4.8m/s | -50.6°C | 3.3% | 0hPa | 2.7V | 00:00:00 | 02:05:08 | 00:00:00 | |
| IW2NTF | 2026-08-30 11:41:08 | 44.62004 | 8.25368 | 267° | 7km/h | 25297m | 5.8m/s | -50.7°C | 3.4% | 0hPa | 2.7V | 08:30:00 | 02:04:56 | 00:00:00 | |
| DB0UT-7 | 2026-08-30 11:41:08 | 44.62005 | 8.25354 | 259° | 9km/h | 25323m | 4.9m/s | -50.7°C | 3.4% | 0hPa | 2.7V | 00:00:00 | 02:05:01 | 00:00:00 | |
| DO3MHA-12 | 2026-08-30 11:41:05 | 44.62005 | 8.25363 | 288° | 11km/h | 25307m | 4.4m/s | -50.5°C | 3.3% | 0hPa | 2.7V | 00:00:00 | 02:04:58 | 00:00:00 | |
| RDZBGO | 2026-08-30 11:41:04 | 44.62005 | 8.25363 | 288° | 7km/h | 25307m | 4.4m/s | -50.5°C | 0.8% | 0hPa | 2.7V | 00:00:00 | 00:00:00 | 00:00:00 | |
| AUTORXJP | 2026-08-30 11:41:03 | 44.62006 | 8.25375 | 249° | 11km/h | 25287m | 4.1m/s | -50.7°C | 0.8% | -1.0hPa | 2.7V | 00:00:00 | 00:00:00 | 00:00:00 | |
| IW2NTF | 2026-08-30 11:40:58 | 44.62006 | 8.25407 | 246° | 9km/h | 25247m | 4.5m/s | -50.6°C | 3.3% | 0hPa | 2.7V | 08:30:00 | 02:04:46 | 00:00:00 | |
| DO3MHA-12 | 2026-08-30 11:40:55 | 44.62005 | 8.25401 | 266° | 7km/h | 25258m | 5.9m/s | -50.7°C | 3.3% | 0hPa | 2.7V | 00:00:00 | 02:04:48 | 00:00:00 | |
| IW2NTF | 2026-08-30 11:40:48 | 44.62006 | 8.25425 | 288° | 9km/h | 25195m | 5.4m/s | -51°C | 3.5% | 0hPa | 2.7V | 08:30:00 | 02:04:36 | 00:00:00 | |
| DO3MHA-12 | 2026-08-30 11:40:45 | 44.62006 | 8.25420 | 247° | 7km/h | 25207m | 4.5m/s | -50.8°C | 3.4% | 0hPa | 2.6V | 00:00:00 | 02:04:38 | 00:00:00 | |
| RDZBGO | 2026-08-30 11:40:40 | 44.62004 | 8.25431 | 294° | 9km/h | 25187m | 5.3m/s | -51.0°C | 0.9% | 0hPa | 2.7V | 00:00:00 | 00:00:00 | 00:00:00 | |
| IW2NTF | 2026-08-30 11:40:38 | 44.61990 | 8.25425 | 53° | 13km/h | 25147m | 5.7m/s | -51.2°C | 3.5% | 0hPa | 2.7V | 08:30:00 | 02:04:26 | 00:00:00 | |
| DB0UT-7 | 2026-08-30 11:40:38 | 44.62002 | 8.25437 | 351° | 9km/h | 25173m | 3.7m/s | -51.0°C | 3.4% | 0hPa | 2.7V | 00:00:00 | 00:00:00 | 08:30:00 | |
| DO3MHA-12 | 2026-08-30 11:40:35 | 44.61995 | 8.25432 | 38° | 9km/h | 25157m | 4.7m/s | -51.3°C | 3.5% | 0hPa | 2.6V | 00:00:00 | 02:04:28 | 00:00:00 | |
| AUTORXJP | 2026-08-30 11:40:32 | 44.61989 | 8.25421 | 73° | 7km/h | 25142m | 5.5m/s | -51.2°C | 0.8% | -1.0hPa | 2.6V | 00:00:00 | 00:00:00 | 00:00:00 | |
| IW2NTF | 2026-08-30 11:40:28 | 44.61983 | 8.25416 | 8° | 7km/h | 25098m | 4.5m/s | -51.1°C | 3.4% | 0hPa | 2.6V | 08:30:00 | 02:04:16 | 00:00:00 | |
| DO3MHA-12 | 2026-08-30 11:40:25 | 44.61986 | 8.25416 | 351° | 11km/h | 25108m | 5.4m/s | -51.1°C | 3.5% | 0hPa | 2.7V | 00:00:00 | 02:04:18 | 00:00:00 | |
| RDZBGO | 2026-08-30 11:40:20 | 44.61977 | 8.25414 | 18° | 16km/h | 25087m | 5.4m/s | -51.2°C | 0.8% | 0hPa | 2.7V | 00:00:00 | 00:00:00 | 00:00:00 | |
| IW2NTF | 2026-08-30 11:40:19 | 44.61957 | 8.25403 | 346° | 11km/h | 25047m | 4.3m/s | -51.1°C | 3.4% | 0hPa | 2.7V | 08:30:00 | 02:04:06 | 00:00:00 | |
| DO3MHA-12 | 2026-08-30 11:40:15 | 44.61962 | 8.25402 | 19° | 9km/h | 25057m | 5.4m/s | -51.2°C | 3.5% | 0hPa | 2.6V | 00:00:00 | 02:04:08 | 08:30:00 | |
| IW2NTF | 2026-08-30 11:40:09 | 44.61933 | 8.25410 | 354° | 11km/h | 24996m | 4.5m/s | -51.3°C | 3.3% | 0hPa | 2.6V | 08:30:00 | 02:03:56 | 00:00:00 | |
| DB0UT-7 | 2026-08-30 11:40:08 | 44.61947 | 8.25410 | 344° | 15km/h | 25023m | 5.2m/s | -51.1°C | 3.5% | 0hPa | 2.6V | 00:00:00 | 02:04:01 | 00:00:00 | |
| DO3MHA-12 | 2026-08-30 11:40:05 | 44.61939 | 8.25410 | 4° | 13km/h | 25007m | 5.1m/s | -51.2°C | 3.4% | 0hPa | 2.6V | 00:00:00 | 02:03:58 | 00:00:00 | |
| AUTORXJP | 2026-08-30 11:40:01 | 44.61928 | 8.25412 | 348° | 13km/h | 24987m | 5.7m/s | -51.4°C | 0.9% | -1.0hPa | 2.6V | 00:00:00 | 00:00:00 | 00:00:00 | |
| RDZBGO | 2026-08-30 11:39:59 | 44.61924 | 8.25413 | 346° | 15km/h | 24982m | 5.6m/s | -51.3°C | 0.8% | 0hPa | 2.6V | 00:00:00 | 00:00:00 | 00:00:00 | |
| IW2NTF | 2026-08-30 11:39:58 | 44.61903 | 8.25433 | 340° | 16km/h | 24946m | 5.3m/s | -51.5°C | 3.5% | 0hPa | 2.6V | 08:30:00 | 02:03:46 | 00:00:00 | |
| DO3MHA-12 | 2026-08-30 11:39:55 | 44.61908 | 8.25427 | 313° | 16km/h | 24956m | 3.9m/s | -51.3°C | 3.5% | 0hPa | 2.6V | 00:00:00 | 02:03:48 | 00:00:00 | |
| IW2NTF | 2026-08-30 11:39:48 | 44.61861 | 8.25447 | 319° | 20km/h | 24899m | 3.8m/s | -52°C | 3.6% | 0hPa | 2.6V | 08:30:00 | 02:03:36 | 00:00:00 | |
| DO3MHA-12 | 2026-08-30 11:39:42 | 44.61858 | 8.25452 | 309° | 20km/h | 24895m | 4.5m/s | -52.1°C | 3.6% | 0hPa | 2.6V | 00:00:00 | 02:03:35 | 00:00:00 | |
| IW2NTF | 2026-08-30 11:39:39 | 44.61842 | 8.25508 | 291° | 20km/h | 24849m | 4.6m/s | -51.9°C | 3.6% | 0hPa | 2.6V | 08:30:00 | 02:03:26 | 00:00:00 | |
| DB0UT-7 | 2026-08-30 11:39:38 | 44.61851 | 8.25477 | 288° | 20km/h | 24875m | 5.6m/s | -51.9°C | 3.5% | 0hPa | 2.6V | 00:00:00 | 00:00:00 | 00:00:00 | |
| DO3MHA-12 | 2026-08-30 11:39:32 | 44.61839 | 8.25514 | 296° | 24km/h | 24845m | 4.8m/s | -51.9°C | 3.6% | 0hPa | 2.6V | 00:00:00 | 02:03:25 | 00:00:00 | |
| AUTORXJP | 2026-08-30 11:39:30 | 44.61834 | 8.25529 | 300° | 26km/h | 24834m | 5.3m/s | -52.0°C | 0.7% | -1.0hPa | 2.6V | 00:00:00 | 00:00:00 | 00:00:00 | |
| IW2NTF | 2026-08-30 11:39:26 | 44.61823 | 8.25591 | 296° | 15km/h | 24789m | 4.7m/s | -52.3°C | 3.6% | 0hPa | 2.6V | 08:30:00 | 02:03:14 | 00:00:00 | |
| RDZBGO | 2026-08-30 11:39:18 | 44.61820 | 8.25600 | 292° | 16km/h | 24779m | 4.6m/s | -52.1°C | 1.0% | 0hPa | 2.6V | 00:00:00 | 00:00:00 | 00:00:00 | |
| IW2NTF | 2026-08-30 11:39:16 | 44.61804 | 8.25664 | 266° | 22km/h | 24740m | 4.6m/s | -52.1°C | 3.6% | 0hPa | 2.6V | 08:30:00 | 02:03:04 | 00:00:00 | |
| DB0UT-7 | 2026-08-30 11:39:08 | 44.61803 | 8.25683 | 282° | 18km/h | 24724m | 4.6m/s | -51.9°C | 3.7% | 0hPa | 2.7V | 00:00:00 | 02:03:01 | 00:00:00 | |
| IW2NTF | 2026-08-30 11:39:06 | 44.61796 | 8.25734 | 286° | 27km/h | 24689m | 3.5m/s | -51.9°C | 3.6% | 0hPa | 2.6V | 08:30:00 | 02:02:54 | 00:00:00 | |
| AUTORXJP | 2026-08-30 11:38:59 | 44.61794 | 8.25751 | 271° | 22km/h | 24682m | 5.2m/s | -51.8°C | 0.7% | -1.0hPa | 2.6V | 00:00:00 | 00:00:00 | 00:00:00 | |
| RDZBGO | 2026-08-30 11:38:58 | 44.61793 | 8.25751 | 272° | 22km/h | 24682m | 5.2m/s | -51.8°C | 0.8% | 0hPa | 2.6V | 00:00:00 | 00:00:00 | 00:00:00 | |
| IW2NTF | 2026-08-30 11:38:56 | 44.61804 | 8.25791 | 275° | 22km/h | 24643m | 5.1m/s | -51.9°C | 3.6% | 0hPa | 2.6V | 08:30:00 | 02:02:44 | 00:00:00 | |
| IW2NTF | 2026-08-30 11:38:46 | 44.61811 | 8.25850 | 224° | 15km/h | 24592m | 4.4m/s | -52°C | 3.5% | 0hPa | 2.6V | 08:30:00 | 02:02:34 | 00:00:00 | |
| DB0UT-7 | 2026-08-30 11:38:38 | 44.61818 | 8.25862 | 243° | 15km/h | 24578m | 4.8m/s | -52.0°C | 3.5% | 0hPa | 2.6V | 00:00:00 | 00:00:00 | 00:00:00 | |
| IW2NTF | 2026-08-30 11:38:35 | 44.61830 | 8.25903 | 285° | 11km/h | 24537m | 4.2m/s | -52.2°C | 3.5% | 0hPa | 2.6V | 08:30:00 | 02:02:22 | 00:00:00 | |
| AUTORXJP | 2026-08-30 11:38:28 | 44.61830 | 8.25908 | 276° | 15km/h | 24532m | 4.6m/s | -52.3°C | 0.8% | -1.0hPa | 2.6V | 00:00:00 | 00:00:00 | 00:00:00 | |
| DO3MHA-12 | 2026-08-30 11:38:24 | 44.61837 | 8.25933 | 228° | 13km/h | 24513m | 5.7m/s | -52.3°C | 3.6% | 0hPa | 2.6V | 00:00:00 | 02:02:17 | 00:00:00 | |
| IW2NTF | 2026-08-30 11:38:20 | 44.61851 | 8.25952 | 241° | 15km/h | 24488m | 5.4m/s | -52.2°C | 3.6% | 0hPa | 2.6V | 08:30:00 | 02:02:12 | 00:00:00 | |
| RDZBGO | 2026-08-30 11:38:16 | 44.61854 | 8.25962 | 253° | 15km/h | 24478m | 5.0m/s | -52.4°C | 0.9% | 0hPa | 2.6V | 00:00:00 | 00:00:00 | 00:00:00 | |
| IW2NTF | 2026-08-30 11:38:14 | 44.61872 | 8.25983 | 212° | 18km/h | 24438m | 4.3m/s | -52.6°C | 3.7% | 0hPa | 2.6V | 08:30:00 | 02:02:02 | 00:00:00 | |
| DB0UT-7 | 2026-08-30 11:38:08 | 44.61875 | 8.25986 | 210° | 7km/h | 24433m | 5.4m/s | -52.6°C | 3.7% | 0hPa | 2.7V | 00:00:00 | 02:02:01 | 00:00:00 | |
| IW2NTF | 2026-08-30 11:38:00 | 44.61887 | 8.25995 | 79° | 7km/h | 24388m | 4m/s | -52.7°C | 3.7% | 0hPa | 2.7V | 08:30:00 | 02:01:52 | 00:00:00 | |
| AUTORXJP | 2026-08-30 11:37:57 | 44.61886 | 8.25992 | 119° | 2km/h | 24379m | 5.8m/s | -52.5°C | 0.9% | -1.0hPa | 2.6V | 00:00:00 | 00:00:00 | 00:00:00 | |
| RDZBGO | 2026-08-30 11:37:55 | 44.61887 | 8.25992 | 222° | 4km/h | 24374m | 5.0m/s | -52.5°C | 1.0% | 0hPa | 2.6V | 00:00:00 | 00:00:00 | 00:00:00 | |
| IW2NTF | 2026-08-30 11:37:50 | 44.61900 | 8.26007 | 238° | 11km/h | 24339m | 4m/s | -52.8°C | 3.7% | 0hPa | 2.6V | 08:30:00 | 02:01:42 | 00:00:00 | |
| DO3MHA-12 | 2026-08-30 11:37:48 | 44.61901 | 8.26009 | 238° | 5km/h | 24335m | 4.2m/s | -52.8°C | 3.7% | 0hPa | 2.6V | 00:00:00 | 02:01:41 | 00:00:00 | |
| IW2NTF | 2026-08-30 11:37:41 | 44.61900 | 8.25996 | 105° | 7km/h | 24289m | 4.9m/s | -52.9°C | 3.7% | 0hPa | 2.6V | 08:30:00 | 02:01:32 | 00:00:00 | |
| DB0UT-7 | 2026-08-30 11:37:38 | 44.61901 | 8.25994 | 119° | 7km/h | 24285m | 4.3m/s | -52.8°C | 3.8% | 0hPa | 2.7V | 00:00:00 | 00:00:00 | 00:00:00 | |
| RDZBGO | 2026-08-30 11:37:35 | 44.61902 | 8.25992 | 231° | 4km/h | 24274m | 5.3m/s | -52.7°C | 1.0% | 0hPa | 2.6V | 00:00:00 | 00:00:00 | 00:00:00 | |
| IW2NTF | 2026-08-30 11:37:30 | 44.61900 | 8.25996 | 352° | 7km/h | 24238m | 5.3m/s | -52.5°C | 3.6% | 0hPa | 2.6V | 08:30:00 | 02:01:22 | 00:00:00 | |
| DO3MHA-12 | 2026-08-30 11:37:28 | 44.61897 | 8.25997 | 356° | 7km/h | 24233m | 4.3m/s | -52.5°C | 3.6% | 0hPa | 2.6V | 00:00:00 | 02:01:21 | 00:00:00 | |
| AUTORXJP | 2026-08-30 11:37:26 | 44.61893 | 8.25996 | 29° | 7km/h | 24223m | 5.6m/s | -52.7°C | 0.9% | -1.0hPa | 2.6V | 00:00:00 | 00:00:00 | 00:00:00 | |
| IW2NTF | 2026-08-30 11:37:24 | 44.61890 | 8.26004 | 264° | 9km/h | 24188m | 4.9m/s | -52.8°C | 3.7% | 0hPa | 2.6V | 08:30:00 | 02:01:12 | 00:00:00 | |
| DO3MHA-12 | 2026-08-30 11:37:18 | 44.61890 | 8.26007 | 269° | 11km/h | 24184m | 4.4m/s | -52.8°C | 3.7% | 0hPa | 2.7V | 00:00:00 | 02:01:11 | 00:00:00 | |
| IW2NTF | 2026-08-30 11:37:14 | 44.61877 | 8.26024 | 17° | 11km/h | 24141m | 5m/s | -52.6°C | 3.7% | 0hPa | 2.7V | 08:30:00 | 02:01:02 | 00:00:00 | |
| RDZBGO | 2026-08-30 11:37:13 | 44.61886 | 8.26023 | 302° | 13km/h | 24165m | 3.9m/s | -52.7°C | 1.0% | 0hPa | 2.7V | 00:00:00 | 00:00:00 | 00:00:00 | |
| DO3MHA-12 | 2026-08-30 11:37:08 | 44.61875 | 8.26023 | 358° | 9km/h | 24137m | 5.2m/s | -52.6°C | 3.5% | 0hPa | 2.7V | 00:00:00 | 02:01:01 | 00:00:00 | |
| IW2NTF | 2026-08-30 11:37:04 | 44.61858 | 8.26039 | 9° | 13km/h | 24093m | 3.7m/s | -53°C | 3.7% | 0hPa | 2.6V | 08:30:00 | 02:00:52 | 00:00:00 | |
| AUTORXJP | 2026-08-30 11:36:55 | 44.61838 | 8.26022 | 25° | 20km/h | 24067m | 5.0m/s | -53.4°C | 0.9% | -1.0hPa | 2.6V | 00:00:00 | 00:00:00 | 00:00:00 | |
| IW2NTF | 2026-08-30 11:36:54 | 44.61818 | 8.26020 | 335° | 11km/h | 24043m | 4.3m/s | -53.5°C | 3.7% | 0hPa | 2.6V | 08:30:00 | 02:00:42 | 00:00:00 | |
| RDZBGO | 2026-08-30 11:36:51 | 44.61828 | 8.26018 | 7° | 16km/h | 24058m | 4.3m/s | -53.4°C | 1.0% | 0hPa | 2.6V | 00:00:00 | 00:00:00 | 00:00:00 | |
| DO3MHA-12 | 2026-08-30 11:36:48 | 44.61816 | 8.26022 | 325° | 16km/h | 24039m | 5.0m/s | -53.6°C | 3.9% | 0hPa | 2.6V | 00:00:00 | 02:00:41 | 00:00:00 | |
| IW2NTF | 2026-08-30 11:36:44 | 44.61781 | 8.26019 | 13° | 20km/h | 23996m | 4.2m/s | -53.6°C | 3.9% | 0hPa | 2.6V | 08:30:00 | 02:00:32 | 00:00:00 | |
| DO3MHA-12 | 2026-08-30 11:36:38 | 44.61776 | 8.26018 | 4° | 20km/h | 23992m | 3.9m/s | -53.6°C | 4.0% | 0hPa | 2.7V | 00:00:00 | 02:00:31 | 00:00:00 | |
| IW2NTF | 2026-08-30 11:36:32 | 44.61718 | 8.26015 | 23° | 22km/h | 23941m | 4.4m/s | -53.8°C | 3.8% | 0hPa | 2.7V | 08:30:00 | 02:00:20 | 00:00:00 | |
| DO3MHA-12 | 2026-08-30 11:36:28 | 44.61724 | 8.26018 | 18° | 18km/h | 23946m | 5.3m/s | -53.8°C | 3.6% | 0hPa | 2.7V | 00:00:00 | 02:00:21 | 00:00:00 | |
| AUTORXJP | 2026-08-30 11:36:24 | 44.61702 | 8.26009 | 352° | 16km/h | 23922m | 5.1m/s | -54.1°C | 0.9% | -1.0hPa | 2.7V | 00:00:00 | 00:00:00 | 00:00:00 | |
| IW2NTF | 2026-08-30 11:36:23 | 44.61674 | 8.26008 | 4° | 24km/h | 23893m | 5.5m/s | -54.4°C | 4% | 0hPa | 2.7V | 08:30:00 | 02:00:10 | 00:00:00 | |
| DO3MHA-12 | 2026-08-30 11:36:18 | 44.61679 | 8.26009 | 9° | 22km/h | 23898m | 4.4m/s | -54.3°C | 3.9% | 0hPa | 2.7V | 00:00:00 | 02:00:11 | 00:00:00 | |
| IW2NTF | 2026-08-30 11:36:12 | 44.61588 | 8.26045 | 346° | 31km/h | 23814m | 4.6m/s | -54.9°C | 4.1% | 0hPa | 2.7V | 08:30:00 | 01:59:54 | 00:00:00 | |
| DB0UT-7 | 2026-08-30 11:36:08 | 44.61625 | 8.26025 | 326° | 26km/h | 23849m | 4.3m/s | -54.6°C | 3.9% | 0hPa | 2.6V | 00:00:00 | 02:00:01 | 08:30:00 | |
| IW2NTF | 2026-08-30 11:36:07 | 44.61549 | 8.26060 | 330° | 26km/h | 23786m | 4.9m/s | -55.2°C | 4.1% | 0hPa | 2.6V | 08:30:00 | 01:59:48 | 00:00:00 | |
| AUTORXJP | 2026-08-30 11:35:53 | 44.61531 | 8.26076 | 331° | 27km/h | 23772m | 5.1m/s | -55.4°C | 1.0% | -1.0hPa | 2.6V | 00:00:00 | 00:00:00 | 00:00:00 | |
| IW2NTF | 2026-08-30 11:35:51 | 44.61485 | 8.26096 | 340° | 27km/h | 23738m | 4.5m/s | -55.5°C | 4.3% | 0hPa | 2.6V | 08:30:00 | 01:59:38 | 00:00:00 | |
| DO3MHA-12 | 2026-08-30 11:35:48 | 44.61506 | 8.26086 | 346° | 27km/h | 23752m | 5.9m/s | -55.3°C | 4.3% | 0hPa | 2.6V | 00:00:00 | 01:59:41 | 00:00:00 | |
| RDZBGO | 2026-08-30 11:35:44 | 44.61484 | 8.26096 | 342° | 27km/h | 23738m | 4.5m/s | -55.5°C | 1.2% | 0hPa | 2.6V | 00:00:00 | 00:00:00 | 00:00:00 | |
| DB0UT-7 | 2026-08-30 11:35:38 | 44.61444 | 8.26125 | 326° | 18km/h | 23704m | 4.9m/s | -55.3°C | 4.2% | 0hPa | 2.6V | 00:00:00 | 00:00:00 | 00:00:00 | |
| IW2NTF | 2026-08-30 11:35:37 | 44.61428 | 8.26137 | 335° | 24km/h | 23689m | 4.3m/s | -55.5°C | 4.3% | 0hPa | 2.6V | 08:30:00 | 01:59:28 | 00:00:00 | |
| IW2NTF | 2026-08-30 11:35:30 | 44.61380 | 8.26172 | 308° | 22km/h | 23642m | 4.3m/s | -55.5°C | 4.3% | 0hPa | 2.7V | 08:30:00 | 01:59:18 | 00:00:00 | |
| AUTORXJP | 2026-08-30 11:35:22 | 44.61370 | 8.26189 | 320° | 11km/h | 23622m | 5.8m/s | -55.3°C | 1.1% | -1.0hPa | 2.7V | 00:00:00 | 00:00:00 | 00:00:00 | |
| IW2NTF | 2026-08-30 11:35:16 | 44.61354 | 8.26196 | 344° | 11km/h | 23592m | 4.5m/s | -55.2°C | 4.2% | 0hPa | 2.7V | 08:30:00 | 01:59:08 | 00:00:00 | |
| IW2NTF | 2026-08-30 11:35:10 | 44.61334 | 8.26236 | 307° | 11km/h | 23543m | 3.9m/s | -55.1°C | 4.2% | 0hPa | 2.7V | 08:30:00 | 01:58:58 | 00:00:00 | |
| DB0UT-7 | 2026-08-30 11:35:08 | 44.61338 | 8.26225 | 296° | 15km/h | 23557m | 4.1m/s | -55.1°C | 4.2% | 0hPa | 2.6V | 00:00:00 | 01:59:01 | 00:00:00 | |
| IW2NTF | 2026-08-30 11:35:01 | 44.61304 | 8.26261 | 295° | 15km/h | 23494m | 4.2m/s | -55.1°C | 4.2% | 0hPa | 2.6V | 08:30:00 | 01:58:48 | 00:00:00 | |
| RDZBGO | 2026-08-30 11:34:56 | 44.61309 | 8.26251 | 318° | 18km/h | 23505m | 4.9m/s | -55.0°C | 1.1% | 0hPa | 2.6V | 00:00:00 | 00:00:00 | 00:00:00 | |
| IW2NTF | 2026-08-30 11:34:50 | 44.61290 | 8.26296 | 325° | 18km/h | 23445m | 4.9m/s | -54.8°C | 4.2% | 0hPa | 2.6V | 08:30:00 | 01:58:38 | 00:00:00 | |
| IW2NTF | 2026-08-30 11:34:39 | 44.61266 | 8.26338 | 279° | 7km/h | 23384m | 5.2m/s | -54.8°C | 4.2% | 0hPa | 2.7V | 08:30:00 | 01:58:26 | 00:00:00 | |
| DB0UT-7 | 2026-08-30 11:34:38 | 44.61268 | 8.26322 | 295° | 11km/h | 23410m | 4.9m/s | -54.8°C | 4.1% | 0hPa | 2.7V | 00:00:00 | 00:00:00 | 00:00:00 | |
| RDZBGO | 2026-08-30 11:34:33 | 44.61266 | 8.26338 | 281° | 7km/h | 23385m | 5.3m/s | -54.8°C | 1.2% | 0hPa | 2.7V | 00:00:00 | 00:00:00 | 00:00:00 | |
| IW2NTF | 2026-08-30 11:34:23 | 44.61238 | 8.26368 | 330° | 4km/h | 23325m | 5m/s | -54.7°C | 4.2% | 0hPa | 2.7V | 08:30:00 | 01:58:14 | 00:00:00 | |
| AUTORXJP | 2026-08-30 11:34:20 | 44.61237 | 8.26371 | 275° | 5km/h | 23314m | 5.7m/s | -54.7°C | 1.0% | -1.0hPa | 2.7V | 00:00:00 | 00:00:00 | 00:00:00 | |
| IW2NTF | 2026-08-30 11:34:14 | 44.61224 | 8.26388 | 338° | 18km/h | 23274m | 4.1m/s | -54.3°C | 4.1% | 0hPa | 2.7V | 08:30:00 | 01:58:04 | 00:00:00 | |
| RDZBGO | 2026-08-30 11:34:11 | 44.61228 | 8.26386 | 338° | 16km/h | 23278m | 5.4m/s | -54.3°C | 1.2% | 0hPa | 2.7V | 00:00:00 | 00:00:00 | 00:00:00 | |
| DB0UT-7 | 2026-08-30 11:34:08 | 44.61212 | 8.26392 | 8° | 13km/h | 23259m | 5.1m/s | -54.3°C | 4.1% | 0hPa | 2.7V | 00:00:00 | 01:58:01 | 00:00:00 | |
| IW2NTF | 2026-08-30 11:34:04 | 44.61205 | 8.26395 | 340° | 4km/h | 23225m | 5.5m/s | -54.3°C | 4.1% | 0hPa | 2.7V | 08:30:00 | 01:57:54 | 00:00:00 | |
| IW2NTF | 2026-08-30 11:33:52 | 44.61173 | 8.26411 | 341° | 11km/h | 23175m | 5.8m/s | -54.4°C | 4.1% | 0hPa | 2.6V | 08:30:00 | 01:57:44 | 00:00:00 | |
| RDZBGO | 2026-08-30 11:33:48 | 44.61169 | 8.26415 | 315° | 13km/h | 23165m | 4.5m/s | -54.4°C | 1.1% | 0hPa | 2.7V | 00:00:00 | 00:00:00 | 00:00:00 | |
| IW2NTF | 2026-08-30 11:33:41 | 44.61140 | 8.26436 | 336° | 24km/h | 23124m | 5.6m/s | -54.2°C | 4% | 0hPa | 2.7V | 08:30:00 | 01:57:34 | 00:00:00 | |
| DB0UT-7 | 2026-08-30 11:33:38 | 44.61121 | 8.26445 | 342° | 29km/h | 23108m | 3.7m/s | -54.2°C | 3.9% | 0hPa | 2.7V | 00:00:00 | 00:00:00 | 00:00:00 | |
| IW2NTF | 2026-08-30 11:33:32 | 44.61077 | 8.26482 | 327° | 24km/h | 23066m | 5.8m/s | -54.2°C | 4.1% | 0hPa | 2.7V | 08:30:00 | 01:57:23 | 00:00:00 | |
| RDZBGO | 2026-08-30 11:33:26 | 44.61060 | 8.26496 | 336° | 29km/h | 23051m | 5.3m/s | -54.4°C | 1.1% | 0hPa | 2.6V | 00:00:00 | 00:00:00 | 00:00:00 | |
| IW2NTF | 2026-08-30 11:33:21 | 44.61006 | 8.26532 | 326° | 33km/h | 23015m | 5.6m/s | -54.6°C | 3.9% | 0hPa | 2.6V | 08:30:00 | 01:57:13 | 00:00:00 | |
| AUTORXJP | 2026-08-30 11:33:18 | 44.60986 | 8.26548 | 329° | 26km/h | 23000m | 4.6m/s | -54.4°C | 1.0% | -1.0hPa | 2.7V | 00:00:00 | 00:00:00 | 00:00:00 | |
| IW2NTF | 2026-08-30 11:33:12 | 44.60947 | 8.26588 | 326° | 37km/h | 22964m | 4.8m/s | -54.3°C | 4% | 0hPa | 2.7V | 08:30:00 | 01:57:03 | 00:00:00 | |
| DB0UT-7 | 2026-08-30 11:33:08 | 44.60931 | 8.26605 | 319° | 35km/h | 22953m | 5.1m/s | -54.4°C | 4.1% | 0hPa | 2.6V | 00:00:00 | 01:57:01 | 00:00:00 | |
| RDZBGO | 2026-08-30 11:33:05 | 44.60906 | 8.26635 | 322° | 42km/h | 22937m | 5.0m/s | -54.3°C | 1.1% | 0hPa | 2.7V | 00:00:00 | 00:00:00 | 00:00:00 | |
| IW2NTF | 2026-08-30 11:33:01 | 44.60872 | 8.26680 | 316° | 31km/h | 22912m | 5.6m/s | -54.5°C | 3.9% | 0hPa | 2.7V | 08:30:00 | 01:56:53 | 00:00:00 | |
| IW2NTF | 2026-08-30 11:32:56 | 44.60811 | 8.26764 | 319° | 40km/h | 22862m | 4.2m/s | -54.8°C | 4.2% | 0hPa | 2.6V | 08:30:00 | 01:56:43 | 00:00:00 | |
| AUTORXJP | 2026-08-30 11:32:46 | 44.60781 | 8.26815 | 296° | 33km/h | 22837m | 4.3m/s | -54.9°C | 1.0% | -1.0hPa | 2.6V | 00:00:00 | 00:00:00 | 00:00:00 | |
| IW2NTF | 2026-08-30 11:32:43 | 44.60765 | 8.26858 | 296° | 26km/h | 22811m | 5.6m/s | -54.8°C | 4.1% | 0hPa | 2.6V | 08:30:00 | 01:56:33 | 00:00:00 | |
| RDZBGO | 2026-08-30 11:32:43 | 44.60774 | 8.26835 | 300° | 27km/h | 22827m | 5.3m/s | -54.8°C | 1.2% | 0hPa | 2.6V | 00:00:00 | 00:00:00 | 00:00:00 | |
| DO3MHA-12 | 2026-08-30 11:32:40 | 44.60765 | 8.26858 | 297° | 27km/h | 22812m | 5.5m/s | -54.7°C | 4.1% | 0hPa | 2.6V | 00:00:00 | 01:56:33 | 00:00:00 | |
| DB0UT-7 | 2026-08-30 11:32:38 | 44.60759 | 8.26874 | 305° | 24km/h | 22801m | 4.4m/s | -54.8°C | 4.1% | 0hPa | 2.6V | 00:00:00 | 00:00:00 | 00:00:00 | |
| IW2NTF | 2026-08-30 11:32:36 | 44.60730 | 8.26940 | 276° | 24km/h | 22762m | 5.2m/s | -54.7°C | 4.1% | 0hPa | 2.6V | 08:30:00 | 01:56:23 | 00:00:00 | |
| DO3MHA-12 | 2026-08-30 11:32:30 | 44.60730 | 8.26940 | 277° | 22km/h | 22762m | 5.2m/s | -54.6°C | 4.1% | 0hPa | 2.6V | 00:00:00 | 01:56:23 | 00:00:00 | |
| IW2NTF | 2026-08-30 11:32:22 | 44.60704 | 8.27004 | 307° | 20km/h | 22712m | 5.5m/s | -54.4°C | 4% | 0hPa | 2.6V | 08:30:00 | 01:56:13 | 00:00:00 | |
| RDZBGO | 2026-08-30 11:32:21 | 44.60711 | 8.26994 | 315° | 20km/h | 22723m | 5.8m/s | -54.3°C | 0% | 0hPa | 2.6V | 00:00:00 | 00:00:00 | 00:00:00 | |
| DO3MHA-12 | 2026-08-30 11:32:20 | 44.60704 | 8.27004 | 308° | 20km/h | 22713m | 5.5m/s | -54.4°C | 4.0% | 0hPa | 2.6V | 00:00:00 | 01:56:13 | 00:00:00 | |
| AUTORXJP | 2026-08-30 11:32:15 | 44.60694 | 8.27037 | 287° | 18km/h | 22687m | 4.6m/s | -54.5°C | 1.0% | -1.0hPa | 2.6V | 00:00:00 | 00:00:00 | 00:00:00 | |
| IW2NTF | 2026-08-30 11:32:12 | 44.60684 | 8.27074 | 304° | 20km/h | 22661m | 5.3m/s | -54.8°C | 4.1% | 0hPa | 2.6V | 08:30:00 | 01:56:03 | 00:00:00 | |
| DB0UT-7 | 2026-08-30 11:32:08 | 44.60677 | 8.27085 | 310° | 16km/h | 22653m | 4.3m/s | -54.9°C | 4.3% | 0hPa | 2.6V | 00:00:00 | 01:56:01 | 00:00:00 | |
| DO3MHA-12 | 2026-08-30 11:32:05 | 44.60669 | 8.27104 | 294° | 15km/h | 22638m | 4.3m/s | -54.9°C | 4.2% | 0hPa | 2.6V | 00:00:00 | 01:55:58 | 00:00:00 | |
| IW2NTF | 2026-08-30 11:32:02 | 44.60663 | 8.27130 | 281° | 13km/h | 22613m | 5.5m/s | -54.7°C | 4.1% | 0hPa | 2.6V | 08:30:00 | 01:55:53 | 00:00:00 | |
| DO3MHA-12 | 2026-08-30 11:31:54 | 44.60659 | 8.27156 | 269° | 18km/h | 22583m | 4.9m/s | -54.5°C | 4.2% | 0hPa | 2.6V | 00:00:00 | 01:55:47 | 08:30:00 | |
| IW2NTF | 2026-08-30 11:31:53 | 44.60662 | 8.27180 | 262° | 18km/h | 22563m | 5.8m/s | -54.5°C | 4.1% | 0hPa | 2.7V | 08:30:00 | 01:55:43 | 00:00:00 | |
| DO3MHA-12 | 2026-08-30 11:31:43 | 44.60651 | 8.27225 | 293° | 18km/h | 22529m | 5.3m/s | -54.4°C | 4.0% | 0hPa | 2.7V | 00:00:00 | 01:55:36 | 00:00:00 | |
| IW2NTF | 2026-08-30 11:31:42 | 44.60648 | 8.27244 | 278° | 20km/h | 22514m | 5.5m/s | -54.6°C | 4% | 0hPa | 2.7V | 08:30:00 | 01:55:33 | 00:00:00 | |
| RDZBGO | 2026-08-30 11:31:42 | 44.60650 | 8.27231 | 289° | 18km/h | 22524m | 4.8m/s | 0°C | 0% | 0hPa | 2.6V | 00:00:00 | 00:00:00 | 00:00:00 | |
| DB0UT-7 | 2026-08-30 11:31:38 | 44.60646 | 8.27258 | 279° | 27km/h | 22505m | 4.6m/s | -54.4°C | 3.9% | 0hPa | 2.6V | 00:00:00 | 00:00:00 | 08:30:00 | |
| DO3MHA-12 | 2026-08-30 11:31:33 | 44.60641 | 8.27292 | 285° | 27km/h | 22481m | 5.7m/s | -54.6°C | 4.2% | 0hPa | 2.6V | 00:00:00 | 01:55:26 | 00:00:00 | |
| IW2NTF | 2026-08-30 11:31:32 | 44.60635 | 8.27321 | 284° | 27km/h | 22466m | 5.1m/s | -54.5°C | 4.1% | 0hPa | 2.6V | 08:30:00 | 01:55:23 | 00:00:00 | |
| IW2NTF | 2026-08-30 11:31:23 | 44.60622 | 8.27410 | 280° | 27km/h | 22420m | 5.9m/s | -54.6°C | 4% | 0hPa | 2.7V | 08:30:00 | 01:55:13 | 00:00:00 | |
| RDZBGO | 2026-08-30 11:31:21 | 44.60624 | 8.27393 | 281° | 20km/h | 22429m | 3.8m/s | 0°C | 0% | 0hPa | 2.7V | 00:00:00 | 00:00:00 | 00:00:00 | |
| DO3MHA-12 | 2026-08-30 11:31:13 | 44.60608 | 8.27486 | 290° | 33km/h | 22386m | 5.4m/s | -54.2°C | 4.0% | 0hPa | 2.7V | 00:00:00 | 01:55:06 | 00:00:00 | |
| IW2NTF | 2026-08-30 11:31:12 | 44.60600 | 8.27519 | 288° | 29km/h | 22372m | 5.5m/s | -54.3°C | 4.2% | 0hPa | 2.7V | 08:30:00 | 01:55:03 | 00:00:00 | |
| DB0UT-7 | 2026-08-30 11:31:08 | 44.60596 | 8.27538 | 283° | 31km/h | 22363m | 3.6m/s | -54.3°C | 4.1% | 0hPa | 2.7V | 00:00:00 | 01:55:01 | 00:00:00 | |
| IW2NTF | 2026-08-30 11:31:05 | 44.60589 | 8.27628 | 281° | 31km/h | 22326m | 3.7m/s | -54.3°C | 4% | 0hPa | 2.7V | 08:30:00 | 01:54:53 | 00:00:00 | |
| DO3MHA-12 | 2026-08-30 11:31:00 | 44.60589 | 8.27627 | 282° | 31km/h | 22326m | 3.6m/s | -54.2°C | 4.0% | 0hPa | 2.7V | 00:00:00 | 01:54:53 | 00:00:00 | |
| IW2NTF | 2026-08-30 11:30:52 | 44.60586 | 8.27738 | 256° | 33km/h | 22280m | 4.1m/s | -54°C | 4.1% | 0hPa | 2.7V | 08:30:00 | 01:54:43 | 00:00:00 | |
| DO3MHA-12 | 2026-08-30 11:30:50 | 44.60586 | 8.27738 | 257° | 29km/h | 22280m | 4.1m/s | -54.0°C | 4.1% | 0hPa | 2.7V | 00:00:00 | 01:54:43 | 00:00:00 | |
| IW2NTF | 2026-08-30 11:30:42 | 44.60593 | 8.27850 | 268° | 26km/h | 22234m | 3.7m/s | -54.1°C | 4% | 0hPa | 2.6V | 08:30:00 | 01:54:33 | 00:00:00 | |
| RDZBGO | 2026-08-30 11:30:40 | 44.60593 | 8.27841 | 271° | 27km/h | 22239m | 4.3m/s | 0°C | 0% | 0hPa | 2.6V | 00:00:00 | 00:00:00 | 00:00:00 | |
| DB0UT-7 | 2026-08-30 11:30:38 | 44.60595 | 8.27869 | 259° | 24km/h | 22225m | 4.6m/s | -54.1°C | 4.1% | 0hPa | 2.6V | 00:00:00 | 00:00:00 | 00:00:00 | |
| IW2NTF | 2026-08-30 11:30:33 | 44.60616 | 8.27942 | 258° | 29km/h | 22187m | 4.2m/s | -53.9°C | 3.9% | 0hPa | 2.6V | 08:30:00 | 01:54:23 | 00:00:00 | |
| DO3MHA-12 | 2026-08-30 11:30:23 | 44.60621 | 8.28002 | 257° | 26km/h | 22154m | 4.8m/s | -53.6°C | 3.9% | 0hPa | 2.6V | 00:00:00 | 01:54:16 | 00:00:00 | |
| IW2NTF | 2026-08-30 11:30:22 | 44.60628 | 8.28021 | 233° | 22km/h | 22140m | 3.7m/s | -53.6°C | 3.8% | 0hPa | 2.6V | 08:30:00 | 01:54:13 | 00:00:00 | |
| DO3MHA-12 | 2026-08-30 11:30:13 | 44.60649 | 8.28079 | 261° | 27km/h | 22106m | 5.1m/s | -53.7°C | 4.0% | 0hPa | 2.7V | 00:00:00 | 01:54:06 | 08:30:00 | |
| IW2NTF | 2026-08-30 11:30:12 | 44.60648 | 8.28103 | 281° | 20km/h | 22092m | 5.2m/s | -53.9°C | 3.9% | 0hPa | 2.6V | 08:30:00 | 01:54:03 | 00:00:00 | |
| DB0UT-7 | 2026-08-30 11:30:08 | 44.60647 | 8.28114 | 271° | 16km/h | 22083m | 3.7m/s | -53.9°C | 3.9% | 0hPa | 2.6V | 00:00:00 | 01:54:01 | 00:00:00 | |
| IW2NTF | 2026-08-30 11:30:02 | 44.60669 | 8.28177 | 249° | 22km/h | 22047m | 4m/s | -53.7°C | 3.9% | 0hPa | 2.7V | 08:30:00 | 01:53:53 | 00:00:00 | |
| DO3MHA-12 | 2026-08-30 11:29:58 | 44.60670 | 8.28191 | 281° | 13km/h | 22039m | 4.7m/s | -53.7°C | 3.8% | 0hPa | 2.7V | 00:00:00 | 01:53:51 | 00:00:00 | |
| IW2NTF | 2026-08-30 11:29:52 | 44.60671 | 8.28238 | 257° | 18km/h | 21994m | 4.7m/s | -53.9°C | 4% | 0hPa | 2.7V | 08:30:00 | 01:53:41 | 00:00:00 | |
| RDZBGO | 2026-08-30 11:29:50 | 44.60667 | 8.28220 | 248° | 13km/h | 22008m | 5.0m/s | 0°C | 0% | 0hPa | 2.7V | 00:00:00 | 00:00:00 | 00:00:00 | |
| DO3MHA-12 | 2026-08-30 11:29:48 | 44.60671 | 8.28238 | 258° | 15km/h | 21995m | 4.6m/s | -53.9°C | 4.0% | 0hPa | 2.7V | 00:00:00 | 01:53:41 | 00:00:00 | |
| IW2NTF | 2026-08-30 11:29:42 | 44.60661 | 8.28283 | 286° | 13km/h | 21947m | 5.1m/s | -53.9°C | 4.2% | 0hPa | 2.7V | 08:30:00 | 01:53:31 | 00:00:00 | |
| AUTORXJP | 2026-08-30 11:29:40 | 44.60663 | 8.28276 | 305° | 9km/h | 21956m | 3.8m/s | -54.0°C | 1.0% | -1.0hPa | 2.7V | 00:00:00 | 00:00:00 | 00:00:00 | |
| DO3MHA-12 | 2026-08-30 11:29:38 | 44.60661 | 8.28283 | 287° | 18km/h | 21947m | 5.0m/s | -53.9°C | 4.2% | 0hPa | 2.7V | 00:00:00 | 01:53:31 | 00:00:00 | |
| IW2NTF | 2026-08-30 11:29:33 | 44.60650 | 8.28348 | 290° | 20km/h | 21900m | 4.3m/s | -54°C | 4% | 0hPa | 2.6V | 08:30:00 | 01:53:21 | 00:00:00 | |
| DO3MHA-12 | 2026-08-30 11:29:28 | 44.60650 | 8.28348 | 291° | 20km/h | 21900m | 4.3m/s | -53.9°C | 4.0% | 0hPa | 2.7V | 00:00:00 | 01:53:21 | 00:00:00 | |
| RDZBGO | 2026-08-30 11:29:25 | 44.60646 | 8.28359 | 299° | 13km/h | 21890m | 4.5m/s | 0°C | 0% | 0hPa | 2.7V | 00:00:00 | 00:00:00 | 00:00:00 | |
| IW2NTF | 2026-08-30 11:29:22 | 44.60640 | 8.28412 | 281° | 24km/h | 21852m | 4.6m/s | -53.6°C | 3.9% | 0hPa | 2.7V | 08:30:00 | 01:53:11 | 00:00:00 | |
| DO3MHA-12 | 2026-08-30 11:29:16 | 44.60637 | 8.28429 | 290° | 16km/h | 21843m | 4.0m/s | -53.5°C | 3.9% | 0hPa | 2.6V | 00:00:00 | 01:53:09 | 00:00:00 | |
| IW2NTF | 2026-08-30 11:29:12 | 44.60621 | 8.28467 | 259° | 11km/h | 21805m | 5.4m/s | -53.8°C | 3.9% | 0hPa | 2.6V | 08:30:00 | 01:53:01 | 00:00:00 | |
| DB0UT-7 | 2026-08-30 11:29:08 | 44.60621 | 8.28467 | 260° | 18km/h | 21805m | 5.3m/s | -53.8°C | 3.9% | 0hPa | 2.7V | 00:00:00 | 01:53:01 | 00:00:00 | |
| DO3MHA-12 | 2026-08-30 11:29:06 | 44.60622 | 8.28475 | 258° | 20km/h | 21796m | 4.0m/s | -53.7°C | 3.9% | 0hPa | 2.7V | 00:00:00 | 01:52:59 | 00:00:00 | |
| IW2NTF | 2026-08-30 11:29:02 | 44.60610 | 8.28531 | 306° | 22km/h | 21757m | 5m/s | -53.8°C | 4% | 0hPa | 2.6V | 08:30:00 | 01:52:51 | 00:00:00 | |
| RDZBGO | 2026-08-30 11:29:00 | 44.60620 | 8.28510 | 295° | 24km/h | 21771m | 5.8m/s | 0°C | 0% | 0hPa | 2.6V | 00:00:00 | 00:00:00 | 00:00:00 | |
| DO3MHA-12 | 2026-08-30 11:28:56 | 44.60605 | 8.28544 | 294° | 22km/h | 21748m | 4.2m/s | -53.6°C | 4.0% | 0hPa | 2.6V | 00:00:00 | 01:52:49 | 00:00:00 | |
| IW2NTF | 2026-08-30 11:28:53 | 44.60604 | 8.28602 | 271° | 24km/h | 21709m | 5.2m/s | -53.7°C | 4% | 0hPa | 2.6V | 08:30:00 | 01:52:41 | 00:00:00 | |
| DO3MHA-12 | 2026-08-30 11:28:46 | 44.60602 | 8.28617 | 284° | 16km/h | 21699m | 3.9m/s | -53.7°C | 3.9% | 0hPa | 2.7V | 00:00:00 | 01:52:39 | 00:00:00 | |
| IW2NTF | 2026-08-30 11:28:42 | 44.60600 | 8.28662 | 250° | 15km/h | 21660m | 6.2m/s | -53.8°C | 4.1% | 0hPa | 2.7V | 08:30:00 | 01:52:31 | 00:00:00 | |
| DB0UT-7 | 2026-08-30 11:28:38 | 44.60600 | 8.28662 | 251° | 13km/h | 21661m | 6.2m/s | -53.7°C | 4.1% | 0hPa | 2.7V | 00:00:00 | 00:00:00 | 00:00:00 | |
| DO3MHA-12 | 2026-08-30 11:28:36 | 44.60603 | 8.28673 | 245° | 13km/h | 21650m | 4.8m/s | -53.5°C | 4.0% | 0hPa | 2.6V | 00:00:00 | 01:52:29 | 08:30:00 | |
| IW2NTF | 2026-08-30 11:28:33 | 44.60609 | 8.28713 | 256° | 7km/h | 21609m | 4.9m/s | -53.4°C | 3.9% | 0hPa | 2.7V | 08:30:00 | 01:52:21 | 00:00:00 | |
| DO3MHA-12 | 2026-08-30 11:28:26 | 44.60612 | 8.28717 | 211° | 13km/h | 21600m | 5.6m/s | -53.3°C | 3.9% | 0hPa | 2.6V | 00:00:00 | 01:52:19 | 00:00:00 | |
| IW2NTF | 2026-08-30 11:28:23 | 44.60627 | 8.28738 | 286° | 13km/h | 21559m | 4.8m/s | -53°C | 3.9% | 0hPa | 2.6V | 08:30:00 | 01:52:11 | 00:00:00 | |
| DO3MHA-12 | 2026-08-30 11:28:16 | 44.60624 | 8.28746 | 309° | 9km/h | 21550m | 5.7m/s | -53.0°C | 3.9% | 0hPa | 2.6V | 00:00:00 | 01:52:09 | 00:00:00 | |
| IW2NTF | 2026-08-30 11:28:12 | 44.60627 | 8.28762 | 183° | 7km/h | 21510m | 4.5m/s | -52.9°C | 3.8% | 0hPa | 2.6V | 08:30:00 | 01:52:01 | 00:00:00 | |
| RDZBGO | 2026-08-30 11:28:12 | 44.60620 | 8.28753 | 293° | 7km/h | 21536m | 4.9m/s | 0°C | 0% | 0hPa | 2.7V | 00:00:00 | 00:00:00 | 00:00:00 | |
| DB0UT-7 | 2026-08-30 11:28:08 | 44.60627 | 8.28762 | 184° | 9km/h | 21510m | 4.4m/s | -52.8°C | 3.8% | 0hPa | 2.7V | 00:00:00 | 01:52:01 | 00:00:00 | |
| DO3MHA-12 | 2026-08-30 11:28:06 | 44.60630 | 8.28763 | 225° | 9km/h | 21501m | 5.3m/s | -52.9°C | 4.0% | 0hPa | 2.7V | 00:00:00 | 01:51:59 | 00:00:00 | |
| IW2NTF | 2026-08-30 11:28:02 | 44.60611 | 8.28770 | 319° | 5km/h | 21462m | 4.3m/s | -52.9°C | 3.8% | 0hPa | 2.7V | 08:30:00 | 01:51:51 | 00:00:00 | |
| DO3MHA-12 | 2026-08-30 11:27:56 | 44.60610 | 8.28772 | 340° | 9km/h | 21454m | 5.3m/s | -52.9°C | 3.9% | 0hPa | 2.7V | 00:00:00 | 01:51:49 | 00:00:00 | |
| IW2NTF | 2026-08-30 11:27:52 | 44.60597 | 8.28767 | 8° | 16km/h | 21415m | 4.5m/s | -52.7°C | 3.8% | 0hPa | 2.7V | 08:30:00 | 01:51:41 | 00:00:00 | |
| RDZBGO | 2026-08-30 11:27:47 | 44.60597 | 8.28767 | 10° | 16km/h | 21416m | 4.5m/s | 0°C | 0% | 0hPa | 2.6V | 00:00:00 | 00:00:00 | 00:00:00 | |
| DO3MHA-12 | 2026-08-30 11:27:46 | 44.60589 | 8.28766 | 356° | 11km/h | 21406m | 5.6m/s | -52.7°C | 3.7% | 0hPa | 2.6V | 00:00:00 | 01:51:39 | 00:00:00 | |
| IW2NTF | 2026-08-30 11:27:43 | 44.60567 | 8.28770 | 336° | 13km/h | 21368m | 4.4m/s | -52.7°C | 3.7% | 0hPa | 2.6V | 08:30:00 | 01:51:31 | 00:00:00 | |
| DB0UT-7 | 2026-08-30 11:27:38 | 44.60567 | 8.28770 | 337° | 13km/h | 21369m | 4.4m/s | -52.6°C | 3.7% | 0hPa | 2.6V | 00:00:00 | 00:00:00 | 00:00:00 | |
| AUTORXJP | 2026-08-30 11:27:36 | 44.60548 | 8.28776 | 349° | 16km/h | 21345m | 5.2m/s | -52.8°C | 0.9% | -1.0hPa | 2.6V | 00:00:00 | 00:00:00 | 00:00:00 | |
| IW2NTF | 2026-08-30 11:27:32 | 44.60528 | 8.28782 | 356° | 13km/h | 21321m | 4.1m/s | -53°C | 3.8% | 0hPa | 2.6V | 08:30:00 | 01:51:21 | 00:00:00 | |
| DO3MHA-12 | 2026-08-30 11:27:26 | 44.60522 | 8.28783 | 345° | 9km/h | 21312m | 4.8m/s | -53.0°C | 3.8% | 0hPa | 2.7V | 00:00:00 | 01:51:19 | 00:00:00 | |
| RDZBGO | 2026-08-30 11:27:25 | 44.60522 | 8.28783 | 345° | 13km/h | 21312m | 4.8m/s | 0°C | 0% | 0hPa | 2.7V | 00:00:00 | 00:00:00 | 00:00:00 | |
| IW2NTF | 2026-08-30 11:27:22 | 44.60490 | 8.28790 | 350° | 15km/h | 21276m | 4.2m/s | -53.1°C | 3.6% | 0hPa | 2.7V | 08:30:00 | 01:51:11 | 00:00:00 | |
| IW2NTF | 2026-08-30 11:27:13 | 44.60467 | 8.28784 | 2° | 13km/h | 21228m | 4.2m/s | -53.4°C | 3.8% | 0hPa | 2.7V | 08:30:00 | 01:51:01 | 00:00:00 | |
| DO3MHA-12 | 2026-08-30 11:27:12 | 44.60476 | 8.28787 | 4° | 4km/h | 21246m | 3.8m/s | -53.1°C | 3.8% | 0hPa | 2.7V | 00:00:00 | 01:51:05 | 00:00:00 | |
| DB0UT-7 | 2026-08-30 11:27:08 | 44.60467 | 8.28784 | 3° | 7km/h | 21229m | 4.2m/s | -53.3°C | 3.8% | 0hPa | 2.7V | 00:00:00 | 01:51:01 | 08:30:00 | |
| AUTORXJP | 2026-08-30 11:27:05 | 44.60440 | 8.28803 | 328° | 4km/h | 21157m | 3.9m/s | -53.6°C | 1.1% | -1.0hPa | 2.6V | 00:00:00 | 00:00:00 | 00:00:00 | |
| IW2NTF | 2026-08-30 11:27:02 | 44.60443 | 8.28803 | 331° | 2km/h | 21184m | 3.9m/s | -53.5°C | 3.8% | 0hPa | 2.6V | 08:30:00 | 01:50:51 | 00:00:00 | |
| DO3MHA-12 | 2026-08-30 11:26:55 | 44.60442 | 8.28801 | 54° | 5km/h | 21170m | 4.2m/s | -53.6°C | 4.0% | 0hPa | 2.7V | 00:00:00 | 01:50:48 | 08:30:00 | |
| IW2NTF | 2026-08-30 11:26:52 | 44.60434 | 8.28805 | 340° | 7km/h | 21137m | 5m/s | -53.9°C | 3.9% | 0hPa | 2.6V | 08:30:00 | 01:50:41 | 00:00:00 | |
| DO3MHA-12 | 2026-08-30 11:26:45 | 44.60429 | 8.28806 | 24° | 7km/h | 21125m | 5.4m/s | -53.8°C | 3.9% | 0hPa | 2.7V | 00:00:00 | 01:50:38 | 00:00:00 | |
| IW2NTF | 2026-08-30 11:26:40 | 44.60419 | 8.28792 | 39° | 7km/h | 21093m | 4.9m/s | -54°C | 4% | 0hPa | 2.7V | 08:30:00 | 01:50:31 | 00:00:00 | |
| DB0UT-7 | 2026-08-30 11:26:38 | 44.60419 | 8.28792 | 40° | 15km/h | 21093m | 4.9m/s | -54.0°C | 4.0% | 0hPa | 2.6V | 00:00:00 | 00:00:00 | 00:00:00 | |
| DO3MHA-12 | 2026-08-30 11:26:35 | 44.60415 | 8.28790 | 313° | 11km/h | 21081m | 4.9m/s | -54.0°C | 3.9% | 0hPa | 2.6V | 00:00:00 | 01:50:28 | 00:00:00 | |
| IW2NTF | 2026-08-30 11:26:30 | 44.60399 | 8.28800 | 356° | 15km/h | 21050m | 4.7m/s | -54.5°C | 4% | 0hPa | 2.6V | 08:30:00 | 01:50:21 | 00:00:00 | |
| DO3MHA-12 | 2026-08-30 11:26:25 | 44.60389 | 8.28803 | 347° | 18km/h | 21038m | 3.6m/s | -54.5°C | 4.1% | 0hPa | 2.7V | 00:00:00 | 01:50:18 | 00:00:00 | |
| IW2NTF | 2026-08-30 11:26:20 | 44.60358 | 8.28815 | 320° | 20km/h | 21007m | 4.2m/s | -54.5°C | 4.1% | 0hPa | 2.6V | 08:30:00 | 01:50:11 | 00:00:00 | |
| DO3MHA-12 | 2026-08-30 11:26:15 | 44.60347 | 8.28828 | 330° | 16km/h | 20995m | 4.6m/s | -54.6°C | 4.2% | 0hPa | 2.7V | 00:00:00 | 01:50:08 | 00:00:00 | |
| IW2NTF | 2026-08-30 11:26:11 | 44.60323 | 8.28849 | 334° | 15km/h | 20963m | 4.7m/s | -54.4°C | 4.1% | 0hPa | 2.7V | 08:30:00 | 01:50:01 | 00:00:00 | |
| DB0UT-7 | 2026-08-30 11:26:08 | 44.60323 | 8.28849 | 335° | 11km/h | 20963m | 4.7m/s | -54.3°C | 4.1% | 0hPa | 2.6V | 00:00:00 | 01:50:01 | 00:00:00 | |
| DO3MHA-12 | 2026-08-30 11:26:05 | 44.60314 | 8.28858 | 311° | 13km/h | 20950m | 4.8m/s | -54.3°C | 4.0% | 0hPa | 2.6V | 00:00:00 | 01:49:58 | 00:00:00 | |
| IW2NTF | 2026-08-30 11:26:00 | 44.60296 | 8.28883 | 340° | 11km/h | 20921m | 3.8m/s | -54.6°C | 4.2% | 0hPa | 2.6V | 08:30:00 | 01:49:51 | 00:00:00 | |
| DO3MHA-12 | 2026-08-30 11:25:55 | 44.60290 | 8.28890 | 303° | 7km/h | 20908m | 4.1m/s | -54.4°C | 4.0% | 0hPa | 2.7V | 00:00:00 | 01:49:48 | 00:00:00 | |
| IW2NTF | 2026-08-30 11:25:50 | 44.60280 | 8.28913 | 284° | 11km/h | 20878m | 3.6m/s | -54.8°C | 3.9% | 0hPa | 2.6V | 08:30:00 | 01:49:41 | 00:00:00 | |
| DO3MHA-12 | 2026-08-30 11:25:42 | 44.60279 | 8.28924 | 240° | 11km/h | 20852m | 3.4m/s | -54.8°C | 4.2% | 0hPa | 2.7V | 00:00:00 | 01:49:35 | 00:00:00 | |
| IW2NTF | 2026-08-30 11:25:41 | 44.60283 | 8.28933 | 235° | 11km/h | 20833m | 5.3m/s | -54.9°C | 4.2% | 0hPa | 2.7V | 08:30:00 | 01:49:31 | 00:00:00 | |
| DB0UT-7 | 2026-08-30 11:25:38 | 44.60283 | 8.28933 | 236° | 9km/h | 20834m | 5.3m/s | -54.8°C | 4.2% | 0hPa | 2.7V | 00:00:00 | 00:00:00 | 00:00:00 | |
| IW2NTF | 2026-08-30 11:25:33 | 44.60312 | 8.28953 | 152° | 11km/h | 20789m | 5.1m/s | -55.1°C | 4.2% | 0hPa | 2.6V | 08:30:00 | 01:49:21 | 00:00:00 | |
| DO3MHA-12 | 2026-08-30 11:25:32 | 44.60299 | 8.28952 | 204° | 13km/h | 20807m | 5.0m/s | -55.0°C | 4.2% | 0hPa | 2.6V | 00:00:00 | 01:49:25 | 00:00:00 | |
| AUTORXJP | 2026-08-30 11:25:31 | 44.60303 | 8.28953 | 195° | 13km/h | 20803m | 4.8m/s | -55.1°C | 1.1% | -1.0hPa | 2.6V | 00:00:00 | 00:00:00 | 00:00:00 | |
| DO3MHA-12 | 2026-08-30 11:25:22 | 44.60327 | 8.28946 | 184° | 5km/h | 20763m | 4.7m/s | -55.0°C | 4.2% | 0hPa | 2.6V | 00:00:00 | 01:49:15 | 08:30:00 | |
| IW2NTF | 2026-08-30 11:25:20 | 44.60333 | 8.28947 | 167° | 4km/h | 20746m | 3.3m/s | -55°C | 4.1% | 0hPa | 2.6V | 08:30:00 | 01:49:11 | 00:00:00 | |
| DO3MHA-12 | 2026-08-30 11:25:12 | 44.60337 | 8.28935 | 147° | 5km/h | 20720m | 3.9m/s | -55.1°C | 4.1% | 0hPa | 2.7V | 00:00:00 | 01:49:05 | 00:00:00 | |
| IW2NTF | 2026-08-30 11:25:10 | 44.60340 | 8.28932 | 107° | 2km/h | 20702m | 4.3m/s | -55.2°C | 4.1% | 0hPa | 2.7V | 08:30:00 | 01:49:01 | 00:00:00 | |
| DB0UT-7 | 2026-08-30 11:25:08 | 44.60340 | 8.28932 | 108° | 11km/h | 20703m | 4.2m/s | -55.2°C | 4.1% | 0hPa | 2.6V | 00:00:00 | 01:49:01 | 00:00:00 | |
| DO3MHA-12 | 2026-08-30 11:25:02 | 44.60339 | 8.28918 | 70° | 7km/h | 20677m | 4.2m/s | -55.3°C | 4.2% | 0hPa | 2.6V | 00:00:00 | 01:48:55 | 00:00:00 | |
| AUTORXJP | 2026-08-30 11:25:00 | 44.60337 | 8.28912 | 59° | 4km/h | 20668m | 3.7m/s | 0°C | -1.0% | -1.0hPa | 2.6V | 00:00:00 | 00:00:00 | 00:00:00 | |
| IW2NTF | 2026-08-30 11:25:00 | 44.60335 | 8.28910 | 4° | 7km/h | 20660m | 5.2m/s | -55.6°C | 4.3% | 0hPa | 2.6V | 08:30:00 | 01:48:51 | 00:00:00 | |
| DO3MHA-12 | 2026-08-30 11:24:52 | 44.60325 | 8.28917 | 2° | 18km/h | 20634m | 5.1m/s | -55.8°C | 4.4% | 0hPa | 2.6V | 00:00:00 | 01:48:45 | 00:00:00 | |
| IW2NTF | 2026-08-30 11:24:51 | 44.60310 | 8.28911 | 16° | 16km/h | 20615m | 4.1m/s | -55.8°C | 4.3% | 0hPa | 2.6V | 08:30:00 | 01:48:41 | 00:00:00 | |
| DO3MHA-12 | 2026-08-30 11:24:42 | 44.60280 | 8.28908 | 359° | 18km/h | 20589m | 5.2m/s | -55.6°C | 4.3% | 0hPa | 2.7V | 00:00:00 | 01:48:35 | 00:00:00 | |
| IW2NTF | 2026-08-30 11:24:41 | 44.60263 | 8.28907 | 6° | 20km/h | 20571m | 4.5m/s | -56°C | 4.4% | 0hPa | 2.7V | 08:30:00 | 01:48:31 | 00:00:00 | |
| DB0UT-7 | 2026-08-30 11:24:38 | 44.60263 | 8.28907 | 7° | 18km/h | 20571m | 4.4m/s | -56.0°C | 4.4% | 0hPa | 2.6V | 00:00:00 | 00:00:00 | 00:00:00 | |
| DO3MHA-12 | 2026-08-30 11:24:32 | 44.60234 | 8.28903 | 6° | 18km/h | 20544m | 4.1m/s | -55.7°C | 4.3% | 0hPa | 2.6V | 00:00:00 | 01:48:25 | 00:00:00 | |
| IW2NTF | 2026-08-30 11:24:30 | 44.60215 | 8.28905 | 342° | 16km/h | 20526m | 3.8m/s | -56°C | 4.3% | 0hPa | 2.6V | 08:30:00 | 01:48:21 | 00:00:00 | |
| AUTORXJP | 2026-08-30 11:24:29 | 44.60219 | 8.28904 | 346° | 15km/h | 20530m | 4.3m/s | 0°C | -1.0% | -1.0hPa | 2.6V | 00:00:00 | 00:00:00 | 00:00:00 | |
| DO3MHA-12 | 2026-08-30 11:24:22 | 44.60191 | 8.28920 | 338° | 22km/h | 20500m | 3.9m/s | -56.1°C | 4.4% | 0hPa | 2.6V | 00:00:00 | 01:48:15 | 00:00:00 | |
| IW2NTF | 2026-08-30 11:24:20 | 44.60170 | 8.28924 | 353° | 24km/h | 20481m | 5.4m/s | -56.4°C | 4.2% | 0hPa | 2.6V | 08:30:00 | 01:48:11 | 00:00:00 | |
| DO3MHA-12 | 2026-08-30 11:24:12 | 44.60136 | 8.28936 | 333° | 16km/h | 20454m | 5.1m/s | -56.3°C | 4.5% | 0hPa | 2.7V | 00:00:00 | 01:48:05 | 00:00:00 | |
| IW2NTF | 2026-08-30 11:24:10 | 44.60127 | 8.28946 | 342° | 9km/h | 20434m | 5m/s | -56.5°C | 4.5% | 0hPa | 2.7V | 08:30:00 | 01:48:01 | 00:00:00 | |
| DB0UT-7 | 2026-08-30 11:24:08 | 44.60127 | 8.28946 | 343° | 15km/h | 20434m | 4.9m/s | -56.5°C | 4.5% | 0hPa | 2.7V | 00:00:00 | 01:48:01 | 00:00:00 | |
| DO3MHA-12 | 2026-08-30 11:24:02 | 44.60099 | 8.28957 | 341° | 15km/h | 20407m | 5.3m/s | -56.6°C | 4.4% | 0hPa | 2.6V | 00:00:00 | 01:47:55 | 00:00:00 | |
| IW2NTF | 2026-08-30 11:24:00 | 44.60081 | 8.28968 | 317° | 15km/h | 20388m | 5m/s | -56.4°C | 4.4% | 0hPa | 2.6V | 08:30:00 | 01:47:51 | 00:00:00 | |
| RDZBGO | 2026-08-30 11:23:57 | 44.60081 | 8.28968 | 318° | 15km/h | 20389m | 5.0m/s | 0°C | 0% | 0hPa | 2.6V | 00:00:00 | 00:00:00 | 00:00:00 | |
| DO3MHA-12 | 2026-08-30 11:23:52 | 44.60072 | 8.28986 | 316° | 16km/h | 20362m | 4.9m/s | 0°C | 0% | 0hPa | 2.6V | 00:00:00 | 01:47:45 | 08:30:00 | |
| IW2NTF | 2026-08-30 11:23:50 | 44.60060 | 8.28997 | 344° | 18km/h | 20343m | 5.3m/s | -56.5°C | 4.6% | 0hPa | 2.6V | 08:30:00 | 01:47:41 | 00:00:00 | |
| DO3MHA-12 | 2026-08-30 11:23:42 | 44.60035 | 8.29012 | 325° | 9km/h | 20314m | 4.7m/s | 0°C | 0% | 0hPa | 2.7V | 00:00:00 | 01:47:35 | 00:00:00 | |
| IW2NTF | 2026-08-30 11:23:40 | 44.60030 | 8.29022 | 281° | 7km/h | 20296m | 4m/s | -56.7°C | 4.6% | 0hPa | 2.7V | 08:30:00 | 01:47:31 | 00:00:00 | |
| DB0UT-7 | 2026-08-30 11:23:38 | 44.60030 | 8.29022 | 282° | 16km/h | 20296m | 4.0m/s | -56.7°C | 4.6% | 0hPa | 2.6V | 00:00:00 | 00:00:00 | 00:00:00 | |
| RDZBGO | 2026-08-30 11:23:36 | 44.60030 | 8.29024 | 304° | 5km/h | 20292m | 4.7m/s | 0°C | 0% | 0hPa | 2.6V | 00:00:00 | 00:00:00 | 00:00:00 | |
| DO3MHA-12 | 2026-08-30 11:23:32 | 44.60015 | 8.29030 | 334° | 20km/h | 20268m | 4.7m/s | 0°C | 0% | 0hPa | 2.6V | 00:00:00 | 01:47:25 | 00:00:00 | |
| IW2NTF | 2026-08-30 11:23:31 | 44.59995 | 8.29046 | 325° | 22km/h | 20249m | 4.4m/s | -56.4°C | 4.6% | 0hPa | 2.6V | 08:30:00 | 01:47:21 | 00:00:00 | |
| DO3MHA-12 | 2026-08-30 11:23:22 | 44.59978 | 8.29072 | 328° | 15km/h | 20222m | 3.8m/s | 0°C | 0% | 0hPa | 2.6V | 00:00:00 | 01:47:15 | 00:00:00 | |
| IW2NTF | 2026-08-30 11:23:20 | 44.59969 | 8.29083 | 307° | 13km/h | 20204m | 4.5m/s | -56.7°C | 4.5% | 0hPa | 2.6V | 08:30:00 | 01:47:11 | 00:00:00 | |
| DO3MHA-12 | 2026-08-30 11:23:12 | 44.59954 | 8.29111 | 297° | 16km/h | 20176m | 4.4m/s | 0°C | 0% | 0hPa | 2.7V | 00:00:00 | 01:47:05 | 00:00:00 | |
| IW2NTF | 2026-08-30 11:23:10 | 44.59943 | 8.29136 | 310° | 18km/h | 20158m | 3.9m/s | -56.8°C | 4.6% | 0hPa | 2.7V | 08:30:00 | 01:47:01 | 00:00:00 | |
| DB0UT-7 | 2026-08-30 11:23:08 | 44.59942 | 8.29136 | 311° | 15km/h | 20158m | 3.8m/s | -56.7°C | 4.6% | 0hPa | 2.6V | 00:00:00 | 01:47:01 | 00:00:00 | |
| IW2NTF | 2026-08-30 11:23:00 | 44.59917 | 8.29183 | 288° | 16km/h | 20111m | 4.1m/s | -56.7°C | 4.6% | 0hPa | 2.6V | 08:30:00 | 01:46:51 | 00:00:00 | |
| DO3MHA-12 | 2026-08-30 11:23:00 | 44.59921 | 8.29173 | 303° | 16km/h | 20121m | 5.0m/s | 0°C | 0% | 0hPa | 2.6V | 00:00:00 | 01:46:53 | 00:00:00 | |
| IW2NTF | 2026-08-30 11:22:50 | 44.59905 | 8.29234 | 303° | 11km/h | 20065m | 5.2m/s | -56.7°C | 4.5% | 0hPa | 2.6V | 08:30:00 | 01:46:41 | 00:00:00 | |
| DO3MHA-12 | 2026-08-30 11:22:50 | 44.59908 | 8.29227 | 302° | 13km/h | 20074m | 4.7m/s | 0°C | 0% | 0hPa | 2.7V | 00:00:00 | 01:46:43 | 00:00:00 | |
| IW2NTF | 2026-08-30 11:22:40 | 44.59900 | 8.29282 | 264° | 13km/h | 20016m | 5.1m/s | -56.5°C | 4.6% | 0hPa | 2.7V | 08:30:00 | 01:46:31 | 00:00:00 | |
| DO3MHA-12 | 2026-08-30 11:22:40 | 44.59899 | 8.29271 | 267° | 9km/h | 20027m | 4.1m/s | 0°C | 0% | 0hPa | 2.7V | 00:00:00 | 01:46:33 | 00:00:00 | |
| DB0UT-7 | 2026-08-30 11:22:38 | 44.59900 | 8.29282 | 265° | 7km/h | 20017m | 5.1m/s | -56.4°C | 4.6% | 0hPa | 2.7V | 00:00:00 | 00:00:00 | 08:30:00 | |
| IW2NTF | 2026-08-30 11:22:30 | 44.59903 | 8.29312 | 237° | 11km/h | 19972m | 3.7m/s | -56.5°C | 4.5% | 0hPa | 2.6V | 08:30:00 | 01:46:21 | 00:00:00 | |
| DO3MHA-12 | 2026-08-30 11:22:23 | 44.59913 | 8.29327 | 251° | 4km/h | 19950m | 4.6m/s | 0°C | 0% | 0hPa | 2.6V | 00:00:00 | 01:46:16 | 00:00:00 | |
| IW2NTF | 2026-08-30 11:22:20 | 44.59909 | 8.29339 | 350° | 4km/h | 19928m | 4.3m/s | -56.6°C | 4.5% | 0hPa | 2.6V | 08:30:00 | 01:46:11 | 00:00:00 | |
| IW2NTF | 2026-08-30 11:22:11 | 44.59911 | 8.29345 | 307° | 4km/h | 19886m | 4.1m/s | -56.5°C | 4.5% | 0hPa | 2.7V | 08:30:00 | 01:46:01 | 00:00:00 | |
| DB0UT-7 | 2026-08-30 11:22:08 | 44.59911 | 8.29345 | 308° | 13km/h | 19886m | 4.1m/s | -56.4°C | 4.5% | 0hPa | 2.7V | 00:00:00 | 01:46:01 | 00:00:00 | |
| IW2NTF | 2026-08-30 11:22:00 | 44.59894 | 8.29321 | 19° | 5km/h | 19838m | 3.6m/s | -57°C | 4.8% | 0hPa | 2.7V | 08:30:00 | 01:45:50 | 00:00:00 | |
| IW2NTF | 2026-08-30 11:21:50 | 44.59866 | 8.29307 | 19° | 18km/h | 19796m | 3.7m/s | -57.3°C | 4.4% | 0hPa | 2.6V | 08:30:00 | 01:45:40 | 00:00:00 | |
| IW2NTF | 2026-08-30 11:21:40 | 44.59817 | 8.29300 | 6° | 24km/h | 19752m | 3.9m/s | -57.2°C | 4.6% | 0hPa | 2.7V | 08:30:00 | 01:45:30 | 00:00:00 | |
| DB0UT-7 | 2026-08-30 11:21:38 | 44.59823 | 8.29301 | 5° | 26km/h | 19757m | 4.3m/s | -57.1°C | 4.6% | 0hPa | 2.7V | 00:00:00 | 00:00:00 | 00:00:00 | |
| IW2NTF | 2026-08-30 11:21:30 | 44.59752 | 8.29307 | 340° | 26km/h | 19711m | 3.6m/s | -57.6°C | 4.8% | 0hPa | 2.7V | 08:30:00 | 01:45:20 | 00:00:00 | |
| IW2NTF | 2026-08-30 11:21:18 | 44.59695 | 8.29324 | 343° | 22km/h | 19671m | 3.8m/s | -57.4°C | 4.6% | 0hPa | 2.6V | 08:30:00 | 01:45:10 | 00:00:00 | |
| IW2NTF | 2026-08-30 11:21:08 | 44.59639 | 8.29366 | 322° | 26km/h | 19630m | 4.9m/s | -57.3°C | 4.7% | 0hPa | 2.7V | 08:30:00 | 01:45:00 | 00:00:00 | |
| DB0UT-7 | 2026-08-30 11:21:08 | 44.59644 | 8.29361 | 326° | 24km/h | 19635m | 3.8m/s | -57.4°C | 4.6% | 0hPa | 2.7V | 00:00:00 | 01:45:01 | 00:00:00 | |
| IW2NTF | 2026-08-30 11:20:58 | 44.59589 | 8.29411 | 320° | 22km/h | 19588m | 3.8m/s | -57.5°C | 4.7% | 0hPa | 2.7V | 08:30:00 | 01:44:50 | 00:00:00 | |
| IW2NTF | 2026-08-30 11:20:48 | 44.59544 | 8.29480 | 303° | 27km/h | 19547m | 3.2m/s | -57.8°C | 4.8% | 0hPa | 2.6V | 08:30:00 | 01:44:40 | 00:00:00 | |
| IW2NTF | 2026-08-30 11:20:39 | 44.59518 | 8.29547 | 280° | 20km/h | 19504m | 3.6m/s | -57.6°C | 4.8% | 0hPa | 2.7V | 08:30:00 | 01:44:30 | 00:00:00 | |
| DB0UT-7 | 2026-08-30 11:20:38 | 44.59519 | 8.29539 | 286° | 15km/h | 19509m | 4.5m/s | -57.5°C | 4.8% | 0hPa | 2.7V | 00:00:00 | 00:00:00 | 00:00:00 | |
| IW2NTF | 2026-08-30 11:20:28 | 44.59508 | 8.29608 | 290° | 22km/h | 19461m | 4.4m/s | -57.3°C | 4.8% | 0hPa | 2.7V | 08:30:00 | 01:44:20 | 00:00:00 | |
| IW2NTF | 2026-08-30 11:20:18 | 44.59505 | 8.29657 | 249° | 11km/h | 19416m | 5.1m/s | -57°C | 4.7% | 0hPa | 2.6V | 08:30:00 | 01:44:10 | 00:00:00 | |
| IW2NTF | 2026-08-30 11:20:08 | 44.59502 | 8.29691 | 255° | 7km/h | 19370m | 5.4m/s | -56.8°C | 4.7% | 0hPa | 2.7V | 08:30:00 | 01:44:00 | 00:00:00 | |
| DB0UT-7 | 2026-08-30 11:20:08 | 44.59502 | 8.29688 | 281° | 9km/h | 19375m | 4.3m/s | -56.8°C | 4.5% | 0hPa | 2.7V | 00:00:00 | 01:44:01 | 00:00:00 | |
| IW2NTF | 2026-08-30 11:19:58 | 44.59519 | 8.29716 | 194° | 9km/h | 19324m | 4.1m/s | -56.2°C | 4.5% | 0hPa | 2.7V | 08:30:00 | 01:43:50 | 00:00:00 | |
| IW2NTF | 2026-08-30 11:19:48 | 44.59535 | 8.29725 | 180° | 13km/h | 19278m | 3.9m/s | -56.2°C | 4.2% | 0hPa | 2.6V | 08:30:00 | 01:43:40 | 00:00:00 | |
| IW2NTF | 2026-08-30 11:19:38 | 44.59557 | 8.29718 | 182° | 9km/h | 19230m | 4.5m/s | -56.6°C | 4.5% | 0hPa | 2.7V | 08:30:00 | 01:43:30 | 00:00:00 | |
| DB0UT-7 | 2026-08-30 11:19:38 | 44.59555 | 8.29717 | 192° | 18km/h | 19235m | 4.2m/s | -56.5°C | 4.5% | 0hPa | 2.7V | 00:00:00 | 00:00:00 | 00:00:00 | |
| IW2NTF | 2026-08-30 11:19:28 | 44.59583 | 8.29691 | 142° | 15km/h | 19183m | 4m/s | -56.5°C | 4.7% | 0hPa | 2.7V | 08:30:00 | 01:43:20 | 00:00:00 | |
| IW2NTF | 2026-08-30 11:19:19 | 44.59602 | 8.29638 | 105° | 22km/h | 19137m | 4.4m/s | -56.9°C | 4.5% | 0hPa | 2.6V | 08:30:00 | 01:43:10 | 00:00:00 | |
| IW2NTF | 2026-08-30 11:19:08 | 44.59616 | 8.29553 | 89° | 24km/h | 19091m | 5.5m/s | -56.9°C | 4.7% | 0hPa | 2.7V | 08:30:00 | 01:43:00 | 00:00:00 | |
| DB0UT-7 | 2026-08-30 11:19:08 | 44.59616 | 8.29561 | 97° | 24km/h | 19096m | 4.4m/s | -56.8°C | 4.8% | 0hPa | 2.7V | 00:00:00 | 01:43:01 | 00:00:00 | |
| IW2NTF | 2026-08-30 11:18:58 | 44.59614 | 8.29465 | 95° | 24km/h | 19046m | 4.7m/s | -56.7°C | 4.6% | 0hPa | 2.7V | 08:30:00 | 01:42:50 | 00:00:00 | |
| IW2NTF | 2026-08-30 11:18:48 | 44.59601 | 8.29380 | 69° | 26km/h | 19001m | 4.4m/s | -56.3°C | 4.5% | 0hPa | 2.6V | 08:30:00 | 01:42:40 | 00:00:00 | |
| IW2NTF | 2026-08-30 11:18:38 | 44.59592 | 8.29311 | 57° | 18km/h | 18956m | 4.1m/s | -56.1°C | 4.4% | 0hPa | 2.7V | 08:30:00 | 01:42:30 | 00:00:00 | |
| DB0UT-7 | 2026-08-30 11:18:38 | 44.59594 | 8.29316 | 62° | 24km/h | 18960m | 5.2m/s | -56.1°C | 4.5% | 0hPa | 2.7V | 00:00:00 | 00:00:00 | 00:00:00 | |
| IW2NTF | 2026-08-30 11:18:33 | 44.59574 | 8.29235 | 76° | 16km/h | 18912m | 5.1m/s | -56.4°C | 4.5% | 0hPa | 2.7V | 08:30:00 | 01:42:20 | 00:00:00 | |
| IW2NTF | 2026-08-30 11:18:22 | 44.59543 | 8.29167 | 60° | 24km/h | 18870m | 4.2m/s | -56.7°C | 4.7% | 0hPa | 2.6V | 08:30:00 | 01:42:10 | 00:00:00 | |
| IW2NTF | 2026-08-30 11:18:12 | 44.59517 | 8.29090 | 55° | 24km/h | 18827m | 4.5m/s | -56.9°C | 4.8% | 0hPa | 2.7V | 08:30:00 | 01:42:00 | 00:00:00 | |
| DB0UT-7 | 2026-08-30 11:18:08 | 44.59520 | 8.29097 | 62° | 18km/h | 18831m | 4.6m/s | -56.8°C | 4.7% | 0hPa | 2.7V | 00:00:00 | 01:42:01 | 08:30:00 | |
| IW2NTF | 2026-08-30 11:18:02 | 44.59478 | 8.29027 | 45° | 18km/h | 18783m | 3.7m/s | -56.8°C | 4.7% | 0hPa | 2.7V | 08:30:00 | 01:41:50 | 00:00:00 | |
| IW2NTF | 2026-08-30 11:17:52 | 44.59444 | 8.28987 | 43° | 15km/h | 18740m | 3.3m/s | -56.8°C | 4.6% | 0hPa | 2.6V | 08:30:00 | 01:41:40 | 00:00:00 | |
| IW2NTF | 2026-08-30 11:17:43 | 44.59420 | 8.28954 | 52° | 11km/h | 18695m | 5m/s | -56.6°C | 4.6% | 0hPa | 2.7V | 08:30:00 | 01:41:30 | 00:00:00 | |
| DB0UT-7 | 2026-08-30 11:17:38 | 44.59422 | 8.28957 | 58° | 13km/h | 18700m | 4.2m/s | -56.6°C | 4.6% | 0hPa | 2.7V | 00:00:00 | 00:00:00 | 00:00:00 | |
| IW2NTF | 2026-08-30 11:17:33 | 44.59389 | 8.28933 | 16° | 13km/h | 18654m | 4.1m/s | -57.1°C | 4.6% | 0hPa | 2.7V | 08:30:00 | 01:41:20 | 00:00:00 | |
| IW2NTF | 2026-08-30 11:17:22 | 44.59377 | 8.28914 | 63° | 9km/h | 18612m | 4m/s | -57.1°C | 4.5% | 0hPa | 2.6V | 08:30:00 | 01:41:10 | 00:00:00 | |
| IW2NTF | 2026-08-30 11:17:13 | 44.59351 | 8.28869 | 48° | 16km/h | 18570m | 3.8m/s | -58°C | 4.9% | 0hPa | 2.7V | 08:30:00 | 01:41:00 | 00:00:00 | |
| DB0UT-7 | 2026-08-30 11:17:08 | 44.59354 | 8.28873 | 47° | 24km/h | 18575m | 4.5m/s | -57.9°C | 4.8% | 0hPa | 2.7V | 00:00:00 | 01:41:01 | 00:00:00 | |
| IW2NTF | 2026-08-30 11:17:02 | 44.59342 | 8.28811 | 84° | 18km/h | 18529m | 3.8m/s | -58.3°C | 4.9% | 0hPa | 2.7V | 08:30:00 | 01:40:50 | 00:00:00 | |
| IW2NTF | 2026-08-30 11:16:52 | 44.59322 | 8.28736 | 65° | 27km/h | 18488m | 3.8m/s | -58.6°C | 5.1% | 0hPa | 2.6V | 08:30:00 | 01:40:40 | 00:00:00 | |
| IW2NTF | 2026-08-30 11:16:42 | 44.59281 | 8.28639 | 43° | 26km/h | 18447m | 3.4m/s | -58.7°C | 5% | 0hPa | 2.7V | 08:30:00 | 01:40:30 | 00:00:00 | |
| DB0UT-7 | 2026-08-30 11:16:38 | 44.59286 | 8.28646 | 49° | 24km/h | 18451m | 4.4m/s | -58.6°C | 5.1% | 0hPa | 2.7V | 00:00:00 | 00:00:00 | 00:00:00 | |
| IW2NTF | 2026-08-30 11:16:32 | 44.59243 | 8.28555 | 66° | 29km/h | 18407m | 3.9m/s | -58.6°C | 5.3% | 0hPa | 2.7V | 08:30:00 | 01:40:20 | 00:00:00 | |
| IW2NTF | 2026-08-30 11:16:22 | 44.59207 | 8.28491 | 58° | 20km/h | 18366m | 3.2m/s | -58.4°C | 5% | 0hPa | 2.6V | 08:30:00 | 01:40:10 | 00:00:00 | |
| IW2NTF | 2026-08-30 11:16:12 | 44.59177 | 8.28431 | 44° | 18km/h | 18324m | 4.1m/s | -58°C | 5.1% | 0hPa | 2.7V | 08:30:00 | 01:40:00 | 00:00:00 | |
| DB0UT-7 | 2026-08-30 11:16:08 | 44.59181 | 8.28436 | 44° | 16km/h | 18328m | 3.4m/s | -57.9°C | 5.1% | 0hPa | 2.7V | 00:00:00 | 01:40:01 | 00:00:00 | |
| IW2NTF | 2026-08-30 11:16:02 | 44.59153 | 8.28381 | 64° | 18km/h | 18284m | 4.8m/s | -57.8°C | 4.8% | 0hPa | 2.7V | 08:30:00 | 01:39:50 | 00:00:00 | |
| IW2NTF | 2026-08-30 11:15:52 | 44.59137 | 8.28328 | 62° | 15km/h | 18242m | 3.9m/s | -57.4°C | 5.2% | 0hPa | 2.6V | 08:30:00 | 01:39:40 | 00:00:00 | |
| IW2NTF | 2026-08-30 11:15:42 | 44.59124 | 8.28288 | 68° | 15km/h | 18201m | 3.3m/s | -57.4°C | 4.8% | 0hPa | 2.7V | 08:30:00 | 01:39:30 | 00:00:00 | |
| IW2NTF | 2026-08-30 11:15:32 | 44.59121 | 8.28247 | 56° | 13km/h | 18158m | 5.1m/s | -57.4°C | 4.8% | 0hPa | 2.7V | 08:30:00 | 01:39:20 | 00:00:00 | |
| IW2NTF | 2026-08-30 11:15:22 | 44.59113 | 8.28231 | 116° | 5km/h | 18113m | 4m/s | -57.4°C | 4.9% | 0hPa | 2.6V | 08:30:00 | 01:39:10 | 00:00:00 | |
| IW2NTF | 2026-08-30 11:15:12 | 44.59098 | 8.28206 | 25° | 11km/h | 18069m | 4m/s | -57.1°C | 4.8% | 0hPa | 2.7V | 08:30:00 | 01:39:00 | 00:00:00 | |
| IW2NTF | 2026-08-30 11:15:02 | 44.59092 | 8.28178 | 61° | 11km/h | 18028m | 4.9m/s | -57°C | 4.7% | 0hPa | 2.7V | 08:30:00 | 01:38:50 | 00:00:00 | |
| DB0UT-7 | 2026-08-30 11:15:01 | 44.59093 | 8.28191 | 92° | 15km/h | 18044m | 4.2m/s | -57.1°C | 4.8% | 0hPa | 2.6V | 00:00:00 | 00:00:00 | 00:00:00 | |
| IW2NTF | 2026-08-30 11:14:47 | 44.59064 | 8.28158 | 15° | 11km/h | 17984m | 4.2m/s | -57.6°C | 5% | 0hPa | 2.6V | 08:30:00 | 01:38:40 | 00:00:00 | |
| IW2NTF | 2026-08-30 11:14:37 | 44.59032 | 8.28137 | 24° | 18km/h | 17941m | 4m/s | -57.4°C | 5% | 0hPa | 2.7V | 08:30:00 | 01:38:30 | 00:00:00 | |
| IW2NTF | 2026-08-30 11:14:31 | 44.58986 | 8.28123 | 19° | 13km/h | 17896m | 4.4m/s | -56.9°C | 4.9% | 0hPa | 2.7V | 08:30:00 | 01:38:20 | 00:00:00 | |
| DB0UT-7 | 2026-08-30 11:14:30 | 44.58998 | 8.28129 | 17° | 16km/h | 17909m | 3.6m/s | -57.1°C | 4.8% | 0hPa | 2.6V | 00:00:00 | 01:38:23 | 00:00:00 | |
| IW2NTF | 2026-08-30 11:14:19 | 44.58954 | 8.28106 | 14° | 18km/h | 17851m | 4.3m/s | -57.1°C | 4.8% | 0hPa | 2.6V | 08:30:00 | 01:38:10 | 00:00:00 | |
| IW2NTF | 2026-08-30 11:14:12 | 44.58925 | 8.28081 | 51° | 15km/h | 17806m | 4.7m/s | -57.2°C | 4.8% | 0hPa | 2.7V | 08:30:00 | 01:38:00 | 00:00:00 | |
| IW2NTF | 2026-08-30 11:14:01 | 44.58893 | 8.28022 | 59° | 22km/h | 17762m | 5.1m/s | -57°C | 4.7% | 0hPa | 2.7V | 08:30:00 | 01:37:50 | 00:00:00 | |
| DB0UT-7 | 2026-08-30 11:14:00 | 44.58903 | 8.28043 | 53° | 29km/h | 17776m | 4.9m/s | -57.2°C | 4.8% | 0hPa | 2.6V | 00:00:00 | 00:00:00 | 00:00:00 | |
| IW2NTF | 2026-08-30 11:13:49 | 44.58862 | 8.27945 | 60° | 26km/h | 17719m | 4.3m/s | -58°C | 5.1% | 0hPa | 2.6V | 08:30:00 | 01:37:40 | 00:00:00 | |
| IW2NTF | 2026-08-30 11:13:42 | 44.58839 | 8.27841 | 67° | 35km/h | 17676m | 4.1m/s | -57.9°C | 4.9% | 0hPa | 2.7V | 08:30:00 | 01:37:30 | 00:00:00 | |
| IW2NTF | 2026-08-30 11:13:31 | 44.58806 | 8.27727 | 76° | 37km/h | 17634m | 3.6m/s | -58.5°C | 5% | 0hPa | 2.7V | 08:30:00 | 01:37:20 | 00:00:00 | |
| DB0UT-7 | 2026-08-30 11:13:30 | 44.58812 | 8.27762 | 74° | 37km/h | 17647m | 3.1m/s | -58.3°C | 5.1% | 0hPa | 2.6V | 00:00:00 | 01:37:23 | 00:00:00 | |
| IW2NTF | 2026-08-30 11:13:19 | 44.58780 | 8.27611 | 67° | 35km/h | 17593m | 4.7m/s | -58.8°C | 5.2% | 0hPa | 2.6V | 08:30:00 | 01:37:10 | 00:00:00 | |
| IW2NTF | 2026-08-30 11:13:12 | 44.58736 | 8.27491 | 58° | 38km/h | 17550m | 4.6m/s | -59°C | 5.3% | 0hPa | 2.7V | 08:30:00 | 01:37:00 | 00:00:00 | |
| IW2NTF | 2026-08-30 11:13:01 | 44.58688 | 8.27387 | 53° | 35km/h | 17507m | 5m/s | -59.2°C | 5.4% | 0hPa | 2.7V | 08:30:00 | 01:36:50 | 00:00:00 | |
| DB0UT-7 | 2026-08-30 11:13:00 | 44.58703 | 8.27417 | 56° | 31km/h | 17521m | 3.7m/s | -59.1°C | 5.3% | 0hPa | 2.6V | 00:00:00 | 00:00:00 | 08:30:00 | |
| IW2NTF | 2026-08-30 11:12:49 | 44.58643 | 8.27298 | 56° | 22km/h | 17466m | 4.2m/s | -59.5°C | 5.5% | 0hPa | 2.6V | 08:30:00 | 01:36:40 | 00:00:00 | |
| IW2NTF | 2026-08-30 11:12:41 | 44.58590 | 8.27217 | 50° | 27km/h | 17424m | 4m/s | -59.6°C | 5.6% | 0hPa | 2.7V | 08:30:00 | 01:36:30 | 00:00:00 | |
| DB0UT-7 | 2026-08-30 11:12:30 | 44.58562 | 8.27164 | 47° | 31km/h | 17395m | 3.0m/s | -59.5°C | 5.6% | 0hPa | 2.7V | 00:00:00 | 01:36:23 | 00:00:00 | |
| IW2NTF | 2026-08-30 11:12:29 | 44.58547 | 8.27137 | 56° | 33km/h | 17382m | 3.7m/s | -59.6°C | 5.4% | 0hPa | 2.7V | 08:30:00 | 01:36:20 | 00:00:00 | |
| IW2NTF | 2026-08-30 11:12:22 | 44.58513 | 8.27050 | 53° | 26km/h | 17342m | 3.9m/s | -59.8°C | 5.7% | 0hPa | 2.6V | 08:30:00 | 01:36:10 | 00:00:00 | |
| IW2NTF | 2026-08-30 11:12:11 | 44.58465 | 8.26950 | 65° | 38km/h | 17301m | 4.1m/s | -60.1°C | 5.8% | 0hPa | 2.7V | 08:30:00 | 01:36:00 | 00:00:00 | |
| DB0UT-7 | 2026-08-30 11:12:00 | 44.58440 | 8.26874 | 64° | 38km/h | 17274m | 4.4m/s | -60.1°C | 5.6% | 0hPa | 2.7V | 00:00:00 | 00:00:00 | 00:00:00 | |
| IW2NTF | 2026-08-30 11:11:59 | 44.58426 | 8.26842 | 60° | 38km/h | 17262m | 3.7m/s | -60.1°C | 5.7% | 0hPa | 2.7V | 08:30:00 | 01:35:50 | 00:00:00 | |
| IW2NTF | 2026-08-30 11:11:52 | 44.58396 | 8.26715 | 71° | 37km/h | 17223m | 4.2m/s | -60.5°C | 5.7% | 0hPa | 2.6V | 08:30:00 | 01:35:40 | 00:00:00 | |
| IW2NTF | 2026-08-30 11:11:41 | 44.58376 | 8.26588 | 80° | 42km/h | 17184m | 4.7m/s | -61.1°C | 6.2% | 0hPa | 2.7V | 08:30:00 | 01:35:30 | 00:00:00 | |
| DB0UT-7 | 2026-08-30 11:11:30 | 44.58360 | 8.26484 | 79° | 38km/h | 17156m | 3.6m/s | -61.2°C | 6.3% | 0hPa | 2.6V | 00:00:00 | 01:35:23 | 00:00:00 | |
| IW2NTF | 2026-08-30 11:11:29 | 44.58348 | 8.26401 | 79° | 40km/h | 17133m | 3.3m/s | -61.3°C | 6.2% | 0hPa | 2.6V | 08:30:00 | 01:35:17 | 00:00:00 | |
| IW2NTF | 2026-08-30 11:11:17 | 44.58318 | 8.26277 | 72° | 40km/h | 17092m | 5m/s | -61.1°C | 6.2% | 0hPa | 2.7V | 08:30:00 | 01:35:07 | 00:00:00 | |
| IW2NTF | 2026-08-30 11:11:05 | 44.58289 | 8.26149 | 58° | 35km/h | 17053m | 3.7m/s | -61.4°C | 6.3% | 0hPa | 2.6V | 08:30:00 | 01:34:57 | 00:00:00 | |
| DB0UT-7 | 2026-08-30 11:11:00 | 44.58273 | 8.26108 | 70° | 38km/h | 17037m | 3.3m/s | -61.5°C | 6.3% | 0hPa | 2.6V | 00:00:00 | 00:00:00 | 00:00:00 | |
| IW2NTF | 2026-08-30 11:10:59 | 44.58255 | 8.26028 | 71° | 40km/h | 17011m | 3.5m/s | -61.5°C | 6.4% | 0hPa | 2.6V | 08:30:00 | 01:34:47 | 00:00:00 | |
| IW2NTF | 2026-08-30 11:10:47 | 44.58207 | 8.25907 | 60° | 40km/h | 16972m | 3.4m/s | -61.4°C | 6.4% | 0hPa | 2.7V | 08:30:00 | 01:34:37 | 00:00:00 | |
| IW2NTF | 2026-08-30 11:10:35 | 44.58160 | 8.25798 | 48° | 35km/h | 16932m | 3.7m/s | -61.7°C | 6.6% | 0hPa | 2.6V | 08:30:00 | 01:34:27 | 00:00:00 | |
| DB0UT-7 | 2026-08-30 11:10:30 | 44.58135 | 8.25761 | 47° | 29km/h | 16915m | 4.6m/s | -61.7°C | 6.7% | 0hPa | 2.6V | 00:00:00 | 01:34:23 | 00:00:00 | |
| IW2NTF | 2026-08-30 11:10:29 | 44.58103 | 8.25708 | 53° | 29km/h | 16888m | 4.1m/s | -61.6°C | 6.6% | 0hPa | 2.6V | 08:30:00 | 01:34:17 | 00:00:00 | |
| IW2NTF | 2026-08-30 11:10:17 | 44.58067 | 8.25623 | 69° | 27km/h | 16848m | 3.7m/s | -61.3°C | 6.5% | 0hPa | 2.7V | 08:30:00 | 01:34:07 | 00:00:00 | |
| IW2NTF | 2026-08-30 11:10:05 | 44.58043 | 8.25529 | 75° | 29km/h | 16806m | 3.2m/s | -61.2°C | 6.6% | 0hPa | 2.7V | 08:30:00 | 01:33:57 | 00:00:00 | |
| DB0UT-7 | 2026-08-30 11:10:00 | 44.58035 | 8.25487 | 79° | 26km/h | 16791m | 4.6m/s | -61.3°C | 6.6% | 0hPa | 2.7V | 00:00:00 | 00:00:00 | 00:00:00 | |
| IW2NTF | 2026-08-30 11:09:59 | 44.58025 | 8.25431 | 74° | 27km/h | 16766m | 5.1m/s | -61.3°C | 6.5% | 0hPa | 2.7V | 08:30:00 | 01:33:47 | 00:00:00 | |
| IW2NTF | 2026-08-30 11:09:47 | 44.58003 | 8.25344 | 60° | 26km/h | 16725m | 3.1m/s | -60.9°C | 6.5% | 0hPa | 2.6V | 08:30:00 | 01:33:37 | 00:00:00 | |
| IW2NTF | 2026-08-30 11:09:35 | 44.57981 | 8.25258 | 68° | 24km/h | 16682m | 4.4m/s | -60.9°C | 6.7% | 0hPa | 2.7V | 08:30:00 | 01:33:27 | 00:00:00 | |
| DB0UT-7 | 2026-08-30 11:09:30 | 44.57972 | 8.25229 | 65° | 24km/h | 16666m | 3.7m/s | -60.9°C | 6.5% | 0hPa | 2.7V | 00:00:00 | 01:33:23 | 00:00:00 | |
| IW2NTF | 2026-08-30 11:09:29 | 44.57957 | 8.25190 | 71° | 22km/h | 16640m | 4m/s | -60.8°C | 6.4% | 0hPa | 2.7V | 08:30:00 | 01:33:17 | 00:00:00 | |
| IW2NTF | 2026-08-30 11:09:17 | 44.57951 | 8.25110 | 84° | 20km/h | 16595m | 5m/s | -60.6°C | 6.5% | 0hPa | 2.6V | 08:30:00 | 01:33:07 | 00:00:00 | |
| IW2NTF | 2026-08-30 11:09:05 | 44.57948 | 8.25032 | 96° | 27km/h | 16552m | 4.2m/s | -60.3°C | 6.5% | 0hPa | 2.6V | 08:30:00 | 01:32:57 | 00:00:00 | |
| DB0UT-7 | 2026-08-30 11:09:00 | 44.57953 | 8.24990 | 99° | 31km/h | 16536m | 3.1m/s | 0°C | 0% | 0hPa | 2.6V | 00:00:00 | 00:00:00 | 00:00:00 | |
| IW2NTF | 2026-08-30 11:08:59 | 44.57953 | 8.24928 | 86° | 26km/h | 16511m | 3.5m/s | -60.2°C | 6.4% | 0hPa | 2.6V | 08:30:00 | 01:32:47 | 00:00:00 | |
| IW2NTF | 2026-08-30 11:08:47 | 44.57952 | 8.24807 | 91° | 31km/h | 16460m | 4.7m/s | -59.8°C | 6.4% | 0hPa | 2.6V | 08:30:00 | 01:32:35 | 00:00:00 | |
| IW2NTF | 2026-08-30 11:08:35 | 44.57949 | 8.24686 | 91° | 33km/h | 16417m | 4m/s | -59.6°C | 6.1% | 0hPa | 2.7V | 08:30:00 | 01:32:25 | 00:00:00 | |
| DB0UT-7 | 2026-08-30 11:08:30 | 44.57949 | 8.24663 | 88° | 33km/h | 16409m | 3.7m/s | 0°C | 0% | 0hPa | 2.7V | 00:00:00 | 01:32:23 | 00:00:00 | |
| IW2NTF | 2026-08-30 11:08:24 | 44.57946 | 8.24560 | 85° | 42km/h | 16374m | 5m/s | -59.4°C | 6.3% | 0hPa | 2.7V | 08:30:00 | 01:32:15 | 00:00:00 | |
| IW2NTF | 2026-08-30 11:08:17 | 44.57947 | 8.24417 | 90° | 40km/h | 16332m | 3.7m/s | -59.5°C | 6.3% | 0hPa | 2.6V | 08:30:00 | 01:32:05 | 00:00:00 | |
| IW2NTF | 2026-08-30 11:08:05 | 44.57944 | 8.24253 | 88° | 51km/h | 16288m | 4.5m/s | -59.6°C | 6.5% | 0hPa | 2.7V | 08:30:00 | 01:31:55 | 00:00:00 | |
| IW2NTF | 2026-08-30 11:07:53 | 44.57933 | 8.24075 | 80° | 53km/h | 16245m | 4m/s | -59.4°C | 6.2% | 0hPa | 2.6V | 08:30:00 | 01:31:45 | 00:00:00 | |
| IW2NTF | 2026-08-30 11:07:47 | 44.57898 | 8.23893 | 73° | 53km/h | 16204m | 4.4m/s | -59.5°C | 6.3% | 0hPa | 2.6V | 08:30:00 | 01:31:35 | 00:00:00 | |
| IW2NTF | 2026-08-30 11:07:35 | 44.57861 | 8.23716 | 69° | 53km/h | 16165m | 3.1m/s | -59.8°C | 6.7% | 0hPa | 2.6V | 08:30:00 | 01:31:25 | 00:00:00 | |
| IW2NTF | 2026-08-30 11:07:23 | 44.57801 | 8.23543 | 63° | 53km/h | 16125m | 3.3m/s | -59.6°C | 6.3% | 0hPa | 2.6V | 08:30:00 | 01:31:15 | 00:00:00 | |
| IW2NTF | 2026-08-30 11:07:17 | 44.57736 | 8.23361 | 61° | 62km/h | 16086m | 4.2m/s | -59.6°C | 6.5% | 0hPa | 2.6V | 08:30:00 | 01:31:05 | 00:00:00 | |
| IW2NTF | 2026-08-30 11:07:05 | 44.57678 | 8.23189 | 68° | 53km/h | 16045m | 4m/s | -59.6°C | 6.4% | 0hPa | 2.7V | 08:30:00 | 01:30:55 | 00:00:00 | |
| IW2NTF | 2026-08-30 11:06:53 | 44.57598 | 8.22972 | 62° | 58km/h | 15999m | 3.9m/s | -59.7°C | 6.4% | 0hPa | 2.6V | 08:30:00 | 01:30:43 | 00:00:00 | |
| IW2NTF | 2026-08-30 11:06:41 | 44.57526 | 8.22808 | 52° | 58km/h | 15957m | 4.7m/s | -59.7°C | 6.4% | 0hPa | 2.6V | 08:30:00 | 01:30:33 | 00:00:00 | |
| IW2NTF | 2026-08-30 11:06:35 | 44.57443 | 8.22642 | 54° | 49km/h | 15917m | 3.5m/s | -59.8°C | 6.5% | 0hPa | 2.6V | 08:30:00 | 01:30:23 | 00:00:00 | |
| IW2NTF | 2026-08-30 11:06:23 | 44.57351 | 8.22497 | 49° | 53km/h | 15877m | 3.5m/s | -60°C | 6.5% | 0hPa | 2.6V | 08:30:00 | 01:30:13 | 00:00:00 | |
| IW2NTF | 2026-08-30 11:06:11 | 44.57270 | 8.22363 | 45° | 51km/h | 15837m | 3.9m/s | -59.8°C | 6.7% | 0hPa | 2.6V | 08:30:00 | 01:30:03 | 00:00:00 | |
| IW2NTF | 2026-08-30 11:06:05 | 44.57187 | 8.22232 | 51° | 46km/h | 15797m | 3.7m/s | -59.4°C | 6.4% | 0hPa | 2.7V | 08:30:00 | 01:29:53 | 00:00:00 | |
| IW2NTF | 2026-08-30 11:05:53 | 44.57111 | 8.22111 | 50° | 40km/h | 15758m | 4.6m/s | -59°C | 6.6% | 0hPa | 2.6V | 08:30:00 | 01:29:43 | 00:00:00 | |
| IW2NTF | 2026-08-30 11:05:41 | 44.57044 | 8.21991 | 49° | 42km/h | 15716m | 4.3m/s | -59°C | 6.3% | 0hPa | 2.6V | 08:30:00 | 01:29:33 | 00:00:00 | |
| IW2NTF | 2026-08-30 11:05:33 | 44.56981 | 8.21883 | 53° | 42km/h | 15676m | 4.5m/s | -59.2°C | 6.8% | 0hPa | 2.6V | 08:30:00 | 01:29:23 | 00:00:00 | |
| IW2NTF | 2026-08-30 11:05:21 | 44.56921 | 8.21760 | 59° | 37km/h | 15637m | 3.5m/s | -59.2°C | 6.6% | 0hPa | 2.7V | 08:30:00 | 01:29:13 | 00:00:00 | |
| IW2NTF | 2026-08-30 11:05:15 | 44.56884 | 8.21629 | 70° | 40km/h | 15596m | 3.6m/s | -59°C | 7.1% | 0hPa | 2.7V | 08:30:00 | 01:29:03 | 00:00:00 | |
| IW2NTF | 2026-08-30 11:05:01 | 44.56852 | 8.21486 | 79° | 46km/h | 15556m | 3.4m/s | -58.9°C | 7.2% | 0hPa | 2.7V | 08:30:00 | 01:28:53 | 00:00:00 | |
| IW2NTF | 2026-08-30 11:04:54 | 44.56828 | 8.21333 | 77° | 44km/h | 15517m | 4.2m/s | -58.7°C | 7.3% | 0hPa | 2.7V | 08:30:00 | 01:28:43 | 00:00:00 | |
| IW2NTF | 2026-08-30 11:04:42 | 44.56805 | 8.21193 | 74° | 44km/h | 15478m | 3.6m/s | -58.8°C | 7.7% | 0hPa | 2.7V | 08:30:00 | 01:28:33 | 00:00:00 | |
| IW2NTF | 2026-08-30 11:04:35 | 44.56780 | 8.21056 | 77° | 38km/h | 15439m | 3.3m/s | -59.1°C | 8.6% | 0hPa | 2.6V | 08:30:00 | 01:28:23 | 00:00:00 | |
| IW2NTF | 2026-08-30 11:04:24 | 44.56762 | 8.20904 | 85° | 42km/h | 15402m | 4.2m/s | -59.5°C | 9% | 0hPa | 2.6V | 08:30:00 | 01:28:13 | 00:00:00 | |
| IW2NTF | 2026-08-30 11:04:16 | 44.56764 | 8.20752 | 97° | 46km/h | 15365m | 3m/s | -59.6°C | 9.2% | 0hPa | 2.6V | 08:30:00 | 01:28:03 | 00:00:00 | |
| IW2NTF | 2026-08-30 11:04:01 | 44.56765 | 8.20586 | 91° | 47km/h | 15327m | 4.2m/s | -59.9°C | 9.5% | 0hPa | 2.6V | 08:30:00 | 01:27:53 | 00:00:00 | |
| IW2NTF | 2026-08-30 11:03:55 | 44.56763 | 8.20412 | 83° | 51km/h | 15289m | 4.1m/s | -60°C | 9.5% | 0hPa | 2.6V | 08:30:00 | 01:27:43 | 00:00:00 | |
| IW2NTF | 2026-08-30 11:03:43 | 44.56755 | 8.20234 | 92° | 47km/h | 15251m | 3.5m/s | -59.8°C | 9.6% | 0hPa | 2.6V | 08:30:00 | 01:27:33 | 00:00:00 | |
| IW2NTF | 2026-08-30 11:03:31 | 44.56754 | 8.20056 | 89° | 49km/h | 15213m | 4.4m/s | -59.7°C | 9.4% | 0hPa | 2.6V | 08:30:00 | 01:27:23 | 00:00:00 | |
| IW2NTF | 2026-08-30 11:03:23 | 44.56770 | 8.19886 | 94° | 53km/h | 15175m | 3.7m/s | -60.1°C | 9.6% | 0hPa | 2.7V | 08:30:00 | 01:27:13 | 00:00:00 | |
| IW2NTF | 2026-08-30 11:03:11 | 44.56785 | 8.19702 | 104° | 53km/h | 15138m | 4.3m/s | -60.2°C | 10% | 0hPa | 2.6V | 08:30:00 | 01:27:03 | 00:00:00 | |
| IW2NTF | 2026-08-30 11:03:05 | 44.56813 | 8.19505 | 104° | 62km/h | 15099m | 3.5m/s | -60.4°C | 10% | 0hPa | 2.6V | 08:30:00 | 01:26:53 | 00:00:00 | |
| IW2NTF | 2026-08-30 11:02:53 | 44.56849 | 8.19287 | 103° | 62km/h | 15059m | 4m/s | -60.2°C | 10% | 0hPa | 2.7V | 08:30:00 | 01:26:43 | 00:00:00 | |
| IW2NTF | 2026-08-30 11:02:41 | 44.56878 | 8.19053 | 97° | 66km/h | 15018m | 4.7m/s | -60.1°C | 10% | 0hPa | 2.6V | 08:30:00 | 01:26:33 | 00:00:00 | |
| IW2NTF | 2026-08-30 11:02:35 | 44.56901 | 8.18816 | 93° | 75km/h | 14977m | 4.6m/s | -59.9°C | 9.6% | 0hPa | 2.6V | 08:30:00 | 01:26:23 | 00:00:00 | |
| IW2NTF | 2026-08-30 11:02:23 | 44.56910 | 8.18559 | 95° | 71km/h | 14936m | 4.9m/s | -59.8°C | 10.1% | 0hPa | 2.7V | 08:30:00 | 01:26:13 | 00:00:00 | |
| IW2NTF | 2026-08-30 11:02:11 | 44.56922 | 8.18289 | 91° | 80km/h | 14896m | 3.9m/s | -59.7°C | 10.1% | 0hPa | 2.6V | 08:30:00 | 01:26:03 | 00:00:00 | |
| IW2NTF | 2026-08-30 11:02:05 | 44.56933 | 8.18023 | 90° | 73km/h | 14852m | 3.9m/s | -59.4°C | 10.2% | 0hPa | 2.6V | 08:30:00 | 01:25:53 | 00:00:00 | |
| IW2NTF | 2026-08-30 11:01:55 | 44.56933 | 8.17762 | 89° | 73km/h | 14811m | 3.9m/s | -59.2°C | 10% | 0hPa | 2.8V | 08:30:00 | 01:25:43 | 00:00:00 | |
| IW2NTF | 2026-08-30 11:01:45 | 44.56924 | 8.17502 | 87° | 75km/h | 14767m | 4.1m/s | -59°C | 9.7% | 0hPa | 2.6V | 08:30:00 | 01:25:33 | 00:00:00 | |
| IW2NTF | 2026-08-30 11:01:35 | 44.56910 | 8.17250 | 85° | 71km/h | 14725m | 4m/s | -59.3°C | 9.7% | 0hPa | 2.8V | 08:30:00 | 01:25:23 | 00:00:00 | |
| IW2NTF | 2026-08-30 11:01:25 | 44.56881 | 8.16998 | 79° | 73km/h | 14683m | 4.7m/s | -59.2°C | 9.5% | 0hPa | 2.7V | 08:30:00 | 01:25:13 | 00:00:00 | |
| IW2NTF | 2026-08-30 11:01:13 | 44.56852 | 8.16690 | 83° | 66km/h | 14632m | 4.3m/s | -59°C | 8.6% | 0hPa | 2.6V | 08:30:00 | 01:25:01 | 00:00:00 | |
| IW2NTF | 2026-08-30 11:01:03 | 44.56836 | 8.16441 | 85° | 73km/h | 14591m | 4m/s | -59.1°C | 8.6% | 0hPa | 2.8V | 08:30:00 | 01:24:51 | 00:00:00 | |
| IW2NTF | 2026-08-30 11:00:53 | 44.56829 | 8.16193 | 87° | 71km/h | 14550m | 3.5m/s | -59°C | 8.8% | 0hPa | 2.8V | 08:30:00 | 01:24:41 | 00:00:00 | |
| IW2NTF | 2026-08-30 11:00:41 | 44.56807 | 8.15896 | 83° | 69km/h | 14503m | 3.5m/s | -58.9°C | 9% | 0hPa | 2.6V | 08:30:00 | 01:24:29 | 00:00:00 | |
| IW2NTF | 2026-08-30 11:00:31 | 44.56780 | 8.15664 | 80° | 66km/h | 14462m | 4.1m/s | -58.6°C | 9.3% | 0hPa | 2.6V | 08:30:00 | 01:24:19 | 00:00:00 | |
| IW2NTF | 2026-08-30 11:00:21 | 44.56748 | 8.15447 | 76° | 64km/h | 14424m | 2.9m/s | -58.9°C | 9.6% | 0hPa | 2.8V | 08:30:00 | 01:24:09 | 00:00:00 | |
| IW2NTF | 2026-08-30 11:00:11 | 44.56702 | 8.15225 | 73° | 62km/h | 14384m | 3.8m/s | -58.7°C | 10.1% | 0hPa | 2.8V | 08:30:00 | 01:23:59 | 00:00:00 | |
| IW2NTF | 2026-08-30 11:00:01 | 44.56657 | 8.14996 | 78° | 69km/h | 14346m | 3.9m/s | -58.5°C | 10% | 0hPa | 2.8V | 08:30:00 | 01:23:49 | 00:00:00 | |
| IW2NTF | 2026-08-30 10:59:51 | 44.56623 | 8.14760 | 77° | 69km/h | 14305m | 3.3m/s | -58.5°C | 10.3% | 0hPa | 2.6V | 08:30:00 | 01:23:39 | 00:00:00 | |
| IW2NTF | 2026-08-30 10:59:41 | 44.56588 | 8.14516 | 82° | 69km/h | 14268m | 3.5m/s | -58.5°C | 10.8% | 0hPa | 2.6V | 08:30:00 | 01:23:29 | 00:00:00 | |
| IW2NTF | 2026-08-30 10:59:31 | 44.56558 | 8.14274 | 79° | 71km/h | 14230m | 3.8m/s | -58.6°C | 10.6% | 0hPa | 2.8V | 08:30:00 | 01:23:19 | 00:00:00 | |
| IW2NTF | 2026-08-30 10:59:21 | 44.56527 | 8.14029 | 79° | 66km/h | 14192m | 3m/s | -58.3°C | 11.3% | 0hPa | 2.8V | 08:30:00 | 01:23:09 | 00:00:00 | |
| IW2NTF | 2026-08-30 10:59:11 | 44.56504 | 8.13793 | 81° | 66km/h | 14156m | 4.1m/s | -58.5°C | 11.8% | 0hPa | 2.8V | 08:30:00 | 01:22:59 | 00:00:00 | |
| IW2NTF | 2026-08-30 10:59:01 | 44.56489 | 8.13573 | 81° | 62km/h | 14117m | 4.1m/s | -58.9°C | 12.9% | 0hPa | 2.6V | 08:30:00 | 01:22:49 | 00:00:00 | |
| IW2NTF | 2026-08-30 10:58:50 | 44.56463 | 8.13344 | 86° | 62km/h | 14076m | 2.8m/s | -59.2°C | 14.1% | 0hPa | 2.6V | 08:30:00 | 01:22:38 | 00:00:00 | |
| IW2NTF | 2026-08-30 10:58:40 | 44.56453 | 8.13120 | 86° | 68km/h | 14037m | 4.2m/s | -59.8°C | 14.8% | 0hPa | 2.8V | 08:30:00 | 01:22:28 | 00:00:00 | |
| IW2NTF | 2026-08-30 10:58:30 | 44.56456 | 8.12875 | 94° | 73km/h | 13999m | 4.9m/s | -60°C | 16.3% | 0hPa | 2.8V | 08:30:00 | 01:22:18 | 00:00:00 | |
| IW2NTF | 2026-08-30 10:58:20 | 44.56464 | 8.12616 | 93° | 69km/h | 13961m | 2.8m/s | -60.3°C | 17.7% | 0hPa | 2.6V | 08:30:00 | 01:22:08 | 00:00:00 | |
| IW2NTF | 2026-08-30 10:58:10 | 44.56474 | 8.12360 | 93° | 75km/h | 13923m | 3.4m/s | -60.4°C | 18.5% | 0hPa | 2.8V | 08:30:00 | 01:21:58 | 00:00:00 | |
| IW2NTF | 2026-08-30 10:58:04 | 44.56491 | 8.12089 | 93° | 77km/h | 13886m | 2.9m/s | -60.6°C | 19.3% | 0hPa | 2.7V | 08:30:00 | 01:21:48 | 00:00:00 | |
| IW2NTF | 2026-08-30 10:57:50 | 44.56494 | 8.11804 | 92° | 78km/h | 13847m | 4.4m/s | -60.6°C | 20.1% | 0hPa | 2.7V | 08:30:00 | 01:21:38 | 00:00:00 | |
| IW2NTF | 2026-08-30 10:57:40 | 44.56507 | 8.11513 | 92° | 80km/h | 13810m | 2.4m/s | -60.6°C | 21.2% | 0hPa | 2.8V | 08:30:00 | 01:21:28 | 00:00:00 | |
| IW2NTF | 2026-08-30 10:57:30 | 44.56525 | 8.11248 | 96° | 80km/h | 13773m | 4.3m/s | -60.6°C | 22.1% | 0hPa | 2.6V | 08:30:00 | 01:21:18 | 00:00:00 | |
| IW2NTF | 2026-08-30 10:57:23 | 44.56553 | 8.10795 | 93° | 86km/h | 13707m | 3.8m/s | -60.5°C | 22.2% | 0hPa | 2.7V | 08:30:00 | 01:21:02 | 00:00:00 | |
| IW2NTF | 2026-08-30 10:57:13 | 44.56559 | 8.10628 | 88° | 75km/h | 13684m | 3.5m/s | -60.5°C | 23.2% | 0hPa | 2.8V | 08:30:00 | 01:20:56 | 00:00:00 | |
| IW2NTF | 2026-08-30 10:56:58 | 44.56556 | 8.10343 | 87° | 82km/h | 13646m | 3.9m/s | -60.5°C | 23% | 0hPa | 2.7V | 08:30:00 | 01:20:46 | 00:00:00 | |
| IW2NTF | 2026-08-30 10:56:48 | 44.56548 | 8.10065 | 86° | 77km/h | 13607m | 3m/s | -60.6°C | 24% | 0hPa | 2.8V | 08:30:00 | 01:20:36 | 00:00:00 | |
| IW2NTF | 2026-08-30 10:56:38 | 44.56525 | 8.09783 | 85° | 78km/h | 13567m | 3.5m/s | -61°C | 26.3% | 0hPa | 2.7V | 08:30:00 | 01:20:26 | 00:00:00 | |
| IW2NTF | 2026-08-30 10:56:28 | 44.56506 | 8.09500 | 85° | 82km/h | 13528m | 4.9m/s | -60.7°C | 24.7% | 0hPa | 2.8V | 08:30:00 | 01:20:16 | 00:00:00 | |
| IW2NTF | 2026-08-30 10:56:19 | 44.56486 | 8.09215 | 83° | 82km/h | 13486m | 3.2m/s | -60.4°C | 24.9% | 0hPa | 2.7V | 08:30:00 | 01:20:06 | 00:00:00 | |
| IW2NTF | 2026-08-30 10:56:08 | 44.56462 | 8.08936 | 82° | 80km/h | 13449m | 3.6m/s | -60.5°C | 26.1% | 0hPa | 2.8V | 08:30:00 | 01:19:56 | 00:00:00 | |
| IW2NTF | 2026-08-30 10:55:58 | 44.56433 | 8.08665 | 81° | 75km/h | 13410m | 4.2m/s | -60.4°C | 25.5% | 0hPa | 2.8V | 08:30:00 | 01:19:46 | 00:00:00 | |
| IW2NTF | 2026-08-30 10:55:50 | 44.56411 | 8.08400 | 83° | 73km/h | 13371m | 4.7m/s | -60.2°C | 27.3% | 0hPa | 2.7V | 08:30:00 | 01:19:36 | 00:00:00 | |
| IW2NTF | 2026-08-30 10:55:38 | 44.56396 | 8.08128 | 88° | 78km/h | 13333m | 3.4m/s | -60°C | 25.9% | 0hPa | 2.7V | 08:30:00 | 01:19:26 | 00:00:00 | |
| IW2NTF | 2026-08-30 10:55:26 | 44.56380 | 8.07816 | 87° | 71km/h | 13288m | 3.4m/s | -60°C | 26.4% | 0hPa | 2.7V | 08:30:00 | 01:19:14 | 00:00:00 | |
| IW2NTF | 2026-08-30 10:55:16 | 44.56366 | 8.07561 | 85° | 69km/h | 13250m | 3.7m/s | -59.6°C | 29.1% | 0hPa | 2.8V | 08:30:00 | 01:19:04 | 00:00:00 | |
| IW2NTF | 2026-08-30 10:55:06 | 44.56350 | 8.07315 | 84° | 68km/h | 13212m | 4.1m/s | -59.6°C | 28.3% | 0hPa | 2.8V | 08:30:00 | 01:18:54 | 00:00:00 | |
| IW2NTF | 2026-08-30 10:54:56 | 44.56348 | 8.07071 | 91° | 71km/h | 13173m | 3.8m/s | -59.6°C | 29.5% | 0hPa | 2.8V | 08:30:00 | 01:18:44 | 00:00:00 | |
| IW2NTF | 2026-08-30 10:54:46 | 44.56349 | 8.06826 | 88° | 71km/h | 13136m | 3m/s | -59.4°C | 30.6% | 0hPa | 2.8V | 08:30:00 | 01:18:34 | 00:00:00 | |
| IW2NTF | 2026-08-30 10:54:36 | 44.56339 | 8.06572 | 88° | 73km/h | 13099m | 4.2m/s | -59.2°C | 30.4% | 0hPa | 2.8V | 08:30:00 | 01:18:24 | 00:00:00 | |
| IW2NTF | 2026-08-30 10:54:26 | 44.56329 | 8.06327 | 86° | 68km/h | 13060m | 2.6m/s | -58.8°C | 30.5% | 0hPa | 2.8V | 08:30:00 | 01:18:14 | 00:00:00 | |
| IW2NTF | 2026-08-30 10:54:16 | 44.56332 | 8.06069 | 86° | 69km/h | 13016m | 4.4m/s | -58.8°C | 30.1% | 0hPa | 2.8V | 08:30:00 | 01:18:04 | 00:00:00 | |
| IW2NTF | 2026-08-30 10:54:07 | 44.56336 | 8.05818 | 92° | 69km/h | 12974m | 4.3m/s | -58.9°C | 30.6% | 0hPa | 2.8V | 08:30:00 | 01:17:54 | 00:00:00 | |
| IW2NTF | 2026-08-30 10:53:56 | 44.56345 | 8.05548 | 89° | 80km/h | 12935m | 3.9m/s | -58.6°C | 32.1% | 0hPa | 2.8V | 08:30:00 | 01:17:44 | 00:00:00 | |
| IW2NTF | 2026-08-30 10:53:46 | 44.56354 | 8.05272 | 92° | 82km/h | 12898m | 3.2m/s | -58.5°C | 31.3% | 0hPa | 2.8V | 08:30:00 | 01:17:34 | 00:00:00 | |
| IW2NTF | 2026-08-30 10:53:38 | 44.56347 | 8.04990 | 88° | 75km/h | 12861m | 4m/s | -58.2°C | 32% | 0hPa | 2.8V | 08:30:00 | 01:17:24 | 00:00:00 | |
| IW2NTF | 2026-08-30 10:53:26 | 44.56340 | 8.04712 | 83° | 78km/h | 12823m | 3.5m/s | -58.4°C | 33.3% | 0hPa | 2.8V | 08:30:00 | 01:17:14 | 00:00:00 | |
| IW2NTF | 2026-08-30 10:53:16 | 44.56320 | 8.04438 | 87° | 86km/h | 12783m | 4.7m/s | -58°C | 33.5% | 0hPa | 2.8V | 08:30:00 | 01:17:04 | 00:00:00 | |
| IW2NTF | 2026-08-30 10:53:06 | 44.56310 | 8.04145 | 88° | 80km/h | 12744m | 3.2m/s | -58.2°C | 33.8% | 0hPa | 2.7V | 08:30:00 | 01:16:54 | 00:00:00 | |
| IW2NTF | 2026-08-30 10:52:56 | 44.56310 | 8.03849 | 91° | 86km/h | 12706m | 4.1m/s | -57.9°C | 32.8% | 0hPa | 2.8V | 08:30:00 | 01:16:44 | 00:00:00 | |
| IW2NTF | 2026-08-30 10:52:46 | 44.56307 | 8.03540 | 89° | 84km/h | 12670m | 4.1m/s | -57.8°C | 31.8% | 0hPa | 2.8V | 08:30:00 | 01:16:34 | 00:00:00 | |
| IW2NTF | 2026-08-30 10:52:36 | 44.56312 | 8.03240 | 90° | 88km/h | 12633m | 3.2m/s | -57.4°C | 32.7% | 0hPa | 2.8V | 08:30:00 | 01:16:24 | 00:00:00 | |
| IW2NTF | 2026-08-30 10:52:27 | 44.56311 | 8.02940 | 87° | 88km/h | 12595m | 3.8m/s | -57.4°C | 31.2% | 0hPa | 2.8V | 08:30:00 | 01:16:14 | 00:00:00 | |
| IW2NTF | 2026-08-30 10:52:16 | 44.56316 | 8.02640 | 93° | 82km/h | 12559m | 3.7m/s | -57.2°C | 33.7% | 0hPa | 2.8V | 08:30:00 | 01:16:04 | 00:00:00 | |
| IW2NTF | 2026-08-30 10:52:06 | 44.56321 | 8.02333 | 88° | 86km/h | 12521m | 3.4m/s | -57.1°C | 34.4% | 0hPa | 2.8V | 08:30:00 | 01:15:54 | 00:00:00 | |
| IW2NTF | 2026-08-30 10:51:57 | 44.56326 | 8.02040 | 93° | 82km/h | 12485m | 3.7m/s | -57.1°C | 36.9% | 0hPa | 2.7V | 08:30:00 | 01:15:44 | 00:00:00 | |
| IW2NTF | 2026-08-30 10:51:46 | 44.56329 | 8.01731 | 91° | 88km/h | 12449m | 2.7m/s | -57°C | 39.8% | 0hPa | 2.7V | 08:30:00 | 01:15:34 | 00:00:00 | |
| IW2NTF | 2026-08-30 10:51:36 | 44.56333 | 8.01419 | 89° | 91km/h | 12413m | 2.8m/s | -57.1°C | 41.1% | 0hPa | 2.7V | 08:30:00 | 01:15:24 | 00:00:00 | |
| IW2NTF | 2026-08-30 10:51:26 | 44.56324 | 8.01111 | 88° | 86km/h | 12376m | 4m/s | -57°C | 44.3% | 0hPa | 2.8V | 08:30:00 | 01:15:14 | 00:00:00 | |
| IW2NTF | 2026-08-30 10:51:16 | 44.56314 | 8.00807 | 86° | 86km/h | 12338m | 4.4m/s | -57.2°C | 46.8% | 0hPa | 2.8V | 08:30:00 | 01:15:04 | 00:00:00 | |
| IW2NTF | 2026-08-30 10:51:06 | 44.56306 | 8.00507 | 89° | 84km/h | 12300m | 4.4m/s | -57.3°C | 48.1% | 0hPa | 2.8V | 08:30:00 | 01:14:54 | 00:00:00 | |
| IW2NTF | 2026-08-30 10:50:56 | 44.56305 | 8.00213 | 90° | 86km/h | 12262m | 3.1m/s | -57.1°C | 46.9% | 0hPa | 2.7V | 08:30:00 | 01:14:44 | 00:00:00 | |
| IW2NTF | 2026-08-30 10:50:46 | 44.56312 | 7.99927 | 90° | 77km/h | 12226m | 3.8m/s | -57°C | 46.6% | 0hPa | 2.7V | 08:30:00 | 01:14:34 | 00:00:00 | |
| IW2NTF | 2026-08-30 10:50:36 | 44.56312 | 7.99646 | 90° | 75km/h | 12187m | 4.1m/s | -56.8°C | 46.5% | 0hPa | 2.8V | 08:30:00 | 01:14:24 | 00:00:00 | |
| IW2NTF | 2026-08-30 10:50:27 | 44.56315 | 7.99372 | 90° | 78km/h | 12148m | 4.3m/s | -56.6°C | 44.7% | 0hPa | 2.8V | 08:30:00 | 01:14:14 | 00:00:00 | |
| IW2NTF | 2026-08-30 10:50:16 | 44.56320 | 7.99084 | 94° | 84km/h | 12110m | 3.1m/s | -56.4°C | 44.9% | 0hPa | 2.8V | 08:30:00 | 01:14:04 | 00:00:00 | |
| IW2NTF | 2026-08-30 10:50:06 | 44.56327 | 7.98794 | 92° | 82km/h | 12073m | 3.8m/s | -56.1°C | 43.6% | 0hPa | 2.7V | 08:30:00 | 01:13:54 | 00:00:00 | |
| IW2NTF | 2026-08-30 10:49:57 | 44.56335 | 7.98489 | 89° | 88km/h | 12036m | 3.4m/s | -55.8°C | 43.8% | 0hPa | 2.8V | 08:30:00 | 01:13:44 | 00:00:00 | |
| IW2NTF | 2026-08-30 10:49:46 | 44.56332 | 7.98191 | 88° | 86km/h | 11997m | 3.7m/s | -55.6°C | 41.7% | 0hPa | 2.8V | 08:30:00 | 01:13:34 | 00:00:00 | |
| IW2NTF | 2026-08-30 10:49:36 | 44.56327 | 7.97898 | 86° | 80km/h | 11959m | 4.1m/s | -55.3°C | 41.6% | 0hPa | 2.8V | 08:30:00 | 01:13:24 | 00:00:00 | |
| IW2NTF | 2026-08-30 10:49:26 | 44.56320 | 7.97618 | 87° | 78km/h | 11920m | 3.9m/s | -55°C | 40% | 0hPa | 2.7V | 08:30:00 | 01:13:14 | 00:00:00 | |
| IW2NTF | 2026-08-30 10:49:16 | 44.56309 | 7.97353 | 86° | 73km/h | 11880m | 4.5m/s | -54.7°C | 39% | 0hPa | 2.8V | 08:30:00 | 01:13:04 | 00:00:00 | |
| IW2NTF | 2026-08-30 10:49:06 | 44.56301 | 7.97094 | 86° | 69km/h | 11840m | 3.7m/s | -54.5°C | 38.5% | 0hPa | 2.8V | 08:30:00 | 01:12:54 | 00:00:00 | |
| IW2NTF | 2026-08-30 10:48:56 | 44.56296 | 7.96845 | 87° | 66km/h | 11799m | 3.3m/s | -54.1°C | 37.7% | 0hPa | 2.7V | 08:30:00 | 01:12:44 | 00:00:00 | |
| IW2NTF | 2026-08-30 10:48:44 | 44.56286 | 7.96561 | 88° | 64km/h | 11751m | 3.1m/s | -53.9°C | 37.2% | 0hPa | 2.7V | 08:30:00 | 01:12:32 | 00:00:00 | |
| IW2NTF | 2026-08-30 10:48:34 | 44.56286 | 7.96331 | 89° | 62km/h | 11712m | 3.5m/s | -53.5°C | 36.4% | 0hPa | 2.8V | 08:30:00 | 01:12:22 | 00:00:00 | |
| IW2NTF | 2026-08-30 10:48:24 | 44.56290 | 7.96109 | 93° | 64km/h | 11675m | 4m/s | -53.2°C | 36.1% | 0hPa | 2.7V | 08:30:00 | 01:12:12 | 00:00:00 | |
| IW2NTF | 2026-08-30 10:48:14 | 44.56300 | 7.95888 | 93° | 64km/h | 11638m | 3.4m/s | -53°C | 36.7% | 0hPa | 2.8V | 08:30:00 | 01:12:02 | 00:00:00 | |
| IW2NTF | 2026-08-30 10:48:04 | 44.56318 | 7.95674 | 98° | 64km/h | 11599m | 3.8m/s | -52.8°C | 36.5% | 0hPa | 2.8V | 08:30:00 | 01:11:52 | 00:00:00 | |
| IW2NTF | 2026-08-30 10:47:54 | 44.56344 | 7.95454 | 102° | 66km/h | 11558m | 4.5m/s | -52.5°C | 37.1% | 0hPa | 2.7V | 08:30:00 | 01:11:42 | 00:00:00 | |
| IW2NTF | 2026-08-30 10:47:44 | 44.56378 | 7.95241 | 106° | 64km/h | 11521m | 4m/s | -52.2°C | 35.9% | 0hPa | 2.8V | 08:30:00 | 01:11:32 | 00:00:00 | |
| IW2NTF | 2026-08-30 10:47:34 | 44.56412 | 7.95017 | 102° | 66km/h | 11482m | 3.6m/s | -51.8°C | 35.9% | 0hPa | 2.7V | 08:30:00 | 01:11:22 | 00:00:00 | |
| IW2NTF | 2026-08-30 10:47:27 | 44.56450 | 7.94798 | 101° | 66km/h | 11443m | 3.9m/s | -51.5°C | 34.2% | 0hPa | 2.8V | 08:30:00 | 01:11:12 | 00:00:00 | |
| IW2NTF | 2026-08-30 10:47:14 | 44.56486 | 7.94577 | 105° | 66km/h | 11405m | 3.3m/s | -51.1°C | 33.9% | 0hPa | 2.8V | 08:30:00 | 01:11:02 | 00:00:00 | |
| IW2NTF | 2026-08-30 10:47:04 | 44.56526 | 7.94354 | 104° | 64km/h | 11368m | 3.8m/s | -50.7°C | 33.3% | 0hPa | 2.8V | 08:30:00 | 01:10:52 | 00:00:00 | |
| IW2NTF | 2026-08-30 10:46:54 | 44.56567 | 7.94137 | 101° | 64km/h | 11331m | 3.5m/s | -50.5°C | 32.3% | 0hPa | 2.8V | 08:30:00 | 01:10:42 | 00:00:00 | |
| IW2NTF | 2026-08-30 10:46:44 | 44.56608 | 7.93915 | 105° | 69km/h | 11293m | 4.6m/s | -50.2°C | 31.5% | 0hPa | 2.8V | 08:30:00 | 01:10:32 | 00:00:00 | |
| IW2NTF | 2026-08-30 10:46:34 | 44.56649 | 7.93688 | 101° | 64km/h | 11255m | 4.3m/s | -49.9°C | 30.1% | 0hPa | 2.8V | 08:30:00 | 01:10:22 | 00:00:00 | |
| IW2NTF | 2026-08-30 10:46:24 | 44.56691 | 7.93455 | 105° | 64km/h | 11216m | 4.1m/s | -49.5°C | 28.4% | 0hPa | 2.8V | 08:30:00 | 01:10:12 | 00:00:00 | |
| IW2NTF | 2026-08-30 10:46:14 | 44.56726 | 7.93223 | 99° | 68km/h | 11176m | 2.8m/s | -49°C | 27.4% | 0hPa | 2.8V | 08:30:00 | 01:10:02 | 00:00:00 | |
| IW2NTF | 2026-08-30 10:46:04 | 44.56761 | 7.92996 | 97° | 71km/h | 11136m | 3.8m/s | -48.7°C | 26.6% | 0hPa | 2.8V | 08:30:00 | 01:09:52 | 00:00:00 | |
| IW2NTF | 2026-08-30 10:45:54 | 44.56790 | 7.92766 | 99° | 64km/h | 11095m | 4.7m/s | -48.4°C | 24.7% | 0hPa | 2.7V | 08:30:00 | 01:09:42 | 00:00:00 | |
| IW2NTF | 2026-08-30 10:45:44 | 44.56818 | 7.92537 | 96° | 68km/h | 11056m | 3.1m/s | -48.1°C | 23.6% | 0hPa | 2.8V | 08:30:00 | 01:09:32 | 00:00:00 | |
| IW2NTF | 2026-08-30 10:45:34 | 44.56838 | 7.92309 | 97° | 66km/h | 11015m | 4.8m/s | -47.9°C | 23% | 0hPa | 2.7V | 08:30:00 | 01:09:22 | 00:00:00 | |
| IW2NTF | 2026-08-30 10:45:24 | 44.56850 | 7.92080 | 88° | 64km/h | 10976m | 3.5m/s | -47.7°C | 23.2% | 0hPa | 2.8V | 08:30:00 | 01:09:12 | 00:00:00 | |
| IW2NTF | 2026-08-30 10:45:17 | 44.56858 | 7.91862 | 89° | 57km/h | 10937m | 4.6m/s | -47.4°C | 22.8% | 0hPa | 2.8V | 08:30:00 | 01:09:02 | 00:00:00 | |
| IW2NTF | 2026-08-30 10:45:04 | 44.56860 | 7.91659 | 93° | 57km/h | 10899m | 3.5m/s | -47.1°C | 22.7% | 0hPa | 2.8V | 08:30:00 | 01:08:52 | 00:00:00 | |
| IW2NTF | 2026-08-30 10:44:54 | 44.56863 | 7.91460 | 91° | 57km/h | 10862m | 4m/s | -46.7°C | 22.5% | 0hPa | 2.8V | 08:30:00 | 01:08:42 | 00:00:00 | |
| IW2NTF | 2026-08-30 10:44:44 | 44.56870 | 7.91249 | 94° | 58km/h | 10826m | 4.4m/s | -46.6°C | 22.8% | 0hPa | 2.7V | 08:30:00 | 01:08:32 | 00:00:00 | |
| IW2NTF | 2026-08-30 10:44:35 | 44.56879 | 7.91042 | 96° | 58km/h | 10789m | 4.3m/s | -46.3°C | 22.2% | 0hPa | 2.8V | 08:30:00 | 01:08:22 | 00:00:00 | |
| IW2NTF | 2026-08-30 10:44:24 | 44.56888 | 7.90826 | 93° | 58km/h | 10752m | 3.9m/s | -45.9°C | 21.5% | 0hPa | 2.8V | 08:30:00 | 01:08:12 | 00:00:00 | |
| IW2NTF | 2026-08-30 10:44:14 | 44.56894 | 7.90609 | 91° | 62km/h | 10714m | 3.2m/s | -45.6°C | 21.4% | 0hPa | 2.8V | 08:30:00 | 01:08:02 | 00:00:00 | |
| IW2NTF | 2026-08-30 10:44:04 | 44.56891 | 7.90397 | 91° | 60km/h | 10676m | 3.8m/s | -45.2°C | 20.8% | 0hPa | 2.8V | 08:30:00 | 01:07:52 | 00:00:00 | |
| IW2NTF | 2026-08-30 10:43:54 | 44.56891 | 7.90190 | 90° | 58km/h | 10641m | 4m/s | -44.9°C | 20.7% | 0hPa | 2.8V | 08:30:00 | 01:07:42 | 00:00:00 | |
| IW2NTF | 2026-08-30 10:43:44 | 44.56894 | 7.89973 | 89° | 58km/h | 10605m | 3.9m/s | -44.6°C | 20.1% | 0hPa | 2.8V | 08:30:00 | 01:07:32 | 00:00:00 | |
| IW2NTF | 2026-08-30 10:43:34 | 44.56895 | 7.89762 | 92° | 62km/h | 10567m | 3.7m/s | -44.3°C | 20.1% | 0hPa | 2.7V | 08:30:00 | 01:07:22 | 00:00:00 | |
| IW2NTF | 2026-08-30 10:43:24 | 44.56897 | 7.89554 | 91° | 62km/h | 10532m | 3m/s | -44°C | 19.5% | 0hPa | 2.9V | 08:30:00 | 01:07:12 | 00:00:00 | |
| IW2NTF | 2026-08-30 10:43:14 | 44.56895 | 7.89349 | 87° | 55km/h | 10496m | 3.2m/s | -43.8°C | 19.9% | 0hPa | 2.9V | 08:30:00 | 01:07:02 | 00:00:00 | |
| IW2NTF | 2026-08-30 10:43:04 | 44.56895 | 7.89152 | 87° | 55km/h | 10460m | 4.5m/s | -43.6°C | 19.8% | 0hPa | 2.8V | 08:30:00 | 01:06:52 | 00:00:00 | |
| IW2NTF | 2026-08-30 10:42:54 | 44.56889 | 7.88960 | 89° | 53km/h | 10423m | 4.3m/s | -43.3°C | 19.8% | 0hPa | 2.7V | 08:30:00 | 01:06:42 | 00:00:00 | |
| IW2NTF | 2026-08-30 10:42:44 | 44.56888 | 7.88775 | 84° | 53km/h | 10386m | 4m/s | -43.1°C | 19.9% | 0hPa | 2.9V | 08:30:00 | 01:06:32 | 00:00:00 | |
| IW2NTF | 2026-08-30 10:42:34 | 44.56887 | 7.88593 | 91° | 51km/h | 10348m | 3.3m/s | -42.7°C | 20% | 0hPa | 2.9V | 08:30:00 | 01:06:22 | 00:00:00 | |
| IW2NTF | 2026-08-30 10:42:24 | 44.56884 | 7.88411 | 90° | 53km/h | 10310m | 3.2m/s | -42.4°C | 19% | 0hPa | 2.9V | 08:30:00 | 01:06:12 | 00:00:00 | |
| IW2NTF | 2026-08-30 10:42:14 | 44.56886 | 7.88233 | 88° | 53km/h | 10275m | 3.2m/s | -41.9°C | 19.1% | 0hPa | 2.9V | 08:30:00 | 01:06:02 | 00:00:00 | |
| IW2NTF | 2026-08-30 10:42:04 | 44.56885 | 7.88058 | 93° | 49km/h | 10239m | 3.7m/s | -41.6°C | 21.1% | 0hPa | 2.7V | 08:30:00 | 01:05:52 | 00:00:00 | |
| IW2NTF | 2026-08-30 10:41:54 | 44.56887 | 7.87882 | 93° | 47km/h | 10203m | 4.2m/s | -41.4°C | 20.1% | 0hPa | 2.9V | 08:30:00 | 01:05:42 | 00:00:00 | |
| IW2NTF | 2026-08-30 10:41:44 | 44.56892 | 7.87711 | 90° | 46km/h | 10167m | 4.8m/s | -41°C | 20.1% | 0hPa | 2.9V | 08:30:00 | 01:05:32 | 00:00:00 | |
| IW2NTF | 2026-08-30 10:41:34 | 44.56898 | 7.87547 | 93° | 47km/h | 10130m | 4.3m/s | -40.7°C | 20.3% | 0hPa | 2.7V | 08:30:00 | 01:05:22 | 00:00:00 | |
| IW2NTF | 2026-08-30 10:41:24 | 44.56906 | 7.87387 | 91° | 44km/h | 10094m | 3.1m/s | -40.4°C | 18.7% | 0hPa | 2.7V | 08:30:00 | 01:05:12 | 00:00:00 | |
| IW2NTF | 2026-08-30 10:41:14 | 44.56915 | 7.87229 | 92° | 46km/h | 10057m | 2.8m/s | -40.1°C | 18.8% | 0hPa | 2.9V | 08:30:00 | 01:05:02 | 00:00:00 | |
| IW2NTF | 2026-08-30 10:41:04 | 44.56923 | 7.87073 | 94° | 46km/h | 10021m | 3.2m/s | -39.8°C | 18.8% | 0hPa | 2.9V | 08:30:00 | 01:04:52 | 00:00:00 | |
| IW2NTF | 2026-08-30 10:40:54 | 44.56932 | 7.86919 | 95° | 44km/h | 9984m | 3.9m/s | -39.4°C | 18.7% | 0hPa | 2.9V | 08:30:00 | 01:04:42 | 00:00:00 | |
| IW2NTF | 2026-08-30 10:40:44 | 44.56939 | 7.86767 | 94° | 44km/h | 9947m | 3.9m/s | -39.1°C | 18.4% | 0hPa | 2.9V | 08:30:00 | 01:04:32 | 00:00:00 | |
| IW2NTF | 2026-08-30 10:40:34 | 44.56953 | 7.86616 | 96° | 42km/h | 9911m | 3.8m/s | -38.8°C | 18.3% | 0hPa | 2.9V | 08:30:00 | 01:04:22 | 00:00:00 | |
| IW2NTF | 2026-08-30 10:40:24 | 44.56967 | 7.86465 | 96° | 42km/h | 9875m | 4.2m/s | -38.5°C | 17.5% | 0hPa | 2.9V | 08:30:00 | 01:04:12 | 00:00:00 | |
| IW2NTF | 2026-08-30 10:40:14 | 44.56984 | 7.86313 | 98° | 44km/h | 9839m | 3.4m/s | -38.2°C | 17.1% | 0hPa | 2.9V | 08:30:00 | 01:04:02 | 00:00:00 | |
| IW2NTF | 2026-08-30 10:40:04 | 44.56992 | 7.86158 | 91° | 47km/h | 9803m | 3.6m/s | -37.9°C | 16% | 0hPa | 2.7V | 08:30:00 | 01:03:52 | 00:00:00 | |
| IW2NTF | 2026-08-30 10:39:54 | 44.56997 | 7.85993 | 92° | 47km/h | 9768m | 4.4m/s | -37.6°C | 15.7% | 0hPa | 2.7V | 08:30:00 | 01:03:42 | 00:00:00 | |
| IW2NTF | 2026-08-30 10:39:44 | 44.57003 | 7.85827 | 88° | 47km/h | 9731m | 3.9m/s | -37.3°C | 16.3% | 0hPa | 2.7V | 08:30:00 | 01:03:32 | 00:00:00 | |
| IW2NTF | 2026-08-30 10:39:34 | 44.57004 | 7.85658 | 88° | 53km/h | 9693m | 4.1m/s | -37.2°C | 17.9% | 0hPa | 2.9V | 08:30:00 | 01:03:22 | 00:00:00 | |
| IW2NTF | 2026-08-30 10:39:24 | 44.57002 | 7.85479 | 88° | 55km/h | 9658m | 4.5m/s | -36.8°C | 19.4% | 0hPa | 2.9V | 08:30:00 | 01:03:12 | 00:00:00 | |
| IW2NTF | 2026-08-30 10:39:15 | 44.56993 | 7.85283 | 89° | 53km/h | 9623m | 3.6m/s | -36.7°C | 27.6% | 0hPa | 2.9V | 08:30:00 | 01:03:02 | 00:00:00 | |
| IW2NTF | 2026-08-30 10:39:04 | 44.56997 | 7.85088 | 87° | 60km/h | 9587m | 4.5m/s | -36.4°C | 32.9% | 0hPa | 2.9V | 08:30:00 | 01:02:52 | 00:00:00 | |
| IW2NTF | 2026-08-30 10:38:54 | 44.56987 | 7.84876 | 88° | 58km/h | 9552m | 4.2m/s | -36.3°C | 45.2% | 0hPa | 2.9V | 08:30:00 | 01:02:42 | 00:00:00 | |
| IW2NTF | 2026-08-30 10:38:45 | 44.56986 | 7.84668 | 87° | 58km/h | 9513m | 4.3m/s | -36°C | 44.8% | 0hPa | 2.7V | 08:30:00 | 01:02:32 | 00:00:00 | |
| IW2NTF | 2026-08-30 10:38:34 | 44.56973 | 7.84457 | 87° | 57km/h | 9476m | 4.5m/s | -35.6°C | 43.5% | 0hPa | 2.9V | 08:30:00 | 01:02:22 | 00:00:00 | |
| IW2NTF | 2026-08-30 10:38:24 | 44.56961 | 7.84258 | 84° | 60km/h | 9439m | 3.8m/s | -35.4°C | 42.8% | 0hPa | 2.9V | 08:30:00 | 01:02:12 | 00:00:00 | |
| IW2NTF | 2026-08-30 10:38:15 | 44.56951 | 7.84057 | 80° | 55km/h | 9401m | 4.8m/s | -35°C | 41.8% | 0hPa | 2.7V | 08:30:00 | 01:02:02 | 00:00:00 | |
| IW2NTF | 2026-08-30 10:38:04 | 44.56939 | 7.83867 | 86° | 58km/h | 9361m | 4.1m/s | -34.6°C | 40.7% | 0hPa | 2.9V | 08:30:00 | 01:01:52 | 00:00:00 | |
| IW2NTF | 2026-08-30 10:37:54 | 44.56930 | 7.83667 | 84° | 51km/h | 9320m | 6.2m/s | -34.3°C | 41.4% | 0hPa | 2.9V | 08:30:00 | 01:01:42 | 00:00:00 | |
| IW2NTF | 2026-08-30 10:37:45 | 44.56924 | 7.83475 | 82° | 55km/h | 9276m | 4m/s | -34°C | 43.6% | 0hPa | 2.7V | 08:30:00 | 01:01:32 | 00:00:00 | |
| IW2NTF | 2026-08-30 10:37:34 | 44.56914 | 7.83268 | 87° | 57km/h | 9228m | 3.5m/s | -33.5°C | 43.1% | 0hPa | 2.7V | 08:30:00 | 01:01:22 | 00:00:00 | |
| IW2NTF | 2026-08-30 10:37:24 | 44.56896 | 7.83080 | 81° | 55km/h | 9184m | 4.6m/s | -33.1°C | 41.9% | 0hPa | 2.9V | 08:30:00 | 01:01:12 | 00:00:00 | |
| IW2NTF | 2026-08-30 10:37:14 | 44.56878 | 7.82881 | 80° | 58km/h | 9139m | 5m/s | -32.7°C | 40% | 0hPa | 2.9V | 08:30:00 | 01:01:02 | 00:00:00 | |
| IW2NTF | 2026-08-30 10:37:04 | 44.56860 | 7.82687 | 88° | 53km/h | 9099m | 4.9m/s | -32.3°C | 39% | 0hPa | 2.9V | 08:30:00 | 01:00:52 | 00:00:00 | |
| IW2NTF | 2026-08-30 10:36:54 | 44.56839 | 7.82503 | 80° | 53km/h | 9059m | 4.8m/s | -31.9°C | 38.5% | 0hPa | 2.9V | 08:30:00 | 01:00:42 | 00:00:00 | |
| IW2NTF | 2026-08-30 10:36:44 | 44.56816 | 7.82318 | 80° | 53km/h | 9020m | 4.3m/s | -31.6°C | 38% | 0hPa | 2.9V | 08:30:00 | 01:00:32 | 00:00:00 | |
| IW2NTF | 2026-08-30 10:36:34 | 44.56792 | 7.82139 | 79° | 51km/h | 8983m | 3.6m/s | -31.2°C | 33.8% | 0hPa | 2.9V | 08:30:00 | 01:00:22 | 00:00:00 | |
| IW2NTF | 2026-08-30 10:36:24 | 44.56774 | 7.81958 | 76° | 53km/h | 8945m | 4.2m/s | -30.8°C | 32.8% | 0hPa | 2.8V | 08:30:00 | 01:00:12 | 00:00:00 | |
| IW2NTF | 2026-08-30 10:36:14 | 44.56746 | 7.81782 | 83° | 51km/h | 8907m | 4.2m/s | -30.5°C | 30% | 0hPa | 2.9V | 08:30:00 | 01:00:02 | 00:00:00 | |
| IW2NTF | 2026-08-30 10:36:04 | 44.56725 | 7.81605 | 81° | 49km/h | 8870m | 4.4m/s | -30.2°C | 27.9% | 0hPa | 2.9V | 08:30:00 | 00:59:52 | 00:00:00 | |
| IW2NTF | 2026-08-30 10:35:54 | 44.56702 | 7.81428 | 80° | 51km/h | 8834m | 3.1m/s | -29.9°C | 30.9% | 0hPa | 2.9V | 08:30:00 | 00:59:42 | 00:00:00 | |
| IW2NTF | 2026-08-30 10:35:44 | 44.56683 | 7.81247 | 80° | 55km/h | 8794m | 3.4m/s | -29.7°C | 33.4% | 0hPa | 2.9V | 08:30:00 | 00:59:32 | 00:00:00 | |
| IW2NTF | 2026-08-30 10:35:34 | 44.56668 | 7.81065 | 80° | 47km/h | 8758m | 4.2m/s | -29.5°C | 36.6% | 0hPa | 2.9V | 08:30:00 | 00:59:22 | 00:00:00 | |
| IW2NTF | 2026-08-30 10:35:24 | 44.56649 | 7.80884 | 82° | 49km/h | 8720m | 4.5m/s | -29.3°C | 40.2% | 0hPa | 2.9V | 08:30:00 | 00:59:12 | 00:00:00 | |
| IW2NTF | 2026-08-30 10:35:14 | 44.56631 | 7.80713 | 81° | 51km/h | 8681m | 4.5m/s | -29.1°C | 40.6% | 0hPa | 2.9V | 08:30:00 | 00:59:02 | 00:00:00 | |
| IW2NTF | 2026-08-30 10:35:04 | 44.56607 | 7.80538 | 76° | 47km/h | 8643m | 4.3m/s | -28.7°C | 40.1% | 0hPa | 2.9V | 08:30:00 | 00:58:52 | 00:00:00 | |
| IW2NTF | 2026-08-30 10:34:54 | 44.56584 | 7.80370 | 80° | 46km/h | 8607m | 3.5m/s | -28.4°C | 39.7% | 0hPa | 2.9V | 08:30:00 | 00:58:42 | 00:00:00 | |
| IW2NTF | 2026-08-30 10:34:44 | 44.56564 | 7.80210 | 79° | 51km/h | 8569m | 4m/s | -28.1°C | 38.6% | 0hPa | 2.9V | 08:30:00 | 00:58:32 | 00:00:00 | |
| IW2NTF | 2026-08-30 10:34:34 | 44.56544 | 7.80041 | 77° | 42km/h | 8531m | 4.6m/s | -27.8°C | 39.4% | 0hPa | 2.9V | 08:30:00 | 00:58:22 | 00:00:00 | |
| IW2NTF | 2026-08-30 10:34:24 | 44.56526 | 7.79878 | 83° | 47km/h | 8492m | 3.1m/s | -27.6°C | 45% | 0hPa | 2.8V | 08:30:00 | 00:58:12 | 00:00:00 | |
| IW2NTF | 2026-08-30 10:34:14 | 44.56507 | 7.79726 | 80° | 46km/h | 8455m | 3.6m/s | -27.2°C | 43.3% | 0hPa | 2.9V | 08:30:00 | 00:58:02 | 00:00:00 | |
| IW2NTF | 2026-08-30 10:34:04 | 44.56497 | 7.79562 | 82° | 44km/h | 8415m | 4.3m/s | -26.9°C | 41.4% | 0hPa | 2.9V | 08:30:00 | 00:57:52 | 00:00:00 | |
| IW2NTF | 2026-08-30 10:33:56 | 44.56477 | 7.79397 | 81° | 47km/h | 8377m | 4.1m/s | -26.7°C | 47.3% | 0hPa | 2.9V | 08:30:00 | 00:57:42 | 00:00:00 | |
| IW2NTF | 2026-08-30 10:33:44 | 44.56458 | 7.79239 | 80° | 47km/h | 8337m | 3.9m/s | -26.4°C | 52.3% | 0hPa | 2.9V | 08:30:00 | 00:57:32 | 00:00:00 | |
| IW2NTF | 2026-08-30 10:33:34 | 44.56433 | 7.79075 | 77° | 49km/h | 8302m | 3.5m/s | -26.1°C | 51.5% | 0hPa | 2.9V | 08:30:00 | 00:57:22 | 00:00:00 | |
| IW2NTF | 2026-08-30 10:33:24 | 44.56410 | 7.78911 | 80° | 47km/h | 8263m | 4.3m/s | -25.7°C | 50.5% | 0hPa | 2.9V | 08:30:00 | 00:57:12 | 00:00:00 | |
| IW2NTF | 2026-08-30 10:33:14 | 44.56386 | 7.78738 | 81° | 47km/h | 8225m | 4m/s | -25.3°C | 49.3% | 0hPa | 2.9V | 08:30:00 | 00:57:02 | 00:00:00 | |
| IW2NTF | 2026-08-30 10:33:04 | 44.56366 | 7.78568 | 78° | 47km/h | 8186m | 3.3m/s | -25°C | 51% | 0hPa | 2.9V | 08:30:00 | 00:56:52 | 00:00:00 | |
| IW2NTF | 2026-08-30 10:32:54 | 44.56350 | 7.78397 | 82° | 47km/h | 8147m | 3.8m/s | -24.6°C | 50.9% | 0hPa | 2.8V | 08:30:00 | 00:56:42 | 00:00:00 | |
| IW2NTF | 2026-08-30 10:32:44 | 44.56323 | 7.78232 | 78° | 47km/h | 8106m | 3.7m/s | -24.4°C | 54.8% | 0hPa | 2.9V | 08:30:00 | 00:56:32 | 00:00:00 | |
| IW2NTF | 2026-08-30 10:32:34 | 44.56299 | 7.78059 | 77° | 49km/h | 8067m | 3.9m/s | -24.1°C | 48.6% | 0hPa | 2.9V | 08:30:00 | 00:56:22 | 00:00:00 | |
| IW2NTF | 2026-08-30 10:32:25 | 44.56264 | 7.77895 | 75° | 44km/h | 8030m | 3.8m/s | -23.9°C | 47.1% | 0hPa | 2.9V | 08:30:00 | 00:56:12 | 00:00:00 | |
| IW2NTF | 2026-08-30 10:32:14 | 44.56237 | 7.77736 | 75° | 44km/h | 7993m | 3.9m/s | -23.6°C | 51.3% | 0hPa | 2.9V | 08:30:00 | 00:56:02 | 00:00:00 | |
| IW2NTF | 2026-08-30 10:32:04 | 44.56211 | 7.77578 | 77° | 46km/h | 7956m | 2.9m/s | -23.2°C | 54.5% | 0hPa | 2.9V | 08:30:00 | 00:55:52 | 00:00:00 | |
| IW2NTF | 2026-08-30 10:31:54 | 44.56190 | 7.77419 | 79° | 46km/h | 7920m | 4.4m/s | -22.9°C | 56.2% | 0hPa | 2.9V | 08:30:00 | 00:55:42 | 00:00:00 | |
| IW2NTF | 2026-08-30 10:31:44 | 44.56170 | 7.77263 | 79° | 46km/h | 7882m | 4.4m/s | -22.6°C | 50.3% | 0hPa | 2.9V | 08:30:00 | 00:55:32 | 00:00:00 | |
| IW2NTF | 2026-08-30 10:31:34 | 44.56143 | 7.77112 | 80° | 42km/h | 7846m | 2.8m/s | -22.2°C | 33.1% | 0hPa | 2.9V | 08:30:00 | 00:55:22 | 00:00:00 | |
| IW2NTF | 2026-08-30 10:31:24 | 44.56121 | 7.76957 | 75° | 42km/h | 7811m | 3.7m/s | -21.9°C | 16.5% | 0hPa | 2.9V | 08:30:00 | 00:55:12 | 00:00:00 | |
| IW2NTF | 2026-08-30 10:31:16 | 44.56102 | 7.76807 | 81° | 46km/h | 7776m | 4m/s | -21.6°C | 21.2% | 0hPa | 2.8V | 08:30:00 | 00:55:02 | 00:00:00 | |
| IW2NTF | 2026-08-30 10:31:02 | 44.56081 | 7.76625 | 83° | 42km/h | 7736m | 4.2m/s | -21.2°C | 19.8% | 0hPa | 2.9V | 08:30:00 | 00:54:50 | 00:00:00 | |
| IW2NTF | 2026-08-30 10:30:52 | 44.56068 | 7.76474 | 80° | 42km/h | 7701m | 3.1m/s | -20.9°C | 22.9% | 0hPa | 2.9V | 08:30:00 | 00:54:40 | 00:00:00 | |
| IW2NTF | 2026-08-30 10:30:43 | 44.56053 | 7.76328 | 83° | 44km/h | 7667m | 3.1m/s | -20.6°C | 23.6% | 0hPa | 2.9V | 08:30:00 | 00:54:30 | 00:00:00 | |
| IW2NTF | 2026-08-30 10:30:32 | 44.56044 | 7.76179 | 82° | 42km/h | 7633m | 3.4m/s | -20.2°C | 24.2% | 0hPa | 2.9V | 08:30:00 | 00:54:20 | 00:00:00 | |
| IW2NTF | 2026-08-30 10:30:22 | 44.56031 | 7.76031 | 82° | 40km/h | 7601m | 3m/s | -19.9°C | 23.9% | 0hPa | 2.9V | 08:30:00 | 00:54:10 | 00:00:00 | |
| IW2NTF | 2026-08-30 10:30:12 | 44.56021 | 7.75882 | 89° | 40km/h | 7567m | 3.3m/s | -19.6°C | 24.6% | 0hPa | 2.9V | 08:30:00 | 00:54:00 | 00:00:00 | |
| IW2NTF | 2026-08-30 10:30:02 | 44.56010 | 7.75735 | 82° | 42km/h | 7536m | 3.6m/s | -19.3°C | 24.8% | 0hPa | 2.9V | 08:30:00 | 00:53:50 | 00:00:00 | |
| IW2NTF | 2026-08-30 10:29:52 | 44.56005 | 7.75586 | 85° | 42km/h | 7502m | 3.4m/s | -19.1°C | 34.8% | 0hPa | 2.8V | 08:30:00 | 00:53:40 | 00:00:00 | |
| IW2NTF | 2026-08-30 10:29:42 | 44.55995 | 7.75436 | 86° | 44km/h | 7470m | 3m/s | -18.7°C | 34.6% | 0hPa | 2.9V | 08:30:00 | 00:53:30 | 00:00:00 | |
| IW2NTF | 2026-08-30 10:29:32 | 44.55983 | 7.75277 | 86° | 46km/h | 7437m | 4m/s | -18.4°C | 35.3% | 0hPa | 2.8V | 08:30:00 | 00:53:20 | 00:00:00 | |
| IW2NTF | 2026-08-30 10:29:22 | 44.55971 | 7.75120 | 82° | 42km/h | 7403m | 2.7m/s | -18.1°C | 31.1% | 0hPa | 2.9V | 08:30:00 | 00:53:10 | 00:00:00 | |
| IW2NTF | 2026-08-30 10:29:12 | 44.55959 | 7.74963 | 82° | 44km/h | 7371m | 3.9m/s | -17.8°C | 32.7% | 0hPa | 2.9V | 08:30:00 | 00:53:00 | 00:00:00 | |
| IW2NTF | 2026-08-30 10:29:02 | 44.55947 | 7.74800 | 83° | 44km/h | 7339m | 3.5m/s | -17.5°C | 28.2% | 0hPa | 2.9V | 08:30:00 | 00:52:50 | 00:00:00 | |
| IW2NTF | 2026-08-30 10:28:52 | 44.55936 | 7.74640 | 86° | 46km/h | 7307m | 3.6m/s | -17.2°C | 25.8% | 0hPa | 2.9V | 08:30:00 | 00:52:40 | 00:00:00 | |
| IW2NTF | 2026-08-30 10:28:42 | 44.55918 | 7.74482 | 82° | 44km/h | 7276m | 3.7m/s | -17°C | 24% | 0hPa | 2.9V | 08:30:00 | 00:52:30 | 00:00:00 | |
| IW2NTF | 2026-08-30 10:28:32 | 44.55904 | 7.74318 | 80° | 47km/h | 7245m | 3.7m/s | -16.7°C | 24.8% | 0hPa | 2.9V | 08:30:00 | 00:52:20 | 00:00:00 | |
| IW2NTF | 2026-08-30 10:28:22 | 44.55891 | 7.74155 | 83° | 46km/h | 7212m | 3.1m/s | -16.6°C | 22.8% | 0hPa | 2.9V | 08:30:00 | 00:52:10 | 00:00:00 | |
| IW2NTF | 2026-08-30 10:28:12 | 44.55876 | 7.73985 | 81° | 42km/h | 7178m | 4m/s | -16.4°C | 23.7% | 0hPa | 2.9V | 08:30:00 | 00:52:00 | 00:00:00 | |
| IW2NTF | 2026-08-30 10:28:02 | 44.55859 | 7.73830 | 78° | 44km/h | 7142m | 3.8m/s | -16.2°C | 22.2% | 0hPa | 2.9V | 08:30:00 | 00:51:50 | 00:00:00 | |
| IW2NTF | 2026-08-30 10:27:52 | 44.55832 | 7.73685 | 74° | 42km/h | 7109m | 3.7m/s | -16°C | 26.5% | 0hPa | 2.9V | 08:30:00 | 00:51:40 | 00:00:00 | |
| IW2NTF | 2026-08-30 10:27:42 | 44.55803 | 7.73539 | 72° | 40km/h | 7077m | 3m/s | -15.7°C | 8.9% | 0hPa | 2.9V | 08:30:00 | 00:51:30 | 00:00:00 | |
| IW2NTF | 2026-08-30 10:27:32 | 44.55774 | 7.73399 | 74° | 42km/h | 7046m | 3.3m/s | -15.6°C | 11.8% | 0hPa | 2.9V | 08:30:00 | 00:51:20 | 00:00:00 | |
| IW2NTF | 2026-08-30 10:27:22 | 44.55740 | 7.73248 | 72° | 40km/h | 7014m | 3.6m/s | -15.5°C | 14.3% | 0hPa | 2.9V | 08:30:00 | 00:51:10 | 00:00:00 | |
| IW2NTF | 2026-08-30 10:27:12 | 44.55711 | 7.73099 | 77° | 46km/h | 6980m | 3.6m/s | -15.5°C | 35% | 0hPa | 2.9V | 08:30:00 | 00:51:00 | 00:00:00 | |
| IW2NTF | 2026-08-30 10:27:02 | 44.55688 | 7.72934 | 82° | 47km/h | 6945m | 2.5m/s | -15.2°C | 33.8% | 0hPa | 2.9V | 08:30:00 | 00:50:50 | 00:00:00 | |
| IW2NTF | 2026-08-30 10:26:52 | 44.55667 | 7.72768 | 80° | 49km/h | 6912m | 3.8m/s | -15.1°C | 34% | 0hPa | 2.9V | 08:30:00 | 00:50:40 | 00:00:00 | |
| IW2NTF | 2026-08-30 10:26:42 | 44.55648 | 7.72603 | 77° | 46km/h | 6880m | 3.7m/s | -15°C | 35.7% | 0hPa | 2.9V | 08:30:00 | 00:50:30 | 00:00:00 | |
| IW2NTF | 2026-08-30 10:26:32 | 44.55624 | 7.72437 | 81° | 46km/h | 6848m | 3m/s | -15.1°C | 47.4% | 0hPa | 2.9V | 08:30:00 | 00:50:20 | 00:00:00 | |
| IW2NTF | 2026-08-30 10:26:22 | 44.55596 | 7.72270 | 80° | 49km/h | 6815m | 2.7m/s | -15.1°C | 52.7% | 0hPa | 2.9V | 08:30:00 | 00:50:10 | 00:00:00 | |
| IW2NTF | 2026-08-30 10:26:12 | 44.55568 | 7.72106 | 78° | 47km/h | 6783m | 3.2m/s | -14.9°C | 50.5% | 0hPa | 2.9V | 08:30:00 | 00:50:00 | 00:00:00 | |
| IW2NTF | 2026-08-30 10:26:02 | 44.55553 | 7.71942 | 84° | 46km/h | 6748m | 4m/s | -14.6°C | 50.4% | 0hPa | 2.9V | 08:30:00 | 00:49:50 | 00:00:00 | |
| IW2NTF | 2026-08-30 10:25:52 | 44.55542 | 7.71791 | 80° | 44km/h | 6712m | 4.3m/s | -14.3°C | 52.1% | 0hPa | 2.9V | 08:30:00 | 00:49:40 | 00:00:00 | |
| IW2NTF | 2026-08-30 10:25:42 | 44.55520 | 7.71625 | 83° | 46km/h | 6668m | 4.9m/s | -14.1°C | 54.8% | 0hPa | 2.9V | 08:30:00 | 00:49:30 | 00:00:00 | |
| IW2NTF | 2026-08-30 10:25:32 | 44.55500 | 7.71474 | 76° | 46km/h | 6616m | 5.5m/s | -13.6°C | 54.2% | 0hPa | 2.9V | 08:30:00 | 00:49:20 | 00:00:00 | |
| IW2NTF | 2026-08-30 10:25:22 | 44.55476 | 7.71335 | 87° | 44km/h | 6569m | 4.1m/s | -13.2°C | 52.9% | 0hPa | 2.9V | 08:30:00 | 00:49:10 | 00:00:00 | |
| IW2NTF | 2026-08-30 10:25:12 | 44.55450 | 7.71199 | 71° | 51km/h | 6525m | 5.3m/s | -12.9°C | 51.3% | 0hPa | 2.9V | 08:30:00 | 00:49:00 | 00:00:00 | |
| IW2NTF | 2026-08-30 10:25:02 | 44.55435 | 7.71043 | 86° | 40km/h | 6474m | 4.3m/s | -12.4°C | 48.9% | 0hPa | 2.9V | 08:30:00 | 00:48:50 | 00:00:00 | |
| IW2NTF | 2026-08-30 10:24:52 | 44.55415 | 7.70896 | 71° | 44km/h | 6430m | 5.1m/s | -12.1°C | 45.6% | 0hPa | 2.9V | 08:30:00 | 00:48:40 | 00:00:00 | |
| IW2NTF | 2026-08-30 10:24:42 | 44.55396 | 7.70759 | 85° | 38km/h | 6387m | 5.2m/s | -11.7°C | 43.1% | 0hPa | 2.9V | 08:30:00 | 00:48:30 | 00:00:00 | |
| IW2NTF | 2026-08-30 10:24:32 | 44.55374 | 7.70622 | 77° | 31km/h | 6342m | 4m/s | -11.3°C | 48.9% | 0hPa | 2.9V | 08:30:00 | 00:48:20 | 00:00:00 | |
| IW2NTF | 2026-08-30 10:24:22 | 44.55347 | 7.70487 | 83° | 44km/h | 6292m | 6m/s | -10.9°C | 44.9% | 0hPa | 2.9V | 08:30:00 | 00:48:10 | 00:00:00 | |
| IW2NTF | 2026-08-30 10:24:12 | 44.55328 | 7.70348 | 72° | 42km/h | 6251m | 3.8m/s | -10.6°C | 49.9% | 0hPa | 2.9V | 08:30:00 | 00:48:00 | 00:00:00 | |
| IW2NTF | 2026-08-30 10:24:02 | 44.55301 | 7.70216 | 73° | 33km/h | 6210m | 4.3m/s | -10.2°C | 48.5% | 0hPa | 2.9V | 08:30:00 | 00:47:50 | 00:00:00 | |
| IW2NTF | 2026-08-30 10:23:52 | 44.55282 | 7.70082 | 86° | 27km/h | 6162m | 4m/s | -9.7°C | 47.2% | 0hPa | 2.9V | 08:30:00 | 00:47:40 | 00:00:00 | |
| IW2NTF | 2026-08-30 10:23:42 | 44.55268 | 7.69964 | 82° | 35km/h | 6112m | 5.6m/s | -9.3°C | 42% | 0hPa | 2.9V | 08:30:00 | 00:47:30 | 00:00:00 | |
| IW2NTF | 2026-08-30 10:23:32 | 44.55254 | 7.69829 | 84° | 42km/h | 6068m | 4.9m/s | -8.8°C | 27.9% | 0hPa | 2.9V | 08:30:00 | 00:47:20 | 00:00:00 | |
| IW2NTF | 2026-08-30 10:23:22 | 44.55246 | 7.69689 | 89° | 38km/h | 6022m | 4.9m/s | -8.4°C | 23.1% | 0hPa | 2.9V | 08:30:00 | 00:47:10 | 00:00:00 | |
| IW2NTF | 2026-08-30 10:23:12 | 44.55242 | 7.69556 | 83° | 38km/h | 5979m | 4m/s | -8.2°C | 19% | 0hPa | 3V | 08:30:00 | 00:47:00 | 00:00:00 | |
| IW2NTF | 2026-08-30 10:23:02 | 44.55236 | 7.69425 | 83° | 37km/h | 5933m | 5.6m/s | -8°C | 13.3% | 0hPa | 3V | 08:30:00 | 00:46:50 | 00:00:00 | |
| IW2NTF | 2026-08-30 10:22:52 | 44.55215 | 7.69295 | 82° | 40km/h | 5893m | 4m/s | -7.8°C | 16.2% | 0hPa | 2.9V | 08:30:00 | 00:46:40 | 00:00:00 | |
| IW2NTF | 2026-08-30 10:22:42 | 44.55194 | 7.69170 | 79° | 35km/h | 5850m | 3.4m/s | -7.5°C | 15.2% | 0hPa | 3V | 08:30:00 | 00:46:30 | 00:00:00 | |
| IW2NTF | 2026-08-30 10:22:32 | 44.55165 | 7.69041 | 66° | 37km/h | 5813m | 3.3m/s | -7.1°C | 14.8% | 0hPa | 3V | 08:30:00 | 00:46:20 | 00:00:00 | |
| IW2NTF | 2026-08-30 10:22:22 | 44.55129 | 7.68904 | 70° | 42km/h | 5775m | 3.7m/s | -6.9°C | 11.7% | 0hPa | 2.9V | 08:30:00 | 00:46:10 | 00:00:00 | |
| IW2NTF | 2026-08-30 10:22:12 | 44.55098 | 7.68769 | 67° | 44km/h | 5736m | 4.8m/s | -6.6°C | 9.7% | 0hPa | 3V | 08:30:00 | 00:46:00 | 00:00:00 | |
| IW2NTF | 2026-08-30 10:22:02 | 44.55065 | 7.68630 | 69° | 40km/h | 5696m | 5.2m/s | -6.5°C | 11.2% | 0hPa | 3V | 08:30:00 | 00:45:50 | 00:00:00 | |
| IW2NTF | 2026-08-30 10:21:50 | 44.55026 | 7.68464 | 71° | 46km/h | 5645m | 6.1m/s | -6.3°C | 11.1% | 0hPa | 2.9V | 08:30:00 | 00:45:38 | 00:00:00 | |
| IW2NTF | 2026-08-30 10:21:40 | 44.54995 | 7.68321 | 70° | 42km/h | 5602m | 3m/s | -6.2°C | 10% | 0hPa | 3V | 08:30:00 | 00:45:28 | 00:00:00 | |
| IW2NTF | 2026-08-30 10:21:30 | 44.54956 | 7.68184 | 62° | 40km/h | 5562m | 3.3m/s | -6.1°C | 8% | 0hPa | 3V | 08:30:00 | 00:45:18 | 00:00:00 | |
| IW2NTF | 2026-08-30 10:21:20 | 44.54920 | 7.68054 | 70° | 38km/h | 5523m | 5.2m/s | -5.9°C | 7.3% | 0hPa | 2.9V | 08:30:00 | 00:45:08 | 00:00:00 | |
| IW2NTF | 2026-08-30 10:21:10 | 44.54884 | 7.67942 | 72° | 38km/h | 5483m | 4.5m/s | -5.6°C | 7.2% | 0hPa | 3V | 08:30:00 | 00:44:58 | 00:00:00 | |
| IW2NTF | 2026-08-30 10:21:00 | 44.54853 | 7.67828 | 65° | 33km/h | 5444m | 4.7m/s | -5.4°C | 7.4% | 0hPa | 3V | 08:30:00 | 00:44:48 | 00:00:00 | |
| IW2NTF | 2026-08-30 10:20:50 | 44.54830 | 7.67721 | 68° | 31km/h | 5406m | 4.6m/s | -5.3°C | 7.7% | 0hPa | 3V | 08:30:00 | 00:44:38 | 00:00:00 | |
| IW2NTF | 2026-08-30 10:20:40 | 44.54804 | 7.67618 | 76° | 29km/h | 5366m | 3.4m/s | -5.2°C | 8.8% | 0hPa | 3V | 08:30:00 | 00:44:28 | 00:00:00 | |
| IW2NTF | 2026-08-30 10:20:30 | 44.54781 | 7.67522 | 66° | 27km/h | 5326m | 4.8m/s | -4.9°C | 8.5% | 0hPa | 3V | 08:30:00 | 00:44:18 | 00:00:00 | |
| IW2NTF | 2026-08-30 10:20:20 | 44.54756 | 7.67431 | 70° | 27km/h | 5288m | 4.2m/s | -4.8°C | 8.7% | 0hPa | 3V | 08:30:00 | 00:44:08 | 00:00:00 | |
| IW2NTF | 2026-08-30 10:20:10 | 44.54739 | 7.67340 | 74° | 26km/h | 5245m | 4.6m/s | -4.8°C | 9.6% | 0hPa | 3V | 08:30:00 | 00:43:58 | 00:00:00 | |
| IW2NTF | 2026-08-30 10:20:00 | 44.54730 | 7.67248 | 81° | 24km/h | 5207m | 3.9m/s | -4.7°C | 10.3% | 0hPa | 3V | 08:30:00 | 00:43:48 | 00:00:00 | |
| IW2NTF | 2026-08-30 10:19:50 | 44.54719 | 7.67154 | 81° | 31km/h | 5169m | 3.2m/s | -4.6°C | 10.5% | 0hPa | 2.9V | 08:30:00 | 00:43:38 | 00:00:00 | |
| IW2NTF | 2026-08-30 10:19:40 | 44.54697 | 7.67048 | 77° | 33km/h | 5132m | 3m/s | -4.4°C | 10.4% | 0hPa | 3V | 08:30:00 | 00:43:28 | 00:00:00 | |
| IW2NTF | 2026-08-30 10:19:30 | 44.54674 | 7.66931 | 70° | 35km/h | 5094m | 4.4m/s | -4.2°C | 10.5% | 0hPa | 3V | 08:30:00 | 00:43:18 | 00:00:00 | |
| IW2NTF | 2026-08-30 10:19:20 | 44.54645 | 7.66811 | 73° | 37km/h | 5058m | 3.2m/s | -3.9°C | 10.5% | 0hPa | 3V | 08:30:00 | 00:43:08 | 00:00:00 | |
| IW2NTF | 2026-08-30 10:19:10 | 44.54618 | 7.66691 | 67° | 35km/h | 5020m | 2.9m/s | -3.6°C | 10.5% | 0hPa | 3V | 08:30:00 | 00:42:58 | 00:00:00 | |
| IW2NTF | 2026-08-30 10:19:00 | 44.54594 | 7.66574 | 69° | 33km/h | 4985m | 3.9m/s | -3.4°C | 10.6% | 0hPa | 3V | 08:30:00 | 00:42:48 | 00:00:00 | |
| IW2NTF | 2026-08-30 10:18:54 | 44.54576 | 7.66502 | 71° | 37km/h | 4962m | 3.6m/s | -3.2°C | 10.4% | 0hPa | 3V | 08:30:00 | 00:42:42 | 00:00:00 | |
| IW2NTF | 2026-08-30 10:18:48 | 44.54559 | 7.66430 | 71° | 33km/h | 4941m | 3.7m/s | -3°C | 10.8% | 0hPa | 3V | 08:30:00 | 00:42:36 | 00:00:00 | |
| IW2NTF | 2026-08-30 10:18:42 | 44.54542 | 7.66360 | 72° | 37km/h | 4920m | 3.8m/s | -2.9°C | 10.7% | 0hPa | 3V | 08:30:00 | 00:42:30 | 00:00:00 | |
| IW2NTF | 2026-08-30 10:18:36 | 44.54526 | 7.66289 | 69° | 33km/h | 4898m | 3.7m/s | -2.7°C | 10.7% | 0hPa | 3V | 08:30:00 | 00:42:24 | 00:00:00 | |
| IW2NTF | 2026-08-30 10:18:30 | 44.54509 | 7.66222 | 70° | 33km/h | 4878m | 2.5m/s | -2.6°C | 11.1% | 0hPa | 3V | 08:30:00 | 00:42:18 | 00:00:00 | |
| IW2NTF | 2026-08-30 10:18:24 | 44.54496 | 7.66151 | 73° | 35km/h | 4859m | 2.6m/s | -2.5°C | 11% | 0hPa | 3V | 08:30:00 | 00:42:12 | 00:00:00 | |
| IW2NTF | 2026-08-30 10:18:18 | 44.54480 | 7.66077 | 75° | 35km/h | 4839m | 3.4m/s | -2.4°C | 11% | 0hPa | 3V | 08:30:00 | 00:42:06 | 00:00:00 | |
| IW2NTF | 2026-08-30 10:18:12 | 44.54468 | 7.66009 | 78° | 33km/h | 4820m | 2.9m/s | -2.2°C | 11.1% | 0hPa | 3V | 08:30:00 | 00:42:00 | 00:00:00 | |
| IW2NTF | 2026-08-30 10:18:06 | 44.54457 | 7.65939 | 74° | 33km/h | 4801m | 2.9m/s | -2.3°C | 11.5% | 0hPa | 3V | 08:30:00 | 00:41:54 | 00:00:00 | |
| IW2NTF | 2026-08-30 10:18:00 | 44.54446 | 7.65869 | 84° | 31km/h | 4784m | 2.5m/s | -2.1°C | 11.6% | 0hPa | 3V | 08:30:00 | 00:41:48 | 00:00:00 | |
| IW2NTF | 2026-08-30 10:17:54 | 44.54441 | 7.65800 | 81° | 33km/h | 4766m | 3.7m/s | -2.1°C | 11.4% | 0hPa | 3V | 08:30:00 | 00:41:42 | 00:00:00 | |
| IW2NTF | 2026-08-30 10:17:48 | 44.54433 | 7.65730 | 81° | 33km/h | 4747m | 2.8m/s | -2°C | 10.7% | 0hPa | 3V | 08:30:00 | 00:41:36 | 00:00:00 | |
| IW2NTF | 2026-08-30 10:17:42 | 44.54424 | 7.65663 | 79° | 33km/h | 4729m | 2.7m/s | -1.9°C | 11.2% | 0hPa | 3V | 08:30:00 | 00:41:30 | 00:00:00 | |
| IW2NTF | 2026-08-30 10:17:36 | 44.54416 | 7.65598 | 84° | 29km/h | 4711m | 2.8m/s | -1.9°C | 11% | 0hPa | 3V | 08:30:00 | 00:41:24 | 00:00:00 | |
| IW2NTF | 2026-08-30 10:17:30 | 44.54412 | 7.65535 | 81° | 27km/h | 4693m | 2.8m/s | -1.9°C | 11% | 0hPa | 3V | 08:30:00 | 00:41:18 | 00:00:00 | |
| IW2NTF | 2026-08-30 10:17:24 | 44.54410 | 7.65475 | 91° | 27km/h | 4674m | 3.4m/s | -1.8°C | 11% | 0hPa | 3V | 08:30:00 | 00:41:12 | 00:00:00 | |
| IW2NTF | 2026-08-30 10:17:18 | 44.54406 | 7.65415 | 78° | 31km/h | 4656m | 3.5m/s | -1.7°C | 11.3% | 0hPa | 3V | 08:30:00 | 00:41:06 | 00:00:00 | |
| IW2NTF | 2026-08-30 10:17:12 | 44.54399 | 7.65350 | 80° | 31km/h | 4636m | 3.5m/s | -1.6°C | 11.4% | 0hPa | 3V | 08:30:00 | 00:41:00 | 00:00:00 | |
| IW2NTF | 2026-08-30 10:17:06 | 44.54393 | 7.65281 | 81° | 31km/h | 4618m | 3m/s | -1.5°C | 11.8% | 0hPa | 3V | 08:30:00 | 00:40:54 | 00:00:00 | |
| IW2NTF | 2026-08-30 10:17:00 | 44.54386 | 7.65209 | 75° | 35km/h | 4599m | 2.8m/s | -1.4°C | 12.2% | 0hPa | 3V | 08:30:00 | 00:40:48 | 00:00:00 | |
| IW2NTF | 2026-08-30 10:16:54 | 44.54376 | 7.65136 | 82° | 33km/h | 4582m | 2.5m/s | -1.3°C | 12% | 0hPa | 3V | 08:30:00 | 00:40:42 | 00:00:00 | |
| IW2NTF | 2026-08-30 10:16:48 | 44.54374 | 7.65063 | 84° | 35km/h | 4565m | 2.1m/s | -1.3°C | 12.1% | 0hPa | 3V | 08:30:00 | 00:40:36 | 00:00:00 | |
| IW2NTF | 2026-08-30 10:16:42 | 44.54368 | 7.64989 | 85° | 37km/h | 4547m | 3.1m/s | -1.2°C | 11.6% | 0hPa | 3V | 08:30:00 | 00:40:30 | 00:00:00 | |
| IW2NTF | 2026-08-30 10:16:36 | 44.54363 | 7.64913 | 85° | 38km/h | 4530m | 2.6m/s | -1.1°C | 11.4% | 0hPa | 3V | 08:30:00 | 00:40:24 | 00:00:00 | |
| IW2NTF | 2026-08-30 10:16:30 | 44.54364 | 7.64831 | 84° | 37km/h | 4509m | 4m/s | -1.1°C | 11.5% | 0hPa | 3V | 08:30:00 | 00:40:18 | 00:00:00 | |
| IW2NTF | 2026-08-30 10:16:24 | 44.54364 | 7.64758 | 90° | 35km/h | 4487m | 4.2m/s | -1.2°C | 20.5% | 0hPa | 3V | 08:30:00 | 00:40:12 | 00:00:00 | |
| IW2NTF | 2026-08-30 10:16:18 | 44.54366 | 7.64681 | 86° | 35km/h | 4468m | 2.7m/s | -1.2°C | 29% | 0hPa | 3V | 08:30:00 | 00:40:06 | 00:00:00 | |
| IW2NTF | 2026-08-30 10:16:12 | 44.54360 | 7.64608 | 89° | 35km/h | 4449m | 4.8m/s | -1.3°C | 41.8% | 0hPa | 3V | 08:30:00 | 00:40:00 | 00:00:00 | |
| IW2NTF | 2026-08-30 10:16:06 | 44.54358 | 7.64540 | 84° | 35km/h | 4428m | 3.3m/s | -1.2°C | 49.3% | 0hPa | 3V | 08:30:00 | 00:39:54 | 00:00:00 | |
| IW2NTF | 2026-08-30 10:16:00 | 44.54346 | 7.64478 | 74° | 27km/h | 4409m | 3.2m/s | -1.1°C | 48.2% | 0hPa | 3V | 08:30:00 | 00:39:48 | 00:00:00 | |
| IW2NTF | 2026-08-30 10:15:54 | 44.54335 | 7.64413 | 80° | 33km/h | 4391m | 3.5m/s | -1.2°C | 48.5% | 0hPa | 3V | 08:30:00 | 00:39:42 | 00:00:00 | |
| IW2NTF | 2026-08-30 10:15:48 | 44.54325 | 7.64351 | 74° | 27km/h | 4371m | 3.2m/s | -1.3°C | 53.5% | 0hPa | 3V | 08:30:00 | 00:39:36 | 00:00:00 | |
| IW2NTF | 2026-08-30 10:15:42 | 44.54316 | 7.64302 | 70° | 26km/h | 4349m | 3.5m/s | -1.2°C | 57.7% | 0hPa | 3V | 08:30:00 | 00:39:30 | 00:00:00 | |
| IW2NTF | 2026-08-30 10:15:36 | 44.54305 | 7.64259 | 70° | 18km/h | 4328m | 4.7m/s | -1.1°C | 62.1% | 0hPa | 3V | 08:30:00 | 00:39:24 | 00:00:00 | |
| IW2NTF | 2026-08-30 10:15:30 | 44.54296 | 7.64223 | 70° | 18km/h | 4307m | 2.9m/s | -0.9°C | 65.6% | 0hPa | 3V | 08:30:00 | 00:39:18 | 00:00:00 | |
| IW2NTF | 2026-08-30 10:15:24 | 44.54285 | 7.64192 | 62° | 16km/h | 4287m | 4m/s | -0.8°C | 65.3% | 0hPa | 3V | 08:30:00 | 00:39:12 | 00:00:00 | |
| IW2NTF | 2026-08-30 10:15:18 | 44.54275 | 7.64155 | 72° | 18km/h | 4267m | 2.7m/s | -0.7°C | 63.7% | 0hPa | 3V | 08:30:00 | 00:39:06 | 00:00:00 | |
| IW2NTF | 2026-08-30 10:15:12 | 44.54266 | 7.64123 | 58° | 13km/h | 4246m | 3.8m/s | -0.6°C | 60.2% | 0hPa | 3V | 08:30:00 | 00:39:00 | 00:00:00 | |
| IW2NTF | 2026-08-30 10:15:06 | 44.54256 | 7.64095 | 52° | 20km/h | 4223m | 4.1m/s | -0.4°C | 57.5% | 0hPa | 3V | 08:30:00 | 00:38:54 | 00:00:00 | |
| IW2NTF | 2026-08-30 10:15:00 | 44.54244 | 7.64062 | 55° | 11km/h | 4201m | 2.9m/s | -0.2°C | 54.4% | 0hPa | 3V | 08:30:00 | 00:38:48 | 00:00:00 | |
| IW2NTF | 2026-08-30 10:14:54 | 44.54230 | 7.64034 | 57° | 18km/h | 4176m | 4.5m/s | 0°C | 52.2% | 0hPa | 3V | 08:30:00 | 00:38:42 | 00:00:00 | |
| IW2NTF | 2026-08-30 10:14:48 | 44.54222 | 7.64005 | 53° | 15km/h | 4151m | 5.2m/s | 0.2°C | 50.8% | 0hPa | 3V | 08:30:00 | 00:38:36 | 00:00:00 | |
| IW2NTF | 2026-08-30 10:14:42 | 44.54207 | 7.63971 | 80° | 20km/h | 4128m | 3.9m/s | 0.4°C | 48.9% | 0hPa | 3V | 08:30:00 | 00:38:30 | 00:00:00 | |
| IW2NTF | 2026-08-30 10:14:36 | 44.54201 | 7.63929 | 72° | 20km/h | 4103m | 2.8m/s | 0.6°C | 47.1% | 0hPa | 3V | 08:30:00 | 00:38:24 | 00:00:00 | |
| IW2NTF | 2026-08-30 10:14:30 | 44.54189 | 7.63886 | 80° | 20km/h | 4084m | 3.3m/s | 0.8°C | 46% | 0hPa | 3V | 08:30:00 | 00:38:18 | 00:00:00 | |
| IW2NTF | 2026-08-30 10:14:24 | 44.54185 | 7.63848 | 75° | 18km/h | 4063m | 3.7m/s | 0.9°C | 45.7% | 0hPa | 3V | 08:30:00 | 00:38:12 | 00:00:00 | |
| IW2NTF | 2026-08-30 10:14:18 | 44.54179 | 7.63802 | 73° | 22km/h | 4041m | 2.7m/s | 1.1°C | 46.7% | 0hPa | 3V | 08:30:00 | 00:38:06 | 00:00:00 | |
| IW2NTF | 2026-08-30 10:14:12 | 44.54176 | 7.63755 | 85° | 24km/h | 4021m | 2.8m/s | 1.2°C | 47.2% | 0hPa | 3V | 08:30:00 | 00:38:00 | 00:00:00 | |
| IW2NTF | 2026-08-30 10:14:06 | 44.54174 | 7.63707 | 85° | 22km/h | 4000m | 3.3m/s | 1.3°C | 47.2% | 0hPa | 3V | 08:30:00 | 00:37:54 | 00:00:00 | |
| IW2NTF | 2026-08-30 10:13:58 | 44.54172 | 7.63637 | 83° | 27km/h | 3974m | 2.9m/s | 1.4°C | 48.2% | 0hPa | 3V | 08:30:00 | 00:37:46 | 00:00:00 | |
| IW2NTF | 2026-08-30 10:13:52 | 44.54176 | 7.63585 | 99° | 22km/h | 3953m | 3.7m/s | 1.6°C | 48.6% | 0hPa | 3V | 08:30:00 | 00:37:40 | 00:00:00 | |
| IW2NTF | 2026-08-30 10:13:46 | 44.54177 | 7.63532 | 85° | 29km/h | 3933m | 3.3m/s | 1.7°C | 49.3% | 0hPa | 3V | 08:30:00 | 00:37:34 | 00:00:00 | |
| IW2NTF | 2026-08-30 10:13:40 | 44.54182 | 7.63474 | 100° | 24km/h | 3912m | 3.7m/s | 1.8°C | 50.8% | 0hPa | 3V | 08:30:00 | 00:37:28 | 00:00:00 | |
| IW2NTF | 2026-08-30 10:13:34 | 44.54189 | 7.63416 | 99° | 29km/h | 3891m | 3.4m/s | 1.9°C | 51.4% | 0hPa | 3V | 08:30:00 | 00:37:22 | 00:00:00 | |
| IW2NTF | 2026-08-30 10:13:28 | 44.54197 | 7.63356 | 92° | 26km/h | 3871m | 3.1m/s | 2.1°C | 51.2% | 0hPa | 3V | 08:30:00 | 00:37:16 | 00:00:00 | |
| IW2NTF | 2026-08-30 10:13:22 | 44.54198 | 7.63290 | 86° | 31km/h | 3850m | 3.8m/s | 2.3°C | 50.8% | 0hPa | 3V | 08:30:00 | 00:37:10 | 00:00:00 | |
| IW2NTF | 2026-08-30 10:13:16 | 44.54200 | 7.63228 | 99° | 27km/h | 3829m | 3m/s | 2.5°C | 50.7% | 0hPa | 3V | 08:30:00 | 00:37:04 | 00:00:00 | |
| IW2NTF | 2026-08-30 10:13:10 | 44.54205 | 7.63163 | 98° | 27km/h | 3809m | 4.1m/s | 2.7°C | 50.8% | 0hPa | 3V | 08:30:00 | 00:36:58 | 00:00:00 | |
| IW2NTF | 2026-08-30 10:13:04 | 44.54206 | 7.63106 | 87° | 27km/h | 3788m | 4.1m/s | 2.9°C | 50.3% | 0hPa | 3V | 08:30:00 | 00:36:52 | 00:00:00 | |
| IW2NTF | 2026-08-30 10:12:58 | 44.54206 | 7.63045 | 94° | 27km/h | 3765m | 3.5m/s | 3.1°C | 49.9% | 0hPa | 3V | 08:30:00 | 00:36:46 | 00:00:00 | |
| IW2NTF | 2026-08-30 10:12:52 | 44.54205 | 7.62991 | 96° | 33km/h | 3739m | 4.7m/s | 3.3°C | 49.2% | 0hPa | 3V | 08:30:00 | 00:36:40 | 00:00:00 | |
| IW2NTF | 2026-08-30 10:12:46 | 44.54205 | 7.62931 | 91° | 24km/h | 3708m | 5.2m/s | 3.6°C | 48.2% | 0hPa | 3V | 08:30:00 | 00:36:34 | 00:00:00 | |
| IW2NTF | 2026-08-30 10:12:40 | 44.54203 | 7.62883 | 93° | 27km/h | 3680m | 4m/s | 3.9°C | 48.4% | 0hPa | 3V | 08:30:00 | 00:36:28 | 00:00:00 | |
| IW2NTF | 2026-08-30 10:12:34 | 44.54210 | 7.62814 | 98° | 33km/h | 3651m | 6.7m/s | 4.2°C | 47.9% | 0hPa | 3V | 08:30:00 | 00:36:22 | 00:00:00 | |
| IW2NTF | 2026-08-30 10:12:28 | 44.54217 | 7.62759 | 102° | 22km/h | 3617m | 4.4m/s | 4.4°C | 47.8% | 0hPa | 3V | 08:30:00 | 00:36:16 | 00:00:00 | |
| IW2NTF | 2026-08-30 10:12:22 | 44.54221 | 7.62704 | 80° | 26km/h | 3584m | 7.3m/s | 4.7°C | 46.6% | 0hPa | 3V | 08:30:00 | 00:36:10 | 00:00:00 | |
| IW2NTF | 2026-08-30 10:12:16 | 44.54210 | 7.62652 | 92° | 27km/h | 3554m | 4.7m/s | 5°C | 46.1% | 0hPa | 3V | 08:30:00 | 00:36:04 | 00:00:00 | |
| IW2NTF | 2026-08-30 10:12:10 | 44.54212 | 7.62607 | 79° | 22km/h | 3526m | 6.2m/s | 5.3°C | 45.7% | 0hPa | 3V | 08:30:00 | 00:35:58 | 00:00:00 | |
| IW2NTF | 2026-08-30 10:12:04 | 44.54204 | 7.62561 | 80° | 18km/h | 3491m | 6.4m/s | 5.5°C | 46.7% | 0hPa | 3V | 08:30:00 | 00:35:52 | 00:00:00 | |
| IW2NTF | 2026-08-30 10:11:58 | 44.54199 | 7.62527 | 88° | 13km/h | 3459m | 8m/s | 5.8°C | 47.4% | 0hPa | 3V | 08:30:00 | 00:35:46 | 00:00:00 | |
| IW2NTF | 2026-08-30 10:11:52 | 44.54199 | 7.62478 | 95° | 26km/h | 3426m | 4.8m/s | 5.9°C | 49.5% | 0hPa | 3V | 08:30:00 | 00:35:40 | 00:00:00 | |
| IW2NTF | 2026-08-30 10:11:46 | 44.54197 | 7.62436 | 76° | 16km/h | 3391m | 7.2m/s | 6.1°C | 50.5% | 0hPa | 3V | 08:30:00 | 00:35:34 | 00:00:00 | |
| IW2NTF | 2026-08-30 10:11:40 | 44.54190 | 7.62392 | 71° | 24km/h | 3359m | 3.9m/s | 6.3°C | 51.9% | 0hPa | 3V | 08:30:00 | 00:35:28 | 00:00:00 | |
| IW2NTF | 2026-08-30 10:11:34 | 44.54192 | 7.62351 | 100° | 15km/h | 3333m | 3.4m/s | 6.5°C | 51.8% | 0hPa | 3V | 08:30:00 | 00:35:22 | 00:00:00 | |
| IW2NTF | 2026-08-30 10:11:28 | 44.54186 | 7.62298 | 78° | 31km/h | 3303m | 5.1m/s | 6.8°C | 51.7% | 0hPa | 3V | 08:30:00 | 00:35:16 | 00:00:00 | |
| IW2NTF | 2026-08-30 10:11:22 | 44.54176 | 7.62251 | 73° | 16km/h | 3271m | 6.7m/s | 7°C | 51.4% | 0hPa | 3V | 08:30:00 | 00:35:10 | 00:00:00 | |
| IW2NTF | 2026-08-30 10:11:14 | 44.54173 | 7.62194 | 92° | 26km/h | 3227m | 6.5m/s | 7.4°C | 52.2% | 0hPa | 3V | 08:30:00 | 00:35:02 | 00:00:00 | |
| IW2NTF | 2026-08-30 10:11:08 | 44.54162 | 7.62151 | 57° | 22km/h | 3195m | 4.8m/s | 7.7°C | 51.3% | 0hPa | 3V | 08:30:00 | 00:34:56 | 00:00:00 | |
| IW2NTF | 2026-08-30 10:11:02 | 44.54145 | 7.62100 | 57° | 22km/h | 3167m | 5.4m/s | 7.9°C | 51.2% | 0hPa | 3V | 08:30:00 | 00:34:50 | 00:00:00 | |
| IW2NTF | 2026-08-30 10:10:56 | 44.54136 | 7.62059 | 89° | 24km/h | 3134m | 4.6m/s | 8.2°C | 50.3% | 0hPa | 3V | 08:30:00 | 00:34:44 | 00:00:00 | |
| IW2NTF | 2026-08-30 10:10:50 | 44.54134 | 7.62008 | 74° | 15km/h | 3106m | 5.8m/s | 8.5°C | 49.2% | 0hPa | 3V | 08:30:00 | 00:34:38 | 00:00:00 | |
| IW2NTF | 2026-08-30 10:10:44 | 44.54127 | 7.61976 | 81° | 24km/h | 3075m | 6m/s | 8.7°C | 48.6% | 0hPa | 3V | 08:30:00 | 00:34:32 | 00:00:00 | |
| IW2NTF | 2026-08-30 10:10:38 | 44.54116 | 7.61933 | 71° | 16km/h | 3047m | 4.7m/s | 9°C | 48% | 0hPa | 3V | 08:30:00 | 00:34:26 | 00:00:00 | |
| IW2NTF | 2026-08-30 10:10:32 | 44.54111 | 7.61890 | 64° | 22km/h | 3018m | 4.9m/s | 9.3°C | 47.8% | 0hPa | 3V | 08:30:00 | 00:34:20 | 00:00:00 | |
| IW2NTF | 2026-08-30 10:10:26 | 44.54098 | 7.61856 | 77° | 20km/h | 2989m | 6.4m/s | 9.5°C | 47.1% | 0hPa | 3V | 08:30:00 | 00:34:14 | 00:00:00 | |
| IW2NTF | 2026-08-30 10:10:20 | 44.54087 | 7.61808 | 70° | 20km/h | 2961m | 3.9m/s | 9.7°C | 46.1% | 0hPa | 3V | 08:30:00 | 00:34:08 | 00:00:00 | |
| IW2NTF | 2026-08-30 10:10:12 | 44.54072 | 7.61759 | 70° | 18km/h | 2930m | 4.6m/s | 9.9°C | 45.2% | 0hPa | 3V | 08:30:00 | 00:34:00 | 00:00:00 | |
| IW2NTF | 2026-08-30 10:10:06 | 44.54059 | 7.61722 | 58° | 16km/h | 2902m | 4.6m/s | 10.1°C | 44.7% | 0hPa | 3V | 08:30:00 | 00:33:54 | 00:00:00 | |
| IW2NTF | 2026-08-30 10:10:00 | 44.54044 | 7.61682 | 61° | 18km/h | 2879m | 4m/s | 10.2°C | 44.5% | 0hPa | 3V | 08:30:00 | 00:33:48 | 00:00:00 | |
| IW2NTF | 2026-08-30 10:09:54 | 44.54032 | 7.61640 | 59° | 22km/h | 2854m | 4.3m/s | 10.4°C | 44.4% | 0hPa | 3V | 08:30:00 | 00:33:42 | 00:00:00 | |
| IW2NTF | 2026-08-30 10:09:48 | 44.54016 | 7.61600 | 72° | 20km/h | 2831m | 4m/s | 10.5°C | 44% | 0hPa | 3V | 08:30:00 | 00:33:36 | 00:00:00 | |
| IW2NTF | 2026-08-30 10:09:42 | 44.54004 | 7.61552 | 68° | 22km/h | 2810m | 3.9m/s | 10.7°C | 43.8% | 0hPa | 3V | 08:30:00 | 00:33:30 | 00:00:00 | |
| IW2NTF | 2026-08-30 10:09:35 | 44.53983 | 7.61503 | 61° | 26km/h | 2786m | 4.1m/s | 10.9°C | 43.9% | 0hPa | 3V | 08:30:00 | 00:33:23 | 00:00:00 | |
| IW2NTF | 2026-08-30 10:09:29 | 44.53968 | 7.61455 | 67° | 24km/h | 2768m | 2.9m/s | 11°C | 44.1% | 0hPa | 3V | 08:30:00 | 00:33:17 | 00:00:00 | |
| IW2NTF | 2026-08-30 10:09:23 | 44.53950 | 7.61404 | 63° | 26km/h | 2750m | 3.7m/s | 11°C | 43.7% | 0hPa | 3V | 08:30:00 | 00:33:11 | 00:00:00 | |
| IW2NTF | 2026-08-30 10:09:17 | 44.53931 | 7.61360 | 65° | 26km/h | 2733m | 4.1m/s | 11°C | 42.1% | 0hPa | 3V | 00:00:00 | 00:33:05 | 00:00:00 | |
| IW2NTF | 2026-08-30 10:09:11 | 44.53916 | 7.61314 | 58° | 22km/h | 2716m | 2.5m/s | 11.1°C | 39.8% | 0hPa | 3V | 00:00:00 | 00:32:59 | 00:00:00 | |
| IW2NTF | 2026-08-30 10:09:05 | 44.53896 | 7.61264 | 70° | 29km/h | 2700m | 3.1m/s | 11°C | 38.5% | 0hPa | 3V | 00:00:00 | 00:32:53 | 00:00:00 | |
| IW2NTF | 2026-08-30 10:09:00 | 44.53876 | 7.61205 | 54° | 24km/h | 2683m | 3.2m/s | 10.8°C | 39.6% | 0hPa | 3V | 00:00:00 | 00:32:47 | 00:00:00 | |
| IW2NTF | 2026-08-30 10:08:53 | 44.53846 | 7.61170 | 41° | 31km/h | 2664m | 4.9m/s | 10.6°C | 41.5% | 0hPa | 3V | 00:00:00 | 00:32:41 | 00:00:00 | |
| IW2NTF | 2026-08-30 10:08:47 | 44.53823 | 7.61112 | 87° | 26km/h | 2640m | 4.7m/s | 10.7°C | 42.6% | 0hPa | 3V | 00:00:00 | 00:32:35 | 00:00:00 | |
| IW2NTF | 2026-08-30 10:08:41 | 44.53813 | 7.61092 | 16° | 20km/h | 2607m | 4.4m/s | 11°C | 42.3% | 0hPa | 3V | 00:00:00 | 00:32:29 | 00:00:00 | |
| IW2NTF | 2026-08-30 10:08:35 | 44.53786 | 7.61061 | 58° | 22km/h | 2580m | 5.5m/s | 11.2°C | 42.1% | 0hPa | 3V | 00:00:00 | 00:32:23 | 00:00:00 | |
| IW2NTF | 2026-08-30 10:08:29 | 44.53769 | 7.61047 | 358° | 5km/h | 2543m | 5.1m/s | 11.5°C | 42.3% | 0hPa | 3V | 00:00:00 | 00:32:17 | 00:00:00 | |
| IW2NTF | 2026-08-30 10:08:23 | 44.53757 | 7.61027 | 55° | 11km/h | 2512m | 7m/s | 11.7°C | 44% | 0hPa | 3V | 00:00:00 | 00:32:11 | 00:00:00 | |
| IW2NTF | 2026-08-30 10:08:17 | 44.53749 | 7.61014 | 49° | 15km/h | 2479m | 5.1m/s | 11.8°C | 48.7% | 0hPa | 3V | 00:00:00 | 00:32:05 | 00:00:00 | |
| IW2NTF | 2026-08-30 10:08:11 | 44.53728 | 7.61003 | 336° | 9km/h | 2451m | 5m/s | 11.6°C | 55.2% | 0hPa | 3V | 00:00:00 | 00:31:59 | 00:00:00 | |
| IW2NTF | 2026-08-30 10:08:05 | 44.53718 | 7.61006 | 36° | 11km/h | 2421m | 5.1m/s | 11.7°C | 54.9% | 0hPa | 3V | 00:00:00 | 00:31:53 | 00:00:00 | |
| IW2NTF | 2026-08-30 10:07:59 | 44.53699 | 7.60985 | 24° | 18km/h | 2389m | 6.4m/s | 11.5°C | 58.5% | 0hPa | 3V | 00:00:00 | 00:31:47 | 00:00:00 | |
| IW2NTF | 2026-08-30 10:07:53 | 44.53674 | 7.60973 | 20° | 16km/h | 2357m | 5.3m/s | 11.6°C | 0% | 0hPa | 3V | 00:00:00 | 00:31:41 | 00:00:00 | |
| IW2NTF | 2026-08-30 10:07:47 | 44.53656 | 7.60971 | 334° | 11km/h | 2328m | 4.4m/s | 11.8°C | 0% | 0hPa | 3V | 00:00:00 | 00:31:35 | 00:00:00 | |
| IW2NTF | 2026-08-30 10:07:33 | 44.53622 | 7.60965 | 352° | 18km/h | 2258m | 4.3m/s | 11.9°C | 0% | 0hPa | 3V | 00:00:00 | 00:31:21 | 00:00:00 | |
| IW2NTF | 2026-08-30 10:07:27 | 44.53601 | 7.60974 | 22° | 11km/h | 2228m | 6.2m/s | 11.9°C | 0% | 0hPa | 3V | 00:00:00 | 00:31:15 | 00:00:00 | |
| IW2NTF | 2026-08-30 10:07:21 | 44.53585 | 7.60964 | 355° | 13km/h | 2195m | 6.5m/s | 0°C | 0% | 0hPa | 3V | 00:00:00 | 00:31:09 | 00:00:00 | |
| IW2NTF | 2026-08-30 10:07:15 | 44.53565 | 7.60978 | 338° | 13km/h | 2163m | 4.2m/s | 12.4°C | 0% | 0hPa | 3V | 00:00:00 | 00:31:03 | 00:00:00 | |
| IW2NTF | 2026-08-30 10:07:09 | 44.53544 | 7.60977 | 346° | 15km/h | 2135m | 4.5m/s | 12.6°C | 0% | 0hPa | 3V | 00:00:00 | 00:30:57 | 00:00:00 | |
| IW2NTF | 2026-08-30 10:06:58 | 44.53537 | 7.60987 | 332° | 4km/h | 2108m | 4.7m/s | 12.8°C | 0% | 0hPa | 3V | 00:00:00 | 00:30:51 | 00:00:00 | |
| IW2NTF | 2026-08-30 10:06:58 | 44.53527 | 7.60995 | 323° | 13km/h | 2082m | 6.3m/s | 12.9°C | 0% | 0hPa | 3V | 00:00:00 | 00:30:46 | 00:00:00 | |
| IW2NTF | 2026-08-30 10:06:52 | 44.53514 | 7.61000 | 321° | 4km/h | 2054m | 5.3m/s | 0°C | 0% | 0hPa | 3V | 00:00:00 | 00:30:40 | 00:00:00 | |
| IW2NTF | 2026-08-30 10:06:46 | 44.53507 | 7.61011 | 318° | 7km/h | 2027m | 5.5m/s | 0°C | 0% | 0hPa | 3V | 00:00:00 | 00:30:34 | 00:00:00 | |
| IW2NTF | 2026-08-30 10:06:36 | 44.53495 | 7.61023 | 24° | 9km/h | 2000m | 4.3m/s | 0°C | 0% | 0hPa | 3V | 00:00:00 | 00:30:28 | 00:00:00 | |
| IW2NTF | 2026-08-30 10:06:36 | 44.53491 | 7.61019 | 42° | 7km/h | 1992m | 4m/s | 0°C | 0% | 0hPa | 3V | 00:00:00 | 00:30:26 | 00:00:00 | |
| IW2NTF | 2026-08-30 10:06:36 | 44.53488 | 7.61017 | 342° | 5km/h | 1980m | 6.7m/s | 0°C | 0% | 0hPa | 3V | 00:00:00 | 00:30:24 | 00:00:00 | |
| IW2NTF | 2026-08-30 10:06:29 | 44.53485 | 7.61021 | 314° | 13km/h | 1969m | 4.5m/s | 0°C | 0% | 0hPa | 3V | 00:00:00 | 00:30:22 | 00:00:00 | |
| IW2NTF | 2026-08-30 10:06:29 | 44.53481 | 7.61028 | 304° | 11km/h | 1960m | 5.2m/s | 0°C | 0% | 0hPa | 3V | 00:00:00 | 00:30:20 | 00:00:00 | |
| IW2NTF | 2026-08-30 10:06:29 | 44.53480 | 7.61034 | 175° | 2km/h | 1941m | 4.3m/s | 0°C | 0% | 0hPa | 3V | 00:00:00 | 00:30:16 | 00:00:00 | |
| IW2NTF | 2026-08-30 10:06:23 | 44.53480 | 7.61035 | 288° | 5km/h | 1929m | 6.9m/s | 0°C | 0% | 0hPa | 3V | 00:00:00 | 00:30:14 | 00:00:00 | |
| IW2NTF | 2026-08-30 10:06:23 | 44.53477 | 7.61039 | 315° | 11km/h | 1918m | 4.3m/s | 0°C | 0% | 0hPa | 3V | 00:00:00 | 00:30:12 | 00:00:00 | |
| IW2NTF | 2026-08-30 10:06:23 | 44.53473 | 7.61046 | 317° | 15km/h | 1908m | 6.7m/s | 0°C | 0% | 0hPa | 3V | 00:00:00 | 00:30:10 | 00:00:00 | |
| IW2NTF | 2026-08-30 10:06:16 | 44.53469 | 7.61052 | 311° | 9km/h | 1898m | 4.4m/s | 0°C | 0% | 0hPa | 3V | 00:00:00 | 00:30:08 | 00:00:00 | |
| IW2NTF | 2026-08-30 10:06:16 | 44.53467 | 7.61057 | 285° | 7km/h | 1889m | 6.9m/s | 0°C | 0% | 0hPa | 3V | 00:00:00 | 00:30:06 | 00:00:00 | |
| IW2NTF | 2026-08-30 10:06:16 | 44.53467 | 7.61061 | 262° | 2km/h | 1876m | 5.1m/s | 0°C | 0% | 0hPa | 3V | 00:00:00 | 00:30:04 | 00:00:00 | |
| IW2NTF | 2026-08-30 10:06:10 | 44.53468 | 7.61062 | 176° | 2km/h | 1868m | 4.7m/s | 0°C | 0% | 0hPa | 3V | 00:00:00 | 00:30:02 | 00:00:00 | |
| IW2NTF | 2026-08-30 10:06:10 | 44.53468 | 7.61063 | 283° | 4km/h | 1856m | 6.4m/s | 0°C | 0% | 0hPa | 3V | 00:00:00 | 00:30:00 | 00:00:00 | |
| IW2NTF | 2026-08-30 10:06:10 | 44.53467 | 7.61066 | 291° | 7km/h | 1846m | 4.9m/s | 0°C | 0% | 0hPa | 3V | 00:00:00 | 00:29:58 | 00:00:00 | |
| IW2NTF | 2026-08-30 10:06:04 | 44.53465 | 7.61072 | 290° | 9km/h | 1834m | 7.3m/s | 0°C | 0% | 0hPa | 3V | 00:00:00 | 00:29:56 | 00:00:00 | |
| IW2NTF | 2026-08-30 10:06:04 | 44.53464 | 7.61077 | 274° | 5km/h | 1822m | 4.8m/s | 0°C | 0% | 0hPa | 3V | 00:00:00 | 00:29:54 | 00:00:00 | |
| IW2NTF | 2026-08-30 10:06:04 | 44.53465 | 7.61080 | 206° | 5km/h | 1813m | 5.5m/s | 0°C | 0% | 0hPa | 3V | 00:00:00 | 00:29:52 | 00:00:00 | |
| IW2NTF | 2026-08-30 10:05:59 | 44.53468 | 7.61081 | 205° | 4km/h | 1803m | 5m/s | 0°C | 0% | 0hPa | 3V | 00:00:00 | 00:29:50 | 00:00:00 | |
| IW2NTF | 2026-08-30 10:05:59 | 44.53469 | 7.61083 | 224° | 5km/h | 1794m | 6.5m/s | 0°C | 0% | 0hPa | 3V | 00:00:00 | 00:29:48 | 00:00:00 | |
| IW2NTF | 2026-08-30 10:05:59 | 44.53470 | 7.61088 | 249° | 7km/h | 1781m | 6.1m/s | 0°C | 0% | 0hPa | 3V | 00:00:00 | 00:29:46 | 00:00:00 | |
| IW2NTF | 2026-08-30 10:05:52 | 44.53473 | 7.61098 | 243° | 7km/h | 1759m | 6.7m/s | 0°C | 0% | 0hPa | 3V | 00:00:00 | 00:29:42 | 00:00:00 | |
| IW2NTF | 2026-08-30 10:05:52 | 44.53476 | 7.61101 | 208° | 9km/h | 1749m | 4.8m/s | 0°C | 0% | 0hPa | 3V | 00:00:00 | 00:29:40 | 00:00:00 | |
| IW2NTF | 2026-08-30 10:05:46 | 44.53480 | 7.61103 | 190° | 11km/h | 1741m | 6m/s | 0°C | 0% | 0hPa | 3V | 00:00:00 | 00:29:38 | 00:00:00 | |
| IW2NTF | 2026-08-30 10:05:46 | 44.53484 | 7.61105 | 191° | 9km/h | 1729m | 5m/s | 0°C | 0% | 0hPa | 3V | 00:00:00 | 00:29:36 | 00:00:00 | |
| IW2NTF | 2026-08-30 10:05:46 | 44.53489 | 7.61107 | 205° | 7km/h | 1721m | 4m/s | 0°C | 0% | 0hPa | 3V | 00:00:00 | 00:29:34 | 00:00:00 |